<?xml version='1.0' encoding='UTF-8'?><gpx version="1.1" creator="JPX - https://github.com/jenetics/jpx" xmlns="http://www.topografix.com/GPX/1/1"><trk><trkseg><trkpt lat="43.6891693" lon="13.0960833"><ele>192.99999999999997</ele><time>2026-04-26T13:55:57.918Z</time></trkpt><trkpt lat="43.6892331" lon="13.0961439"><ele>193.0</ele><time>2026-04-26T13:55:59.917Z</time></trkpt><trkpt lat="43.6893206" lon="13.0962362"><ele>193.0</ele><time>2026-04-26T13:56:01.918Z</time></trkpt><trkpt lat="43.6893869" lon="13.0963044"><ele>193.0</ele><time>2026-04-26T13:56:03.918Z</time></trkpt><trkpt lat="43.6894588" lon="13.0963024"><ele>192.99999999999997</ele><time>2026-04-26T13:56:11.918Z</time></trkpt><trkpt lat="43.6895128" lon="13.0962358"><ele>193.0</ele><time>2026-04-26T13:56:12.917Z</time></trkpt><trkpt lat="43.6895608" lon="13.0961394"><ele>193.2</ele><time>2026-04-26T13:56:13.917Z</time></trkpt><trkpt lat="43.689607" lon="13.0960337"><ele>193.4</ele><time>2026-04-26T13:56:14.917Z</time></trkpt><trkpt lat="43.6896457" lon="13.0959088"><ele>193.6</ele><time>2026-04-26T13:56:15.917Z</time></trkpt><trkpt lat="43.689698" lon="13.0958029"><ele>193.79999999999998</ele><time>2026-04-26T13:56:16.917Z</time></trkpt><trkpt lat="43.6897496" lon="13.0956931"><ele>194.0</ele><time>2026-04-26T13:56:17.919Z</time></trkpt><trkpt lat="43.689803" lon="13.0955784"><ele>194.0</ele><time>2026-04-26T13:56:18.917Z</time></trkpt><trkpt lat="43.6898606" lon="13.0954618"><ele>194.0</ele><time>2026-04-26T13:56:19.918Z</time></trkpt><trkpt lat="43.6899201" lon="13.095327"><ele>194.0</ele><time>2026-04-26T13:56:20.917Z</time></trkpt><trkpt lat="43.6899939" lon="13.0951732"><ele>194.0</ele><time>2026-04-26T13:56:21.921Z</time></trkpt><trkpt lat="43.6900662" lon="13.0950204"><ele>195.0</ele><time>2026-04-26T13:56:22.917Z</time></trkpt><trkpt lat="43.6901434" lon="13.0948541"><ele>196.0</ele><time>2026-04-26T13:56:23.917Z</time></trkpt><trkpt lat="43.6902204" lon="13.0946915"><ele>197.0</ele><time>2026-04-26T13:56:24.918Z</time></trkpt><trkpt lat="43.6903012" lon="13.0945083"><ele>198.0</ele><time>2026-04-26T13:56:25.918Z</time></trkpt><trkpt lat="43.6903758" lon="13.0943369"><ele>194.66666666666666</ele><time>2026-04-26T13:56:26.917Z</time></trkpt><trkpt lat="43.6904574" lon="13.0941585"><ele>191.33333333333331</ele><time>2026-04-26T13:56:27.92Z</time></trkpt><trkpt lat="43.6905479" lon="13.0939821"><ele>188.0</ele><time>2026-04-26T13:56:28.917Z</time></trkpt><trkpt lat="43.6906409" lon="13.0938076"><ele>188.0</ele><time>2026-04-26T13:56:29.918Z</time></trkpt><trkpt lat="43.6907432" lon="13.093633"><ele>188.0</ele><time>2026-04-26T13:56:30.921Z</time></trkpt><trkpt lat="43.6908556" lon="13.0934722"><ele>188.0</ele><time>2026-04-26T13:56:31.917Z</time></trkpt><trkpt lat="43.6909792" lon="13.0933169"><ele>187.0</ele><time>2026-04-26T13:56:32.917Z</time></trkpt><trkpt lat="43.6911098" lon="13.0931819"><ele>186.0</ele><time>2026-04-26T13:56:33.917Z</time></trkpt><trkpt lat="43.6912478" lon="13.093048"><ele>185.0</ele><time>2026-04-26T13:56:34.917Z</time></trkpt><trkpt lat="43.6913885" lon="13.0929311"><ele>185.0</ele><time>2026-04-26T13:56:35.919Z</time></trkpt><trkpt lat="43.6915387" lon="13.0928256"><ele>185.0</ele><time>2026-04-26T13:56:36.918Z</time></trkpt><trkpt lat="43.691696" lon="13.0927345"><ele>185.0</ele><time>2026-04-26T13:56:37.921Z</time></trkpt><trkpt lat="43.6918586" lon="13.0926468"><ele>179.66666666666666</ele><time>2026-04-26T13:56:38.919Z</time></trkpt><trkpt lat="43.6920293" lon="13.0925746"><ele>174.33333333333334</ele><time>2026-04-26T13:56:39.917Z</time></trkpt><trkpt lat="43.6922109" lon="13.0925301"><ele>169.0</ele><time>2026-04-26T13:56:40.918Z</time></trkpt><trkpt lat="43.6923957" lon="13.0925038"><ele>169.0</ele><time>2026-04-26T13:56:41.918Z</time></trkpt><trkpt lat="43.6925877" lon="13.0924823"><ele>169.0</ele><time>2026-04-26T13:56:42.916Z</time></trkpt><trkpt lat="43.6927858" lon="13.0924762"><ele>169.0</ele><time>2026-04-26T13:56:43.916Z</time></trkpt><trkpt lat="43.6929833" lon="13.0924644"><ele>166.66666666666669</ele><time>2026-04-26T13:56:44.917Z</time></trkpt><trkpt lat="43.6931844" lon="13.0924619"><ele>164.33333333333334</ele><time>2026-04-26T13:56:45.919Z</time></trkpt><trkpt lat="43.6933869" lon="13.0924424"><ele>162.0</ele><time>2026-04-26T13:56:46.916Z</time></trkpt><trkpt lat="43.6935875" lon="13.0924329"><ele>160.0</ele><time>2026-04-26T13:56:47.918Z</time></trkpt><trkpt lat="43.6937896" lon="13.0924194"><ele>158.0</ele><time>2026-04-26T13:56:48.92Z</time></trkpt><trkpt lat="43.6939896" lon="13.0924021"><ele>156.0</ele><time>2026-04-26T13:56:49.917Z</time></trkpt><trkpt lat="43.6941847" lon="13.0923922"><ele>156.0</ele><time>2026-04-26T13:56:50.918Z</time></trkpt><trkpt lat="43.694378" lon="13.0923838"><ele>156.0</ele><time>2026-04-26T13:56:51.918Z</time></trkpt><trkpt lat="43.6945664" lon="13.0923711"><ele>156.0</ele><time>2026-04-26T13:56:52.917Z</time></trkpt><trkpt lat="43.6947473" lon="13.0923633"><ele>157.0</ele><time>2026-04-26T13:56:53.917Z</time></trkpt><trkpt lat="43.6949192" lon="13.0923563"><ele>158.0</ele><time>2026-04-26T13:56:54.918Z</time></trkpt><trkpt lat="43.6950815" lon="13.0923485"><ele>159.0</ele><time>2026-04-26T13:56:55.918Z</time></trkpt><trkpt lat="43.6952268" lon="13.0923482"><ele>160.0</ele><time>2026-04-26T13:56:56.919Z</time></trkpt><trkpt lat="43.6953605" lon="13.0923383"><ele>161.0</ele><time>2026-04-26T13:56:57.918Z</time></trkpt><trkpt lat="43.6954845" lon="13.092326"><ele>162.0</ele><time>2026-04-26T13:56:58.919Z</time></trkpt><trkpt lat="43.6956006" lon="13.0923041"><ele>163.0</ele><time>2026-04-26T13:56:59.919Z</time></trkpt><trkpt lat="43.6957174" lon="13.0922819"><ele>163.0</ele><time>2026-04-26T13:57:00.918Z</time></trkpt><trkpt lat="43.6958356" lon="13.0922569"><ele>163.0</ele><time>2026-04-26T13:57:01.92Z</time></trkpt><trkpt lat="43.6959587" lon="13.0922327"><ele>163.0</ele><time>2026-04-26T13:57:02.917Z</time></trkpt><trkpt lat="43.6960794" lon="13.0922074"><ele>163.0</ele><time>2026-04-26T13:57:03.919Z</time></trkpt><trkpt lat="43.6962199" lon="13.0921783"><ele>162.25</ele><time>2026-04-26T13:57:04.919Z</time></trkpt><trkpt lat="43.6963575" lon="13.0921511"><ele>161.5</ele><time>2026-04-26T13:57:05.919Z</time></trkpt><trkpt lat="43.6964941" lon="13.0921215"><ele>160.75</ele><time>2026-04-26T13:57:06.917Z</time></trkpt><trkpt lat="43.6966344" lon="13.0920908"><ele>160.0</ele><time>2026-04-26T13:57:07.92Z</time></trkpt><trkpt lat="43.6967719" lon="13.0920684"><ele>160.0</ele><time>2026-04-26T13:57:08.918Z</time></trkpt><trkpt lat="43.6969014" lon="13.0920431"><ele>160.0</ele><time>2026-04-26T13:57:09.918Z</time></trkpt><trkpt lat="43.6970191" lon="13.0920198"><ele>160.0</ele><time>2026-04-26T13:57:10.918Z</time></trkpt><trkpt lat="43.6971267" lon="13.0920063"><ele>160.0</ele><time>2026-04-26T13:57:11.917Z</time></trkpt><trkpt lat="43.6972198" lon="13.0919845"><ele>159.33333333333334</ele><time>2026-04-26T13:57:12.917Z</time></trkpt><trkpt lat="43.6973" lon="13.0919713"><ele>158.66666666666669</ele><time>2026-04-26T13:57:13.918Z</time></trkpt><trkpt lat="43.6973711" lon="13.0919526"><ele>158.0</ele><time>2026-04-26T13:57:14.918Z</time></trkpt><trkpt lat="43.6974388" lon="13.0918275"><ele>157.33333333333334</ele><time>2026-04-26T13:57:16.917Z</time></trkpt><trkpt lat="43.697429" lon="13.0917299"><ele>156.66666666666666</ele><time>2026-04-26T13:57:17.917Z</time></trkpt><trkpt lat="43.697397" lon="13.0916316"><ele>156.0</ele><time>2026-04-26T13:57:18.917Z</time></trkpt><trkpt lat="43.6973631" lon="13.0914956"><ele>155.5</ele><time>2026-04-26T13:57:19.917Z</time></trkpt><trkpt lat="43.6973297" lon="13.091348"><ele>155.0</ele><time>2026-04-26T13:57:20.917Z</time></trkpt><trkpt lat="43.6972914" lon="13.0911986"><ele>154.5</ele><time>2026-04-26T13:57:21.918Z</time></trkpt><trkpt lat="43.6972409" lon="13.0910376"><ele>154.0</ele><time>2026-04-26T13:57:22.917Z</time></trkpt><trkpt lat="43.697185" lon="13.0908678"><ele>152.0</ele><time>2026-04-26T13:57:23.917Z</time></trkpt><trkpt lat="43.6971218" lon="13.0906966"><ele>150.0</ele><time>2026-04-26T13:57:24.917Z</time></trkpt><trkpt lat="43.6970578" lon="13.0905346"><ele>148.0</ele><time>2026-04-26T13:57:25.917Z</time></trkpt><trkpt lat="43.6969964" lon="13.0903799"><ele>146.0</ele><time>2026-04-26T13:57:26.918Z</time></trkpt><trkpt lat="43.6969384" lon="13.0902287"><ele>145.0</ele><time>2026-04-26T13:57:27.917Z</time></trkpt><trkpt lat="43.6968796" lon="13.0900783"><ele>144.0</ele><time>2026-04-26T13:57:28.92Z</time></trkpt><trkpt lat="43.6968239" lon="13.0899309"><ele>143.0</ele><time>2026-04-26T13:57:29.917Z</time></trkpt><trkpt lat="43.6967645" lon="13.0897856"><ele>142.0</ele><time>2026-04-26T13:57:30.917Z</time></trkpt><trkpt lat="43.6966954" lon="13.0896464"><ele>139.0</ele><time>2026-04-26T13:57:31.916Z</time></trkpt><trkpt lat="43.6966145" lon="13.0895165"><ele>136.0</ele><time>2026-04-26T13:57:32.917Z</time></trkpt><trkpt lat="43.6965249" lon="13.089406"><ele>133.0</ele><time>2026-04-26T13:57:33.918Z</time></trkpt><trkpt lat="43.6964375" lon="13.0893175"><ele>130.0</ele><time>2026-04-26T13:57:34.917Z</time></trkpt><trkpt lat="43.6963526" lon="13.0892344"><ele>130.0</ele><time>2026-04-26T13:57:35.917Z</time></trkpt><trkpt lat="43.6962699" lon="13.0891482"><ele>130.0</ele><time>2026-04-26T13:57:36.929Z</time></trkpt><trkpt lat="43.6961959" lon="13.089076"><ele>130.0</ele><time>2026-04-26T13:57:37.917Z</time></trkpt><trkpt lat="43.6961499" lon="13.0889802"><ele>130.0</ele><time>2026-04-26T13:57:38.918Z</time></trkpt><trkpt lat="43.6961443" lon="13.0888759"><ele>130.0</ele><time>2026-04-26T13:57:39.918Z</time></trkpt><trkpt lat="43.6961658" lon="13.0887859"><ele>130.0</ele><time>2026-04-26T13:57:40.918Z</time></trkpt><trkpt lat="43.6962517" lon="13.0887451"><ele>128.33333333333334</ele><time>2026-04-26T13:57:41.917Z</time></trkpt><trkpt lat="43.6963333" lon="13.0887244"><ele>126.66666666666667</ele><time>2026-04-26T13:57:42.918Z</time></trkpt><trkpt lat="43.6964142" lon="13.0887062"><ele>125.0</ele><time>2026-04-26T13:57:43.918Z</time></trkpt><trkpt lat="43.6964882" lon="13.0886868"><ele>123.33333333333334</ele><time>2026-04-26T13:57:44.921Z</time></trkpt><trkpt lat="43.6965413" lon="13.0886232"><ele>121.66666666666667</ele><time>2026-04-26T13:57:45.918Z</time></trkpt><trkpt lat="43.6965587" lon="13.0885276"><ele>120.0</ele><time>2026-04-26T13:57:46.917Z</time></trkpt><trkpt lat="43.6965624" lon="13.0884115"><ele>120.0</ele><time>2026-04-26T13:57:47.918Z</time></trkpt><trkpt lat="43.696519" lon="13.0882779"><ele>120.0</ele><time>2026-04-26T13:57:48.918Z</time></trkpt><trkpt lat="43.6965271" lon="13.0881338"><ele>120.0</ele><time>2026-04-26T13:57:49.92Z</time></trkpt><trkpt lat="43.6965489" lon="13.0879847"><ele>120.0</ele><time>2026-04-26T13:57:50.918Z</time></trkpt><trkpt lat="43.6966021" lon="13.0878602"><ele>120.0</ele><time>2026-04-26T13:57:51.917Z</time></trkpt><trkpt lat="43.6966456" lon="13.0877347"><ele>118.2</ele><time>2026-04-26T13:57:52.918Z</time></trkpt><trkpt lat="43.6966954" lon="13.0875979"><ele>116.4</ele><time>2026-04-26T13:57:53.918Z</time></trkpt><trkpt lat="43.6966546" lon="13.0874434"><ele>114.6</ele><time>2026-04-26T13:57:54.919Z</time></trkpt><trkpt lat="43.6966528" lon="13.0872959"><ele>112.8</ele><time>2026-04-26T13:57:55.919Z</time></trkpt><trkpt lat="43.6966583" lon="13.0871526"><ele>111.0</ele><time>2026-04-26T13:57:56.917Z</time></trkpt><trkpt lat="43.6966748" lon="13.0870216"><ele>109.83333333333333</ele><time>2026-04-26T13:57:57.918Z</time></trkpt><trkpt lat="43.6967034" lon="13.0869058"><ele>108.66666666666666</ele><time>2026-04-26T13:57:58.918Z</time></trkpt><trkpt lat="43.6967434" lon="13.0868131"><ele>107.5</ele><time>2026-04-26T13:57:59.918Z</time></trkpt><trkpt lat="43.6968142" lon="13.086751"><ele>106.33333333333333</ele><time>2026-04-26T13:58:00.918Z</time></trkpt><trkpt lat="43.696911" lon="13.0867484"><ele>105.16666666666666</ele><time>2026-04-26T13:58:01.917Z</time></trkpt><trkpt lat="43.697008" lon="13.0867822"><ele>104.0</ele><time>2026-04-26T13:58:02.918Z</time></trkpt><trkpt lat="43.697089" lon="13.0868759"><ele>101.33333333333333</ele><time>2026-04-26T13:58:03.918Z</time></trkpt><trkpt lat="43.6971669" lon="13.0869758"><ele>98.66666666666666</ele><time>2026-04-26T13:58:04.917Z</time></trkpt><trkpt lat="43.6972453" lon="13.0870534"><ele>96.0</ele><time>2026-04-26T13:58:05.918Z</time></trkpt><trkpt lat="43.6973208" lon="13.0871254"><ele>93.33333333333333</ele><time>2026-04-26T13:58:06.917Z</time></trkpt><trkpt lat="43.6973819" lon="13.0871859"><ele>90.66666666666666</ele><time>2026-04-26T13:58:07.924Z</time></trkpt><trkpt lat="43.6974544" lon="13.0872008"><ele>88.0</ele><time>2026-04-26T13:58:08.918Z</time></trkpt><trkpt lat="43.6975208" lon="13.0871572"><ele>88.0</ele><time>2026-04-26T13:58:09.917Z</time></trkpt><trkpt lat="43.6975801" lon="13.087101"><ele>88.0</ele><time>2026-04-26T13:58:10.917Z</time></trkpt><trkpt lat="43.6975998" lon="13.0869942"><ele>88.0</ele><time>2026-04-26T13:58:11.918Z</time></trkpt><trkpt lat="43.6976205" lon="13.0867915"><ele>88.0</ele><time>2026-04-26T13:58:12.919Z</time></trkpt><trkpt lat="43.6976383" lon="13.0866573"><ele>88.0</ele><time>2026-04-26T13:58:13.917Z</time></trkpt><trkpt lat="43.6976455" lon="13.0865202"><ele>86.33333333333333</ele><time>2026-04-26T13:58:14.918Z</time></trkpt><trkpt lat="43.6976375" lon="13.0863946"><ele>84.66666666666666</ele><time>2026-04-26T13:58:15.917Z</time></trkpt><trkpt lat="43.6976191" lon="13.0862822"><ele>83.0</ele><time>2026-04-26T13:58:16.917Z</time></trkpt><trkpt lat="43.6975997" lon="13.0861924"><ele>81.33333333333333</ele><time>2026-04-26T13:58:17.919Z</time></trkpt><trkpt lat="43.6975736" lon="13.086055"><ele>79.66666666666667</ele><time>2026-04-26T13:58:19.917Z</time></trkpt><trkpt lat="43.6976325" lon="13.0859981"><ele>78.0</ele><time>2026-04-26T13:58:21.92Z</time></trkpt><trkpt lat="43.6977276" lon="13.0861049"><ele>75.8</ele><time>2026-04-26T13:58:23.921Z</time></trkpt><trkpt lat="43.6977861" lon="13.0861974"><ele>73.6</ele><time>2026-04-26T13:58:24.919Z</time></trkpt><trkpt lat="43.6978589" lon="13.0862925"><ele>71.4</ele><time>2026-04-26T13:58:25.917Z</time></trkpt><trkpt lat="43.6979544" lon="13.0863863"><ele>69.2</ele><time>2026-04-26T13:58:26.917Z</time></trkpt><trkpt lat="43.698071" lon="13.0864559"><ele>67.0</ele><time>2026-04-26T13:58:27.919Z</time></trkpt><trkpt lat="43.698204" lon="13.0864965"><ele>67.0</ele><time>2026-04-26T13:58:28.923Z</time></trkpt><trkpt lat="43.698342" lon="13.0865077"><ele>67.0</ele><time>2026-04-26T13:58:29.917Z</time></trkpt><trkpt lat="43.6984871" lon="13.0865176"><ele>67.0</ele><time>2026-04-26T13:58:30.919Z</time></trkpt><trkpt lat="43.698646" lon="13.0865365"><ele>67.0</ele><time>2026-04-26T13:58:31.919Z</time></trkpt><trkpt lat="43.6988181" lon="13.0865544"><ele>65.66666666666666</ele><time>2026-04-26T13:58:32.919Z</time></trkpt><trkpt lat="43.6989976" lon="13.0865716"><ele>64.33333333333333</ele><time>2026-04-26T13:58:33.917Z</time></trkpt><trkpt lat="43.6991827" lon="13.0865925"><ele>63.0</ele><time>2026-04-26T13:58:34.917Z</time></trkpt><trkpt lat="43.6993685" lon="13.0866176"><ele>61.66666666666667</ele><time>2026-04-26T13:58:35.918Z</time></trkpt><trkpt lat="43.6995497" lon="13.0866449"><ele>60.333333333333336</ele><time>2026-04-26T13:58:36.92Z</time></trkpt><trkpt lat="43.6997245" lon="13.0866672"><ele>59.0</ele><time>2026-04-26T13:58:37.92Z</time></trkpt><trkpt lat="43.6998924" lon="13.0866824"><ele>59.0</ele><time>2026-04-26T13:58:38.917Z</time></trkpt><trkpt lat="43.700044" lon="13.0866853"><ele>59.0</ele><time>2026-04-26T13:58:39.917Z</time></trkpt><trkpt lat="43.7001756" lon="13.0866769"><ele>59.0</ele><time>2026-04-26T13:58:40.919Z</time></trkpt><trkpt lat="43.7002873" lon="13.0866657"><ele>59.0</ele><time>2026-04-26T13:58:41.922Z</time></trkpt><trkpt lat="43.7003766" lon="13.0866746"><ele>58.333333333333336</ele><time>2026-04-26T13:58:42.919Z</time></trkpt><trkpt lat="43.7004555" lon="13.0866995"><ele>57.66666666666667</ele><time>2026-04-26T13:58:43.918Z</time></trkpt><trkpt lat="43.7005269" lon="13.0867213"><ele>57.0</ele><time>2026-04-26T13:58:44.919Z</time></trkpt><trkpt lat="43.7005978" lon="13.0867214"><ele>56.33333333333333</ele><time>2026-04-26T13:58:45.919Z</time></trkpt><trkpt lat="43.7006572" lon="13.0866848"><ele>55.666666666666664</ele><time>2026-04-26T13:58:46.918Z</time></trkpt><trkpt lat="43.7006879" lon="13.0865821"><ele>55.0</ele><time>2026-04-26T13:58:47.918Z</time></trkpt><trkpt lat="43.700695" lon="13.0864462"><ele>53.75</ele><time>2026-04-26T13:58:48.917Z</time></trkpt><trkpt lat="43.7007062" lon="13.0862891"><ele>52.5</ele><time>2026-04-26T13:58:49.918Z</time></trkpt><trkpt lat="43.7007556" lon="13.0861154"><ele>51.25</ele><time>2026-04-26T13:58:50.918Z</time></trkpt><trkpt lat="43.7008415" lon="13.0859473"><ele>50.0</ele><time>2026-04-26T13:58:51.917Z</time></trkpt><trkpt lat="43.7009337" lon="13.0857791"><ele>50.0</ele><time>2026-04-26T13:58:52.919Z</time></trkpt><trkpt lat="43.7010646" lon="13.085626"><ele>50.0</ele><time>2026-04-26T13:58:53.918Z</time></trkpt><trkpt lat="43.7012094" lon="13.0855069"><ele>50.0</ele><time>2026-04-26T13:58:54.918Z</time></trkpt><trkpt lat="43.7013687" lon="13.0854013"><ele>50.0</ele><time>2026-04-26T13:58:55.918Z</time></trkpt><trkpt lat="43.7015385" lon="13.0853001"><ele>50.0</ele><time>2026-04-26T13:58:56.917Z</time></trkpt><trkpt lat="43.7017106" lon="13.0851956"><ele>50.0</ele><time>2026-04-26T13:58:57.917Z</time></trkpt><trkpt lat="43.7018877" lon="13.0850906"><ele>50.0</ele><time>2026-04-26T13:58:58.918Z</time></trkpt><trkpt lat="43.7020716" lon="13.0849881"><ele>50.0</ele><time>2026-04-26T13:58:59.917Z</time></trkpt><trkpt lat="43.7022527" lon="13.0848833"><ele>50.0</ele><time>2026-04-26T13:59:00.917Z</time></trkpt><trkpt lat="43.7024378" lon="13.0847743"><ele>50.0</ele><time>2026-04-26T13:59:01.917Z</time></trkpt><trkpt lat="43.70262" lon="13.0846687"><ele>50.0</ele><time>2026-04-26T13:59:02.918Z</time></trkpt><trkpt lat="43.7028045" lon="13.0845614"><ele>50.0</ele><time>2026-04-26T13:59:03.918Z</time></trkpt><trkpt lat="43.7029838" lon="13.0844587"><ele>50.0</ele><time>2026-04-26T13:59:04.917Z</time></trkpt><trkpt lat="43.7031497" lon="13.0843622"><ele>50.0</ele><time>2026-04-26T13:59:05.918Z</time></trkpt><trkpt lat="43.7033056" lon="13.0842703"><ele>50.0</ele><time>2026-04-26T13:59:06.917Z</time></trkpt><trkpt lat="43.7034511" lon="13.0841841"><ele>50.0</ele><time>2026-04-26T13:59:07.918Z</time></trkpt><trkpt lat="43.7035864" lon="13.0841019"><ele>50.0</ele><time>2026-04-26T13:59:08.918Z</time></trkpt><trkpt lat="43.7037138" lon="13.0840295"><ele>50.0</ele><time>2026-04-26T13:59:09.917Z</time></trkpt><trkpt lat="43.7038385" lon="13.0839604"><ele>50.0</ele><time>2026-04-26T13:59:10.917Z</time></trkpt><trkpt lat="43.7039651" lon="13.0838905"><ele>50.0</ele><time>2026-04-26T13:59:11.918Z</time></trkpt><trkpt lat="43.7040972" lon="13.0838264"><ele>50.0</ele><time>2026-04-26T13:59:12.917Z</time></trkpt><trkpt lat="43.7042337" lon="13.0837439"><ele>50.0</ele><time>2026-04-26T13:59:13.918Z</time></trkpt><trkpt lat="43.7043696" lon="13.0836549"><ele>50.0</ele><time>2026-04-26T13:59:14.917Z</time></trkpt><trkpt lat="43.7045034" lon="13.0835558"><ele>49.5</ele><time>2026-04-26T13:59:15.917Z</time></trkpt><trkpt lat="43.704617" lon="13.083429"><ele>49.0</ele><time>2026-04-26T13:59:16.917Z</time></trkpt><trkpt lat="43.7047267" lon="13.0832849"><ele>48.5</ele><time>2026-04-26T13:59:17.923Z</time></trkpt><trkpt lat="43.7048283" lon="13.0831435"><ele>48.0</ele><time>2026-04-26T13:59:18.917Z</time></trkpt><trkpt lat="43.7049258" lon="13.0829895"><ele>48.0</ele><time>2026-04-26T13:59:19.917Z</time></trkpt><trkpt lat="43.7050253" lon="13.0828375"><ele>48.0</ele><time>2026-04-26T13:59:20.918Z</time></trkpt><trkpt lat="43.7051252" lon="13.0826876"><ele>48.0</ele><time>2026-04-26T13:59:21.918Z</time></trkpt><trkpt lat="43.7052216" lon="13.0825378"><ele>48.0</ele><time>2026-04-26T13:59:22.919Z</time></trkpt><trkpt lat="43.7053234" lon="13.0823857"><ele>46.666666666666664</ele><time>2026-04-26T13:59:23.917Z</time></trkpt><trkpt lat="43.7054271" lon="13.0822271"><ele>45.33333333333333</ele><time>2026-04-26T13:59:24.918Z</time></trkpt><trkpt lat="43.7055324" lon="13.082073"><ele>44.0</ele><time>2026-04-26T13:59:25.918Z</time></trkpt><trkpt lat="43.7056339" lon="13.0819186"><ele>44.0</ele><time>2026-04-26T13:59:26.918Z</time></trkpt><trkpt lat="43.7057321" lon="13.0817628"><ele>44.0</ele><time>2026-04-26T13:59:27.917Z</time></trkpt><trkpt lat="43.7058276" lon="13.0816139"><ele>44.0</ele><time>2026-04-26T13:59:28.917Z</time></trkpt><trkpt lat="43.7059244" lon="13.0814597"><ele>44.0</ele><time>2026-04-26T13:59:29.918Z</time></trkpt><trkpt lat="43.7060241" lon="13.0813047"><ele>44.0</ele><time>2026-04-26T13:59:30.919Z</time></trkpt><trkpt lat="43.706126" lon="13.0811452"><ele>44.0</ele><time>2026-04-26T13:59:31.917Z</time></trkpt><trkpt lat="43.7062279" lon="13.0809848"><ele>44.0</ele><time>2026-04-26T13:59:32.918Z</time></trkpt><trkpt lat="43.7063398" lon="13.0808204"><ele>44.33333333333333</ele><time>2026-04-26T13:59:33.918Z</time></trkpt><trkpt lat="43.706449" lon="13.0806481"><ele>44.666666666666664</ele><time>2026-04-26T13:59:34.917Z</time></trkpt><trkpt lat="43.7065634" lon="13.0804752"><ele>45.0</ele><time>2026-04-26T13:59:35.919Z</time></trkpt><trkpt lat="43.7066746" lon="13.0803026"><ele>45.0</ele><time>2026-04-26T13:59:36.919Z</time></trkpt><trkpt lat="43.7067865" lon="13.0801355"><ele>45.0</ele><time>2026-04-26T13:59:37.918Z</time></trkpt><trkpt lat="43.7068969" lon="13.0799681"><ele>45.0</ele><time>2026-04-26T13:59:38.917Z</time></trkpt><trkpt lat="43.707004" lon="13.0798019"><ele>45.333333333333336</ele><time>2026-04-26T13:59:39.919Z</time></trkpt><trkpt lat="43.7071085" lon="13.0796379"><ele>45.66666666666667</ele><time>2026-04-26T13:59:40.918Z</time></trkpt><trkpt lat="43.7072096" lon="13.079476"><ele>46.0</ele><time>2026-04-26T13:59:41.918Z</time></trkpt><trkpt lat="43.7073108" lon="13.0793213"><ele>46.0</ele><time>2026-04-26T13:59:42.918Z</time></trkpt><trkpt lat="43.7074119" lon="13.0791676"><ele>46.0</ele><time>2026-04-26T13:59:43.917Z</time></trkpt><trkpt lat="43.7075107" lon="13.0790201"><ele>46.0</ele><time>2026-04-26T13:59:44.917Z</time></trkpt><trkpt lat="43.7076077" lon="13.0788667"><ele>46.0</ele><time>2026-04-26T13:59:45.917Z</time></trkpt><trkpt lat="43.7077038" lon="13.0787217"><ele>47.0</ele><time>2026-04-26T13:59:46.917Z</time></trkpt><trkpt lat="43.7077962" lon="13.0785821"><ele>48.0</ele><time>2026-04-26T13:59:47.923Z</time></trkpt><trkpt lat="43.7078882" lon="13.078438"><ele>49.0</ele><time>2026-04-26T13:59:48.917Z</time></trkpt><trkpt lat="43.7079854" lon="13.0782889"><ele>50.0</ele><time>2026-04-26T13:59:49.918Z</time></trkpt><trkpt lat="43.7080798" lon="13.0781361"><ele>50.0</ele><time>2026-04-26T13:59:50.918Z</time></trkpt><trkpt lat="43.7081769" lon="13.0779826"><ele>50.0</ele><time>2026-04-26T13:59:51.918Z</time></trkpt><trkpt lat="43.7082753" lon="13.0778304"><ele>50.0</ele><time>2026-04-26T13:59:52.917Z</time></trkpt><trkpt lat="43.7083758" lon="13.0776783"><ele>50.0</ele><time>2026-04-26T13:59:53.917Z</time></trkpt><trkpt lat="43.7084751" lon="13.0775268"><ele>49.75</ele><time>2026-04-26T13:59:54.923Z</time></trkpt><trkpt lat="43.7085691" lon="13.0773802"><ele>49.5</ele><time>2026-04-26T13:59:55.919Z</time></trkpt><trkpt lat="43.7086599" lon="13.0772405"><ele>49.25</ele><time>2026-04-26T13:59:56.919Z</time></trkpt><trkpt lat="43.7087487" lon="13.0771038"><ele>49.0</ele><time>2026-04-26T13:59:57.917Z</time></trkpt><trkpt lat="43.7088292" lon="13.076974"><ele>50.0</ele><time>2026-04-26T13:59:58.917Z</time></trkpt><trkpt lat="43.708909" lon="13.0768473"><ele>51.0</ele><time>2026-04-26T13:59:59.916Z</time></trkpt><trkpt lat="43.7089888" lon="13.0767199"><ele>52.0</ele><time>2026-04-26T14:00:00.918Z</time></trkpt><trkpt lat="43.7090663" lon="13.0765915"><ele>53.0</ele><time>2026-04-26T14:00:01.917Z</time></trkpt><trkpt lat="43.7091463" lon="13.0764734"><ele>53.0</ele><time>2026-04-26T14:00:02.919Z</time></trkpt><trkpt lat="43.7092236" lon="13.0763586"><ele>53.0</ele><time>2026-04-26T14:00:03.919Z</time></trkpt><trkpt lat="43.7092977" lon="13.0762478"><ele>53.0</ele><time>2026-04-26T14:00:04.917Z</time></trkpt><trkpt lat="43.7093659" lon="13.0761446"><ele>53.0</ele><time>2026-04-26T14:00:05.917Z</time></trkpt><trkpt lat="43.709437" lon="13.0760381"><ele>53.0</ele><time>2026-04-26T14:00:06.918Z</time></trkpt><trkpt lat="43.7095117" lon="13.0759211"><ele>53.2</ele><time>2026-04-26T14:00:07.923Z</time></trkpt><trkpt lat="43.7095827" lon="13.0758051"><ele>53.4</ele><time>2026-04-26T14:00:08.918Z</time></trkpt><trkpt lat="43.7096588" lon="13.0756901"><ele>53.60000000000001</ele><time>2026-04-26T14:00:09.919Z</time></trkpt><trkpt lat="43.7097288" lon="13.0755785"><ele>53.800000000000004</ele><time>2026-04-26T14:00:10.917Z</time></trkpt><trkpt lat="43.7097822" lon="13.0754803"><ele>54.0</ele><time>2026-04-26T14:00:11.918Z</time></trkpt><trkpt lat="43.7098701" lon="13.0753457"><ele>54.0</ele><time>2026-04-26T14:00:13.919Z</time></trkpt><trkpt lat="43.7099557" lon="13.0752208"><ele>54.0</ele><time>2026-04-26T14:00:15.918Z</time></trkpt><trkpt lat="43.7100047" lon="13.0751589"><ele>54.0</ele><time>2026-04-26T14:00:16.918Z</time></trkpt><trkpt lat="43.7100768" lon="13.0751091"><ele>54.0</ele><time>2026-04-26T14:00:17.92Z</time></trkpt><trkpt lat="43.7101559" lon="13.0750672"><ele>54.0</ele><time>2026-04-26T14:00:18.917Z</time></trkpt><trkpt lat="43.7102438" lon="13.0750241"><ele>54.0</ele><time>2026-04-26T14:00:19.918Z</time></trkpt><trkpt lat="43.7103335" lon="13.0749616"><ele>54.400000000000006</ele><time>2026-04-26T14:00:20.917Z</time></trkpt><trkpt lat="43.7104043" lon="13.074857"><ele>54.800000000000004</ele><time>2026-04-26T14:00:21.917Z</time></trkpt><trkpt lat="43.7104478" lon="13.0747179"><ele>55.199999999999996</ele><time>2026-04-26T14:00:22.918Z</time></trkpt><trkpt lat="43.7104544" lon="13.0745608"><ele>55.599999999999994</ele><time>2026-04-26T14:00:23.918Z</time></trkpt><trkpt lat="43.7104273" lon="13.0743974"><ele>56.0</ele><time>2026-04-26T14:00:24.918Z</time></trkpt><trkpt lat="43.7103561" lon="13.0742707"><ele>56.0</ele><time>2026-04-26T14:00:25.918Z</time></trkpt><trkpt lat="43.7102505" lon="13.074203"><ele>56.0</ele><time>2026-04-26T14:00:26.917Z</time></trkpt><trkpt lat="43.7101336" lon="13.0741622"><ele>56.0</ele><time>2026-04-26T14:00:27.918Z</time></trkpt><trkpt lat="43.7099947" lon="13.0741263"><ele>56.0</ele><time>2026-04-26T14:00:28.916Z</time></trkpt><trkpt lat="43.7098537" lon="13.0740655"><ele>56.0</ele><time>2026-04-26T14:00:29.918Z</time></trkpt><trkpt lat="43.7097157" lon="13.0739591"><ele>56.0</ele><time>2026-04-26T14:00:30.918Z</time></trkpt><trkpt lat="43.709581" lon="13.07383"><ele>56.0</ele><time>2026-04-26T14:00:31.918Z</time></trkpt><trkpt lat="43.7094506" lon="13.0736761"><ele>56.333333333333336</ele><time>2026-04-26T14:00:32.918Z</time></trkpt><trkpt lat="43.7093182" lon="13.0735083"><ele>56.66666666666667</ele><time>2026-04-26T14:00:33.918Z</time></trkpt><trkpt lat="43.7091791" lon="13.0733377"><ele>57.0</ele><time>2026-04-26T14:00:34.917Z</time></trkpt><trkpt lat="43.7090429" lon="13.0731649"><ele>58.33333333333333</ele><time>2026-04-26T14:00:35.918Z</time></trkpt><trkpt lat="43.7089059" lon="13.0729981"><ele>59.666666666666664</ele><time>2026-04-26T14:00:36.917Z</time></trkpt><trkpt lat="43.7087678" lon="13.0728287"><ele>61.0</ele><time>2026-04-26T14:00:37.919Z</time></trkpt><trkpt lat="43.7086288" lon="13.0726622"><ele>60.666666666666664</ele><time>2026-04-26T14:00:38.919Z</time></trkpt><trkpt lat="43.7084926" lon="13.0724933"><ele>60.33333333333333</ele><time>2026-04-26T14:00:39.917Z</time></trkpt><trkpt lat="43.7083565" lon="13.0723215"><ele>60.0</ele><time>2026-04-26T14:00:40.917Z</time></trkpt><trkpt lat="43.7082189" lon="13.0721491"><ele>62.0</ele><time>2026-04-26T14:00:41.918Z</time></trkpt><trkpt lat="43.7080811" lon="13.0719781"><ele>64.0</ele><time>2026-04-26T14:00:42.921Z</time></trkpt><trkpt lat="43.7079441" lon="13.071807"><ele>66.0</ele><time>2026-04-26T14:00:43.917Z</time></trkpt><trkpt lat="43.7078101" lon="13.0716321"><ele>66.33333333333333</ele><time>2026-04-26T14:00:44.917Z</time></trkpt><trkpt lat="43.7076746" lon="13.0714586"><ele>66.66666666666666</ele><time>2026-04-26T14:00:45.918Z</time></trkpt><trkpt lat="43.7075398" lon="13.0712821"><ele>67.0</ele><time>2026-04-26T14:00:46.92Z</time></trkpt><trkpt lat="43.707402" lon="13.0711133"><ele>67.0</ele><time>2026-04-26T14:00:47.918Z</time></trkpt><trkpt lat="43.7072667" lon="13.0709432"><ele>67.0</ele><time>2026-04-26T14:00:48.919Z</time></trkpt><trkpt lat="43.707132" lon="13.0707709"><ele>67.0</ele><time>2026-04-26T14:00:49.917Z</time></trkpt><trkpt lat="43.7069967" lon="13.0706031"><ele>66.33333333333333</ele><time>2026-04-26T14:00:50.917Z</time></trkpt><trkpt lat="43.7068621" lon="13.0704379"><ele>65.66666666666667</ele><time>2026-04-26T14:00:51.918Z</time></trkpt><trkpt lat="43.706727" lon="13.0702716"><ele>65.0</ele><time>2026-04-26T14:00:52.917Z</time></trkpt><trkpt lat="43.7065915" lon="13.0701015"><ele>66.33333333333334</ele><time>2026-04-26T14:00:53.918Z</time></trkpt><trkpt lat="43.7064558" lon="13.0699242"><ele>67.66666666666667</ele><time>2026-04-26T14:00:54.919Z</time></trkpt><trkpt lat="43.7063157" lon="13.0697484"><ele>69.0</ele><time>2026-04-26T14:00:55.918Z</time></trkpt><trkpt lat="43.7061746" lon="13.0695757"><ele>67.66666666666667</ele><time>2026-04-26T14:00:56.917Z</time></trkpt><trkpt lat="43.7060344" lon="13.0694029"><ele>66.33333333333334</ele><time>2026-04-26T14:00:57.917Z</time></trkpt><trkpt lat="43.7058932" lon="13.0692304"><ele>65.0</ele><time>2026-04-26T14:00:58.917Z</time></trkpt><trkpt lat="43.7057516" lon="13.0690603"><ele>65.0</ele><time>2026-04-26T14:00:59.917Z</time></trkpt><trkpt lat="43.7056114" lon="13.0688898"><ele>65.0</ele><time>2026-04-26T14:01:00.919Z</time></trkpt><trkpt lat="43.7054694" lon="13.0687205"><ele>65.0</ele><time>2026-04-26T14:01:01.918Z</time></trkpt><trkpt lat="43.7053263" lon="13.0685505"><ele>65.0</ele><time>2026-04-26T14:01:02.918Z</time></trkpt><trkpt lat="43.7051815" lon="13.0683819"><ele>65.0</ele><time>2026-04-26T14:01:03.92Z</time></trkpt><trkpt lat="43.7050382" lon="13.0682113"><ele>65.0</ele><time>2026-04-26T14:01:04.919Z</time></trkpt><trkpt lat="43.7048958" lon="13.0680353"><ele>65.0</ele><time>2026-04-26T14:01:05.918Z</time></trkpt><trkpt lat="43.7047525" lon="13.0678602"><ele>65.0</ele><time>2026-04-26T14:01:06.917Z</time></trkpt><trkpt lat="43.7046058" lon="13.0676857"><ele>65.0</ele><time>2026-04-26T14:01:07.919Z</time></trkpt><trkpt lat="43.7044565" lon="13.0675083"><ele>66.0</ele><time>2026-04-26T14:01:08.917Z</time></trkpt><trkpt lat="43.7043079" lon="13.0673301"><ele>67.0</ele><time>2026-04-26T14:01:09.917Z</time></trkpt><trkpt lat="43.7041592" lon="13.0671521"><ele>68.0</ele><time>2026-04-26T14:01:10.916Z</time></trkpt><trkpt lat="43.7040085" lon="13.0669706"><ele>68.0</ele><time>2026-04-26T14:01:11.917Z</time></trkpt><trkpt lat="43.7038581" lon="13.0667928"><ele>68.0</ele><time>2026-04-26T14:01:12.917Z</time></trkpt><trkpt lat="43.7037103" lon="13.0666162"><ele>68.0</ele><time>2026-04-26T14:01:13.918Z</time></trkpt><trkpt lat="43.7035635" lon="13.0664446"><ele>68.66666666666667</ele><time>2026-04-26T14:01:14.919Z</time></trkpt><trkpt lat="43.7034198" lon="13.0662725"><ele>69.33333333333333</ele><time>2026-04-26T14:01:15.918Z</time></trkpt><trkpt lat="43.7032781" lon="13.0661073"><ele>70.0</ele><time>2026-04-26T14:01:16.918Z</time></trkpt><trkpt lat="43.7031381" lon="13.0659422"><ele>70.33333333333333</ele><time>2026-04-26T14:01:17.918Z</time></trkpt><trkpt lat="43.703" lon="13.065777"><ele>70.66666666666667</ele><time>2026-04-26T14:01:18.918Z</time></trkpt><trkpt lat="43.7028616" lon="13.065611"><ele>71.0</ele><time>2026-04-26T14:01:19.918Z</time></trkpt><trkpt lat="43.7027227" lon="13.0654446"><ele>70.66666666666667</ele><time>2026-04-26T14:01:20.918Z</time></trkpt><trkpt lat="43.702582" lon="13.0652763"><ele>70.33333333333333</ele><time>2026-04-26T14:01:21.918Z</time></trkpt><trkpt lat="43.70244" lon="13.0651062"><ele>70.0</ele><time>2026-04-26T14:01:22.92Z</time></trkpt><trkpt lat="43.7022993" lon="13.064937"><ele>70.0</ele><time>2026-04-26T14:01:23.918Z</time></trkpt><trkpt lat="43.7021566" lon="13.0647688"><ele>70.0</ele><time>2026-04-26T14:01:24.918Z</time></trkpt><trkpt lat="43.7020149" lon="13.0645993"><ele>70.0</ele><time>2026-04-26T14:01:25.92Z</time></trkpt><trkpt lat="43.7018737" lon="13.0644293"><ele>70.0</ele><time>2026-04-26T14:01:26.92Z</time></trkpt><trkpt lat="43.7017331" lon="13.0642642"><ele>70.0</ele><time>2026-04-26T14:01:27.919Z</time></trkpt><trkpt lat="43.7015937" lon="13.0640995"><ele>70.0</ele><time>2026-04-26T14:01:28.918Z</time></trkpt><trkpt lat="43.7014562" lon="13.063936"><ele>69.33333333333333</ele><time>2026-04-26T14:01:29.917Z</time></trkpt><trkpt lat="43.7013189" lon="13.063768"><ele>68.66666666666667</ele><time>2026-04-26T14:01:30.918Z</time></trkpt><trkpt lat="43.7011846" lon="13.0636011"><ele>68.0</ele><time>2026-04-26T14:01:31.917Z</time></trkpt><trkpt lat="43.7010484" lon="13.0634382"><ele>68.66666666666667</ele><time>2026-04-26T14:01:32.918Z</time></trkpt><trkpt lat="43.7009136" lon="13.0632769"><ele>69.33333333333333</ele><time>2026-04-26T14:01:33.917Z</time></trkpt><trkpt lat="43.7007784" lon="13.0631158"><ele>70.0</ele><time>2026-04-26T14:01:34.918Z</time></trkpt><trkpt lat="43.7006456" lon="13.0629505"><ele>70.0</ele><time>2026-04-26T14:01:35.917Z</time></trkpt><trkpt lat="43.700512" lon="13.0627831"><ele>70.0</ele><time>2026-04-26T14:01:36.917Z</time></trkpt><trkpt lat="43.700382" lon="13.0626151"><ele>70.0</ele><time>2026-04-26T14:01:37.918Z</time></trkpt><trkpt lat="43.7002495" lon="13.0624535"><ele>70.33333333333333</ele><time>2026-04-26T14:01:38.918Z</time></trkpt><trkpt lat="43.7001147" lon="13.0622905"><ele>70.66666666666667</ele><time>2026-04-26T14:01:39.918Z</time></trkpt><trkpt lat="43.6999832" lon="13.0621277"><ele>71.0</ele><time>2026-04-26T14:01:40.918Z</time></trkpt><trkpt lat="43.6998542" lon="13.0619724"><ele>71.0</ele><time>2026-04-26T14:01:41.918Z</time></trkpt><trkpt lat="43.6997271" lon="13.0618178"><ele>71.0</ele><time>2026-04-26T14:01:42.921Z</time></trkpt><trkpt lat="43.6996008" lon="13.0616627"><ele>71.0</ele><time>2026-04-26T14:01:43.918Z</time></trkpt><trkpt lat="43.6994796" lon="13.0615033"><ele>70.75</ele><time>2026-04-26T14:01:44.918Z</time></trkpt><trkpt lat="43.6993669" lon="13.0613538"><ele>70.5</ele><time>2026-04-26T14:01:45.917Z</time></trkpt><trkpt lat="43.6992597" lon="13.0612246"><ele>70.25</ele><time>2026-04-26T14:01:46.918Z</time></trkpt><trkpt lat="43.6991557" lon="13.0611092"><ele>70.0</ele><time>2026-04-26T14:01:47.917Z</time></trkpt><trkpt lat="43.6990595" lon="13.0609972"><ele>70.0</ele><time>2026-04-26T14:01:48.921Z</time></trkpt><trkpt lat="43.6989652" lon="13.0608776"><ele>70.0</ele><time>2026-04-26T14:01:49.917Z</time></trkpt><trkpt lat="43.6988672" lon="13.0607486"><ele>70.0</ele><time>2026-04-26T14:01:50.918Z</time></trkpt><trkpt lat="43.6987614" lon="13.0606234"><ele>70.0</ele><time>2026-04-26T14:01:51.917Z</time></trkpt><trkpt lat="43.6986548" lon="13.060491"><ele>70.25</ele><time>2026-04-26T14:01:52.918Z</time></trkpt><trkpt lat="43.6985469" lon="13.0603587"><ele>70.5</ele><time>2026-04-26T14:01:53.918Z</time></trkpt><trkpt lat="43.6984425" lon="13.0602283"><ele>70.75</ele><time>2026-04-26T14:01:54.917Z</time></trkpt><trkpt lat="43.6983427" lon="13.0601028"><ele>71.0</ele><time>2026-04-26T14:01:55.918Z</time></trkpt><trkpt lat="43.6982473" lon="13.0599807"><ele>71.6</ele><time>2026-04-26T14:01:56.918Z</time></trkpt><trkpt lat="43.6981574" lon="13.0598672"><ele>72.19999999999999</ele><time>2026-04-26T14:01:57.918Z</time></trkpt><trkpt lat="43.6980675" lon="13.0597643"><ele>72.80000000000001</ele><time>2026-04-26T14:01:58.917Z</time></trkpt><trkpt lat="43.6979857" lon="13.0596633"><ele>73.4</ele><time>2026-04-26T14:01:59.917Z</time></trkpt><trkpt lat="43.6979207" lon="13.0595759"><ele>74.0</ele><time>2026-04-26T14:02:00.918Z</time></trkpt><trkpt lat="43.6978704" lon="13.0594988"><ele>74.0</ele><time>2026-04-26T14:02:01.917Z</time></trkpt><trkpt lat="43.6978511" lon="13.0594097"><ele>74.0</ele><time>2026-04-26T14:02:02.919Z</time></trkpt><trkpt lat="43.6978654" lon="13.059308"><ele>74.0</ele><time>2026-04-26T14:02:03.917Z</time></trkpt><trkpt lat="43.6979025" lon="13.0591979"><ele>74.0</ele><time>2026-04-26T14:02:04.919Z</time></trkpt><trkpt lat="43.697945" lon="13.0590989"><ele>74.0</ele><time>2026-04-26T14:02:05.919Z</time></trkpt><trkpt lat="43.6980087" lon="13.0589639"><ele>74.0</ele><time>2026-04-26T14:02:06.918Z</time></trkpt><trkpt lat="43.6980756" lon="13.0588287"><ele>74.8</ele><time>2026-04-26T14:02:07.917Z</time></trkpt><trkpt lat="43.6981404" lon="13.0586809"><ele>75.60000000000001</ele><time>2026-04-26T14:02:08.919Z</time></trkpt><trkpt lat="43.6982007" lon="13.0585504"><ele>76.4</ele><time>2026-04-26T14:02:09.917Z</time></trkpt><trkpt lat="43.6982565" lon="13.0584459"><ele>77.2</ele><time>2026-04-26T14:02:10.919Z</time></trkpt><trkpt lat="43.6983061" lon="13.0583627"><ele>78.0</ele><time>2026-04-26T14:02:11.917Z</time></trkpt><trkpt lat="43.6983549" lon="13.0582964"><ele>81.5</ele><time>2026-04-26T14:02:12.918Z</time></trkpt><trkpt lat="43.6983675" lon="13.0581701"><ele>85.0</ele><time>2026-04-26T14:02:14.916Z</time></trkpt><trkpt lat="43.6982591" lon="13.0580521"><ele>88.5</ele><time>2026-04-26T14:02:16.922Z</time></trkpt><trkpt lat="43.6981663" lon="13.0579786"><ele>92.0</ele><time>2026-04-26T14:02:17.917Z</time></trkpt><trkpt lat="43.6980653" lon="13.0578929"><ele>92.0</ele><time>2026-04-26T14:02:18.917Z</time></trkpt><trkpt lat="43.6979589" lon="13.0578026"><ele>92.0</ele><time>2026-04-26T14:02:19.919Z</time></trkpt><trkpt lat="43.6978489" lon="13.0577205"><ele>92.0</ele><time>2026-04-26T14:02:20.919Z</time></trkpt><trkpt lat="43.6977308" lon="13.0576405"><ele>92.0</ele><time>2026-04-26T14:02:21.917Z</time></trkpt><trkpt lat="43.6976131" lon="13.0575528"><ele>91.0</ele><time>2026-04-26T14:02:22.917Z</time></trkpt><trkpt lat="43.6974945" lon="13.0574649"><ele>90.0</ele><time>2026-04-26T14:02:23.918Z</time></trkpt><trkpt lat="43.69738" lon="13.0573839"><ele>89.0</ele><time>2026-04-26T14:02:24.917Z</time></trkpt><trkpt lat="43.6972848" lon="13.0573147"><ele>88.0</ele><time>2026-04-26T14:02:25.919Z</time></trkpt><trkpt lat="43.69721" lon="13.0572449"><ele>90.2</ele><time>2026-04-26T14:02:26.917Z</time></trkpt><trkpt lat="43.6971539" lon="13.0571508"><ele>92.4</ele><time>2026-04-26T14:02:27.917Z</time></trkpt><trkpt lat="43.6971369" lon="13.0570268"><ele>94.60000000000001</ele><time>2026-04-26T14:02:28.917Z</time></trkpt><trkpt lat="43.6971542" lon="13.0568901"><ele>96.80000000000001</ele><time>2026-04-26T14:02:29.92Z</time></trkpt><trkpt lat="43.6971824" lon="13.0567714"><ele>99.0</ele><time>2026-04-26T14:02:30.919Z</time></trkpt><trkpt lat="43.6972137" lon="13.0566618"><ele>99.14285714285715</ele><time>2026-04-26T14:02:31.917Z</time></trkpt><trkpt lat="43.697253" lon="13.0565694"><ele>99.28571428571428</ele><time>2026-04-26T14:02:32.918Z</time></trkpt><trkpt lat="43.6973072" lon="13.0565083"><ele>99.42857142857143</ele><time>2026-04-26T14:02:33.918Z</time></trkpt><trkpt lat="43.6973717" lon="13.0564746"><ele>99.57142857142858</ele><time>2026-04-26T14:02:34.92Z</time></trkpt><trkpt lat="43.6974391" lon="13.0564749"><ele>99.71428571428572</ele><time>2026-04-26T14:02:36.918Z</time></trkpt><trkpt lat="43.6974953" lon="13.0563763"><ele>99.85714285714286</ele><time>2026-04-26T14:02:39.919Z</time></trkpt><trkpt lat="43.6975119" lon="13.0562872"><ele>100.0</ele><time>2026-04-26T14:02:42.917Z</time></trkpt><trkpt lat="43.6975157" lon="13.0561534"><ele>100.0</ele><time>2026-04-26T14:02:44.916Z</time></trkpt><trkpt lat="43.6975225" lon="13.0560427"><ele>100.0</ele><time>2026-04-26T14:02:45.918Z</time></trkpt><trkpt lat="43.6975207" lon="13.0559265"><ele>100.0</ele><time>2026-04-26T14:02:46.917Z</time></trkpt><trkpt lat="43.6975174" lon="13.0557961"><ele>100.0</ele><time>2026-04-26T14:02:47.917Z</time></trkpt><trkpt lat="43.6975028" lon="13.0556578"><ele>100.0</ele><time>2026-04-26T14:02:48.917Z</time></trkpt><trkpt lat="43.6974873" lon="13.055524"><ele>100.0</ele><time>2026-04-26T14:02:49.919Z</time></trkpt><trkpt lat="43.6974732" lon="13.0553866"><ele>100.0</ele><time>2026-04-26T14:02:50.919Z</time></trkpt><trkpt lat="43.697456" lon="13.0552437"><ele>100.0</ele><time>2026-04-26T14:02:51.917Z</time></trkpt><trkpt lat="43.697438" lon="13.0550937"><ele>100.0</ele><time>2026-04-26T14:02:52.918Z</time></trkpt><trkpt lat="43.6974165" lon="13.0549458"><ele>100.0</ele><time>2026-04-26T14:02:53.918Z</time></trkpt><trkpt lat="43.6973984" lon="13.0547956"><ele>99.8</ele><time>2026-04-26T14:02:54.917Z</time></trkpt><trkpt lat="43.6973804" lon="13.0546452"><ele>99.6</ele><time>2026-04-26T14:02:55.917Z</time></trkpt><trkpt lat="43.6973559" lon="13.0545019"><ele>99.4</ele><time>2026-04-26T14:02:56.918Z</time></trkpt><trkpt lat="43.6973387" lon="13.0543529"><ele>99.2</ele><time>2026-04-26T14:02:57.918Z</time></trkpt><trkpt lat="43.6973231" lon="13.0542129"><ele>99.0</ele><time>2026-04-26T14:02:58.918Z</time></trkpt><trkpt lat="43.6973089" lon="13.0540865"><ele>99.0</ele><time>2026-04-26T14:02:59.918Z</time></trkpt><trkpt lat="43.6972968" lon="13.0539735"><ele>99.0</ele><time>2026-04-26T14:03:00.922Z</time></trkpt><trkpt lat="43.6972716" lon="13.0538701"><ele>99.0</ele><time>2026-04-26T14:03:01.916Z</time></trkpt><trkpt lat="43.6972383" lon="13.0537721"><ele>99.0</ele><time>2026-04-26T14:03:02.917Z</time></trkpt><trkpt lat="43.697193" lon="13.0536921"><ele>99.0</ele><time>2026-04-26T14:03:03.917Z</time></trkpt><trkpt lat="43.6971297" lon="13.0536183"><ele>99.0</ele><time>2026-04-26T14:03:04.918Z</time></trkpt><trkpt lat="43.6970601" lon="13.053542"><ele>99.0</ele><time>2026-04-26T14:03:05.919Z</time></trkpt><trkpt lat="43.6969781" lon="13.0534667"><ele>99.0</ele><time>2026-04-26T14:03:06.917Z</time></trkpt><trkpt lat="43.6968878" lon="13.053381"><ele>99.0</ele><time>2026-04-26T14:03:07.917Z</time></trkpt><trkpt lat="43.6967945" lon="13.0532841"><ele>99.0</ele><time>2026-04-26T14:03:08.919Z</time></trkpt><trkpt lat="43.6967018" lon="13.0531775"><ele>99.0</ele><time>2026-04-26T14:03:09.918Z</time></trkpt><trkpt lat="43.6966135" lon="13.0530538"><ele>99.25</ele><time>2026-04-26T14:03:10.92Z</time></trkpt><trkpt lat="43.696526" lon="13.0529266"><ele>99.5</ele><time>2026-04-26T14:03:11.918Z</time></trkpt><trkpt lat="43.6964319" lon="13.0527916"><ele>99.75</ele><time>2026-04-26T14:03:12.925Z</time></trkpt><trkpt lat="43.6963465" lon="13.052637"><ele>100.0</ele><time>2026-04-26T14:03:13.917Z</time></trkpt><trkpt lat="43.6962572" lon="13.0524834"><ele>100.66666666666667</ele><time>2026-04-26T14:03:14.917Z</time></trkpt><trkpt lat="43.6961657" lon="13.0523231"><ele>101.33333333333334</ele><time>2026-04-26T14:03:15.921Z</time></trkpt><trkpt lat="43.6960732" lon="13.0521566"><ele>102.0</ele><time>2026-04-26T14:03:16.917Z</time></trkpt><trkpt lat="43.6959808" lon="13.0519879"><ele>102.66666666666666</ele><time>2026-04-26T14:03:17.918Z</time></trkpt><trkpt lat="43.6958859" lon="13.0518101"><ele>103.33333333333333</ele><time>2026-04-26T14:03:18.919Z</time></trkpt><trkpt lat="43.6957874" lon="13.0516361"><ele>104.0</ele><time>2026-04-26T14:03:19.917Z</time></trkpt><trkpt lat="43.6956904" lon="13.0514608"><ele>104.0</ele><time>2026-04-26T14:03:20.919Z</time></trkpt><trkpt lat="43.6955944" lon="13.0512915"><ele>104.0</ele><time>2026-04-26T14:03:21.917Z</time></trkpt><trkpt lat="43.6955036" lon="13.0511305"><ele>104.0</ele><time>2026-04-26T14:03:22.917Z</time></trkpt><trkpt lat="43.6954246" lon="13.050989"><ele>104.0</ele><time>2026-04-26T14:03:23.917Z</time></trkpt><trkpt lat="43.6953542" lon="13.0508635"><ele>104.25</ele><time>2026-04-26T14:03:24.919Z</time></trkpt><trkpt lat="43.6952844" lon="13.0507346"><ele>104.5</ele><time>2026-04-26T14:03:25.918Z</time></trkpt><trkpt lat="43.6952183" lon="13.0506128"><ele>104.75</ele><time>2026-04-26T14:03:26.917Z</time></trkpt><trkpt lat="43.6951388" lon="13.0504957"><ele>105.0</ele><time>2026-04-26T14:03:27.919Z</time></trkpt><trkpt lat="43.6950453" lon="13.0503952"><ele>105.0</ele><time>2026-04-26T14:03:28.921Z</time></trkpt><trkpt lat="43.6949574" lon="13.0503115"><ele>105.0</ele><time>2026-04-26T14:03:29.917Z</time></trkpt><trkpt lat="43.6948586" lon="13.0502987"><ele>105.0</ele><time>2026-04-26T14:03:30.917Z</time></trkpt><trkpt lat="43.6947552" lon="13.05037"><ele>105.0</ele><time>2026-04-26T14:03:31.921Z</time></trkpt><trkpt lat="43.6946727" lon="13.0503936"><ele>105.0</ele><time>2026-04-26T14:03:32.919Z</time></trkpt><trkpt lat="43.6945587" lon="13.050419"><ele>105.0</ele><time>2026-04-26T14:03:34.917Z</time></trkpt><trkpt lat="43.6944943" lon="13.050444"><ele>105.0</ele><time>2026-04-26T14:03:35.919Z</time></trkpt><trkpt lat="43.6944182" lon="13.0504904"><ele>105.0</ele><time>2026-04-26T14:03:36.917Z</time></trkpt><trkpt lat="43.6943308" lon="13.0505473"><ele>105.0</ele><time>2026-04-26T14:03:37.917Z</time></trkpt><trkpt lat="43.6942451" lon="13.0506029"><ele>105.0</ele><time>2026-04-26T14:03:38.918Z</time></trkpt><trkpt lat="43.6941534" lon="13.050655"><ele>105.0</ele><time>2026-04-26T14:03:39.918Z</time></trkpt><trkpt lat="43.6940479" lon="13.0507037"><ele>102.5</ele><time>2026-04-26T14:03:40.917Z</time></trkpt><trkpt lat="43.6939359" lon="13.0507294"><ele>100.0</ele><time>2026-04-26T14:03:41.919Z</time></trkpt><trkpt lat="43.6938104" lon="13.0507322"><ele>97.5</ele><time>2026-04-26T14:03:42.918Z</time></trkpt><trkpt lat="43.6936955" lon="13.0507189"><ele>95.0</ele><time>2026-04-26T14:03:43.918Z</time></trkpt><trkpt lat="43.6935912" lon="13.0507023"><ele>92.6</ele><time>2026-04-26T14:03:44.917Z</time></trkpt><trkpt lat="43.6934986" lon="13.0506842"><ele>90.2</ele><time>2026-04-26T14:03:45.917Z</time></trkpt><trkpt lat="43.6934135" lon="13.050656"><ele>87.80000000000001</ele><time>2026-04-26T14:03:46.917Z</time></trkpt><trkpt lat="43.6933338" lon="13.050607"><ele>85.4</ele><time>2026-04-26T14:03:47.919Z</time></trkpt><trkpt lat="43.6932547" lon="13.0505332"><ele>83.0</ele><time>2026-04-26T14:03:48.918Z</time></trkpt><trkpt lat="43.6931813" lon="13.0504238"><ele>83.0</ele><time>2026-04-26T14:03:49.918Z</time></trkpt><trkpt lat="43.6931073" lon="13.0503128"><ele>83.0</ele><time>2026-04-26T14:03:50.917Z</time></trkpt><trkpt lat="43.693051" lon="13.0502049"><ele>83.0</ele><time>2026-04-26T14:03:51.918Z</time></trkpt><trkpt lat="43.6929929" lon="13.0500986"><ele>83.0</ele><time>2026-04-26T14:03:52.918Z</time></trkpt><trkpt lat="43.6929351" lon="13.0499952"><ele>83.0</ele><time>2026-04-26T14:03:53.917Z</time></trkpt><trkpt lat="43.692876" lon="13.0498844"><ele>83.2</ele><time>2026-04-26T14:03:54.917Z</time></trkpt><trkpt lat="43.6928173" lon="13.0497607"><ele>83.4</ele><time>2026-04-26T14:03:55.918Z</time></trkpt><trkpt lat="43.6927659" lon="13.0496273"><ele>83.60000000000001</ele><time>2026-04-26T14:03:56.918Z</time></trkpt><trkpt lat="43.692722" lon="13.0494932"><ele>83.80000000000001</ele><time>2026-04-26T14:03:57.918Z</time></trkpt><trkpt lat="43.692698" lon="13.0493494"><ele>84.0</ele><time>2026-04-26T14:03:58.917Z</time></trkpt><trkpt lat="43.6927067" lon="13.0491926"><ele>83.75</ele><time>2026-04-26T14:03:59.918Z</time></trkpt><trkpt lat="43.6927498" lon="13.0490317"><ele>83.5</ele><time>2026-04-26T14:04:00.919Z</time></trkpt><trkpt lat="43.6928028" lon="13.0488761"><ele>83.25</ele><time>2026-04-26T14:04:01.918Z</time></trkpt><trkpt lat="43.6928615" lon="13.0487006"><ele>83.0</ele><time>2026-04-26T14:04:02.917Z</time></trkpt><trkpt lat="43.6929262" lon="13.0485313"><ele>83.0</ele><time>2026-04-26T14:04:03.917Z</time></trkpt><trkpt lat="43.6929938" lon="13.0483536"><ele>83.0</ele><time>2026-04-26T14:04:04.919Z</time></trkpt><trkpt lat="43.6930651" lon="13.0481742"><ele>83.0</ele><time>2026-04-26T14:04:05.918Z</time></trkpt><trkpt lat="43.693133" lon="13.0479901"><ele>83.0</ele><time>2026-04-26T14:04:06.918Z</time></trkpt><trkpt lat="43.6931969" lon="13.0478149"><ele>82.60000000000001</ele><time>2026-04-26T14:04:07.918Z</time></trkpt><trkpt lat="43.6932533" lon="13.0476595"><ele>82.2</ele><time>2026-04-26T14:04:08.917Z</time></trkpt><trkpt lat="43.6933071" lon="13.0475145"><ele>81.8</ele><time>2026-04-26T14:04:09.918Z</time></trkpt><trkpt lat="43.693346" lon="13.047374"><ele>81.4</ele><time>2026-04-26T14:04:10.918Z</time></trkpt><trkpt lat="43.6933384" lon="13.0472475"><ele>81.0</ele><time>2026-04-26T14:04:11.918Z</time></trkpt><trkpt lat="43.6932906" lon="13.047134"><ele>81.0</ele><time>2026-04-26T14:04:12.918Z</time></trkpt><trkpt lat="43.6932132" lon="13.0470687"><ele>81.0</ele><time>2026-04-26T14:04:13.918Z</time></trkpt><trkpt lat="43.6931086" lon="13.047034"><ele>81.0</ele><time>2026-04-26T14:04:14.921Z</time></trkpt><trkpt lat="43.6930036" lon="13.047015"><ele>81.0</ele><time>2026-04-26T14:04:15.919Z</time></trkpt><trkpt lat="43.6928875" lon="13.0469909"><ele>81.0</ele><time>2026-04-26T14:04:16.918Z</time></trkpt><trkpt lat="43.6927655" lon="13.0469587"><ele>82.0</ele><time>2026-04-26T14:04:17.918Z</time></trkpt><trkpt lat="43.6926354" lon="13.0469235"><ele>83.0</ele><time>2026-04-26T14:04:18.918Z</time></trkpt><trkpt lat="43.6925023" lon="13.0468867"><ele>84.0</ele><time>2026-04-26T14:04:19.918Z</time></trkpt><trkpt lat="43.692381" lon="13.0468636"><ele>85.0</ele><time>2026-04-26T14:04:20.918Z</time></trkpt><trkpt lat="43.6922634" lon="13.0468542"><ele>85.0</ele><time>2026-04-26T14:04:21.918Z</time></trkpt><trkpt lat="43.6921611" lon="13.0468655"><ele>85.0</ele><time>2026-04-26T14:04:22.921Z</time></trkpt><trkpt lat="43.6920708" lon="13.0469307"><ele>85.0</ele><time>2026-04-26T14:04:23.917Z</time></trkpt><trkpt lat="43.6920014" lon="13.0470332"><ele>85.0</ele><time>2026-04-26T14:04:24.917Z</time></trkpt><trkpt lat="43.6919515" lon="13.0471476"><ele>85.0</ele><time>2026-04-26T14:04:25.918Z</time></trkpt><trkpt lat="43.6919196" lon="13.0472799"><ele>86.5</ele><time>2026-04-26T14:04:26.917Z</time></trkpt><trkpt lat="43.691906" lon="13.0474093"><ele>88.0</ele><time>2026-04-26T14:04:27.917Z</time></trkpt><trkpt lat="43.6918829" lon="13.0475371"><ele>89.5</ele><time>2026-04-26T14:04:28.918Z</time></trkpt><trkpt lat="43.6918673" lon="13.0476531"><ele>91.0</ele><time>2026-04-26T14:04:29.92Z</time></trkpt><trkpt lat="43.6918301" lon="13.047732"><ele>92.5</ele><time>2026-04-26T14:04:30.919Z</time></trkpt><trkpt lat="43.6917634" lon="13.0478122"><ele>94.0</ele><time>2026-04-26T14:04:31.918Z</time></trkpt><trkpt lat="43.6916598" lon="13.0477939"><ele>94.0</ele><time>2026-04-26T14:04:33.917Z</time></trkpt><trkpt lat="43.6915917" lon="13.0476821"><ele>94.0</ele><time>2026-04-26T14:04:34.917Z</time></trkpt><trkpt lat="43.6915279" lon="13.0476088"><ele>94.0</ele><time>2026-04-26T14:04:35.918Z</time></trkpt><trkpt lat="43.6914586" lon="13.0475238"><ele>94.0</ele><time>2026-04-26T14:04:36.917Z</time></trkpt><trkpt lat="43.691383" lon="13.047441"><ele>94.0</ele><time>2026-04-26T14:04:37.918Z</time></trkpt><trkpt lat="43.6913091" lon="13.0473551"><ele>95.2</ele><time>2026-04-26T14:04:38.919Z</time></trkpt><trkpt lat="43.6912312" lon="13.0472818"><ele>96.4</ele><time>2026-04-26T14:04:39.917Z</time></trkpt><trkpt lat="43.6911566" lon="13.0472069"><ele>97.6</ele><time>2026-04-26T14:04:40.918Z</time></trkpt><trkpt lat="43.6910937" lon="13.0471395"><ele>98.8</ele><time>2026-04-26T14:04:41.919Z</time></trkpt><trkpt lat="43.6910279" lon="13.0470465"><ele>100.0</ele><time>2026-04-26T14:04:42.917Z</time></trkpt><trkpt lat="43.6909672" lon="13.0469423"><ele>100.00000000000001</ele><time>2026-04-26T14:04:43.918Z</time></trkpt><trkpt lat="43.6909183" lon="13.0468291"><ele>100.0</ele><time>2026-04-26T14:04:44.919Z</time></trkpt><trkpt lat="43.6908902" lon="13.0467252"><ele>100.0</ele><time>2026-04-26T14:04:45.919Z</time></trkpt><trkpt lat="43.6908783" lon="13.0466024"><ele>100.0</ele><time>2026-04-26T14:04:46.919Z</time></trkpt><trkpt lat="43.6908828" lon="13.0465019"><ele>100.00000000000001</ele><time>2026-04-26T14:04:47.917Z</time></trkpt><trkpt lat="43.6909279" lon="13.0464062"><ele>100.0</ele><time>2026-04-26T14:04:49.92Z</time></trkpt><trkpt lat="43.6909665" lon="13.0463143"><ele>100.00000000000001</ele><time>2026-04-26T14:04:51.917Z</time></trkpt><trkpt lat="43.6910164" lon="13.046211"><ele>100.0</ele><time>2026-04-26T14:04:53.917Z</time></trkpt><trkpt lat="43.6910552" lon="13.0461297"><ele>100.0</ele><time>2026-04-26T14:04:55.917Z</time></trkpt><trkpt lat="43.6910969" lon="13.0460286"><ele>100.0</ele><time>2026-04-26T14:04:57.918Z</time></trkpt><trkpt lat="43.6911534" lon="13.0458792"><ele>100.00000000000001</ele><time>2026-04-26T14:04:59.918Z</time></trkpt><trkpt lat="43.6911923" lon="13.0457865"><ele>100.0</ele><time>2026-04-26T14:05:00.918Z</time></trkpt><trkpt lat="43.6912317" lon="13.0456933"><ele>99.2</ele><time>2026-04-26T14:05:01.918Z</time></trkpt><trkpt lat="43.6912711" lon="13.0455813"><ele>98.4</ele><time>2026-04-26T14:05:02.918Z</time></trkpt><trkpt lat="43.6913067" lon="13.0454715"><ele>97.6</ele><time>2026-04-26T14:05:03.918Z</time></trkpt><trkpt lat="43.6913533" lon="13.0453565"><ele>96.8</ele><time>2026-04-26T14:05:04.918Z</time></trkpt><trkpt lat="43.6914" lon="13.0452437"><ele>96.0</ele><time>2026-04-26T14:05:05.918Z</time></trkpt><trkpt lat="43.6914452" lon="13.0451151"><ele>96.0</ele><time>2026-04-26T14:05:06.918Z</time></trkpt><trkpt lat="43.6914878" lon="13.0449968"><ele>96.0</ele><time>2026-04-26T14:05:07.918Z</time></trkpt><trkpt lat="43.6915322" lon="13.044877"><ele>96.0</ele><time>2026-04-26T14:05:08.918Z</time></trkpt><trkpt lat="43.6915757" lon="13.044744"><ele>96.0</ele><time>2026-04-26T14:05:09.918Z</time></trkpt><trkpt lat="43.6916242" lon="13.0446054"><ele>96.0</ele><time>2026-04-26T14:05:10.918Z</time></trkpt><trkpt lat="43.6916812" lon="13.0444728"><ele>95.8</ele><time>2026-04-26T14:05:11.919Z</time></trkpt><trkpt lat="43.6917384" lon="13.0443512"><ele>95.6</ele><time>2026-04-26T14:05:12.917Z</time></trkpt><trkpt lat="43.6917893" lon="13.0442074"><ele>95.4</ele><time>2026-04-26T14:05:13.919Z</time></trkpt><trkpt lat="43.691835" lon="13.0440619"><ele>95.2</ele><time>2026-04-26T14:05:14.918Z</time></trkpt><trkpt lat="43.6918884" lon="13.0439235"><ele>95.0</ele><time>2026-04-26T14:05:15.918Z</time></trkpt><trkpt lat="43.6919431" lon="13.0437801"><ele>95.5</ele><time>2026-04-26T14:05:16.917Z</time></trkpt><trkpt lat="43.6919925" lon="13.0436348"><ele>96.0</ele><time>2026-04-26T14:05:17.919Z</time></trkpt><trkpt lat="43.6920449" lon="13.0434806"><ele>96.5</ele><time>2026-04-26T14:05:18.917Z</time></trkpt><trkpt lat="43.6920962" lon="13.0433343"><ele>97.0</ele><time>2026-04-26T14:05:19.918Z</time></trkpt><trkpt lat="43.6921431" lon="13.0431971"><ele>97.0</ele><time>2026-04-26T14:05:20.918Z</time></trkpt><trkpt lat="43.69219" lon="13.0430575"><ele>97.0</ele><time>2026-04-26T14:05:21.92Z</time></trkpt><trkpt lat="43.6922428" lon="13.0429149"><ele>97.0</ele><time>2026-04-26T14:05:22.917Z</time></trkpt><trkpt lat="43.6923017" lon="13.04278"><ele>97.0</ele><time>2026-04-26T14:05:23.917Z</time></trkpt><trkpt lat="43.6923674" lon="13.0426414"><ele>97.0</ele><time>2026-04-26T14:05:24.917Z</time></trkpt><trkpt lat="43.6924399" lon="13.0425014"><ele>97.0</ele><time>2026-04-26T14:05:25.918Z</time></trkpt><trkpt lat="43.6925236" lon="13.0423534"><ele>97.0</ele><time>2026-04-26T14:05:26.917Z</time></trkpt><trkpt lat="43.6926076" lon="13.0421982"><ele>97.0</ele><time>2026-04-26T14:05:27.918Z</time></trkpt><trkpt lat="43.6926926" lon="13.0420445"><ele>97.25</ele><time>2026-04-26T14:05:28.917Z</time></trkpt><trkpt lat="43.6927738" lon="13.0418986"><ele>97.5</ele><time>2026-04-26T14:05:29.92Z</time></trkpt><trkpt lat="43.6928483" lon="13.0417344"><ele>97.75</ele><time>2026-04-26T14:05:30.918Z</time></trkpt><trkpt lat="43.692918" lon="13.0415544"><ele>98.0</ele><time>2026-04-26T14:05:31.918Z</time></trkpt><trkpt lat="43.6929837" lon="13.0413383"><ele>100.33333333333333</ele><time>2026-04-26T14:05:32.917Z</time></trkpt><trkpt lat="43.6930499" lon="13.0411033"><ele>102.66666666666666</ele><time>2026-04-26T14:05:33.918Z</time></trkpt><trkpt lat="43.6931023" lon="13.0408475"><ele>105.0</ele><time>2026-04-26T14:05:34.917Z</time></trkpt><trkpt lat="43.6931477" lon="13.040598"><ele>106.33333333333334</ele><time>2026-04-26T14:05:35.918Z</time></trkpt><trkpt lat="43.6931914" lon="13.0403333"><ele>107.66666666666667</ele><time>2026-04-26T14:05:36.917Z</time></trkpt><trkpt lat="43.6932473" lon="13.0400568"><ele>109.0</ele><time>2026-04-26T14:05:37.917Z</time></trkpt><trkpt lat="43.6933144" lon="13.039781"><ele>111.33333333333334</ele><time>2026-04-26T14:05:38.919Z</time></trkpt><trkpt lat="43.6933795" lon="13.0395081"><ele>113.66666666666666</ele><time>2026-04-26T14:05:39.918Z</time></trkpt><trkpt lat="43.6934637" lon="13.039224"><ele>116.0</ele><time>2026-04-26T14:05:40.917Z</time></trkpt><trkpt lat="43.6935379" lon="13.0389413"><ele>117.33333333333333</ele><time>2026-04-26T14:05:41.918Z</time></trkpt><trkpt lat="43.6936086" lon="13.0386652"><ele>118.66666666666666</ele><time>2026-04-26T14:05:42.918Z</time></trkpt><trkpt lat="43.6936795" lon="13.038404"><ele>120.0</ele><time>2026-04-26T14:05:43.917Z</time></trkpt><trkpt lat="43.6937455" lon="13.0381522"><ele>124.0</ele><time>2026-04-26T14:05:44.918Z</time></trkpt><trkpt lat="43.6938247" lon="13.0379149"><ele>128.0</ele><time>2026-04-26T14:05:45.917Z</time></trkpt><trkpt lat="43.6939213" lon="13.0377076"><ele>132.0</ele><time>2026-04-26T14:05:46.917Z</time></trkpt><trkpt lat="43.6940323" lon="13.0375317"><ele>136.66666666666666</ele><time>2026-04-26T14:05:47.921Z</time></trkpt><trkpt lat="43.6941398" lon="13.0373778"><ele>141.33333333333331</ele><time>2026-04-26T14:05:48.918Z</time></trkpt><trkpt lat="43.6942337" lon="13.0372166"><ele>146.0</ele><time>2026-04-26T14:05:49.918Z</time></trkpt><trkpt lat="43.6943046" lon="13.0370386"><ele>146.0</ele><time>2026-04-26T14:05:50.918Z</time></trkpt><trkpt lat="43.6943653" lon="13.0368752"><ele>146.0</ele><time>2026-04-26T14:05:51.917Z</time></trkpt><trkpt lat="43.6944061" lon="13.0367066"><ele>146.0</ele><time>2026-04-26T14:05:52.918Z</time></trkpt><trkpt lat="43.6944129" lon="13.0365394"><ele>146.0</ele><time>2026-04-26T14:05:53.917Z</time></trkpt><trkpt lat="43.6943774" lon="13.036403"><ele>148.0</ele><time>2026-04-26T14:05:54.918Z</time></trkpt><trkpt lat="43.6943201" lon="13.0362789"><ele>150.0</ele><time>2026-04-26T14:05:55.919Z</time></trkpt><trkpt lat="43.6942496" lon="13.0361616"><ele>152.0</ele><time>2026-04-26T14:05:56.917Z</time></trkpt><trkpt lat="43.6942078" lon="13.0360178"><ele>154.0</ele><time>2026-04-26T14:05:57.919Z</time></trkpt><trkpt lat="43.6941979" lon="13.0358488"><ele>156.66666666666669</ele><time>2026-04-26T14:05:58.918Z</time></trkpt><trkpt lat="43.6942108" lon="13.0356593"><ele>159.33333333333334</ele><time>2026-04-26T14:05:59.92Z</time></trkpt><trkpt lat="43.6942238" lon="13.0354506"><ele>162.0</ele><time>2026-04-26T14:06:00.918Z</time></trkpt><trkpt lat="43.694231" lon="13.0352255"><ele>162.0</ele><time>2026-04-26T14:06:01.917Z</time></trkpt><trkpt lat="43.6942363" lon="13.0350007"><ele>162.0</ele><time>2026-04-26T14:06:02.918Z</time></trkpt><trkpt lat="43.6942549" lon="13.0347825"><ele>162.0</ele><time>2026-04-26T14:06:03.919Z</time></trkpt><trkpt lat="43.6942948" lon="13.0345692"><ele>163.33333333333334</ele><time>2026-04-26T14:06:04.917Z</time></trkpt><trkpt lat="43.694355" lon="13.0343459"><ele>164.66666666666669</ele><time>2026-04-26T14:06:05.917Z</time></trkpt><trkpt lat="43.694428" lon="13.0341102"><ele>166.0</ele><time>2026-04-26T14:06:06.917Z</time></trkpt><trkpt lat="43.6945058" lon="13.0338585"><ele>166.0</ele><time>2026-04-26T14:06:07.921Z</time></trkpt><trkpt lat="43.6945824" lon="13.0336062"><ele>166.0</ele><time>2026-04-26T14:06:08.917Z</time></trkpt><trkpt lat="43.6946572" lon="13.0333587"><ele>166.0</ele><time>2026-04-26T14:06:09.917Z</time></trkpt><trkpt lat="43.6947357" lon="13.0331131"><ele>167.0</ele><time>2026-04-26T14:06:10.918Z</time></trkpt><trkpt lat="43.6948236" lon="13.0328754"><ele>168.0</ele><time>2026-04-26T14:06:11.918Z</time></trkpt><trkpt lat="43.6949236" lon="13.0326498"><ele>169.0</ele><time>2026-04-26T14:06:12.917Z</time></trkpt><trkpt lat="43.695031" lon="13.0324369"><ele>169.66666666666669</ele><time>2026-04-26T14:06:13.919Z</time></trkpt><trkpt lat="43.6951479" lon="13.0322365"><ele>170.33333333333334</ele><time>2026-04-26T14:06:14.92Z</time></trkpt><trkpt lat="43.6952684" lon="13.0320383"><ele>171.0</ele><time>2026-04-26T14:06:15.919Z</time></trkpt><trkpt lat="43.6953907" lon="13.0318361"><ele>170.0</ele><time>2026-04-26T14:06:16.918Z</time></trkpt><trkpt lat="43.6955174" lon="13.0316247"><ele>169.0</ele><time>2026-04-26T14:06:17.918Z</time></trkpt><trkpt lat="43.6956455" lon="13.0313978"><ele>168.0</ele><time>2026-04-26T14:06:18.918Z</time></trkpt><trkpt lat="43.695769" lon="13.031161"><ele>168.0</ele><time>2026-04-26T14:06:19.919Z</time></trkpt><trkpt lat="43.695882" lon="13.0309128"><ele>168.0</ele><time>2026-04-26T14:06:20.918Z</time></trkpt><trkpt lat="43.6959883" lon="13.0306587"><ele>168.0</ele><time>2026-04-26T14:06:21.919Z</time></trkpt><trkpt lat="43.6960815" lon="13.0303965"><ele>168.33333333333334</ele><time>2026-04-26T14:06:22.918Z</time></trkpt><trkpt lat="43.6961731" lon="13.0301364"><ele>168.66666666666669</ele><time>2026-04-26T14:06:23.919Z</time></trkpt><trkpt lat="43.6962675" lon="13.0298822"><ele>169.0</ele><time>2026-04-26T14:06:24.918Z</time></trkpt><trkpt lat="43.6963742" lon="13.029637"><ele>170.0</ele><time>2026-04-26T14:06:25.918Z</time></trkpt><trkpt lat="43.6964856" lon="13.0293967"><ele>171.0</ele><time>2026-04-26T14:06:26.918Z</time></trkpt><trkpt lat="43.6965993" lon="13.0291523"><ele>172.0</ele><time>2026-04-26T14:06:27.918Z</time></trkpt><trkpt lat="43.6967103" lon="13.0289122"><ele>172.33333333333334</ele><time>2026-04-26T14:06:28.918Z</time></trkpt><trkpt lat="43.6968178" lon="13.0286718"><ele>172.66666666666666</ele><time>2026-04-26T14:06:29.918Z</time></trkpt><trkpt lat="43.696929" lon="13.0284355"><ele>173.0</ele><time>2026-04-26T14:06:30.918Z</time></trkpt><trkpt lat="43.6970388" lon="13.0281989"><ele>177.33333333333331</ele><time>2026-04-26T14:06:31.917Z</time></trkpt><trkpt lat="43.697146" lon="13.02797"><ele>181.66666666666666</ele><time>2026-04-26T14:06:32.917Z</time></trkpt><trkpt lat="43.6972496" lon="13.0277372"><ele>186.0</ele><time>2026-04-26T14:06:33.918Z</time></trkpt><trkpt lat="43.6973279" lon="13.0274947"><ele>187.33333333333334</ele><time>2026-04-26T14:06:34.918Z</time></trkpt><trkpt lat="43.6973731" lon="13.0272429"><ele>188.66666666666669</ele><time>2026-04-26T14:06:35.918Z</time></trkpt><trkpt lat="43.6974083" lon="13.026988"><ele>190.0</ele><time>2026-04-26T14:06:36.918Z</time></trkpt><trkpt lat="43.6974529" lon="13.0267374"><ele>190.66666666666669</ele><time>2026-04-26T14:06:37.917Z</time></trkpt><trkpt lat="43.6975052" lon="13.0264855"><ele>191.33333333333334</ele><time>2026-04-26T14:06:38.918Z</time></trkpt><trkpt lat="43.6975688" lon="13.0262372"><ele>192.0</ele><time>2026-04-26T14:06:39.919Z</time></trkpt><trkpt lat="43.6976439" lon="13.0260045"><ele>193.33333333333331</ele><time>2026-04-26T14:06:40.918Z</time></trkpt><trkpt lat="43.6977311" lon="13.0257992"><ele>194.66666666666666</ele><time>2026-04-26T14:06:41.917Z</time></trkpt><trkpt lat="43.697832" lon="13.0256089"><ele>196.0</ele><time>2026-04-26T14:06:42.917Z</time></trkpt><trkpt lat="43.6979407" lon="13.0254259"><ele>197.0</ele><time>2026-04-26T14:06:43.917Z</time></trkpt><trkpt lat="43.6980322" lon="13.0252553"><ele>198.0</ele><time>2026-04-26T14:06:44.917Z</time></trkpt><trkpt lat="43.698089" lon="13.0250695"><ele>199.0</ele><time>2026-04-26T14:06:45.918Z</time></trkpt><trkpt lat="43.6981076" lon="13.0248569"><ele>201.33333333333331</ele><time>2026-04-26T14:06:46.917Z</time></trkpt><trkpt lat="43.6980956" lon="13.0246296"><ele>203.66666666666669</ele><time>2026-04-26T14:06:47.917Z</time></trkpt><trkpt lat="43.698063" lon="13.024397"><ele>206.0</ele><time>2026-04-26T14:06:48.918Z</time></trkpt><trkpt lat="43.6980061" lon="13.0241598"><ele>208.0</ele><time>2026-04-26T14:06:49.919Z</time></trkpt><trkpt lat="43.6979209" lon="13.023935"><ele>210.0</ele><time>2026-04-26T14:06:50.917Z</time></trkpt><trkpt lat="43.6978243" lon="13.0237305"><ele>212.0</ele><time>2026-04-26T14:06:51.918Z</time></trkpt><trkpt lat="43.6977372" lon="13.0235225"><ele>215.0</ele><time>2026-04-26T14:06:52.918Z</time></trkpt><trkpt lat="43.6976659" lon="13.0233039"><ele>218.0</ele><time>2026-04-26T14:06:53.918Z</time></trkpt><trkpt lat="43.6976054" lon="13.0230717"><ele>221.0</ele><time>2026-04-26T14:06:54.919Z</time></trkpt><trkpt lat="43.6975527" lon="13.0228377"><ele>221.0</ele><time>2026-04-26T14:06:55.919Z</time></trkpt><trkpt lat="43.6975039" lon="13.0226063"><ele>221.0</ele><time>2026-04-26T14:06:56.921Z</time></trkpt><trkpt lat="43.697462" lon="13.0223806"><ele>221.0</ele><time>2026-04-26T14:06:57.92Z</time></trkpt><trkpt lat="43.6974295" lon="13.0221708"><ele>222.25</ele><time>2026-04-26T14:06:58.917Z</time></trkpt><trkpt lat="43.6974012" lon="13.0219708"><ele>223.5</ele><time>2026-04-26T14:06:59.917Z</time></trkpt><trkpt lat="43.6973735" lon="13.0217683"><ele>224.75</ele><time>2026-04-26T14:07:00.917Z</time></trkpt><trkpt lat="43.6973409" lon="13.0215696"><ele>226.0</ele><time>2026-04-26T14:07:01.917Z</time></trkpt><trkpt lat="43.6973067" lon="13.021372"><ele>226.5</ele><time>2026-04-26T14:07:02.922Z</time></trkpt><trkpt lat="43.6972742" lon="13.0211883"><ele>227.0</ele><time>2026-04-26T14:07:03.925Z</time></trkpt><trkpt lat="43.6972438" lon="13.021023"><ele>227.5</ele><time>2026-04-26T14:07:04.917Z</time></trkpt><trkpt lat="43.6972256" lon="13.0208715"><ele>228.0</ele><time>2026-04-26T14:07:05.917Z</time></trkpt><trkpt lat="43.6972199" lon="13.0207404"><ele>228.66666666666666</ele><time>2026-04-26T14:07:06.917Z</time></trkpt><trkpt lat="43.6972164" lon="13.0206371"><ele>229.33333333333331</ele><time>2026-04-26T14:07:07.918Z</time></trkpt><trkpt lat="43.6971586" lon="13.0205166"><ele>230.0</ele><time>2026-04-26T14:07:09.917Z</time></trkpt><trkpt lat="43.6970831" lon="13.0204754"><ele>230.66666666666666</ele><time>2026-04-26T14:07:11.92Z</time></trkpt><trkpt lat="43.697034" lon="13.0204195"><ele>231.33333333333331</ele><time>2026-04-26T14:07:12.917Z</time></trkpt><trkpt lat="43.6969865" lon="13.020328"><ele>232.0</ele><time>2026-04-26T14:07:13.917Z</time></trkpt><trkpt lat="43.6969378" lon="13.0202171"><ele>230.39999999999998</ele><time>2026-04-26T14:07:14.917Z</time></trkpt><trkpt lat="43.6968869" lon="13.0200928"><ele>228.79999999999998</ele><time>2026-04-26T14:07:15.917Z</time></trkpt><trkpt lat="43.6968336" lon="13.0199676"><ele>227.2</ele><time>2026-04-26T14:07:16.918Z</time></trkpt><trkpt lat="43.6967804" lon="13.0198379"><ele>225.6</ele><time>2026-04-26T14:07:17.919Z</time></trkpt><trkpt lat="43.6967283" lon="13.0196974"><ele>224.0</ele><time>2026-04-26T14:07:18.919Z</time></trkpt><trkpt lat="43.6966766" lon="13.0195582"><ele>223.25</ele><time>2026-04-26T14:07:19.918Z</time></trkpt><trkpt lat="43.6966247" lon="13.0194224"><ele>222.5</ele><time>2026-04-26T14:07:20.919Z</time></trkpt><trkpt lat="43.6965714" lon="13.0192837"><ele>221.75</ele><time>2026-04-26T14:07:21.918Z</time></trkpt><trkpt lat="43.6965128" lon="13.0191346"><ele>221.0</ele><time>2026-04-26T14:07:22.919Z</time></trkpt><trkpt lat="43.6964496" lon="13.0189837"><ele>219.75</ele><time>2026-04-26T14:07:23.917Z</time></trkpt><trkpt lat="43.6963817" lon="13.0188389"><ele>218.5</ele><time>2026-04-26T14:07:24.917Z</time></trkpt><trkpt lat="43.6963139" lon="13.0186956"><ele>217.25</ele><time>2026-04-26T14:07:25.918Z</time></trkpt><trkpt lat="43.6962502" lon="13.0185526"><ele>216.0</ele><time>2026-04-26T14:07:26.919Z</time></trkpt><trkpt lat="43.6961892" lon="13.0184056"><ele>215.0</ele><time>2026-04-26T14:07:27.918Z</time></trkpt><trkpt lat="43.6961348" lon="13.0182563"><ele>214.0</ele><time>2026-04-26T14:07:28.918Z</time></trkpt><trkpt lat="43.6960866" lon="13.0181054"><ele>213.0</ele><time>2026-04-26T14:07:29.917Z</time></trkpt><trkpt lat="43.6960431" lon="13.0179565"><ele>212.0</ele><time>2026-04-26T14:07:30.917Z</time></trkpt><trkpt lat="43.6960071" lon="13.0178"><ele>212.0</ele><time>2026-04-26T14:07:31.918Z</time></trkpt><trkpt lat="43.695981" lon="13.0176393"><ele>212.0</ele><time>2026-04-26T14:07:32.918Z</time></trkpt><trkpt lat="43.6959607" lon="13.0174836"><ele>212.0</ele><time>2026-04-26T14:07:33.918Z</time></trkpt><trkpt lat="43.6959427" lon="13.0173323"><ele>212.0</ele><time>2026-04-26T14:07:34.917Z</time></trkpt><trkpt lat="43.6959269" lon="13.0171867"><ele>211.2</ele><time>2026-04-26T14:07:35.919Z</time></trkpt><trkpt lat="43.6959054" lon="13.0170398"><ele>210.39999999999998</ele><time>2026-04-26T14:07:36.917Z</time></trkpt><trkpt lat="43.6958799" lon="13.0168941"><ele>209.60000000000002</ele><time>2026-04-26T14:07:37.92Z</time></trkpt><trkpt lat="43.6958578" lon="13.0167508"><ele>208.8</ele><time>2026-04-26T14:07:38.918Z</time></trkpt><trkpt lat="43.695834" lon="13.0166158"><ele>208.0</ele><time>2026-04-26T14:07:39.917Z</time></trkpt><trkpt lat="43.6958095" lon="13.0164875"><ele>206.2</ele><time>2026-04-26T14:07:40.917Z</time></trkpt><trkpt lat="43.6957832" lon="13.0163667"><ele>204.4</ele><time>2026-04-26T14:07:41.918Z</time></trkpt><trkpt lat="43.6957504" lon="13.0162517"><ele>202.6</ele><time>2026-04-26T14:07:42.918Z</time></trkpt><trkpt lat="43.6957099" lon="13.0161395"><ele>200.79999999999998</ele><time>2026-04-26T14:07:43.918Z</time></trkpt><trkpt lat="43.6956633" lon="13.0160309"><ele>199.0</ele><time>2026-04-26T14:07:44.919Z</time></trkpt><trkpt lat="43.6956065" lon="13.015916"><ele>196.0</ele><time>2026-04-26T14:07:45.918Z</time></trkpt><trkpt lat="43.6955397" lon="13.0157873"><ele>193.0</ele><time>2026-04-26T14:07:46.918Z</time></trkpt><trkpt lat="43.6954709" lon="13.015657"><ele>190.0</ele><time>2026-04-26T14:07:47.919Z</time></trkpt><trkpt lat="43.6954069" lon="13.0155312"><ele>187.0</ele><time>2026-04-26T14:07:48.918Z</time></trkpt><trkpt lat="43.6953399" lon="13.0154015"><ele>187.0</ele><time>2026-04-26T14:07:49.917Z</time></trkpt><trkpt lat="43.6952682" lon="13.0152702"><ele>187.0</ele><time>2026-04-26T14:07:50.919Z</time></trkpt><trkpt lat="43.6951962" lon="13.0151404"><ele>187.0</ele><time>2026-04-26T14:07:51.918Z</time></trkpt><trkpt lat="43.6951207" lon="13.0150031"><ele>187.0</ele><time>2026-04-26T14:07:52.92Z</time></trkpt><trkpt lat="43.6950467" lon="13.0148572"><ele>186.75</ele><time>2026-04-26T14:07:53.919Z</time></trkpt><trkpt lat="43.6949761" lon="13.0147234"><ele>186.5</ele><time>2026-04-26T14:07:54.917Z</time></trkpt><trkpt lat="43.6949089" lon="13.014597"><ele>186.25</ele><time>2026-04-26T14:07:55.917Z</time></trkpt><trkpt lat="43.6948405" lon="13.0144701"><ele>186.0</ele><time>2026-04-26T14:07:56.921Z</time></trkpt><trkpt lat="43.6947758" lon="13.014345"><ele>186.0</ele><time>2026-04-26T14:07:57.918Z</time></trkpt><trkpt lat="43.6947132" lon="13.0142163"><ele>186.0</ele><time>2026-04-26T14:07:58.918Z</time></trkpt><trkpt lat="43.6946543" lon="13.0140901"><ele>186.0</ele><time>2026-04-26T14:07:59.918Z</time></trkpt><trkpt lat="43.6946008" lon="13.0139633"><ele>186.0</ele><time>2026-04-26T14:08:00.918Z</time></trkpt><trkpt lat="43.6945431" lon="13.0138439"><ele>186.0</ele><time>2026-04-26T14:08:01.918Z</time></trkpt><trkpt lat="43.694508" lon="13.0137053"><ele>185.25</ele><time>2026-04-26T14:08:02.917Z</time></trkpt><trkpt lat="43.6944849" lon="13.0135567"><ele>184.5</ele><time>2026-04-26T14:08:03.917Z</time></trkpt><trkpt lat="43.6944464" lon="13.0134127"><ele>183.75</ele><time>2026-04-26T14:08:04.923Z</time></trkpt><trkpt lat="43.6943912" lon="13.0132745"><ele>183.0</ele><time>2026-04-26T14:08:05.919Z</time></trkpt><trkpt lat="43.6943317" lon="13.0131339"><ele>183.0</ele><time>2026-04-26T14:08:06.917Z</time></trkpt><trkpt lat="43.6942796" lon="13.0129893"><ele>183.0</ele><time>2026-04-26T14:08:07.918Z</time></trkpt><trkpt lat="43.694231" lon="13.0128321"><ele>183.0</ele><time>2026-04-26T14:08:08.918Z</time></trkpt><trkpt lat="43.6941839" lon="13.0126813"><ele>183.0</ele><time>2026-04-26T14:08:09.918Z</time></trkpt><trkpt lat="43.6941431" lon="13.0125334"><ele>181.4</ele><time>2026-04-26T14:08:10.917Z</time></trkpt><trkpt lat="43.6941057" lon="13.0123828"><ele>179.8</ele><time>2026-04-26T14:08:11.918Z</time></trkpt><trkpt lat="43.6940715" lon="13.0122345"><ele>178.2</ele><time>2026-04-26T14:08:12.921Z</time></trkpt><trkpt lat="43.6940359" lon="13.0120966"><ele>176.6</ele><time>2026-04-26T14:08:13.917Z</time></trkpt><trkpt lat="43.6939885" lon="13.0119666"><ele>175.0</ele><time>2026-04-26T14:08:14.917Z</time></trkpt><trkpt lat="43.6939277" lon="13.011839"><ele>175.0</ele><time>2026-04-26T14:08:15.918Z</time></trkpt><trkpt lat="43.6938556" lon="13.0117096"><ele>175.0</ele><time>2026-04-26T14:08:16.918Z</time></trkpt><trkpt lat="43.693786" lon="13.0115788"><ele>175.0</ele><time>2026-04-26T14:08:17.922Z</time></trkpt><trkpt lat="43.6937197" lon="13.0114474"><ele>175.0</ele><time>2026-04-26T14:08:18.917Z</time></trkpt><trkpt lat="43.6936556" lon="13.0113143"><ele>174.25</ele><time>2026-04-26T14:08:19.918Z</time></trkpt><trkpt lat="43.6935906" lon="13.0111829"><ele>173.5</ele><time>2026-04-26T14:08:20.919Z</time></trkpt><trkpt lat="43.693525" lon="13.0110534"><ele>172.75</ele><time>2026-04-26T14:08:21.919Z</time></trkpt><trkpt lat="43.6934594" lon="13.0109229"><ele>172.0</ele><time>2026-04-26T14:08:22.917Z</time></trkpt><trkpt lat="43.6933971" lon="13.0107952"><ele>171.39999999999998</ele><time>2026-04-26T14:08:23.918Z</time></trkpt><trkpt lat="43.6933398" lon="13.0106857"><ele>170.79999999999998</ele><time>2026-04-26T14:08:24.917Z</time></trkpt><trkpt lat="43.6932876" lon="13.0105797"><ele>170.2</ele><time>2026-04-26T14:08:25.918Z</time></trkpt><trkpt lat="43.6932354" lon="13.0104762"><ele>169.6</ele><time>2026-04-26T14:08:26.918Z</time></trkpt><trkpt lat="43.6931789" lon="13.0103562"><ele>169.0</ele><time>2026-04-26T14:08:27.918Z</time></trkpt><trkpt lat="43.6931174" lon="13.0102235"><ele>169.0</ele><time>2026-04-26T14:08:28.918Z</time></trkpt><trkpt lat="43.6930494" lon="13.0100824"><ele>169.0</ele><time>2026-04-26T14:08:29.918Z</time></trkpt><trkpt lat="43.6929768" lon="13.0099353"><ele>169.0</ele><time>2026-04-26T14:08:30.917Z</time></trkpt><trkpt lat="43.6928996" lon="13.0097791"><ele>169.0</ele><time>2026-04-26T14:08:31.917Z</time></trkpt><trkpt lat="43.6928162" lon="13.0096192"><ele>169.25</ele><time>2026-04-26T14:08:32.919Z</time></trkpt><trkpt lat="43.6927422" lon="13.0094648"><ele>169.5</ele><time>2026-04-26T14:08:33.918Z</time></trkpt><trkpt lat="43.6926756" lon="13.0093126"><ele>169.75</ele><time>2026-04-26T14:08:34.918Z</time></trkpt><trkpt lat="43.6926008" lon="13.0091524"><ele>170.0</ele><time>2026-04-26T14:08:35.918Z</time></trkpt><trkpt lat="43.6925236" lon="13.0089918"><ele>168.5</ele><time>2026-04-26T14:08:36.917Z</time></trkpt><trkpt lat="43.6924467" lon="13.0088358"><ele>167.0</ele><time>2026-04-26T14:08:37.917Z</time></trkpt><trkpt lat="43.6923616" lon="13.0086821"><ele>165.5</ele><time>2026-04-26T14:08:38.918Z</time></trkpt><trkpt lat="43.6922783" lon="13.0085317"><ele>164.0</ele><time>2026-04-26T14:08:39.918Z</time></trkpt><trkpt lat="43.6922038" lon="13.0083896"><ele>162.75</ele><time>2026-04-26T14:08:40.92Z</time></trkpt><trkpt lat="43.6921393" lon="13.0082541"><ele>161.5</ele><time>2026-04-26T14:08:41.918Z</time></trkpt><trkpt lat="43.6920749" lon="13.0081217"><ele>160.25</ele><time>2026-04-26T14:08:42.922Z</time></trkpt><trkpt lat="43.6920156" lon="13.0079849"><ele>159.0</ele><time>2026-04-26T14:08:43.918Z</time></trkpt><trkpt lat="43.6919691" lon="13.0078433"><ele>159.0</ele><time>2026-04-26T14:08:44.918Z</time></trkpt><trkpt lat="43.6919361" lon="13.007694"><ele>159.0</ele><time>2026-04-26T14:08:45.918Z</time></trkpt><trkpt lat="43.6919174" lon="13.0075388"><ele>159.0</ele><time>2026-04-26T14:08:46.918Z</time></trkpt><trkpt lat="43.6919148" lon="13.0073846"><ele>159.0</ele><time>2026-04-26T14:08:47.918Z</time></trkpt><trkpt lat="43.6919279" lon="13.0072465"><ele>159.0</ele><time>2026-04-26T14:08:48.918Z</time></trkpt><trkpt lat="43.6919474" lon="13.0071206"><ele>157.83333333333334</ele><time>2026-04-26T14:08:49.918Z</time></trkpt><trkpt lat="43.6919691" lon="13.0069991"><ele>156.66666666666666</ele><time>2026-04-26T14:08:50.918Z</time></trkpt><trkpt lat="43.6919908" lon="13.0068809"><ele>155.5</ele><time>2026-04-26T14:08:51.917Z</time></trkpt><trkpt lat="43.6920129" lon="13.0067636"><ele>154.33333333333331</ele><time>2026-04-26T14:08:52.917Z</time></trkpt><trkpt lat="43.692031" lon="13.0066429"><ele>153.16666666666666</ele><time>2026-04-26T14:08:53.918Z</time></trkpt><trkpt lat="43.6920477" lon="13.0065167"><ele>152.0</ele><time>2026-04-26T14:08:54.918Z</time></trkpt><trkpt lat="43.6920649" lon="13.0063944"><ele>150.33333333333331</ele><time>2026-04-26T14:08:55.919Z</time></trkpt><trkpt lat="43.6920829" lon="13.0062828"><ele>148.66666666666666</ele><time>2026-04-26T14:08:56.918Z</time></trkpt><trkpt lat="43.6920968" lon="13.0061711"><ele>147.0</ele><time>2026-04-26T14:08:57.918Z</time></trkpt><trkpt lat="43.6921118" lon="13.0060614"><ele>145.33333333333334</ele><time>2026-04-26T14:08:58.917Z</time></trkpt><trkpt lat="43.6921287" lon="13.0059526"><ele>143.66666666666669</ele><time>2026-04-26T14:08:59.918Z</time></trkpt><trkpt lat="43.6921454" lon="13.0058497"><ele>142.0</ele><time>2026-04-26T14:09:00.918Z</time></trkpt><trkpt lat="43.6921642" lon="13.0057448"><ele>140.16666666666669</ele><time>2026-04-26T14:09:01.917Z</time></trkpt><trkpt lat="43.6921832" lon="13.0056312"><ele>138.33333333333334</ele><time>2026-04-26T14:09:02.917Z</time></trkpt><trkpt lat="43.6922001" lon="13.0055148"><ele>136.5</ele><time>2026-04-26T14:09:03.919Z</time></trkpt><trkpt lat="43.6922189" lon="13.0053993"><ele>134.66666666666666</ele><time>2026-04-26T14:09:04.918Z</time></trkpt><trkpt lat="43.6922381" lon="13.005279"><ele>132.83333333333331</ele><time>2026-04-26T14:09:05.919Z</time></trkpt><trkpt lat="43.6922611" lon="13.005154"><ele>131.0</ele><time>2026-04-26T14:09:06.919Z</time></trkpt><trkpt lat="43.692287" lon="13.0050266"><ele>129.2</ele><time>2026-04-26T14:09:07.918Z</time></trkpt><trkpt lat="43.6923131" lon="13.0049019"><ele>127.39999999999999</ele><time>2026-04-26T14:09:08.917Z</time></trkpt><trkpt lat="43.6923385" lon="13.0047758"><ele>125.6</ele><time>2026-04-26T14:09:09.918Z</time></trkpt><trkpt lat="43.6923604" lon="13.0046528"><ele>123.8</ele><time>2026-04-26T14:09:10.919Z</time></trkpt><trkpt lat="43.692385" lon="13.004524"><ele>122.0</ele><time>2026-04-26T14:09:11.919Z</time></trkpt><trkpt lat="43.6924101" lon="13.0043839"><ele>122.0</ele><time>2026-04-26T14:09:12.917Z</time></trkpt><trkpt lat="43.6924303" lon="13.0042437"><ele>121.99999999999999</ele><time>2026-04-26T14:09:13.917Z</time></trkpt><trkpt lat="43.6924511" lon="13.0041106"><ele>121.99999999999999</ele><time>2026-04-26T14:09:14.918Z</time></trkpt><trkpt lat="43.692473" lon="13.0039741"><ele>122.0</ele><time>2026-04-26T14:09:15.918Z</time></trkpt><trkpt lat="43.6924951" lon="13.0038349"><ele>122.0</ele><time>2026-04-26T14:09:16.918Z</time></trkpt><trkpt lat="43.6925127" lon="13.0036959"><ele>120.6</ele><time>2026-04-26T14:09:17.918Z</time></trkpt><trkpt lat="43.6925223" lon="13.0035584"><ele>119.19999999999999</ele><time>2026-04-26T14:09:18.918Z</time></trkpt><trkpt lat="43.6925363" lon="13.0034305"><ele>117.8</ele><time>2026-04-26T14:09:19.918Z</time></trkpt><trkpt lat="43.6925407" lon="13.0032978"><ele>116.4</ele><time>2026-04-26T14:09:20.918Z</time></trkpt><trkpt lat="43.6925408" lon="13.0031663"><ele>115.0</ele><time>2026-04-26T14:09:21.918Z</time></trkpt><trkpt lat="43.6925319" lon="13.0030286"><ele>113.8</ele><time>2026-04-26T14:09:22.917Z</time></trkpt><trkpt lat="43.6925157" lon="13.0028997"><ele>112.6</ele><time>2026-04-26T14:09:23.918Z</time></trkpt><trkpt lat="43.6924889" lon="13.0027765"><ele>111.4</ele><time>2026-04-26T14:09:24.917Z</time></trkpt><trkpt lat="43.6924581" lon="13.0026595"><ele>110.2</ele><time>2026-04-26T14:09:25.918Z</time></trkpt><trkpt lat="43.6924194" lon="13.0025497"><ele>109.0</ele><time>2026-04-26T14:09:26.918Z</time></trkpt><trkpt lat="43.6923811" lon="13.0024369"><ele>108.4</ele><time>2026-04-26T14:09:27.918Z</time></trkpt><trkpt lat="43.6923417" lon="13.0023208"><ele>107.80000000000001</ele><time>2026-04-26T14:09:28.917Z</time></trkpt><trkpt lat="43.6923206" lon="13.002199"><ele>107.19999999999999</ele><time>2026-04-26T14:09:29.917Z</time></trkpt><trkpt lat="43.6923129" lon="13.0020757"><ele>106.6</ele><time>2026-04-26T14:09:30.919Z</time></trkpt><trkpt lat="43.692313" lon="13.0019391"><ele>106.0</ele><time>2026-04-26T14:09:31.917Z</time></trkpt><trkpt lat="43.6923585" lon="13.0018076"><ele>106.0</ele><time>2026-04-26T14:09:32.917Z</time></trkpt><trkpt lat="43.6924298" lon="13.0016744"><ele>106.0</ele><time>2026-04-26T14:09:33.918Z</time></trkpt><trkpt lat="43.6924998" lon="13.0015356"><ele>106.0</ele><time>2026-04-26T14:09:34.918Z</time></trkpt><trkpt lat="43.6925718" lon="13.0013929"><ele>106.0</ele><time>2026-04-26T14:09:35.918Z</time></trkpt><trkpt lat="43.6926448" lon="13.0012479"><ele>106.33333333333334</ele><time>2026-04-26T14:09:36.918Z</time></trkpt><trkpt lat="43.6927204" lon="13.0010894"><ele>106.66666666666666</ele><time>2026-04-26T14:09:37.918Z</time></trkpt><trkpt lat="43.6928067" lon="13.0009068"><ele>107.0</ele><time>2026-04-26T14:09:38.917Z</time></trkpt><trkpt lat="43.6929029" lon="13.0007089"><ele>106.5</ele><time>2026-04-26T14:09:39.92Z</time></trkpt><trkpt lat="43.6929833" lon="13.0005397"><ele>106.0</ele><time>2026-04-26T14:09:40.918Z</time></trkpt><trkpt lat="43.6930471" lon="13.0003935"><ele>105.5</ele><time>2026-04-26T14:09:41.918Z</time></trkpt><trkpt lat="43.6931015" lon="13.0002798"><ele>105.0</ele><time>2026-04-26T14:09:42.918Z</time></trkpt><trkpt lat="43.6931556" lon="13.0001819"><ele>105.0</ele><time>2026-04-26T14:09:43.918Z</time></trkpt><trkpt lat="43.6932042" lon="13.0001033"><ele>105.0</ele><time>2026-04-26T14:09:44.918Z</time></trkpt><trkpt lat="43.6932767" lon="12.9999602"><ele>105.0</ele><time>2026-04-26T14:09:46.918Z</time></trkpt><trkpt lat="43.6932947" lon="12.9998593"><ele>105.0</ele><time>2026-04-26T14:09:47.918Z</time></trkpt><trkpt lat="43.6932932" lon="12.9997166"><ele>105.0</ele><time>2026-04-26T14:09:48.919Z</time></trkpt><trkpt lat="43.6932783" lon="12.9995275"><ele>105.0</ele><time>2026-04-26T14:09:49.919Z</time></trkpt><trkpt lat="43.6932534" lon="12.9993085"><ele>105.0</ele><time>2026-04-26T14:09:50.919Z</time></trkpt><trkpt lat="43.6932249" lon="12.999072"><ele>105.0</ele><time>2026-04-26T14:09:51.919Z</time></trkpt><trkpt lat="43.6931942" lon="12.9988161"><ele>106.0</ele><time>2026-04-26T14:09:52.92Z</time></trkpt><trkpt lat="43.6931647" lon="12.9985469"><ele>107.0</ele><time>2026-04-26T14:09:53.917Z</time></trkpt><trkpt lat="43.6931426" lon="12.9982863"><ele>108.0</ele><time>2026-04-26T14:09:54.918Z</time></trkpt><trkpt lat="43.6931267" lon="12.9980423"><ele>110.0</ele><time>2026-04-26T14:09:55.918Z</time></trkpt><trkpt lat="43.6931147" lon="12.9978031"><ele>112.0</ele><time>2026-04-26T14:09:56.918Z</time></trkpt><trkpt lat="43.693111" lon="12.9975678"><ele>114.0</ele><time>2026-04-26T14:09:57.919Z</time></trkpt><trkpt lat="43.6931143" lon="12.9973288"><ele>117.0</ele><time>2026-04-26T14:09:58.92Z</time></trkpt><trkpt lat="43.6931229" lon="12.9970876"><ele>120.0</ele><time>2026-04-26T14:09:59.918Z</time></trkpt><trkpt lat="43.6931397" lon="12.996848"><ele>123.0</ele><time>2026-04-26T14:10:00.917Z</time></trkpt><trkpt lat="43.6931582" lon="12.9965983"><ele>125.0</ele><time>2026-04-26T14:10:01.917Z</time></trkpt><trkpt lat="43.6931726" lon="12.9963361"><ele>127.0</ele><time>2026-04-26T14:10:02.917Z</time></trkpt><trkpt lat="43.6931948" lon="12.996068"><ele>129.0</ele><time>2026-04-26T14:10:03.918Z</time></trkpt><trkpt lat="43.6932166" lon="12.995813"><ele>131.33333333333334</ele><time>2026-04-26T14:10:04.917Z</time></trkpt><trkpt lat="43.6932342" lon="12.9955633"><ele>133.66666666666669</ele><time>2026-04-26T14:10:05.918Z</time></trkpt><trkpt lat="43.6932457" lon="12.9953149"><ele>136.0</ele><time>2026-04-26T14:10:06.918Z</time></trkpt><trkpt lat="43.6932569" lon="12.9950692"><ele>138.0</ele><time>2026-04-26T14:10:07.917Z</time></trkpt><trkpt lat="43.6932671" lon="12.994824"><ele>140.0</ele><time>2026-04-26T14:10:08.918Z</time></trkpt><trkpt lat="43.693268" lon="12.994592"><ele>142.0</ele><time>2026-04-26T14:10:09.918Z</time></trkpt><trkpt lat="43.6932566" lon="12.9943683"><ele>144.33333333333334</ele><time>2026-04-26T14:10:10.917Z</time></trkpt><trkpt lat="43.6932303" lon="12.9941507"><ele>146.66666666666666</ele><time>2026-04-26T14:10:11.918Z</time></trkpt><trkpt lat="43.6931954" lon="12.9939179"><ele>149.0</ele><time>2026-04-26T14:10:12.917Z</time></trkpt><trkpt lat="43.6931595" lon="12.9936793"><ele>149.0</ele><time>2026-04-26T14:10:13.918Z</time></trkpt><trkpt lat="43.693136" lon="12.9934482"><ele>149.0</ele><time>2026-04-26T14:10:14.918Z</time></trkpt><trkpt lat="43.6931304" lon="12.9932264"><ele>149.0</ele><time>2026-04-26T14:10:15.918Z</time></trkpt><trkpt lat="43.693144" lon="12.9930281"><ele>150.2</ele><time>2026-04-26T14:10:16.917Z</time></trkpt><trkpt lat="43.6931681" lon="12.9928531"><ele>151.4</ele><time>2026-04-26T14:10:17.917Z</time></trkpt><trkpt lat="43.6931838" lon="12.9927064"><ele>152.6</ele><time>2026-04-26T14:10:18.918Z</time></trkpt><trkpt lat="43.6931814" lon="12.9925805"><ele>153.8</ele><time>2026-04-26T14:10:19.917Z</time></trkpt><trkpt lat="43.6931464" lon="12.992445"><ele>155.0</ele><time>2026-04-26T14:10:20.918Z</time></trkpt><trkpt lat="43.6930994" lon="12.9923022"><ele>155.75</ele><time>2026-04-26T14:10:21.917Z</time></trkpt><trkpt lat="43.6930438" lon="12.9921689"><ele>156.5</ele><time>2026-04-26T14:10:22.917Z</time></trkpt><trkpt lat="43.6929254" lon="12.9920579"><ele>157.25</ele><time>2026-04-26T14:10:23.917Z</time></trkpt><trkpt lat="43.6928248" lon="12.9919365"><ele>158.0</ele><time>2026-04-26T14:10:24.918Z</time></trkpt><trkpt lat="43.6927388" lon="12.9917894"><ele>161.0</ele><time>2026-04-26T14:10:25.918Z</time></trkpt><trkpt lat="43.692657" lon="12.9916232"><ele>164.0</ele><time>2026-04-26T14:10:26.918Z</time></trkpt><trkpt lat="43.6925757" lon="12.991464"><ele>167.0</ele><time>2026-04-26T14:10:27.919Z</time></trkpt><trkpt lat="43.6925025" lon="12.9913116"><ele>170.0</ele><time>2026-04-26T14:10:28.919Z</time></trkpt><trkpt lat="43.692442" lon="12.9911505"><ele>170.0</ele><time>2026-04-26T14:10:29.921Z</time></trkpt><trkpt lat="43.6923987" lon="12.9909777"><ele>170.0</ele><time>2026-04-26T14:10:30.918Z</time></trkpt><trkpt lat="43.6923696" lon="12.9907937"><ele>170.0</ele><time>2026-04-26T14:10:31.919Z</time></trkpt><trkpt lat="43.6923499" lon="12.9906031"><ele>170.0</ele><time>2026-04-26T14:10:32.918Z</time></trkpt><trkpt lat="43.6923327" lon="12.9904143"><ele>172.25</ele><time>2026-04-26T14:10:33.918Z</time></trkpt><trkpt lat="43.6923022" lon="12.9902382"><ele>174.5</ele><time>2026-04-26T14:10:34.918Z</time></trkpt><trkpt lat="43.6922582" lon="12.9900589"><ele>176.75</ele><time>2026-04-26T14:10:35.918Z</time></trkpt><trkpt lat="43.6921954" lon="12.9898607"><ele>179.0</ele><time>2026-04-26T14:10:36.918Z</time></trkpt><trkpt lat="43.692119" lon="12.9896513"><ele>181.33333333333331</ele><time>2026-04-26T14:10:37.92Z</time></trkpt><trkpt lat="43.6920377" lon="12.9894418"><ele>183.66666666666666</ele><time>2026-04-26T14:10:38.918Z</time></trkpt><trkpt lat="43.6919667" lon="12.9892415"><ele>186.0</ele><time>2026-04-26T14:10:39.92Z</time></trkpt><trkpt lat="43.6919006" lon="12.9890465"><ele>189.66666666666669</ele><time>2026-04-26T14:10:40.918Z</time></trkpt><trkpt lat="43.69183" lon="12.9888431"><ele>193.33333333333334</ele><time>2026-04-26T14:10:41.918Z</time></trkpt><trkpt lat="43.6917668" lon="12.9886439"><ele>197.0</ele><time>2026-04-26T14:10:42.92Z</time></trkpt><trkpt lat="43.6917156" lon="12.9884589"><ele>199.66666666666669</ele><time>2026-04-26T14:10:43.92Z</time></trkpt><trkpt lat="43.6916578" lon="12.9882798"><ele>202.33333333333331</ele><time>2026-04-26T14:10:44.917Z</time></trkpt><trkpt lat="43.6915986" lon="12.9880772"><ele>205.0</ele><time>2026-04-26T14:10:45.921Z</time></trkpt><trkpt lat="43.6915417" lon="12.9878675"><ele>205.0</ele><time>2026-04-26T14:10:46.917Z</time></trkpt><trkpt lat="43.6914853" lon="12.9876672"><ele>205.0</ele><time>2026-04-26T14:10:47.918Z</time></trkpt><trkpt lat="43.6914364" lon="12.9874927"><ele>205.0</ele><time>2026-04-26T14:10:48.918Z</time></trkpt><trkpt lat="43.6913869" lon="12.9873375"><ele>205.0</ele><time>2026-04-26T14:10:49.917Z</time></trkpt><trkpt lat="43.6913294" lon="12.9871709"><ele>207.33333333333331</ele><time>2026-04-26T14:10:50.917Z</time></trkpt><trkpt lat="43.6912674" lon="12.9869674"><ele>209.66666666666669</ele><time>2026-04-26T14:10:51.919Z</time></trkpt><trkpt lat="43.6912097" lon="12.9867471"><ele>212.0</ele><time>2026-04-26T14:10:52.922Z</time></trkpt><trkpt lat="43.6911601" lon="12.9865446"><ele>212.50000000000003</ele><time>2026-04-26T14:10:53.922Z</time></trkpt><trkpt lat="43.6911255" lon="12.9864078"><ele>213.0</ele><time>2026-04-26T14:10:54.917Z</time></trkpt><trkpt lat="43.6910908" lon="12.9863004"><ele>213.5</ele><time>2026-04-26T14:10:55.918Z</time></trkpt><trkpt lat="43.6910651" lon="12.9861932"><ele>214.0</ele><time>2026-04-26T14:10:56.918Z</time></trkpt><trkpt lat="43.6910453" lon="12.9860886"><ele>214.50000000000003</ele><time>2026-04-26T14:10:57.918Z</time></trkpt><trkpt lat="43.69103" lon="12.9859889"><ele>215.0</ele><time>2026-04-26T14:10:58.919Z</time></trkpt><trkpt lat="43.6910196" lon="12.9858439"><ele>217.2</ele><time>2026-04-26T14:11:00.917Z</time></trkpt><trkpt lat="43.6910241" lon="12.9856905"><ele>219.4</ele><time>2026-04-26T14:11:02.918Z</time></trkpt><trkpt lat="43.6910407" lon="12.9856019"><ele>221.60000000000002</ele><time>2026-04-26T14:11:16.918Z</time></trkpt><trkpt lat="43.6910962" lon="12.9854614"><ele>223.8</ele><time>2026-04-26T14:11:18.921Z</time></trkpt><trkpt lat="43.6911437" lon="12.9853484"><ele>226.0</ele><time>2026-04-26T14:11:19.917Z</time></trkpt><trkpt lat="43.6911917" lon="12.9852364"><ele>226.0</ele><time>2026-04-26T14:11:20.918Z</time></trkpt><trkpt lat="43.6912514" lon="12.9851058"><ele>226.0</ele><time>2026-04-26T14:11:21.918Z</time></trkpt><trkpt lat="43.6913105" lon="12.9849558"><ele>226.0</ele><time>2026-04-26T14:11:22.917Z</time></trkpt><trkpt lat="43.6913752" lon="12.9847945"><ele>226.0</ele><time>2026-04-26T14:11:23.919Z</time></trkpt><trkpt lat="43.6914437" lon="12.9846267"><ele>225.75</ele><time>2026-04-26T14:11:24.917Z</time></trkpt><trkpt lat="43.6915082" lon="12.9844513"><ele>225.5</ele><time>2026-04-26T14:11:25.918Z</time></trkpt><trkpt lat="43.6915724" lon="12.9842735"><ele>225.25</ele><time>2026-04-26T14:11:26.918Z</time></trkpt><trkpt lat="43.691629" lon="12.9840859"><ele>225.0</ele><time>2026-04-26T14:11:27.917Z</time></trkpt><trkpt lat="43.6916677" lon="12.983887"><ele>225.0</ele><time>2026-04-26T14:11:28.917Z</time></trkpt><trkpt lat="43.6916883" lon="12.9836717"><ele>225.0</ele><time>2026-04-26T14:11:29.918Z</time></trkpt><trkpt lat="43.6917014" lon="12.9834432"><ele>225.0</ele><time>2026-04-26T14:11:30.919Z</time></trkpt><trkpt lat="43.69171" lon="12.983208"><ele>225.33333333333331</ele><time>2026-04-26T14:11:31.918Z</time></trkpt><trkpt lat="43.6917137" lon="12.9829672"><ele>225.66666666666666</ele><time>2026-04-26T14:11:32.918Z</time></trkpt><trkpt lat="43.6917182" lon="12.9827174"><ele>226.0</ele><time>2026-04-26T14:11:33.92Z</time></trkpt><trkpt lat="43.6917234" lon="12.9824625"><ele>227.0</ele><time>2026-04-26T14:11:34.919Z</time></trkpt><trkpt lat="43.6917238" lon="12.9822123"><ele>228.0</ele><time>2026-04-26T14:11:35.917Z</time></trkpt><trkpt lat="43.691722" lon="12.9819723"><ele>229.0</ele><time>2026-04-26T14:11:36.918Z</time></trkpt><trkpt lat="43.6917218" lon="12.9817375"><ele>229.25</ele><time>2026-04-26T14:11:37.917Z</time></trkpt><trkpt lat="43.691718" lon="12.9815185"><ele>229.5</ele><time>2026-04-26T14:11:38.919Z</time></trkpt><trkpt lat="43.6916881" lon="12.9813258"><ele>229.75</ele><time>2026-04-26T14:11:39.918Z</time></trkpt><trkpt lat="43.6916257" lon="12.9811574"><ele>230.0</ele><time>2026-04-26T14:11:40.919Z</time></trkpt><trkpt lat="43.6915272" lon="12.9810156"><ele>230.0</ele><time>2026-04-26T14:11:41.917Z</time></trkpt><trkpt lat="43.691402" lon="12.9809"><ele>230.0</ele><time>2026-04-26T14:11:42.919Z</time></trkpt><trkpt lat="43.6912628" lon="12.9807949"><ele>230.0</ele><time>2026-04-26T14:11:43.917Z</time></trkpt><trkpt lat="43.6911227" lon="12.9806978"><ele>229.0</ele><time>2026-04-26T14:11:44.918Z</time></trkpt><trkpt lat="43.6909881" lon="12.9806086"><ele>228.0</ele><time>2026-04-26T14:11:45.919Z</time></trkpt><trkpt lat="43.6908591" lon="12.9805274"><ele>227.0</ele><time>2026-04-26T14:11:46.917Z</time></trkpt><trkpt lat="43.6907356" lon="12.9804436"><ele>226.0</ele><time>2026-04-26T14:11:47.918Z</time></trkpt><trkpt lat="43.690611" lon="12.9803513"><ele>226.0</ele><time>2026-04-26T14:11:48.918Z</time></trkpt><trkpt lat="43.6904913" lon="12.9802348"><ele>226.0</ele><time>2026-04-26T14:11:49.919Z</time></trkpt><trkpt lat="43.6903724" lon="12.9801045"><ele>226.0</ele><time>2026-04-26T14:11:50.918Z</time></trkpt><trkpt lat="43.6902471" lon="12.9799705"><ele>225.33333333333331</ele><time>2026-04-26T14:11:51.918Z</time></trkpt><trkpt lat="43.690119" lon="12.9798371"><ele>224.66666666666669</ele><time>2026-04-26T14:11:52.917Z</time></trkpt><trkpt lat="43.68999" lon="12.9796953"><ele>224.0</ele><time>2026-04-26T14:11:53.917Z</time></trkpt><trkpt lat="43.6898606" lon="12.9795413"><ele>224.0</ele><time>2026-04-26T14:11:54.918Z</time></trkpt><trkpt lat="43.6897356" lon="12.9793826"><ele>224.0</ele><time>2026-04-26T14:11:55.917Z</time></trkpt><trkpt lat="43.6896065" lon="12.979225"><ele>224.0</ele><time>2026-04-26T14:11:56.918Z</time></trkpt><trkpt lat="43.6894769" lon="12.9790695"><ele>223.66666666666669</ele><time>2026-04-26T14:11:57.918Z</time></trkpt><trkpt lat="43.6893512" lon="12.9789104"><ele>223.33333333333331</ele><time>2026-04-26T14:11:58.918Z</time></trkpt><trkpt lat="43.6892323" lon="12.9787439"><ele>223.0</ele><time>2026-04-26T14:11:59.917Z</time></trkpt><trkpt lat="43.6891215" lon="12.9785686"><ele>223.0</ele><time>2026-04-26T14:12:00.918Z</time></trkpt><trkpt lat="43.6890285" lon="12.9783853"><ele>223.0</ele><time>2026-04-26T14:12:01.917Z</time></trkpt><trkpt lat="43.6889534" lon="12.9781885"><ele>223.0</ele><time>2026-04-26T14:12:02.917Z</time></trkpt><trkpt lat="43.6888938" lon="12.977984"><ele>224.5</ele><time>2026-04-26T14:12:03.917Z</time></trkpt><trkpt lat="43.6888486" lon="12.9777841"><ele>226.0</ele><time>2026-04-26T14:12:04.918Z</time></trkpt><trkpt lat="43.6888091" lon="12.9775954"><ele>227.5</ele><time>2026-04-26T14:12:05.918Z</time></trkpt><trkpt lat="43.6887748" lon="12.9774062"><ele>229.0</ele><time>2026-04-26T14:12:06.917Z</time></trkpt><trkpt lat="43.6887581" lon="12.9772255"><ele>230.5</ele><time>2026-04-26T14:12:07.925Z</time></trkpt><trkpt lat="43.6887525" lon="12.9770638"><ele>232.0</ele><time>2026-04-26T14:12:08.919Z</time></trkpt><trkpt lat="43.6887536" lon="12.976902"><ele>233.5</ele><time>2026-04-26T14:12:09.918Z</time></trkpt><trkpt lat="43.6887603" lon="12.9767325"><ele>235.0</ele><time>2026-04-26T14:12:10.917Z</time></trkpt><trkpt lat="43.6887831" lon="12.9765601"><ele>235.5</ele><time>2026-04-26T14:12:11.918Z</time></trkpt><trkpt lat="43.6888301" lon="12.9763847"><ele>236.0</ele><time>2026-04-26T14:12:12.918Z</time></trkpt><trkpt lat="43.688892" lon="12.9762046"><ele>236.5</ele><time>2026-04-26T14:12:13.917Z</time></trkpt><trkpt lat="43.6889613" lon="12.9760118"><ele>237.0</ele><time>2026-04-26T14:12:14.919Z</time></trkpt><trkpt lat="43.689029" lon="12.9758013"><ele>237.0</ele><time>2026-04-26T14:12:15.918Z</time></trkpt><trkpt lat="43.6890919" lon="12.9755824"><ele>237.0</ele><time>2026-04-26T14:12:16.917Z</time></trkpt><trkpt lat="43.6891556" lon="12.9753672"><ele>237.0</ele><time>2026-04-26T14:12:17.917Z</time></trkpt><trkpt lat="43.6892153" lon="12.9751499"><ele>235.66666666666669</ele><time>2026-04-26T14:12:18.919Z</time></trkpt><trkpt lat="43.689272" lon="12.9749388"><ele>234.33333333333334</ele><time>2026-04-26T14:12:19.918Z</time></trkpt><trkpt lat="43.6893253" lon="12.9747378"><ele>233.0</ele><time>2026-04-26T14:12:20.917Z</time></trkpt><trkpt lat="43.6893769" lon="12.9745554"><ele>234.0</ele><time>2026-04-26T14:12:21.918Z</time></trkpt><trkpt lat="43.6894255" lon="12.9743921"><ele>235.0</ele><time>2026-04-26T14:12:22.92Z</time></trkpt><trkpt lat="43.6894722" lon="12.9742436"><ele>236.0</ele><time>2026-04-26T14:12:23.92Z</time></trkpt><trkpt lat="43.6895201" lon="12.9741183"><ele>237.0</ele><time>2026-04-26T14:12:24.918Z</time></trkpt><trkpt lat="43.6895785" lon="12.9740216"><ele>238.0</ele><time>2026-04-26T14:12:25.918Z</time></trkpt><trkpt lat="43.6896448" lon="12.973948"><ele>237.99999999999997</ele><time>2026-04-26T14:12:26.922Z</time></trkpt><trkpt lat="43.689712" lon="12.9738978"><ele>238.0</ele><time>2026-04-26T14:12:27.917Z</time></trkpt><trkpt lat="43.6897673" lon="12.9738273"><ele>238.0</ele><time>2026-04-26T14:12:28.918Z</time></trkpt><trkpt lat="43.6897912" lon="12.9737274"><ele>238.0</ele><time>2026-04-26T14:12:29.919Z</time></trkpt><trkpt lat="43.6897882" lon="12.9735991"><ele>237.99999999999997</ele><time>2026-04-26T14:12:30.919Z</time></trkpt><trkpt lat="43.6897793" lon="12.9734481"><ele>238.0</ele><time>2026-04-26T14:12:31.918Z</time></trkpt><trkpt lat="43.6897698" lon="12.9732813"><ele>236.75</ele><time>2026-04-26T14:12:32.918Z</time></trkpt><trkpt lat="43.689775" lon="12.9731089"><ele>235.5</ele><time>2026-04-26T14:12:33.918Z</time></trkpt><trkpt lat="43.6897856" lon="12.972924"><ele>234.25</ele><time>2026-04-26T14:12:34.918Z</time></trkpt><trkpt lat="43.6897989" lon="12.9727444"><ele>233.0</ele><time>2026-04-26T14:12:35.918Z</time></trkpt><trkpt lat="43.689814" lon="12.972575"><ele>232.75</ele><time>2026-04-26T14:12:36.917Z</time></trkpt><trkpt lat="43.6898303" lon="12.9724094"><ele>232.5</ele><time>2026-04-26T14:12:37.92Z</time></trkpt><trkpt lat="43.6898442" lon="12.9722461"><ele>232.25</ele><time>2026-04-26T14:12:38.917Z</time></trkpt><trkpt lat="43.6898591" lon="12.9720913"><ele>232.0</ele><time>2026-04-26T14:12:39.917Z</time></trkpt><trkpt lat="43.6898804" lon="12.9719455"><ele>232.0</ele><time>2026-04-26T14:12:40.917Z</time></trkpt><trkpt lat="43.6899039" lon="12.9718072"><ele>232.0</ele><time>2026-04-26T14:12:41.917Z</time></trkpt><trkpt lat="43.6899354" lon="12.9716927"><ele>232.0</ele><time>2026-04-26T14:12:42.918Z</time></trkpt><trkpt lat="43.6899813" lon="12.9715831"><ele>232.0</ele><time>2026-04-26T14:12:43.917Z</time></trkpt><trkpt lat="43.6900491" lon="12.9714711"><ele>232.0</ele><time>2026-04-26T14:12:44.918Z</time></trkpt><trkpt lat="43.6901265" lon="12.9713418"><ele>231.5</ele><time>2026-04-26T14:12:45.917Z</time></trkpt><trkpt lat="43.6902096" lon="12.9711966"><ele>231.0</ele><time>2026-04-26T14:12:46.918Z</time></trkpt><trkpt lat="43.6902881" lon="12.9710545"><ele>230.5</ele><time>2026-04-26T14:12:47.917Z</time></trkpt><trkpt lat="43.6903746" lon="12.9708978"><ele>230.0</ele><time>2026-04-26T14:12:48.917Z</time></trkpt><trkpt lat="43.6904653" lon="12.9707403"><ele>227.0</ele><time>2026-04-26T14:12:49.917Z</time></trkpt><trkpt lat="43.6905497" lon="12.970577"><ele>224.0</ele><time>2026-04-26T14:12:50.918Z</time></trkpt><trkpt lat="43.6906127" lon="12.9704054"><ele>221.0</ele><time>2026-04-26T14:12:51.918Z</time></trkpt><trkpt lat="43.6906492" lon="12.9702376"><ele>218.0</ele><time>2026-04-26T14:12:52.918Z</time></trkpt><trkpt lat="43.6906559" lon="12.9700547"><ele>218.75</ele><time>2026-04-26T14:12:53.918Z</time></trkpt><trkpt lat="43.6906436" lon="12.9698694"><ele>219.5</ele><time>2026-04-26T14:12:54.918Z</time></trkpt><trkpt lat="43.6906196" lon="12.9696822"><ele>220.25</ele><time>2026-04-26T14:12:55.918Z</time></trkpt><trkpt lat="43.6905142" lon="12.9695114"><ele>221.0</ele><time>2026-04-26T14:12:56.918Z</time></trkpt><trkpt lat="43.6904217" lon="12.9693412"><ele>222.66666666666669</ele><time>2026-04-26T14:12:57.918Z</time></trkpt><trkpt lat="43.6903073" lon="12.9691754"><ele>224.33333333333331</ele><time>2026-04-26T14:12:58.917Z</time></trkpt><trkpt lat="43.6901837" lon="12.9690135"><ele>226.0</ele><time>2026-04-26T14:12:59.918Z</time></trkpt><trkpt lat="43.6900462" lon="12.9688416"><ele>226.33333333333331</ele><time>2026-04-26T14:13:00.917Z</time></trkpt><trkpt lat="43.6899184" lon="12.9686802"><ele>226.66666666666669</ele><time>2026-04-26T14:13:01.918Z</time></trkpt><trkpt lat="43.6897939" lon="12.9685263"><ele>227.0</ele><time>2026-04-26T14:13:02.917Z</time></trkpt><trkpt lat="43.6896735" lon="12.9683754"><ele>228.66666666666669</ele><time>2026-04-26T14:13:03.918Z</time></trkpt><trkpt lat="43.6895455" lon="12.9682172"><ele>230.33333333333331</ele><time>2026-04-26T14:13:04.918Z</time></trkpt><trkpt lat="43.6894465" lon="12.9680609"><ele>232.0</ele><time>2026-04-26T14:13:05.918Z</time></trkpt><trkpt lat="43.6893531" lon="12.9678777"><ele>232.0</ele><time>2026-04-26T14:13:06.918Z</time></trkpt><trkpt lat="43.6892742" lon="12.9676916"><ele>232.0</ele><time>2026-04-26T14:13:07.917Z</time></trkpt><trkpt lat="43.6892048" lon="12.9674872"><ele>232.0</ele><time>2026-04-26T14:13:08.918Z</time></trkpt><trkpt lat="43.6891251" lon="12.9672886"><ele>235.33333333333331</ele><time>2026-04-26T14:13:09.919Z</time></trkpt><trkpt lat="43.6890388" lon="12.9670967"><ele>238.66666666666669</ele><time>2026-04-26T14:13:10.918Z</time></trkpt><trkpt lat="43.6889432" lon="12.9669103"><ele>242.0</ele><time>2026-04-26T14:13:11.918Z</time></trkpt><trkpt lat="43.6888393" lon="12.9667289"><ele>241.66666666666669</ele><time>2026-04-26T14:13:12.917Z</time></trkpt><trkpt lat="43.688734" lon="12.9665477"><ele>241.33333333333331</ele><time>2026-04-26T14:13:13.917Z</time></trkpt><trkpt lat="43.6886265" lon="12.9663729"><ele>241.0</ele><time>2026-04-26T14:13:14.917Z</time></trkpt><trkpt lat="43.6885225" lon="12.9662029"><ele>241.0</ele><time>2026-04-26T14:13:15.918Z</time></trkpt><trkpt lat="43.6884248" lon="12.9660306"><ele>241.0</ele><time>2026-04-26T14:13:16.917Z</time></trkpt><trkpt lat="43.6883308" lon="12.9658758"><ele>241.0</ele><time>2026-04-26T14:13:17.917Z</time></trkpt><trkpt lat="43.6882433" lon="12.9657352"><ele>241.0</ele><time>2026-04-26T14:13:18.918Z</time></trkpt><trkpt lat="43.6881602" lon="12.9656166"><ele>244.0</ele><time>2026-04-26T14:13:19.918Z</time></trkpt><trkpt lat="43.688074" lon="12.9655204"><ele>247.0</ele><time>2026-04-26T14:13:20.917Z</time></trkpt><trkpt lat="43.6879805" lon="12.9654365"><ele>250.0</ele><time>2026-04-26T14:13:21.919Z</time></trkpt><trkpt lat="43.6878773" lon="12.9653614"><ele>253.0</ele><time>2026-04-26T14:13:22.917Z</time></trkpt><trkpt lat="43.6877728" lon="12.9652801"><ele>252.25</ele><time>2026-04-26T14:13:23.917Z</time></trkpt><trkpt lat="43.6876718" lon="12.9651709"><ele>251.5</ele><time>2026-04-26T14:13:24.917Z</time></trkpt><trkpt lat="43.6875692" lon="12.9650458"><ele>250.75</ele><time>2026-04-26T14:13:25.918Z</time></trkpt><trkpt lat="43.6874626" lon="12.9649182"><ele>250.0</ele><time>2026-04-26T14:13:26.918Z</time></trkpt><trkpt lat="43.6873445" lon="12.9647953"><ele>250.0</ele><time>2026-04-26T14:13:27.917Z</time></trkpt><trkpt lat="43.687218" lon="12.9646784"><ele>250.0</ele><time>2026-04-26T14:13:28.917Z</time></trkpt><trkpt lat="43.6870898" lon="12.964566"><ele>250.0</ele><time>2026-04-26T14:13:29.919Z</time></trkpt><trkpt lat="43.6869682" lon="12.9644641"><ele>250.0</ele><time>2026-04-26T14:13:30.918Z</time></trkpt><trkpt lat="43.6868553" lon="12.9643709"><ele>250.25</ele><time>2026-04-26T14:13:31.918Z</time></trkpt><trkpt lat="43.6867524" lon="12.9642698"><ele>250.5</ele><time>2026-04-26T14:13:32.918Z</time></trkpt><trkpt lat="43.6866758" lon="12.9641432"><ele>250.75</ele><time>2026-04-26T14:13:33.918Z</time></trkpt><trkpt lat="43.686617" lon="12.9639879"><ele>251.0</ele><time>2026-04-26T14:13:34.917Z</time></trkpt><trkpt lat="43.6865675" lon="12.9638145"><ele>251.0</ele><time>2026-04-26T14:13:35.917Z</time></trkpt><trkpt lat="43.6865318" lon="12.9636422"><ele>251.0</ele><time>2026-04-26T14:13:36.917Z</time></trkpt><trkpt lat="43.686523" lon="12.9634687"><ele>251.0</ele><time>2026-04-26T14:13:37.918Z</time></trkpt><trkpt lat="43.6865318" lon="12.9632965"><ele>251.0</ele><time>2026-04-26T14:13:38.918Z</time></trkpt><trkpt lat="43.6865502" lon="12.963153"><ele>251.66666666666669</ele><time>2026-04-26T14:13:39.919Z</time></trkpt><trkpt lat="43.6865762" lon="12.9630471"><ele>252.33333333333334</ele><time>2026-04-26T14:13:40.918Z</time></trkpt><trkpt lat="43.6866141" lon="12.9629745"><ele>253.0</ele><time>2026-04-26T14:13:42.918Z</time></trkpt><trkpt lat="43.6866646" lon="12.9629176"><ele>253.66666666666669</ele><time>2026-04-26T14:13:47.919Z</time></trkpt><trkpt lat="43.6866226" lon="12.9627419"><ele>254.33333333333334</ele><time>2026-04-26T14:13:53.922Z</time></trkpt><trkpt lat="43.6865712" lon="12.9626527"><ele>255.0</ele><time>2026-04-26T14:13:54.918Z</time></trkpt><trkpt lat="43.6865113" lon="12.962551"><ele>253.4</ele><time>2026-04-26T14:13:55.918Z</time></trkpt><trkpt lat="43.6864531" lon="12.9624406"><ele>251.8</ele><time>2026-04-26T14:13:56.918Z</time></trkpt><trkpt lat="43.686384" lon="12.9623311"><ele>250.2</ele><time>2026-04-26T14:13:57.918Z</time></trkpt><trkpt lat="43.6863121" lon="12.9622042"><ele>248.6</ele><time>2026-04-26T14:13:58.917Z</time></trkpt><trkpt lat="43.6862341" lon="12.9620863"><ele>247.0</ele><time>2026-04-26T14:13:59.918Z</time></trkpt><trkpt lat="43.6861536" lon="12.9619641"><ele>247.0</ele><time>2026-04-26T14:14:00.919Z</time></trkpt><trkpt lat="43.6860704" lon="12.961849"><ele>247.0</ele><time>2026-04-26T14:14:01.917Z</time></trkpt><trkpt lat="43.6859825" lon="12.9617423"><ele>247.0</ele><time>2026-04-26T14:14:02.921Z</time></trkpt><trkpt lat="43.6858917" lon="12.9616469"><ele>247.0</ele><time>2026-04-26T14:14:03.918Z</time></trkpt><trkpt lat="43.6858104" lon="12.9615562"><ele>247.0</ele><time>2026-04-26T14:14:04.917Z</time></trkpt><trkpt lat="43.6857272" lon="12.9614739"><ele>247.0</ele><time>2026-04-26T14:14:05.918Z</time></trkpt><trkpt lat="43.6856437" lon="12.9613932"><ele>247.0</ele><time>2026-04-26T14:14:06.918Z</time></trkpt><trkpt lat="43.6855662" lon="12.9613156"><ele>247.0</ele><time>2026-04-26T14:14:07.918Z</time></trkpt><trkpt lat="43.6854912" lon="12.9612344"><ele>247.0</ele><time>2026-04-26T14:14:08.917Z</time></trkpt><trkpt lat="43.6854164" lon="12.9611557"><ele>247.0</ele><time>2026-04-26T14:14:09.917Z</time></trkpt><trkpt lat="43.6853399" lon="12.9610788"><ele>247.0</ele><time>2026-04-26T14:14:10.917Z</time></trkpt><trkpt lat="43.6852604" lon="12.9610007"><ele>247.0</ele><time>2026-04-26T14:14:11.918Z</time></trkpt><trkpt lat="43.6851766" lon="12.9609212"><ele>247.0</ele><time>2026-04-26T14:14:12.917Z</time></trkpt><trkpt lat="43.685093" lon="12.9608388"><ele>247.0</ele><time>2026-04-26T14:14:13.917Z</time></trkpt><trkpt lat="43.6850091" lon="12.9607559"><ele>247.8</ele><time>2026-04-26T14:14:14.918Z</time></trkpt><trkpt lat="43.6849247" lon="12.9606736"><ele>248.6</ele><time>2026-04-26T14:14:15.918Z</time></trkpt><trkpt lat="43.6848475" lon="12.9605909"><ele>249.40000000000003</ele><time>2026-04-26T14:14:16.917Z</time></trkpt><trkpt lat="43.6847594" lon="12.9605145"><ele>250.20000000000002</ele><time>2026-04-26T14:14:17.918Z</time></trkpt><trkpt lat="43.6846691" lon="12.9604328"><ele>251.0</ele><time>2026-04-26T14:14:18.918Z</time></trkpt><trkpt lat="43.6845788" lon="12.9603393"><ele>251.0</ele><time>2026-04-26T14:14:19.918Z</time></trkpt><trkpt lat="43.6844914" lon="12.9602356"><ele>251.0</ele><time>2026-04-26T14:14:20.918Z</time></trkpt><trkpt lat="43.6843974" lon="12.9601345"><ele>251.0</ele><time>2026-04-26T14:14:21.918Z</time></trkpt><trkpt lat="43.6843028" lon="12.9600383"><ele>251.0</ele><time>2026-04-26T14:14:22.917Z</time></trkpt><trkpt lat="43.6842067" lon="12.9599504"><ele>251.75</ele><time>2026-04-26T14:14:23.918Z</time></trkpt><trkpt lat="43.6841083" lon="12.9598505"><ele>252.5</ele><time>2026-04-26T14:14:24.918Z</time></trkpt><trkpt lat="43.6840116" lon="12.9597536"><ele>253.25</ele><time>2026-04-26T14:14:25.918Z</time></trkpt><trkpt lat="43.6839154" lon="12.9596519"><ele>254.0</ele><time>2026-04-26T14:14:26.918Z</time></trkpt><trkpt lat="43.6838108" lon="12.9595527"><ele>254.0</ele><time>2026-04-26T14:14:27.918Z</time></trkpt><trkpt lat="43.6836952" lon="12.9594381"><ele>254.0</ele><time>2026-04-26T14:14:28.919Z</time></trkpt><trkpt lat="43.6835748" lon="12.9593128"><ele>254.0</ele><time>2026-04-26T14:14:29.917Z</time></trkpt><trkpt lat="43.6834489" lon="12.9591802"><ele>255.33333333333334</ele><time>2026-04-26T14:14:30.918Z</time></trkpt><trkpt lat="43.6833198" lon="12.9590435"><ele>256.6666666666667</ele><time>2026-04-26T14:14:31.919Z</time></trkpt><trkpt lat="43.6831988" lon="12.9589233"><ele>258.0</ele><time>2026-04-26T14:14:32.917Z</time></trkpt><trkpt lat="43.6830798" lon="12.9587998"><ele>258.0</ele><time>2026-04-26T14:14:33.918Z</time></trkpt><trkpt lat="43.6829676" lon="12.9586736"><ele>258.0</ele><time>2026-04-26T14:14:34.918Z</time></trkpt><trkpt lat="43.6828601" lon="12.9585441"><ele>258.0</ele><time>2026-04-26T14:14:35.918Z</time></trkpt><trkpt lat="43.682765" lon="12.9584001"><ele>258.0</ele><time>2026-04-26T14:14:36.918Z</time></trkpt><trkpt lat="43.682674" lon="12.9582459"><ele>258.75</ele><time>2026-04-26T14:14:37.918Z</time></trkpt><trkpt lat="43.6825908" lon="12.9580817"><ele>259.5</ele><time>2026-04-26T14:14:38.918Z</time></trkpt><trkpt lat="43.6825331" lon="12.9578989"><ele>260.25</ele><time>2026-04-26T14:14:39.919Z</time></trkpt><trkpt lat="43.6825004" lon="12.9577165"><ele>261.0</ele><time>2026-04-26T14:14:40.919Z</time></trkpt><trkpt lat="43.6825018" lon="12.9575266"><ele>261.0</ele><time>2026-04-26T14:14:41.917Z</time></trkpt><trkpt lat="43.6825225" lon="12.9573347"><ele>261.0</ele><time>2026-04-26T14:14:42.917Z</time></trkpt><trkpt lat="43.6825439" lon="12.9571332"><ele>261.0</ele><time>2026-04-26T14:14:43.917Z</time></trkpt><trkpt lat="43.6825729" lon="12.9569303"><ele>261.0</ele><time>2026-04-26T14:14:44.917Z</time></trkpt><trkpt lat="43.682607" lon="12.9567316"><ele>260.75</ele><time>2026-04-26T14:14:45.917Z</time></trkpt><trkpt lat="43.6826249" lon="12.9565363"><ele>260.5</ele><time>2026-04-26T14:14:46.918Z</time></trkpt><trkpt lat="43.68263" lon="12.9563339"><ele>260.25</ele><time>2026-04-26T14:14:47.919Z</time></trkpt><trkpt lat="43.6826139" lon="12.9561294"><ele>260.0</ele><time>2026-04-26T14:14:48.918Z</time></trkpt><trkpt lat="43.6825865" lon="12.9559176"><ele>259.0</ele><time>2026-04-26T14:14:49.917Z</time></trkpt><trkpt lat="43.6825406" lon="12.9557151"><ele>258.0</ele><time>2026-04-26T14:14:50.918Z</time></trkpt><trkpt lat="43.6824785" lon="12.9555299"><ele>257.0</ele><time>2026-04-26T14:14:51.918Z</time></trkpt><trkpt lat="43.6824034" lon="12.9553534"><ele>256.0</ele><time>2026-04-26T14:14:52.919Z</time></trkpt><trkpt lat="43.6823044" lon="12.9551877"><ele>256.0</ele><time>2026-04-26T14:14:53.918Z</time></trkpt><trkpt lat="43.6821902" lon="12.9550419"><ele>256.0</ele><time>2026-04-26T14:14:54.918Z</time></trkpt><trkpt lat="43.6820675" lon="12.9549276"><ele>256.0</ele><time>2026-04-26T14:14:55.917Z</time></trkpt><trkpt lat="43.6819356" lon="12.9548327"><ele>254.0</ele><time>2026-04-26T14:14:56.918Z</time></trkpt><trkpt lat="43.6817995" lon="12.9547414"><ele>252.0</ele><time>2026-04-26T14:14:57.918Z</time></trkpt><trkpt lat="43.6816712" lon="12.9546297"><ele>250.0</ele><time>2026-04-26T14:14:58.917Z</time></trkpt><trkpt lat="43.6815505" lon="12.9544916"><ele>250.0</ele><time>2026-04-26T14:14:59.918Z</time></trkpt><trkpt lat="43.6814386" lon="12.9543265"><ele>250.0</ele><time>2026-04-26T14:15:00.918Z</time></trkpt><trkpt lat="43.6813384" lon="12.954154"><ele>250.0</ele><time>2026-04-26T14:15:01.918Z</time></trkpt><trkpt lat="43.6812467" lon="12.9539955"><ele>246.75</ele><time>2026-04-26T14:15:02.917Z</time></trkpt><trkpt lat="43.6811616" lon="12.9538467"><ele>243.5</ele><time>2026-04-26T14:15:03.918Z</time></trkpt><trkpt lat="43.6810782" lon="12.953704"><ele>240.25</ele><time>2026-04-26T14:15:04.918Z</time></trkpt><trkpt lat="43.6809992" lon="12.9535627"><ele>237.0</ele><time>2026-04-26T14:15:05.918Z</time></trkpt><trkpt lat="43.6809285" lon="12.9534111"><ele>237.0</ele><time>2026-04-26T14:15:06.918Z</time></trkpt><trkpt lat="43.6808727" lon="12.9532374"><ele>237.0</ele><time>2026-04-26T14:15:07.921Z</time></trkpt><trkpt lat="43.680838" lon="12.953046"><ele>237.0</ele><time>2026-04-26T14:15:08.918Z</time></trkpt><trkpt lat="43.6808212" lon="12.9528493"><ele>237.0</ele><time>2026-04-26T14:15:09.919Z</time></trkpt><trkpt lat="43.68082" lon="12.952652"><ele>236.25</ele><time>2026-04-26T14:15:10.918Z</time></trkpt><trkpt lat="43.6808263" lon="12.95245"><ele>235.5</ele><time>2026-04-26T14:15:11.917Z</time></trkpt><trkpt lat="43.6808321" lon="12.9522589"><ele>234.75</ele><time>2026-04-26T14:15:12.918Z</time></trkpt><trkpt lat="43.6808301" lon="12.952084"><ele>234.0</ele><time>2026-04-26T14:15:13.917Z</time></trkpt><trkpt lat="43.6808189" lon="12.9519426"><ele>234.0</ele><time>2026-04-26T14:15:14.918Z</time></trkpt><trkpt lat="43.6808054" lon="12.9518317"><ele>234.0</ele><time>2026-04-26T14:15:15.918Z</time></trkpt><trkpt lat="43.6807988" lon="12.9517274"><ele>234.0</ele><time>2026-04-26T14:15:16.918Z</time></trkpt><trkpt lat="43.6807919" lon="12.9516253"><ele>234.0</ele><time>2026-04-26T14:15:17.918Z</time></trkpt><trkpt lat="43.6807821" lon="12.9515014"><ele>234.0</ele><time>2026-04-26T14:15:18.918Z</time></trkpt><trkpt lat="43.6807723" lon="12.9513604"><ele>234.0</ele><time>2026-04-26T14:15:19.917Z</time></trkpt><trkpt lat="43.6807639" lon="12.9512014"><ele>234.0</ele><time>2026-04-26T14:15:20.919Z</time></trkpt><trkpt lat="43.6807648" lon="12.9510443"><ele>233.99999999999997</ele><time>2026-04-26T14:15:21.917Z</time></trkpt><trkpt lat="43.6807646" lon="12.950892"><ele>233.99999999999997</ele><time>2026-04-26T14:15:22.919Z</time></trkpt><trkpt lat="43.6807644" lon="12.9507403"><ele>234.0</ele><time>2026-04-26T14:15:23.918Z</time></trkpt><trkpt lat="43.6807623" lon="12.950589"><ele>234.0</ele><time>2026-04-26T14:15:24.918Z</time></trkpt><trkpt lat="43.680768" lon="12.9504361"><ele>234.0</ele><time>2026-04-26T14:15:25.918Z</time></trkpt><trkpt lat="43.6807785" lon="12.9502906"><ele>233.99999999999997</ele><time>2026-04-26T14:15:26.919Z</time></trkpt><trkpt lat="43.6807903" lon="12.9501558"><ele>233.99999999999997</ele><time>2026-04-26T14:15:27.917Z</time></trkpt><trkpt lat="43.6808063" lon="12.9500096"><ele>234.0</ele><time>2026-04-26T14:15:28.918Z</time></trkpt><trkpt lat="43.6808277" lon="12.949862"><ele>234.0</ele><time>2026-04-26T14:15:29.917Z</time></trkpt><trkpt lat="43.6808581" lon="12.9497246"><ele>234.0</ele><time>2026-04-26T14:15:30.917Z</time></trkpt><trkpt lat="43.6809007" lon="12.9496025"><ele>234.0</ele><time>2026-04-26T14:15:31.917Z</time></trkpt><trkpt lat="43.6809466" lon="12.9494964"><ele>234.0</ele><time>2026-04-26T14:15:32.917Z</time></trkpt><trkpt lat="43.6809895" lon="12.9494067"><ele>234.0</ele><time>2026-04-26T14:15:33.917Z</time></trkpt><trkpt lat="43.6810254" lon="12.9493325"><ele>234.0</ele><time>2026-04-26T14:15:34.917Z</time></trkpt><trkpt lat="43.6810825" lon="12.9492051"><ele>234.0</ele><time>2026-04-26T14:15:36.917Z</time></trkpt><trkpt lat="43.6811388" lon="12.9491099"><ele>231.5</ele><time>2026-04-26T14:15:37.919Z</time></trkpt><trkpt lat="43.6812228" lon="12.9490131"><ele>229.0</ele><time>2026-04-26T14:15:38.918Z</time></trkpt><trkpt lat="43.6813312" lon="12.9489167"><ele>226.5</ele><time>2026-04-26T14:15:39.918Z</time></trkpt><trkpt lat="43.6814441" lon="12.948819"><ele>224.0</ele><time>2026-04-26T14:15:40.918Z</time></trkpt><trkpt lat="43.6815558" lon="12.948732"><ele>224.0</ele><time>2026-04-26T14:15:41.918Z</time></trkpt><trkpt lat="43.681669" lon="12.9486482"><ele>224.0</ele><time>2026-04-26T14:15:42.919Z</time></trkpt><trkpt lat="43.6817854" lon="12.9485655"><ele>224.0</ele><time>2026-04-26T14:15:43.919Z</time></trkpt><trkpt lat="43.6818988" lon="12.9484911"><ele>224.0</ele><time>2026-04-26T14:15:44.918Z</time></trkpt><trkpt lat="43.6819903" lon="12.9484368"><ele>222.2</ele><time>2026-04-26T14:15:45.918Z</time></trkpt><trkpt lat="43.6820613" lon="12.948393"><ele>220.39999999999998</ele><time>2026-04-26T14:15:46.92Z</time></trkpt><trkpt lat="43.6821261" lon="12.9483537"><ele>218.6</ele><time>2026-04-26T14:15:47.918Z</time></trkpt><trkpt lat="43.6822198" lon="12.9482908"><ele>216.8</ele><time>2026-04-26T14:15:49.919Z</time></trkpt><trkpt lat="43.6823249" lon="12.9481327"><ele>215.0</ele><time>2026-04-26T14:15:51.918Z</time></trkpt><trkpt lat="43.6823948" lon="12.9480136"><ele>215.0</ele><time>2026-04-26T14:15:52.918Z</time></trkpt><trkpt lat="43.682478" lon="12.9478857"><ele>215.0</ele><time>2026-04-26T14:15:53.917Z</time></trkpt><trkpt lat="43.6825619" lon="12.9477503"><ele>215.0</ele><time>2026-04-26T14:15:54.918Z</time></trkpt><trkpt lat="43.6826515" lon="12.9476107"><ele>215.0</ele><time>2026-04-26T14:15:55.918Z</time></trkpt><trkpt lat="43.6827486" lon="12.9474589"><ele>214.0</ele><time>2026-04-26T14:15:56.917Z</time></trkpt><trkpt lat="43.6828463" lon="12.9473038"><ele>213.0</ele><time>2026-04-26T14:15:57.917Z</time></trkpt><trkpt lat="43.6829353" lon="12.9471613"><ele>212.0</ele><time>2026-04-26T14:15:58.918Z</time></trkpt><trkpt lat="43.6830284" lon="12.9470143"><ele>211.0</ele><time>2026-04-26T14:15:59.918Z</time></trkpt><trkpt lat="43.6831233" lon="12.9468721"><ele>211.0</ele><time>2026-04-26T14:16:00.918Z</time></trkpt><trkpt lat="43.6832196" lon="12.9467278"><ele>211.0</ele><time>2026-04-26T14:16:01.917Z</time></trkpt><trkpt lat="43.6833153" lon="12.9465863"><ele>211.0</ele><time>2026-04-26T14:16:02.918Z</time></trkpt><trkpt lat="43.683413" lon="12.9464487"><ele>211.0</ele><time>2026-04-26T14:16:03.917Z</time></trkpt><trkpt lat="43.6835052" lon="12.9463071"><ele>211.25</ele><time>2026-04-26T14:16:04.918Z</time></trkpt><trkpt lat="43.6836053" lon="12.9461743"><ele>211.5</ele><time>2026-04-26T14:16:05.918Z</time></trkpt><trkpt lat="43.6837055" lon="12.9460329"><ele>211.75</ele><time>2026-04-26T14:16:06.918Z</time></trkpt><trkpt lat="43.6838035" lon="12.9458735"><ele>212.0</ele><time>2026-04-26T14:16:07.918Z</time></trkpt><trkpt lat="43.6839001" lon="12.945702"><ele>212.0</ele><time>2026-04-26T14:16:08.919Z</time></trkpt><trkpt lat="43.6839964" lon="12.9455258"><ele>212.0</ele><time>2026-04-26T14:16:09.917Z</time></trkpt><trkpt lat="43.6840898" lon="12.945347"><ele>212.0</ele><time>2026-04-26T14:16:10.917Z</time></trkpt><trkpt lat="43.6841808" lon="12.9451573"><ele>213.0</ele><time>2026-04-26T14:16:11.917Z</time></trkpt><trkpt lat="43.6842675" lon="12.9449707"><ele>214.0</ele><time>2026-04-26T14:16:12.918Z</time></trkpt><trkpt lat="43.6843597" lon="12.9447886"><ele>215.0</ele><time>2026-04-26T14:16:13.917Z</time></trkpt><trkpt lat="43.6844577" lon="12.9446096"><ele>213.66666666666669</ele><time>2026-04-26T14:16:14.919Z</time></trkpt><trkpt lat="43.6845583" lon="12.9444326"><ele>212.33333333333331</ele><time>2026-04-26T14:16:15.919Z</time></trkpt><trkpt lat="43.6846598" lon="12.9442551"><ele>211.0</ele><time>2026-04-26T14:16:16.918Z</time></trkpt><trkpt lat="43.6847586" lon="12.9440761"><ele>211.0</ele><time>2026-04-26T14:16:17.919Z</time></trkpt><trkpt lat="43.6848552" lon="12.9438942"><ele>211.0</ele><time>2026-04-26T14:16:18.918Z</time></trkpt><trkpt lat="43.6849486" lon="12.9437044"><ele>211.0</ele><time>2026-04-26T14:16:19.917Z</time></trkpt><trkpt lat="43.6850332" lon="12.9435004"><ele>211.66666666666666</ele><time>2026-04-26T14:16:20.917Z</time></trkpt><trkpt lat="43.6851223" lon="12.9432915"><ele>212.33333333333331</ele><time>2026-04-26T14:16:21.918Z</time></trkpt><trkpt lat="43.6852074" lon="12.9430742"><ele>213.0</ele><time>2026-04-26T14:16:22.918Z</time></trkpt><trkpt lat="43.6852938" lon="12.9428612"><ele>209.66666666666669</ele><time>2026-04-26T14:16:23.917Z</time></trkpt><trkpt lat="43.6853799" lon="12.9426534"><ele>206.33333333333334</ele><time>2026-04-26T14:16:24.918Z</time></trkpt><trkpt lat="43.6854646" lon="12.9424538"><ele>203.0</ele><time>2026-04-26T14:16:25.919Z</time></trkpt><trkpt lat="43.6855464" lon="12.9422656"><ele>203.0</ele><time>2026-04-26T14:16:26.917Z</time></trkpt><trkpt lat="43.6856285" lon="12.9420802"><ele>203.0</ele><time>2026-04-26T14:16:27.917Z</time></trkpt><trkpt lat="43.6857082" lon="12.9418964"><ele>203.0</ele><time>2026-04-26T14:16:28.918Z</time></trkpt><trkpt lat="43.6857871" lon="12.9417181"><ele>204.75</ele><time>2026-04-26T14:16:29.918Z</time></trkpt><trkpt lat="43.6858703" lon="12.9415457"><ele>206.5</ele><time>2026-04-26T14:16:30.918Z</time></trkpt><trkpt lat="43.6859548" lon="12.9413869"><ele>208.25</ele><time>2026-04-26T14:16:31.918Z</time></trkpt><trkpt lat="43.6860498" lon="12.9412422"><ele>210.0</ele><time>2026-04-26T14:16:32.917Z</time></trkpt><trkpt lat="43.6861565" lon="12.9411"><ele>208.33333333333331</ele><time>2026-04-26T14:16:33.918Z</time></trkpt><trkpt lat="43.6862717" lon="12.9409536"><ele>206.66666666666666</ele><time>2026-04-26T14:16:34.917Z</time></trkpt><trkpt lat="43.6863919" lon="12.9408015"><ele>205.0</ele><time>2026-04-26T14:16:35.919Z</time></trkpt><trkpt lat="43.686515" lon="12.9406422"><ele>205.0</ele><time>2026-04-26T14:16:36.918Z</time></trkpt><trkpt lat="43.6866411" lon="12.9404806"><ele>205.0</ele><time>2026-04-26T14:16:37.919Z</time></trkpt><trkpt lat="43.6867706" lon="12.9403251"><ele>205.0</ele><time>2026-04-26T14:16:38.917Z</time></trkpt><trkpt lat="43.6868951" lon="12.9401716"><ele>202.33333333333331</ele><time>2026-04-26T14:16:39.919Z</time></trkpt><trkpt lat="43.6870214" lon="12.9400138"><ele>199.66666666666669</ele><time>2026-04-26T14:16:40.917Z</time></trkpt><trkpt lat="43.6871474" lon="12.9398539"><ele>197.0</ele><time>2026-04-26T14:16:41.918Z</time></trkpt><trkpt lat="43.6872721" lon="12.9397037"><ele>197.0</ele><time>2026-04-26T14:16:42.918Z</time></trkpt><trkpt lat="43.6874008" lon="12.9395546"><ele>197.0</ele><time>2026-04-26T14:16:43.918Z</time></trkpt><trkpt lat="43.6875309" lon="12.9393975"><ele>197.0</ele><time>2026-04-26T14:16:44.918Z</time></trkpt><trkpt lat="43.6876616" lon="12.939235"><ele>195.66666666666669</ele><time>2026-04-26T14:16:45.918Z</time></trkpt><trkpt lat="43.6877976" lon="12.9390696"><ele>194.33333333333331</ele><time>2026-04-26T14:16:46.919Z</time></trkpt><trkpt lat="43.6879377" lon="12.9389042"><ele>193.0</ele><time>2026-04-26T14:16:47.918Z</time></trkpt><trkpt lat="43.6880735" lon="12.9387431"><ele>193.0</ele><time>2026-04-26T14:16:48.918Z</time></trkpt><trkpt lat="43.6881993" lon="12.9385896"><ele>193.0</ele><time>2026-04-26T14:16:49.921Z</time></trkpt><trkpt lat="43.6883099" lon="12.9384491"><ele>193.0</ele><time>2026-04-26T14:16:50.918Z</time></trkpt><trkpt lat="43.6884101" lon="12.9383249"><ele>191.75</ele><time>2026-04-26T14:16:51.92Z</time></trkpt><trkpt lat="43.6885057" lon="12.9382032"><ele>190.5</ele><time>2026-04-26T14:16:52.92Z</time></trkpt><trkpt lat="43.688585" lon="12.9380629"><ele>189.25</ele><time>2026-04-26T14:16:53.918Z</time></trkpt><trkpt lat="43.6886367" lon="12.9378934"><ele>188.0</ele><time>2026-04-26T14:16:54.918Z</time></trkpt><trkpt lat="43.6886651" lon="12.9377046"><ele>189.75</ele><time>2026-04-26T14:16:55.918Z</time></trkpt><trkpt lat="43.6886803" lon="12.9375099"><ele>191.5</ele><time>2026-04-26T14:16:56.917Z</time></trkpt><trkpt lat="43.6886975" lon="12.9373155"><ele>193.25</ele><time>2026-04-26T14:16:57.919Z</time></trkpt><trkpt lat="43.6887247" lon="12.9371172"><ele>195.0</ele><time>2026-04-26T14:16:58.918Z</time></trkpt><trkpt lat="43.6887757" lon="12.9369198"><ele>195.0</ele><time>2026-04-26T14:16:59.917Z</time></trkpt><trkpt lat="43.6888499" lon="12.9367279"><ele>195.0</ele><time>2026-04-26T14:17:00.918Z</time></trkpt><trkpt lat="43.6889388" lon="12.9365396"><ele>195.0</ele><time>2026-04-26T14:17:01.917Z</time></trkpt><trkpt lat="43.6890317" lon="12.936355"><ele>196.0</ele><time>2026-04-26T14:17:02.917Z</time></trkpt><trkpt lat="43.6891215" lon="12.9361768"><ele>197.0</ele><time>2026-04-26T14:17:03.919Z</time></trkpt><trkpt lat="43.6892047" lon="12.9359997"><ele>198.0</ele><time>2026-04-26T14:17:04.919Z</time></trkpt><trkpt lat="43.6892846" lon="12.9358347"><ele>198.25</ele><time>2026-04-26T14:17:05.918Z</time></trkpt><trkpt lat="43.6893684" lon="12.9356762"><ele>198.5</ele><time>2026-04-26T14:17:06.918Z</time></trkpt><trkpt lat="43.6894483" lon="12.9355197"><ele>198.75</ele><time>2026-04-26T14:17:07.918Z</time></trkpt><trkpt lat="43.6895221" lon="12.9353761"><ele>199.0</ele><time>2026-04-26T14:17:08.917Z</time></trkpt><trkpt lat="43.6895965" lon="12.9352469"><ele>198.49999999999997</ele><time>2026-04-26T14:17:09.918Z</time></trkpt><trkpt lat="43.6896706" lon="12.9351445"><ele>198.0</ele><time>2026-04-26T14:17:10.918Z</time></trkpt><trkpt lat="43.6897345" lon="12.935073"><ele>197.5</ele><time>2026-04-26T14:17:11.917Z</time></trkpt><trkpt lat="43.6897551" lon="12.9349576"><ele>197.0</ele><time>2026-04-26T14:17:13.919Z</time></trkpt><trkpt lat="43.6897114" lon="12.9348831"><ele>196.49999999999997</ele><time>2026-04-26T14:17:14.92Z</time></trkpt><trkpt lat="43.6896298" lon="12.934825"><ele>196.0</ele><time>2026-04-26T14:17:15.917Z</time></trkpt><trkpt lat="43.6895248" lon="12.9347688"><ele>195.99999999999997</ele><time>2026-04-26T14:17:16.918Z</time></trkpt><trkpt lat="43.6894265" lon="12.9346983"><ele>196.0</ele><time>2026-04-26T14:17:17.918Z</time></trkpt><trkpt lat="43.6893471" lon="12.934624"><ele>196.0</ele><time>2026-04-26T14:17:18.919Z</time></trkpt><trkpt lat="43.6892846" lon="12.9345522"><ele>196.0</ele><time>2026-04-26T14:17:19.918Z</time></trkpt><trkpt lat="43.6892276" lon="12.9344812"><ele>195.99999999999997</ele><time>2026-04-26T14:17:20.918Z</time></trkpt><trkpt lat="43.6891717" lon="12.9344053"><ele>196.0</ele><time>2026-04-26T14:17:21.917Z</time></trkpt><trkpt lat="43.6891138" lon="12.9343253"><ele>196.8</ele><time>2026-04-26T14:17:22.918Z</time></trkpt><trkpt lat="43.6890637" lon="12.9342348"><ele>197.60000000000002</ele><time>2026-04-26T14:17:23.918Z</time></trkpt><trkpt lat="43.6890024" lon="12.9341347"><ele>198.4</ele><time>2026-04-26T14:17:24.921Z</time></trkpt><trkpt lat="43.6889344" lon="12.934021"><ele>199.2</ele><time>2026-04-26T14:17:25.919Z</time></trkpt><trkpt lat="43.6888723" lon="12.9339006"><ele>200.0</ele><time>2026-04-26T14:17:26.917Z</time></trkpt><trkpt lat="43.6888123" lon="12.933779"><ele>200.75</ele><time>2026-04-26T14:17:27.917Z</time></trkpt><trkpt lat="43.6887553" lon="12.9336511"><ele>201.5</ele><time>2026-04-26T14:17:28.92Z</time></trkpt><trkpt lat="43.6887084" lon="12.9335127"><ele>202.25</ele><time>2026-04-26T14:17:29.918Z</time></trkpt><trkpt lat="43.6886713" lon="12.9333511"><ele>203.0</ele><time>2026-04-26T14:17:30.918Z</time></trkpt><trkpt lat="43.6886355" lon="12.9331901"><ele>200.5</ele><time>2026-04-26T14:17:31.917Z</time></trkpt><trkpt lat="43.688591" lon="12.9330314"><ele>198.0</ele><time>2026-04-26T14:17:32.917Z</time></trkpt><trkpt lat="43.6885364" lon="12.932885"><ele>195.5</ele><time>2026-04-26T14:17:33.918Z</time></trkpt><trkpt lat="43.6884708" lon="12.9327568"><ele>193.0</ele><time>2026-04-26T14:17:34.919Z</time></trkpt><trkpt lat="43.6883839" lon="12.9326257"><ele>194.75</ele><time>2026-04-26T14:17:35.918Z</time></trkpt><trkpt lat="43.6882906" lon="12.9324951"><ele>196.5</ele><time>2026-04-26T14:17:36.918Z</time></trkpt><trkpt lat="43.6881913" lon="12.9323774"><ele>198.25</ele><time>2026-04-26T14:17:37.918Z</time></trkpt><trkpt lat="43.6880948" lon="12.9322638"><ele>200.0</ele><time>2026-04-26T14:17:38.921Z</time></trkpt><trkpt lat="43.6880027" lon="12.9321603"><ele>200.0</ele><time>2026-04-26T14:17:39.918Z</time></trkpt><trkpt lat="43.6879247" lon="12.9320638"><ele>200.0</ele><time>2026-04-26T14:17:40.918Z</time></trkpt><trkpt lat="43.687849" lon="12.9319719"><ele>200.0</ele><time>2026-04-26T14:17:41.918Z</time></trkpt><trkpt lat="43.6877722" lon="12.9318895"><ele>200.0</ele><time>2026-04-26T14:17:42.919Z</time></trkpt><trkpt lat="43.6877008" lon="12.9318137"><ele>200.0</ele><time>2026-04-26T14:17:43.918Z</time></trkpt><trkpt lat="43.6876411" lon="12.931729"><ele>198.4</ele><time>2026-04-26T14:17:44.919Z</time></trkpt><trkpt lat="43.687578" lon="12.9316443"><ele>196.8</ele><time>2026-04-26T14:17:45.917Z</time></trkpt><trkpt lat="43.6875254" lon="12.9315322"><ele>195.2</ele><time>2026-04-26T14:17:46.917Z</time></trkpt><trkpt lat="43.687484" lon="12.9313897"><ele>193.6</ele><time>2026-04-26T14:17:47.918Z</time></trkpt><trkpt lat="43.6874555" lon="12.9312371"><ele>192.0</ele><time>2026-04-26T14:17:48.919Z</time></trkpt><trkpt lat="43.6874418" lon="12.9310831"><ele>192.0</ele><time>2026-04-26T14:17:49.918Z</time></trkpt><trkpt lat="43.687436" lon="12.9309312"><ele>192.0</ele><time>2026-04-26T14:17:50.918Z</time></trkpt><trkpt lat="43.687421" lon="12.930786"><ele>192.0</ele><time>2026-04-26T14:17:51.918Z</time></trkpt><trkpt lat="43.6874045" lon="12.930645"><ele>192.0</ele><time>2026-04-26T14:17:52.918Z</time></trkpt><trkpt lat="43.6873586" lon="12.9305014"><ele>192.0</ele><time>2026-04-26T14:17:53.917Z</time></trkpt><trkpt lat="43.6873187" lon="12.9303607"><ele>192.25</ele><time>2026-04-26T14:17:54.918Z</time></trkpt><trkpt lat="43.6872849" lon="12.9302154"><ele>192.5</ele><time>2026-04-26T14:17:55.918Z</time></trkpt><trkpt lat="43.6872575" lon="12.9300592"><ele>192.75</ele><time>2026-04-26T14:17:56.918Z</time></trkpt><trkpt lat="43.6872398" lon="12.9299018"><ele>193.0</ele><time>2026-04-26T14:17:57.919Z</time></trkpt><trkpt lat="43.6872359" lon="12.9297442"><ele>193.2</ele><time>2026-04-26T14:17:58.918Z</time></trkpt><trkpt lat="43.6872347" lon="12.92959"><ele>193.4</ele><time>2026-04-26T14:17:59.918Z</time></trkpt><trkpt lat="43.6872365" lon="12.9294419"><ele>193.6</ele><time>2026-04-26T14:18:00.918Z</time></trkpt><trkpt lat="43.6872393" lon="12.9292866"><ele>193.79999999999998</ele><time>2026-04-26T14:18:01.918Z</time></trkpt><trkpt lat="43.687244" lon="12.9291286"><ele>194.0</ele><time>2026-04-26T14:18:02.917Z</time></trkpt><trkpt lat="43.6872365" lon="12.928972"><ele>194.5</ele><time>2026-04-26T14:18:03.919Z</time></trkpt><trkpt lat="43.6872279" lon="12.9288201"><ele>195.0</ele><time>2026-04-26T14:18:04.918Z</time></trkpt><trkpt lat="43.6872109" lon="12.9286648"><ele>195.5</ele><time>2026-04-26T14:18:05.918Z</time></trkpt><trkpt lat="43.6872124" lon="12.9284948"><ele>196.0</ele><time>2026-04-26T14:18:06.918Z</time></trkpt><trkpt lat="43.6872146" lon="12.9283308"><ele>194.8</ele><time>2026-04-26T14:18:07.917Z</time></trkpt><trkpt lat="43.687221" lon="12.9281725"><ele>193.60000000000002</ele><time>2026-04-26T14:18:08.918Z</time></trkpt><trkpt lat="43.6872404" lon="12.9280327"><ele>192.4</ele><time>2026-04-26T14:18:09.918Z</time></trkpt><trkpt lat="43.6872647" lon="12.9278912"><ele>191.2</ele><time>2026-04-26T14:18:10.918Z</time></trkpt><trkpt lat="43.6872835" lon="12.9277523"><ele>190.0</ele><time>2026-04-26T14:18:11.918Z</time></trkpt><trkpt lat="43.6873052" lon="12.927637"><ele>189.83333333333334</ele><time>2026-04-26T14:18:12.917Z</time></trkpt><trkpt lat="43.6873148" lon="12.9275167"><ele>189.66666666666669</ele><time>2026-04-26T14:18:13.918Z</time></trkpt><trkpt lat="43.6872968" lon="12.9273982"><ele>189.5</ele><time>2026-04-26T14:18:14.918Z</time></trkpt><trkpt lat="43.687284" lon="12.9272973"><ele>189.33333333333334</ele><time>2026-04-26T14:18:15.917Z</time></trkpt><trkpt lat="43.6872691" lon="12.9272032"><ele>189.16666666666666</ele><time>2026-04-26T14:18:16.918Z</time></trkpt><trkpt lat="43.6872549" lon="12.9271084"><ele>189.0</ele><time>2026-04-26T14:18:17.919Z</time></trkpt><trkpt lat="43.6872404" lon="12.9270128"><ele>189.0</ele><time>2026-04-26T14:18:18.918Z</time></trkpt><trkpt lat="43.6872087" lon="12.9269156"><ele>189.0</ele><time>2026-04-26T14:18:19.917Z</time></trkpt><trkpt lat="43.6871734" lon="12.9268021"><ele>189.0</ele><time>2026-04-26T14:18:20.918Z</time></trkpt><trkpt lat="43.6871327" lon="12.9266936"><ele>189.0</ele><time>2026-04-26T14:18:21.917Z</time></trkpt><trkpt lat="43.6870789" lon="12.9266037"><ele>189.0</ele><time>2026-04-26T14:18:22.918Z</time></trkpt><trkpt lat="43.6870193" lon="12.9265133"><ele>189.0</ele><time>2026-04-26T14:18:23.918Z</time></trkpt><trkpt lat="43.6869466" lon="12.9264165"><ele>187.0</ele><time>2026-04-26T14:18:24.917Z</time></trkpt><trkpt lat="43.686877" lon="12.9263207"><ele>185.0</ele><time>2026-04-26T14:18:25.919Z</time></trkpt><trkpt lat="43.6868216" lon="12.9262281"><ele>183.0</ele><time>2026-04-26T14:18:26.918Z</time></trkpt><trkpt lat="43.6867655" lon="12.9261395"><ele>181.0</ele><time>2026-04-26T14:18:27.918Z</time></trkpt><trkpt lat="43.6867149" lon="12.9260473"><ele>179.0</ele><time>2026-04-26T14:18:28.919Z</time></trkpt><trkpt lat="43.6866849" lon="12.9259455"><ele>177.0</ele><time>2026-04-26T14:18:29.917Z</time></trkpt><trkpt lat="43.6866802" lon="12.9258233"><ele>175.8</ele><time>2026-04-26T14:18:30.918Z</time></trkpt><trkpt lat="43.6866764" lon="12.9256964"><ele>174.6</ele><time>2026-04-26T14:18:31.918Z</time></trkpt><trkpt lat="43.6866865" lon="12.9255531"><ele>173.4</ele><time>2026-04-26T14:18:32.918Z</time></trkpt><trkpt lat="43.6866961" lon="12.9254169"><ele>172.20000000000002</ele><time>2026-04-26T14:18:33.921Z</time></trkpt><trkpt lat="43.6866844" lon="12.9252907"><ele>171.0</ele><time>2026-04-26T14:18:34.918Z</time></trkpt><trkpt lat="43.6866649" lon="12.9251718"><ele>171.0</ele><time>2026-04-26T14:18:35.918Z</time></trkpt><trkpt lat="43.6866443" lon="12.9250627"><ele>171.0</ele><time>2026-04-26T14:18:36.917Z</time></trkpt><trkpt lat="43.6866535" lon="12.9249381"><ele>171.0</ele><time>2026-04-26T14:18:37.919Z</time></trkpt><trkpt lat="43.6866515" lon="12.9248122"><ele>171.0</ele><time>2026-04-26T14:18:38.917Z</time></trkpt><trkpt lat="43.6866333" lon="12.9246956"><ele>171.0</ele><time>2026-04-26T14:18:39.919Z</time></trkpt><trkpt lat="43.686631" lon="12.9245664"><ele>171.0</ele><time>2026-04-26T14:18:40.918Z</time></trkpt><trkpt lat="43.6866274" lon="12.9244522"><ele>169.5</ele><time>2026-04-26T14:18:41.92Z</time></trkpt><trkpt lat="43.6866423" lon="12.9243437"><ele>168.0</ele><time>2026-04-26T14:18:42.917Z</time></trkpt><trkpt lat="43.6866938" lon="12.924247"><ele>166.5</ele><time>2026-04-26T14:18:43.918Z</time></trkpt><trkpt lat="43.686743" lon="12.924153"><ele>165.0</ele><time>2026-04-26T14:18:44.917Z</time></trkpt><trkpt lat="43.6867771" lon="12.9240554"><ele>163.5</ele><time>2026-04-26T14:18:45.918Z</time></trkpt><trkpt lat="43.6867948" lon="12.9239457"><ele>162.0</ele><time>2026-04-26T14:18:46.918Z</time></trkpt><trkpt lat="43.6868082" lon="12.9238256"><ele>160.33333333333334</ele><time>2026-04-26T14:18:47.919Z</time></trkpt><trkpt lat="43.6868291" lon="12.923713"><ele>158.66666666666666</ele><time>2026-04-26T14:18:48.917Z</time></trkpt><trkpt lat="43.6868615" lon="12.9235949"><ele>157.0</ele><time>2026-04-26T14:18:49.918Z</time></trkpt><trkpt lat="43.6869033" lon="12.9234848"><ele>155.33333333333331</ele><time>2026-04-26T14:18:50.918Z</time></trkpt><trkpt lat="43.6869485" lon="12.9233932"><ele>153.66666666666666</ele><time>2026-04-26T14:18:51.919Z</time></trkpt><trkpt lat="43.686979" lon="12.923307"><ele>152.0</ele><time>2026-04-26T14:18:52.92Z</time></trkpt><trkpt lat="43.68697" lon="12.9231334"><ele>151.5</ele><time>2026-04-26T14:18:54.918Z</time></trkpt><trkpt lat="43.6869446" lon="12.9230489"><ele>151.0</ele><time>2026-04-26T14:18:55.919Z</time></trkpt><trkpt lat="43.6868937" lon="12.9229619"><ele>150.5</ele><time>2026-04-26T14:18:56.919Z</time></trkpt><trkpt lat="43.6868429" lon="12.9228757"><ele>150.0</ele><time>2026-04-26T14:18:57.917Z</time></trkpt><trkpt lat="43.6867922" lon="12.9228115"><ele>149.5</ele><time>2026-04-26T14:18:58.918Z</time></trkpt><trkpt lat="43.686701" lon="12.9227202"><ele>149.0</ele><time>2026-04-26T14:19:00.917Z</time></trkpt><trkpt lat="43.6865752" lon="12.9226715"><ele>147.5</ele><time>2026-04-26T14:19:02.918Z</time></trkpt><trkpt lat="43.6864811" lon="12.9226541"><ele>146.0</ele><time>2026-04-26T14:19:03.918Z</time></trkpt><trkpt lat="43.6863933" lon="12.9226352"><ele>144.5</ele><time>2026-04-26T14:19:04.918Z</time></trkpt><trkpt lat="43.6863098" lon="12.9226192"><ele>143.0</ele><time>2026-04-26T14:19:05.918Z</time></trkpt><trkpt lat="43.6862276" lon="12.9226146"><ele>141.5</ele><time>2026-04-26T14:19:06.919Z</time></trkpt><trkpt lat="43.6861435" lon="12.9226069"><ele>140.0</ele><time>2026-04-26T14:19:07.918Z</time></trkpt><trkpt lat="43.6860597" lon="12.9225902"><ele>136.0</ele><time>2026-04-26T14:19:08.917Z</time></trkpt><trkpt lat="43.6859779" lon="12.9225502"><ele>132.0</ele><time>2026-04-26T14:19:09.918Z</time></trkpt><trkpt lat="43.6858977" lon="12.9224996"><ele>128.0</ele><time>2026-04-26T14:19:10.919Z</time></trkpt><trkpt lat="43.6858183" lon="12.9224304"><ele>124.0</ele><time>2026-04-26T14:19:11.917Z</time></trkpt><trkpt lat="43.6857555" lon="12.9223222"><ele>120.0</ele><time>2026-04-26T14:19:12.919Z</time></trkpt><trkpt lat="43.6857059" lon="12.9221925"><ele>120.0</ele><time>2026-04-26T14:19:13.918Z</time></trkpt><trkpt lat="43.6856775" lon="12.9220592"><ele>120.0</ele><time>2026-04-26T14:19:14.918Z</time></trkpt><trkpt lat="43.6856678" lon="12.9219219"><ele>120.0</ele><time>2026-04-26T14:19:15.92Z</time></trkpt><trkpt lat="43.6856826" lon="12.9217988"><ele>120.0</ele><time>2026-04-26T14:19:16.919Z</time></trkpt><trkpt lat="43.685714" lon="12.921656"><ele>120.0</ele><time>2026-04-26T14:19:17.918Z</time></trkpt><trkpt lat="43.6857563" lon="12.9215036"><ele>119.2</ele><time>2026-04-26T14:19:18.917Z</time></trkpt><trkpt lat="43.6857967" lon="12.9213583"><ele>118.4</ele><time>2026-04-26T14:19:19.918Z</time></trkpt><trkpt lat="43.6858264" lon="12.9212156"><ele>117.6</ele><time>2026-04-26T14:19:20.919Z</time></trkpt><trkpt lat="43.6858419" lon="12.9210743"><ele>116.8</ele><time>2026-04-26T14:19:21.917Z</time></trkpt><trkpt lat="43.6858543" lon="12.9209378"><ele>116.0</ele><time>2026-04-26T14:19:22.918Z</time></trkpt><trkpt lat="43.6858686" lon="12.9208076"><ele>116.0</ele><time>2026-04-26T14:19:23.918Z</time></trkpt><trkpt lat="43.6858816" lon="12.9206816"><ele>116.0</ele><time>2026-04-26T14:19:24.92Z</time></trkpt><trkpt lat="43.6858871" lon="12.920548"><ele>116.0</ele><time>2026-04-26T14:19:25.918Z</time></trkpt><trkpt lat="43.6858694" lon="12.9203979"><ele>116.0</ele><time>2026-04-26T14:19:26.919Z</time></trkpt><trkpt lat="43.6858183" lon="12.9202301"><ele>116.0</ele><time>2026-04-26T14:19:27.918Z</time></trkpt><trkpt lat="43.6857668" lon="12.9200626"><ele>116.0</ele><time>2026-04-26T14:19:28.917Z</time></trkpt><trkpt lat="43.6857155" lon="12.9198858"><ele>116.0</ele><time>2026-04-26T14:19:29.918Z</time></trkpt><trkpt lat="43.6856708" lon="12.91969"><ele>116.0</ele><time>2026-04-26T14:19:30.918Z</time></trkpt><trkpt lat="43.6856363" lon="12.9194829"><ele>116.0</ele><time>2026-04-26T14:19:31.918Z</time></trkpt><trkpt lat="43.6856107" lon="12.9192738"><ele>117.33333333333333</ele><time>2026-04-26T14:19:32.917Z</time></trkpt><trkpt lat="43.6855846" lon="12.9190418"><ele>118.66666666666666</ele><time>2026-04-26T14:19:33.918Z</time></trkpt><trkpt lat="43.6855644" lon="12.9188261"><ele>120.0</ele><time>2026-04-26T14:19:34.918Z</time></trkpt><trkpt lat="43.685548" lon="12.9186487"><ele>120.0</ele><time>2026-04-26T14:19:35.917Z</time></trkpt><trkpt lat="43.6855362" lon="12.9184673"><ele>120.0</ele><time>2026-04-26T14:19:36.918Z</time></trkpt><trkpt lat="43.6855268" lon="12.9182588"><ele>120.0</ele><time>2026-04-26T14:19:37.918Z</time></trkpt><trkpt lat="43.6855223" lon="12.918037"><ele>120.0</ele><time>2026-04-26T14:19:38.918Z</time></trkpt><trkpt lat="43.6855165" lon="12.9178417"><ele>121.25</ele><time>2026-04-26T14:19:39.918Z</time></trkpt><trkpt lat="43.6855035" lon="12.9176685"><ele>122.5</ele><time>2026-04-26T14:19:40.918Z</time></trkpt><trkpt lat="43.6854664" lon="12.9174855"><ele>123.75</ele><time>2026-04-26T14:19:41.917Z</time></trkpt><trkpt lat="43.68541" lon="12.9173011"><ele>125.0</ele><time>2026-04-26T14:19:42.918Z</time></trkpt><trkpt lat="43.6853522" lon="12.9171162"><ele>125.5</ele><time>2026-04-26T14:19:43.918Z</time></trkpt><trkpt lat="43.6852971" lon="12.9169459"><ele>126.0</ele><time>2026-04-26T14:19:44.917Z</time></trkpt><trkpt lat="43.6852398" lon="12.9167779"><ele>126.5</ele><time>2026-04-26T14:19:45.917Z</time></trkpt><trkpt lat="43.685191" lon="12.91662"><ele>127.0</ele><time>2026-04-26T14:19:46.917Z</time></trkpt><trkpt lat="43.685143" lon="12.9164722"><ele>128.79999999999998</ele><time>2026-04-26T14:19:47.917Z</time></trkpt><trkpt lat="43.6850941" lon="12.9163302"><ele>130.6</ele><time>2026-04-26T14:19:48.917Z</time></trkpt><trkpt lat="43.685047" lon="12.9161916"><ele>132.39999999999998</ele><time>2026-04-26T14:19:49.918Z</time></trkpt><trkpt lat="43.6850033" lon="12.9160627"><ele>134.2</ele><time>2026-04-26T14:19:50.919Z</time></trkpt><trkpt lat="43.6849665" lon="12.9159522"><ele>136.0</ele><time>2026-04-26T14:19:51.918Z</time></trkpt><trkpt lat="43.6849509" lon="12.915863"><ele>137.83333333333334</ele><time>2026-04-26T14:19:52.918Z</time></trkpt><trkpt lat="43.6849979" lon="12.9157202"><ele>139.66666666666669</ele><time>2026-04-26T14:19:54.918Z</time></trkpt><trkpt lat="43.6850548" lon="12.915677"><ele>141.5</ele><time>2026-04-26T14:19:55.918Z</time></trkpt><trkpt lat="43.6851307" lon="12.9156759"><ele>143.33333333333334</ele><time>2026-04-26T14:19:56.919Z</time></trkpt><trkpt lat="43.6852077" lon="12.9156923"><ele>145.16666666666666</ele><time>2026-04-26T14:19:57.918Z</time></trkpt><trkpt lat="43.6853121" lon="12.9157235"><ele>147.0</ele><time>2026-04-26T14:19:58.918Z</time></trkpt><trkpt lat="43.6854415" lon="12.9157466"><ele>149.75</ele><time>2026-04-26T14:19:59.917Z</time></trkpt><trkpt lat="43.6855834" lon="12.915764"><ele>152.5</ele><time>2026-04-26T14:20:00.917Z</time></trkpt><trkpt lat="43.6857185" lon="12.9157739"><ele>155.25</ele><time>2026-04-26T14:20:01.917Z</time></trkpt><trkpt lat="43.6858413" lon="12.9157814"><ele>158.0</ele><time>2026-04-26T14:20:02.917Z</time></trkpt><trkpt lat="43.6859489" lon="12.9157838"><ele>158.0</ele><time>2026-04-26T14:20:03.917Z</time></trkpt><trkpt lat="43.6860464" lon="12.9157718"><ele>158.0</ele><time>2026-04-26T14:20:04.917Z</time></trkpt><trkpt lat="43.6861542" lon="12.9157417"><ele>158.0</ele><time>2026-04-26T14:20:05.918Z</time></trkpt><trkpt lat="43.6862817" lon="12.9157022"><ele>158.0</ele><time>2026-04-26T14:20:06.918Z</time></trkpt><trkpt lat="43.6864109" lon="12.915661"><ele>158.20000000000002</ele><time>2026-04-26T14:20:07.918Z</time></trkpt><trkpt lat="43.6865217" lon="12.91562"><ele>158.4</ele><time>2026-04-26T14:20:08.918Z</time></trkpt><trkpt lat="43.6866166" lon="12.9155759"><ele>158.60000000000002</ele><time>2026-04-26T14:20:09.917Z</time></trkpt><trkpt lat="43.6866904" lon="12.9155329"><ele>158.8</ele><time>2026-04-26T14:20:10.919Z</time></trkpt><trkpt lat="43.686734" lon="12.9154697"><ele>159.0</ele><time>2026-04-26T14:20:11.919Z</time></trkpt><trkpt lat="43.6867218" lon="12.9153056"><ele>159.0</ele><time>2026-04-26T14:20:13.919Z</time></trkpt><trkpt lat="43.6866759" lon="12.9152318"><ele>159.0</ele><time>2026-04-26T14:20:14.919Z</time></trkpt><trkpt lat="43.6866146" lon="12.9151561"><ele>159.0</ele><time>2026-04-26T14:20:15.919Z</time></trkpt><trkpt lat="43.6865455" lon="12.9150638"><ele>159.0</ele><time>2026-04-26T14:20:16.919Z</time></trkpt><trkpt lat="43.6864942" lon="12.9149623"><ele>159.0</ele><time>2026-04-26T14:20:17.919Z</time></trkpt><trkpt lat="43.68648" lon="12.9148626"><ele>159.0</ele><time>2026-04-26T14:20:18.92Z</time></trkpt><trkpt lat="43.6864987" lon="12.9147632"><ele>161.4</ele><time>2026-04-26T14:20:19.919Z</time></trkpt><trkpt lat="43.6865295" lon="12.914682"><ele>163.8</ele><time>2026-04-26T14:20:20.919Z</time></trkpt><trkpt lat="43.686578" lon="12.9145968"><ele>166.20000000000002</ele><time>2026-04-26T14:20:21.919Z</time></trkpt><trkpt lat="43.686681" lon="12.9145169"><ele>168.60000000000002</ele><time>2026-04-26T14:20:22.919Z</time></trkpt><trkpt lat="43.6867685" lon="12.9144296"><ele>171.0</ele><time>2026-04-26T14:20:23.919Z</time></trkpt><trkpt lat="43.6868244" lon="12.914329"><ele>173.4</ele><time>2026-04-26T14:20:24.919Z</time></trkpt><trkpt lat="43.6868462" lon="12.9142209"><ele>175.8</ele><time>2026-04-26T14:20:25.919Z</time></trkpt><trkpt lat="43.6868508" lon="12.9141158"><ele>178.20000000000002</ele><time>2026-04-26T14:20:26.919Z</time></trkpt><trkpt lat="43.6868406" lon="12.9140104"><ele>180.60000000000002</ele><time>2026-04-26T14:20:27.919Z</time></trkpt><trkpt lat="43.686825" lon="12.9138756"><ele>183.0</ele><time>2026-04-26T14:20:28.918Z</time></trkpt><trkpt lat="43.6868091" lon="12.9136953"><ele>183.0</ele><time>2026-04-26T14:20:29.918Z</time></trkpt><trkpt lat="43.686791" lon="12.9135035"><ele>183.0</ele><time>2026-04-26T14:20:30.919Z</time></trkpt><trkpt lat="43.6867724" lon="12.9133577"><ele>183.0</ele><time>2026-04-26T14:20:31.919Z</time></trkpt><trkpt lat="43.6867685" lon="12.9132284"><ele>183.0</ele><time>2026-04-26T14:20:32.919Z</time></trkpt><trkpt lat="43.6867819" lon="12.9130855"><ele>183.0</ele><time>2026-04-26T14:20:33.92Z</time></trkpt><trkpt lat="43.6868121" lon="12.9129282"><ele>184.75</ele><time>2026-04-26T14:20:34.921Z</time></trkpt><trkpt lat="43.6868628" lon="12.9127826"><ele>186.5</ele><time>2026-04-26T14:20:35.918Z</time></trkpt><trkpt lat="43.6869351" lon="12.9126474"><ele>188.25</ele><time>2026-04-26T14:20:36.918Z</time></trkpt><trkpt lat="43.6870151" lon="12.9125001"><ele>190.0</ele><time>2026-04-26T14:20:37.919Z</time></trkpt><trkpt lat="43.6870812" lon="12.912378"><ele>193.6</ele><time>2026-04-26T14:20:38.92Z</time></trkpt><trkpt lat="43.6871422" lon="12.912294"><ele>197.2</ele><time>2026-04-26T14:20:39.918Z</time></trkpt><trkpt lat="43.6872115" lon="12.9122738"><ele>200.8</ele><time>2026-04-26T14:20:40.919Z</time></trkpt><trkpt lat="43.6872843" lon="12.9123005"><ele>204.4</ele><time>2026-04-26T14:20:41.919Z</time></trkpt><trkpt lat="43.6873627" lon="12.9123719"><ele>208.0</ele><time>2026-04-26T14:20:42.918Z</time></trkpt><trkpt lat="43.6874668" lon="12.9124654"><ele>208.0</ele><time>2026-04-26T14:20:43.92Z</time></trkpt><trkpt lat="43.6875994" lon="12.9125533"><ele>208.0</ele><time>2026-04-26T14:20:44.919Z</time></trkpt><trkpt lat="43.6877288" lon="12.9126354"><ele>208.0</ele><time>2026-04-26T14:20:45.919Z</time></trkpt><trkpt lat="43.6878421" lon="12.9127056"><ele>208.0</ele><time>2026-04-26T14:20:46.919Z</time></trkpt><trkpt lat="43.6879431" lon="12.912769"><ele>208.0</ele><time>2026-04-26T14:20:47.92Z</time></trkpt><trkpt lat="43.6880486" lon="12.9128232"><ele>208.0</ele><time>2026-04-26T14:20:48.919Z</time></trkpt><trkpt lat="43.6881673" lon="12.9128653"><ele>208.0</ele><time>2026-04-26T14:20:49.92Z</time></trkpt><trkpt lat="43.6882947" lon="12.9128955"><ele>208.0</ele><time>2026-04-26T14:20:50.919Z</time></trkpt><trkpt lat="43.6884358" lon="12.912915"><ele>208.0</ele><time>2026-04-26T14:20:51.918Z</time></trkpt><trkpt lat="43.6885854" lon="12.9129235"><ele>208.0</ele><time>2026-04-26T14:20:52.918Z</time></trkpt><trkpt lat="43.6887398" lon="12.9129255"><ele>208.0</ele><time>2026-04-26T14:20:53.919Z</time></trkpt><trkpt lat="43.6888876" lon="12.9129323"><ele>211.0</ele><time>2026-04-26T14:20:54.919Z</time></trkpt><trkpt lat="43.6890151" lon="12.9129344"><ele>214.0</ele><time>2026-04-26T14:20:55.918Z</time></trkpt><trkpt lat="43.6891324" lon="12.9129239"><ele>217.0</ele><time>2026-04-26T14:20:56.919Z</time></trkpt><trkpt lat="43.6892406" lon="12.9128878"><ele>220.0</ele><time>2026-04-26T14:20:57.918Z</time></trkpt><trkpt lat="43.6893483" lon="12.91283"><ele>220.0</ele><time>2026-04-26T14:20:58.92Z</time></trkpt><trkpt lat="43.6894583" lon="12.9127684"><ele>220.0</ele><time>2026-04-26T14:20:59.918Z</time></trkpt><trkpt lat="43.6895737" lon="12.9127093"><ele>220.0</ele><time>2026-04-26T14:21:00.92Z</time></trkpt><trkpt lat="43.6896963" lon="12.912642"><ele>220.0</ele><time>2026-04-26T14:21:01.919Z</time></trkpt><trkpt lat="43.6898196" lon="12.9125692"><ele>223.0</ele><time>2026-04-26T14:21:02.919Z</time></trkpt><trkpt lat="43.6899436" lon="12.9125023"><ele>226.0</ele><time>2026-04-26T14:21:03.92Z</time></trkpt><trkpt lat="43.6900598" lon="12.912447"><ele>229.0</ele><time>2026-04-26T14:21:04.918Z</time></trkpt><trkpt lat="43.6901711" lon="12.9123908"><ele>232.0</ele><time>2026-04-26T14:21:05.92Z</time></trkpt><trkpt lat="43.6902727" lon="12.9123329"><ele>231.99999999999997</ele><time>2026-04-26T14:21:06.919Z</time></trkpt><trkpt lat="43.6903604" lon="12.9122824"><ele>232.0</ele><time>2026-04-26T14:21:07.919Z</time></trkpt><trkpt lat="43.690442" lon="12.9122371"><ele>232.0</ele><time>2026-04-26T14:21:08.919Z</time></trkpt><trkpt lat="43.6905129" lon="12.9121893"><ele>232.0</ele><time>2026-04-26T14:21:09.919Z</time></trkpt><trkpt lat="43.6905673" lon="12.9121383"><ele>231.99999999999997</ele><time>2026-04-26T14:21:10.918Z</time></trkpt><trkpt lat="43.6906312" lon="12.9120202"><ele>232.0</ele><time>2026-04-26T14:21:12.918Z</time></trkpt><trkpt lat="43.6906267" lon="12.9118704"><ele>234.8</ele><time>2026-04-26T14:21:14.919Z</time></trkpt><trkpt lat="43.6906026" lon="12.9117089"><ele>237.6</ele><time>2026-04-26T14:21:16.921Z</time></trkpt><trkpt lat="43.6905794" lon="12.9115558"><ele>240.40000000000003</ele><time>2026-04-26T14:21:18.919Z</time></trkpt><trkpt lat="43.690597" lon="12.9114514"><ele>243.20000000000002</ele><time>2026-04-26T14:21:20.918Z</time></trkpt><trkpt lat="43.6906954" lon="12.9113743"><ele>246.0</ele><time>2026-04-26T14:21:22.927Z</time></trkpt><trkpt lat="43.6907975" lon="12.9112875"><ele>246.0</ele><time>2026-04-26T14:21:24.921Z</time></trkpt><trkpt lat="43.6909051" lon="12.9111977"><ele>246.00000000000003</ele><time>2026-04-26T14:21:26.918Z</time></trkpt><trkpt lat="43.6910275" lon="12.9111014"><ele>246.00000000000003</ele><time>2026-04-26T14:21:28.922Z</time></trkpt><trkpt lat="43.6910971" lon="12.9110449"><ele>246.0</ele><time>2026-04-26T14:21:29.919Z</time></trkpt><trkpt lat="43.6911651" lon="12.9109936"><ele>246.0</ele><time>2026-04-26T14:21:30.919Z</time></trkpt><trkpt lat="43.6912358" lon="12.9109473"><ele>243.8</ele><time>2026-04-26T14:21:31.918Z</time></trkpt><trkpt lat="43.6913148" lon="12.9108957"><ele>241.60000000000002</ele><time>2026-04-26T14:21:32.919Z</time></trkpt><trkpt lat="43.6914084" lon="12.9108328"><ele>239.4</ele><time>2026-04-26T14:21:33.918Z</time></trkpt><trkpt lat="43.6915128" lon="12.9107612"><ele>237.2</ele><time>2026-04-26T14:21:34.92Z</time></trkpt><trkpt lat="43.6916172" lon="12.910689"><ele>235.0</ele><time>2026-04-26T14:21:35.919Z</time></trkpt><trkpt lat="43.6917244" lon="12.9106076"><ele>235.0</ele><time>2026-04-26T14:21:36.92Z</time></trkpt><trkpt lat="43.6918378" lon="12.9105257"><ele>235.0</ele><time>2026-04-26T14:21:37.92Z</time></trkpt><trkpt lat="43.691953" lon="12.9104544"><ele>235.0</ele><time>2026-04-26T14:21:38.919Z</time></trkpt><trkpt lat="43.6920627" lon="12.9103913"><ele>235.0</ele><time>2026-04-26T14:21:39.919Z</time></trkpt><trkpt lat="43.6921626" lon="12.9103217"><ele>233.33333333333331</ele><time>2026-04-26T14:21:40.919Z</time></trkpt><trkpt lat="43.6922553" lon="12.9102539"><ele>231.66666666666666</ele><time>2026-04-26T14:21:41.919Z</time></trkpt><trkpt lat="43.6923403" lon="12.9101862"><ele>230.0</ele><time>2026-04-26T14:21:42.919Z</time></trkpt><trkpt lat="43.6923957" lon="12.9101007"><ele>228.33333333333331</ele><time>2026-04-26T14:21:43.918Z</time></trkpt><trkpt lat="43.6924106" lon="12.9099998"><ele>226.66666666666666</ele><time>2026-04-26T14:21:44.919Z</time></trkpt><trkpt lat="43.692394" lon="12.9098885"><ele>225.0</ele><time>2026-04-26T14:21:45.918Z</time></trkpt><trkpt lat="43.6923621" lon="12.9097915"><ele>225.0</ele><time>2026-04-26T14:21:46.918Z</time></trkpt><trkpt lat="43.6923351" lon="12.9097093"><ele>225.0</ele><time>2026-04-26T14:21:47.918Z</time></trkpt><trkpt lat="43.692303" lon="12.9095957"><ele>225.0</ele><time>2026-04-26T14:21:49.92Z</time></trkpt><trkpt lat="43.6922349" lon="12.9095138"><ele>225.0</ele><time>2026-04-26T14:21:52.922Z</time></trkpt><trkpt lat="43.6921556" lon="12.9094677"><ele>225.0</ele><time>2026-04-26T14:21:53.924Z</time></trkpt><trkpt lat="43.6920549" lon="12.9094282"><ele>225.0</ele><time>2026-04-26T14:21:54.919Z</time></trkpt><trkpt lat="43.6919521" lon="12.9093926"><ele>225.25</ele><time>2026-04-26T14:21:55.918Z</time></trkpt><trkpt lat="43.6918338" lon="12.9093356"><ele>225.5</ele><time>2026-04-26T14:21:56.919Z</time></trkpt><trkpt lat="43.6916942" lon="12.909265"><ele>225.75</ele><time>2026-04-26T14:21:57.92Z</time></trkpt><trkpt lat="43.691554" lon="12.9091968"><ele>226.0</ele><time>2026-04-26T14:21:58.918Z</time></trkpt><trkpt lat="43.6914165" lon="12.9091345"><ele>226.0</ele><time>2026-04-26T14:21:59.919Z</time></trkpt><trkpt lat="43.691271" lon="12.909071"><ele>226.0</ele><time>2026-04-26T14:22:00.919Z</time></trkpt><trkpt lat="43.691108" lon="12.909012"><ele>226.0</ele><time>2026-04-26T14:22:01.918Z</time></trkpt><trkpt lat="43.6909338" lon="12.9089796"><ele>227.66666666666666</ele><time>2026-04-26T14:22:02.919Z</time></trkpt><trkpt lat="43.6907565" lon="12.9089748"><ele>229.33333333333331</ele><time>2026-04-26T14:22:03.918Z</time></trkpt><trkpt lat="43.6905762" lon="12.9089784"><ele>231.0</ele><time>2026-04-26T14:22:04.918Z</time></trkpt><trkpt lat="43.6903961" lon="12.9089861"><ele>231.0</ele><time>2026-04-26T14:22:05.918Z</time></trkpt><trkpt lat="43.6902211" lon="12.908997"><ele>231.0</ele><time>2026-04-26T14:22:06.919Z</time></trkpt><trkpt lat="43.6900488" lon="12.9089983"><ele>231.0</ele><time>2026-04-26T14:22:07.92Z</time></trkpt><trkpt lat="43.6898792" lon="12.9089732"><ele>231.0</ele><time>2026-04-26T14:22:08.919Z</time></trkpt><trkpt lat="43.6897189" lon="12.9089191"><ele>231.0</ele><time>2026-04-26T14:22:09.919Z</time></trkpt><trkpt lat="43.6895632" lon="12.9088432"><ele>231.0</ele><time>2026-04-26T14:22:10.919Z</time></trkpt><trkpt lat="43.6894108" lon="12.9087499"><ele>231.0</ele><time>2026-04-26T14:22:11.92Z</time></trkpt><trkpt lat="43.6892569" lon="12.9086209"><ele>231.0</ele><time>2026-04-26T14:22:12.919Z</time></trkpt><trkpt lat="43.6891116" lon="12.908477"><ele>231.0</ele><time>2026-04-26T14:22:13.919Z</time></trkpt><trkpt lat="43.6889718" lon="12.9083334"><ele>231.0</ele><time>2026-04-26T14:22:14.919Z</time></trkpt><trkpt lat="43.6888357" lon="12.9081949"><ele>231.0</ele><time>2026-04-26T14:22:15.92Z</time></trkpt><trkpt lat="43.6887008" lon="12.9080529"><ele>231.0</ele><time>2026-04-26T14:22:16.918Z</time></trkpt><trkpt lat="43.6885595" lon="12.9079107"><ele>231.0</ele><time>2026-04-26T14:22:17.918Z</time></trkpt><trkpt lat="43.6884204" lon="12.9077734"><ele>231.0</ele><time>2026-04-26T14:22:18.919Z</time></trkpt><trkpt lat="43.6882817" lon="12.9076385"><ele>231.0</ele><time>2026-04-26T14:22:19.919Z</time></trkpt><trkpt lat="43.6881394" lon="12.9075044"><ele>231.0</ele><time>2026-04-26T14:22:20.919Z</time></trkpt><trkpt lat="43.6880001" lon="12.9073736"><ele>231.0</ele><time>2026-04-26T14:22:21.92Z</time></trkpt><trkpt lat="43.6878609" lon="12.9072427"><ele>231.0</ele><time>2026-04-26T14:22:22.919Z</time></trkpt><trkpt lat="43.6877236" lon="12.9071138"><ele>230.33333333333331</ele><time>2026-04-26T14:22:23.919Z</time></trkpt><trkpt lat="43.6875875" lon="12.9069856"><ele>229.66666666666666</ele><time>2026-04-26T14:22:24.919Z</time></trkpt><trkpt lat="43.6874545" lon="12.9068564"><ele>229.0</ele><time>2026-04-26T14:22:25.92Z</time></trkpt><trkpt lat="43.6873246" lon="12.9067237"><ele>232.0</ele><time>2026-04-26T14:22:26.919Z</time></trkpt><trkpt lat="43.6871959" lon="12.9065968"><ele>235.0</ele><time>2026-04-26T14:22:27.919Z</time></trkpt><trkpt lat="43.6870679" lon="12.906469"><ele>238.0</ele><time>2026-04-26T14:22:28.919Z</time></trkpt><trkpt lat="43.6869405" lon="12.9063496"><ele>235.66666666666666</ele><time>2026-04-26T14:22:29.918Z</time></trkpt><trkpt lat="43.6868134" lon="12.906229"><ele>233.33333333333331</ele><time>2026-04-26T14:22:30.919Z</time></trkpt><trkpt lat="43.6866847" lon="12.9061132"><ele>231.0</ele><time>2026-04-26T14:22:31.919Z</time></trkpt><trkpt lat="43.6865596" lon="12.9059903"><ele>233.0</ele><time>2026-04-26T14:22:32.92Z</time></trkpt><trkpt lat="43.686443" lon="12.9058501"><ele>235.0</ele><time>2026-04-26T14:22:33.918Z</time></trkpt><trkpt lat="43.6863315" lon="12.9056953"><ele>237.0</ele><time>2026-04-26T14:22:34.919Z</time></trkpt><trkpt lat="43.6862375" lon="12.9055254"><ele>237.0</ele><time>2026-04-26T14:22:35.919Z</time></trkpt><trkpt lat="43.6861575" lon="12.9053401"><ele>237.0</ele><time>2026-04-26T14:22:36.919Z</time></trkpt><trkpt lat="43.6860828" lon="12.9051433"><ele>237.0</ele><time>2026-04-26T14:22:37.918Z</time></trkpt><trkpt lat="43.686003" lon="12.9049446"><ele>235.66666666666669</ele><time>2026-04-26T14:22:38.919Z</time></trkpt><trkpt lat="43.6859138" lon="12.904746"><ele>234.33333333333334</ele><time>2026-04-26T14:22:39.919Z</time></trkpt><trkpt lat="43.6858162" lon="12.9045461"><ele>233.0</ele><time>2026-04-26T14:22:40.918Z</time></trkpt><trkpt lat="43.6857164" lon="12.9043396"><ele>234.66666666666669</ele><time>2026-04-26T14:22:41.918Z</time></trkpt><trkpt lat="43.6856121" lon="12.9041325"><ele>236.33333333333331</ele><time>2026-04-26T14:22:42.918Z</time></trkpt><trkpt lat="43.6855057" lon="12.9039284"><ele>238.0</ele><time>2026-04-26T14:22:43.918Z</time></trkpt><trkpt lat="43.6854019" lon="12.9037226"><ele>238.0</ele><time>2026-04-26T14:22:44.918Z</time></trkpt><trkpt lat="43.6853015" lon="12.9035064"><ele>238.0</ele><time>2026-04-26T14:22:45.92Z</time></trkpt><trkpt lat="43.6852025" lon="12.9032809"><ele>238.0</ele><time>2026-04-26T14:22:46.919Z</time></trkpt><trkpt lat="43.6851076" lon="12.9030544"><ele>239.0</ele><time>2026-04-26T14:22:47.919Z</time></trkpt><trkpt lat="43.6850235" lon="12.9028319"><ele>240.0</ele><time>2026-04-26T14:22:48.919Z</time></trkpt><trkpt lat="43.6849475" lon="12.9026118"><ele>241.0</ele><time>2026-04-26T14:22:49.92Z</time></trkpt><trkpt lat="43.6848799" lon="12.9023957"><ele>241.0</ele><time>2026-04-26T14:22:50.919Z</time></trkpt><trkpt lat="43.6848123" lon="12.9021819"><ele>241.0</ele><time>2026-04-26T14:22:51.92Z</time></trkpt><trkpt lat="43.6847374" lon="12.9019765"><ele>241.0</ele><time>2026-04-26T14:22:52.918Z</time></trkpt><trkpt lat="43.6846382" lon="12.9017931"><ele>240.0</ele><time>2026-04-26T14:22:53.921Z</time></trkpt><trkpt lat="43.6845249" lon="12.9016215"><ele>239.0</ele><time>2026-04-26T14:22:54.919Z</time></trkpt><trkpt lat="43.6844069" lon="12.9014501"><ele>238.0</ele><time>2026-04-26T14:22:55.918Z</time></trkpt><trkpt lat="43.684314" lon="12.9012493"><ele>238.0</ele><time>2026-04-26T14:22:56.919Z</time></trkpt><trkpt lat="43.6842344" lon="12.9010465"><ele>238.0</ele><time>2026-04-26T14:22:57.919Z</time></trkpt><trkpt lat="43.6841612" lon="12.9008613"><ele>238.0</ele><time>2026-04-26T14:22:58.918Z</time></trkpt><trkpt lat="43.6840848" lon="12.9006936"><ele>239.75</ele><time>2026-04-26T14:22:59.92Z</time></trkpt><trkpt lat="43.6839973" lon="12.9005531"><ele>241.5</ele><time>2026-04-26T14:23:00.919Z</time></trkpt><trkpt lat="43.6838917" lon="12.9004465"><ele>243.25</ele><time>2026-04-26T14:23:01.918Z</time></trkpt><trkpt lat="43.6837624" lon="12.9003787"><ele>245.0</ele><time>2026-04-26T14:23:02.918Z</time></trkpt><trkpt lat="43.6836194" lon="12.9003553"><ele>243.33333333333334</ele><time>2026-04-26T14:23:03.92Z</time></trkpt><trkpt lat="43.6834666" lon="12.9003478"><ele>241.66666666666669</ele><time>2026-04-26T14:23:04.919Z</time></trkpt><trkpt lat="43.6833015" lon="12.9003486"><ele>240.0</ele><time>2026-04-26T14:23:05.918Z</time></trkpt><trkpt lat="43.6831204" lon="12.9003542"><ele>240.0</ele><time>2026-04-26T14:23:06.919Z</time></trkpt><trkpt lat="43.6829306" lon="12.9003655"><ele>240.0</ele><time>2026-04-26T14:23:07.919Z</time></trkpt><trkpt lat="43.6827279" lon="12.9003818"><ele>240.0</ele><time>2026-04-26T14:23:08.919Z</time></trkpt><trkpt lat="43.6825162" lon="12.9004006"><ele>239.33333333333331</ele><time>2026-04-26T14:23:09.919Z</time></trkpt><trkpt lat="43.6822979" lon="12.9004167"><ele>238.66666666666666</ele><time>2026-04-26T14:23:10.919Z</time></trkpt><trkpt lat="43.6820763" lon="12.9004279"><ele>238.0</ele><time>2026-04-26T14:23:11.918Z</time></trkpt><trkpt lat="43.6818571" lon="12.9004375"><ele>238.0</ele><time>2026-04-26T14:23:12.918Z</time></trkpt><trkpt lat="43.6816342" lon="12.90045"><ele>238.0</ele><time>2026-04-26T14:23:13.919Z</time></trkpt><trkpt lat="43.6814056" lon="12.9004678"><ele>238.0</ele><time>2026-04-26T14:23:14.919Z</time></trkpt><trkpt lat="43.6811915" lon="12.9004776"><ele>238.0</ele><time>2026-04-26T14:23:15.918Z</time></trkpt><trkpt lat="43.6809789" lon="12.900489"><ele>238.0</ele><time>2026-04-26T14:23:16.919Z</time></trkpt><trkpt lat="43.6807702" lon="12.9004921"><ele>239.0</ele><time>2026-04-26T14:23:17.919Z</time></trkpt><trkpt lat="43.6805617" lon="12.9005045"><ele>240.0</ele><time>2026-04-26T14:23:18.919Z</time></trkpt><trkpt lat="43.6803608" lon="12.900512"><ele>241.0</ele><time>2026-04-26T14:23:19.919Z</time></trkpt><trkpt lat="43.6801576" lon="12.9005244"><ele>241.0</ele><time>2026-04-26T14:23:20.92Z</time></trkpt><trkpt lat="43.6799754" lon="12.9005393"><ele>241.0</ele><time>2026-04-26T14:23:21.919Z</time></trkpt><trkpt lat="43.6798004" lon="12.9005505"><ele>241.0</ele><time>2026-04-26T14:23:22.918Z</time></trkpt><trkpt lat="43.6796318" lon="12.9005357"><ele>241.0</ele><time>2026-04-26T14:23:23.919Z</time></trkpt><trkpt lat="43.679474" lon="12.9004707"><ele>241.0</ele><time>2026-04-26T14:23:24.919Z</time></trkpt><trkpt lat="43.6793395" lon="12.9003536"><ele>241.0</ele><time>2026-04-26T14:23:25.918Z</time></trkpt><trkpt lat="43.679233" lon="12.9001946"><ele>242.5</ele><time>2026-04-26T14:23:26.919Z</time></trkpt><trkpt lat="43.6791486" lon="12.9000264"><ele>244.0</ele><time>2026-04-26T14:23:27.92Z</time></trkpt><trkpt lat="43.6790762" lon="12.8998734"><ele>245.5</ele><time>2026-04-26T14:23:28.919Z</time></trkpt><trkpt lat="43.6790127" lon="12.8997273"><ele>247.0</ele><time>2026-04-26T14:23:29.92Z</time></trkpt><trkpt lat="43.678944" lon="12.8995977"><ele>247.0</ele><time>2026-04-26T14:23:30.919Z</time></trkpt><trkpt lat="43.678864" lon="12.8994891"><ele>247.0</ele><time>2026-04-26T14:23:31.919Z</time></trkpt><trkpt lat="43.6787618" lon="12.899429"><ele>247.0</ele><time>2026-04-26T14:23:32.919Z</time></trkpt><trkpt lat="43.6786533" lon="12.8994104"><ele>247.0</ele><time>2026-04-26T14:23:33.919Z</time></trkpt><trkpt lat="43.6785305" lon="12.8994268"><ele>248.0</ele><time>2026-04-26T14:23:34.92Z</time></trkpt><trkpt lat="43.6784045" lon="12.8994662"><ele>249.0</ele><time>2026-04-26T14:23:35.919Z</time></trkpt><trkpt lat="43.6782706" lon="12.8995197"><ele>250.0</ele><time>2026-04-26T14:23:36.919Z</time></trkpt><trkpt lat="43.6781348" lon="12.8995557"><ele>251.0</ele><time>2026-04-26T14:23:37.92Z</time></trkpt><trkpt lat="43.677993" lon="12.8995496"><ele>251.0</ele><time>2026-04-26T14:23:38.919Z</time></trkpt><trkpt lat="43.6778463" lon="12.8994963"><ele>251.0</ele><time>2026-04-26T14:23:39.919Z</time></trkpt><trkpt lat="43.677694" lon="12.8994142"><ele>251.0</ele><time>2026-04-26T14:23:40.919Z</time></trkpt><trkpt lat="43.6775328" lon="12.8993306"><ele>252.0</ele><time>2026-04-26T14:23:41.918Z</time></trkpt><trkpt lat="43.6773533" lon="12.8992625"><ele>253.0</ele><time>2026-04-26T14:23:42.92Z</time></trkpt><trkpt lat="43.6771683" lon="12.8992135"><ele>254.0</ele><time>2026-04-26T14:23:43.92Z</time></trkpt><trkpt lat="43.676976" lon="12.8991636"><ele>257.33333333333337</ele><time>2026-04-26T14:23:44.918Z</time></trkpt><trkpt lat="43.6767895" lon="12.8991188"><ele>260.6666666666667</ele><time>2026-04-26T14:23:45.918Z</time></trkpt><trkpt lat="43.676604" lon="12.8990712"><ele>264.0</ele><time>2026-04-26T14:23:46.92Z</time></trkpt><trkpt lat="43.6764285" lon="12.8990372"><ele>264.0</ele><time>2026-04-26T14:23:47.92Z</time></trkpt><trkpt lat="43.6762709" lon="12.8990171"><ele>264.0</ele><time>2026-04-26T14:23:48.922Z</time></trkpt><trkpt lat="43.6761228" lon="12.8990236"><ele>264.0</ele><time>2026-04-26T14:23:49.918Z</time></trkpt><trkpt lat="43.6759799" lon="12.8990701"><ele>265.0</ele><time>2026-04-26T14:23:50.92Z</time></trkpt><trkpt lat="43.6758328" lon="12.89911"><ele>266.0</ele><time>2026-04-26T14:23:51.918Z</time></trkpt><trkpt lat="43.6756938" lon="12.8991212"><ele>267.0</ele><time>2026-04-26T14:23:52.919Z</time></trkpt><trkpt lat="43.6755499" lon="12.8990984"><ele>268.0</ele><time>2026-04-26T14:23:53.918Z</time></trkpt><trkpt lat="43.6753965" lon="12.8990672"><ele>269.66666666666663</ele><time>2026-04-26T14:23:54.919Z</time></trkpt><trkpt lat="43.6752382" lon="12.8990341"><ele>271.3333333333333</ele><time>2026-04-26T14:23:55.919Z</time></trkpt><trkpt lat="43.6750783" lon="12.8989933"><ele>273.0</ele><time>2026-04-26T14:23:56.92Z</time></trkpt><trkpt lat="43.6749326" lon="12.8989432"><ele>273.0</ele><time>2026-04-26T14:23:57.918Z</time></trkpt><trkpt lat="43.6747959" lon="12.8988945"><ele>273.0</ele><time>2026-04-26T14:23:58.919Z</time></trkpt><trkpt lat="43.6746612" lon="12.8988619"><ele>273.0</ele><time>2026-04-26T14:23:59.92Z</time></trkpt><trkpt lat="43.6745195" lon="12.8988606"><ele>273.0</ele><time>2026-04-26T14:24:00.918Z</time></trkpt><trkpt lat="43.6743794" lon="12.898887"><ele>274.5</ele><time>2026-04-26T14:24:01.918Z</time></trkpt><trkpt lat="43.6742447" lon="12.8989423"><ele>276.0</ele><time>2026-04-26T14:24:02.919Z</time></trkpt><trkpt lat="43.6741191" lon="12.899019"><ele>277.5</ele><time>2026-04-26T14:24:03.919Z</time></trkpt><trkpt lat="43.6740118" lon="12.8991125"><ele>279.0</ele><time>2026-04-26T14:24:04.919Z</time></trkpt><trkpt lat="43.6739405" lon="12.8992167"><ele>278.5</ele><time>2026-04-26T14:24:05.919Z</time></trkpt><trkpt lat="43.6738879" lon="12.8993466"><ele>278.0</ele><time>2026-04-26T14:24:06.919Z</time></trkpt><trkpt lat="43.6738636" lon="12.8994859"><ele>277.5</ele><time>2026-04-26T14:24:07.919Z</time></trkpt><trkpt lat="43.6738674" lon="12.8996403"><ele>277.0</ele><time>2026-04-26T14:24:08.918Z</time></trkpt><trkpt lat="43.6738806" lon="12.8998205"><ele>277.0</ele><time>2026-04-26T14:24:09.919Z</time></trkpt><trkpt lat="43.6738857" lon="12.9000156"><ele>277.0</ele><time>2026-04-26T14:24:10.92Z</time></trkpt><trkpt lat="43.6738762" lon="12.9002131"><ele>277.0</ele><time>2026-04-26T14:24:11.919Z</time></trkpt><trkpt lat="43.6738563" lon="12.9004013"><ele>277.0</ele><time>2026-04-26T14:24:12.919Z</time></trkpt><trkpt lat="43.6738369" lon="12.900573"><ele>277.0</ele><time>2026-04-26T14:24:13.919Z</time></trkpt><trkpt lat="43.6738213" lon="12.9007318"><ele>277.0</ele><time>2026-04-26T14:24:14.919Z</time></trkpt><trkpt lat="43.6738193" lon="12.9008874"><ele>277.0</ele><time>2026-04-26T14:24:15.919Z</time></trkpt><trkpt lat="43.6738445" lon="12.9010349"><ele>277.0</ele><time>2026-04-26T14:24:16.919Z</time></trkpt><trkpt lat="43.6739112" lon="12.9011878"><ele>277.0</ele><time>2026-04-26T14:24:17.919Z</time></trkpt><trkpt lat="43.6739919" lon="12.9013399"><ele>277.0</ele><time>2026-04-26T14:24:18.919Z</time></trkpt><trkpt lat="43.6740891" lon="12.9014942"><ele>277.0</ele><time>2026-04-26T14:24:19.918Z</time></trkpt><trkpt lat="43.6741772" lon="12.901645"><ele>277.0</ele><time>2026-04-26T14:24:20.919Z</time></trkpt><trkpt lat="43.6742451" lon="12.901785"><ele>277.0</ele><time>2026-04-26T14:24:21.919Z</time></trkpt><trkpt lat="43.6742746" lon="12.9019199"><ele>277.0</ele><time>2026-04-26T14:24:22.919Z</time></trkpt><trkpt lat="43.6742588" lon="12.9020665"><ele>277.0</ele><time>2026-04-26T14:24:23.918Z</time></trkpt><trkpt lat="43.6742051" lon="12.9022085"><ele>277.0</ele><time>2026-04-26T14:24:24.92Z</time></trkpt><trkpt lat="43.6741142" lon="12.9023275"><ele>277.0</ele><time>2026-04-26T14:24:25.919Z</time></trkpt><trkpt lat="43.6740017" lon="12.9024271"><ele>277.0</ele><time>2026-04-26T14:24:26.918Z</time></trkpt><trkpt lat="43.6738804" lon="12.9025156"><ele>277.0</ele><time>2026-04-26T14:24:27.919Z</time></trkpt><trkpt lat="43.6737412" lon="12.902609"><ele>277.0</ele><time>2026-04-26T14:24:28.919Z</time></trkpt><trkpt lat="43.6735954" lon="12.9027017"><ele>276.3333333333333</ele><time>2026-04-26T14:24:29.919Z</time></trkpt><trkpt lat="43.6734425" lon="12.9027845"><ele>275.6666666666667</ele><time>2026-04-26T14:24:30.919Z</time></trkpt><trkpt lat="43.673283" lon="12.9028564"><ele>275.0</ele><time>2026-04-26T14:24:31.92Z</time></trkpt><trkpt lat="43.6731137" lon="12.902919"><ele>275.0</ele><time>2026-04-26T14:24:32.919Z</time></trkpt><trkpt lat="43.6729433" lon="12.9029688"><ele>275.0</ele><time>2026-04-26T14:24:33.919Z</time></trkpt><trkpt lat="43.6727768" lon="12.9030124"><ele>275.0</ele><time>2026-04-26T14:24:34.919Z</time></trkpt><trkpt lat="43.672619" lon="12.9030645"><ele>277.0</ele><time>2026-04-26T14:24:35.919Z</time></trkpt><trkpt lat="43.6724681" lon="12.9031388"><ele>279.0</ele><time>2026-04-26T14:24:36.919Z</time></trkpt><trkpt lat="43.6723189" lon="12.9032088"><ele>281.0</ele><time>2026-04-26T14:24:37.918Z</time></trkpt><trkpt lat="43.6721938" lon="12.9033173"><ele>279.75</ele><time>2026-04-26T14:24:38.918Z</time></trkpt><trkpt lat="43.6720891" lon="12.9034636"><ele>278.5</ele><time>2026-04-26T14:24:39.92Z</time></trkpt><trkpt lat="43.6720221" lon="12.9036268"><ele>277.25</ele><time>2026-04-26T14:24:40.92Z</time></trkpt><trkpt lat="43.6720021" lon="12.9037869"><ele>276.0</ele><time>2026-04-26T14:24:41.918Z</time></trkpt><trkpt lat="43.6720197" lon="12.9039499"><ele>276.0</ele><time>2026-04-26T14:24:42.919Z</time></trkpt><trkpt lat="43.6720519" lon="12.9041187"><ele>276.0</ele><time>2026-04-26T14:24:43.919Z</time></trkpt><trkpt lat="43.6720853" lon="12.9043024"><ele>276.0</ele><time>2026-04-26T14:24:44.921Z</time></trkpt><trkpt lat="43.6721103" lon="12.9045021"><ele>276.0</ele><time>2026-04-26T14:24:45.919Z</time></trkpt><trkpt lat="43.6721288" lon="12.9047164"><ele>274.3333333333333</ele><time>2026-04-26T14:24:46.919Z</time></trkpt><trkpt lat="43.6721387" lon="12.9049344"><ele>272.66666666666663</ele><time>2026-04-26T14:24:47.919Z</time></trkpt><trkpt lat="43.6721341" lon="12.905143"><ele>271.0</ele><time>2026-04-26T14:24:48.92Z</time></trkpt><trkpt lat="43.6721215" lon="12.9053455"><ele>270.25</ele><time>2026-04-26T14:24:49.919Z</time></trkpt><trkpt lat="43.6721002" lon="12.9055421"><ele>269.5</ele><time>2026-04-26T14:24:50.92Z</time></trkpt><trkpt lat="43.6720699" lon="12.9057213"><ele>268.75</ele><time>2026-04-26T14:24:51.919Z</time></trkpt><trkpt lat="43.6720338" lon="12.9058917"><ele>268.0</ele><time>2026-04-26T14:24:52.92Z</time></trkpt><trkpt lat="43.672004" lon="12.9060662"><ele>268.8</ele><time>2026-04-26T14:24:53.918Z</time></trkpt><trkpt lat="43.6719784" lon="12.9062375"><ele>269.6</ele><time>2026-04-26T14:24:54.919Z</time></trkpt><trkpt lat="43.6719555" lon="12.9063948"><ele>270.4</ele><time>2026-04-26T14:24:55.918Z</time></trkpt><trkpt lat="43.6719321" lon="12.9065265"><ele>271.2</ele><time>2026-04-26T14:24:56.918Z</time></trkpt><trkpt lat="43.6719025" lon="12.9066324"><ele>272.0</ele><time>2026-04-26T14:24:57.918Z</time></trkpt><trkpt lat="43.6718567" lon="12.906721"><ele>272.0</ele><time>2026-04-26T14:24:58.918Z</time></trkpt><trkpt lat="43.6718051" lon="12.9067832"><ele>272.0</ele><time>2026-04-26T14:24:59.92Z</time></trkpt><trkpt lat="43.6717015" lon="12.9068093"><ele>272.0</ele><time>2026-04-26T14:25:01.919Z</time></trkpt><trkpt lat="43.6715792" lon="12.9067391"><ele>272.0</ele><time>2026-04-26T14:25:03.919Z</time></trkpt><trkpt lat="43.6715144" lon="12.9066521"><ele>272.0</ele><time>2026-04-26T14:25:04.918Z</time></trkpt><trkpt lat="43.6714474" lon="12.9065203"><ele>272.0</ele><time>2026-04-26T14:25:05.919Z</time></trkpt><trkpt lat="43.6713707" lon="12.9063639"><ele>272.0</ele><time>2026-04-26T14:25:06.92Z</time></trkpt><trkpt lat="43.6712834" lon="12.9062052"><ele>272.0</ele><time>2026-04-26T14:25:07.918Z</time></trkpt><trkpt lat="43.6711928" lon="12.906047"><ele>272.0</ele><time>2026-04-26T14:25:08.919Z</time></trkpt><trkpt lat="43.6710974" lon="12.9058792"><ele>274.33333333333337</ele><time>2026-04-26T14:25:09.919Z</time></trkpt><trkpt lat="43.6709969" lon="12.9056938"><ele>276.6666666666667</ele><time>2026-04-26T14:25:10.918Z</time></trkpt><trkpt lat="43.6708935" lon="12.9054909"><ele>279.0</ele><time>2026-04-26T14:25:11.92Z</time></trkpt><trkpt lat="43.6707928" lon="12.9052994"><ele>279.0</ele><time>2026-04-26T14:25:12.918Z</time></trkpt><trkpt lat="43.670706" lon="12.9051198"><ele>279.0</ele><time>2026-04-26T14:25:13.918Z</time></trkpt><trkpt lat="43.670638" lon="12.9049292"><ele>279.0</ele><time>2026-04-26T14:25:14.919Z</time></trkpt><trkpt lat="43.6705934" lon="12.9047212"><ele>281.6666666666667</ele><time>2026-04-26T14:25:15.919Z</time></trkpt><trkpt lat="43.6705673" lon="12.9044923"><ele>284.33333333333337</ele><time>2026-04-26T14:25:16.918Z</time></trkpt><trkpt lat="43.6705652" lon="12.9042511"><ele>287.0</ele><time>2026-04-26T14:25:17.919Z</time></trkpt><trkpt lat="43.6705874" lon="12.9040073"><ele>288.6666666666667</ele><time>2026-04-26T14:25:18.919Z</time></trkpt><trkpt lat="43.6706308" lon="12.9037552"><ele>290.3333333333333</ele><time>2026-04-26T14:25:19.919Z</time></trkpt><trkpt lat="43.6706798" lon="12.9034884"><ele>292.0</ele><time>2026-04-26T14:25:20.919Z</time></trkpt><trkpt lat="43.6707281" lon="12.9032164"><ele>293.0</ele><time>2026-04-26T14:25:21.924Z</time></trkpt><trkpt lat="43.6707725" lon="12.9029528"><ele>294.0</ele><time>2026-04-26T14:25:22.92Z</time></trkpt><trkpt lat="43.6708191" lon="12.9026951"><ele>295.0</ele><time>2026-04-26T14:25:23.918Z</time></trkpt><trkpt lat="43.6708679" lon="12.9024443"><ele>295.0</ele><time>2026-04-26T14:25:24.919Z</time></trkpt><trkpt lat="43.6709186" lon="12.9022003"><ele>295.0</ele><time>2026-04-26T14:25:25.919Z</time></trkpt><trkpt lat="43.6709604" lon="12.9019577"><ele>295.0</ele><time>2026-04-26T14:25:26.919Z</time></trkpt><trkpt lat="43.6709949" lon="12.9017158"><ele>296.66666666666663</ele><time>2026-04-26T14:25:27.918Z</time></trkpt><trkpt lat="43.6710273" lon="12.9014758"><ele>298.3333333333333</ele><time>2026-04-26T14:25:28.919Z</time></trkpt><trkpt lat="43.6710574" lon="12.9012365"><ele>300.0</ele><time>2026-04-26T14:25:29.919Z</time></trkpt><trkpt lat="43.6710822" lon="12.9009948"><ele>302.0</ele><time>2026-04-26T14:25:30.918Z</time></trkpt><trkpt lat="43.6710544" lon="12.9007394"><ele>304.0</ele><time>2026-04-26T14:25:31.919Z</time></trkpt><trkpt lat="43.671017" lon="12.9004818"><ele>306.0</ele><time>2026-04-26T14:25:32.919Z</time></trkpt><trkpt lat="43.670985" lon="12.9002224"><ele>309.0</ele><time>2026-04-26T14:25:33.92Z</time></trkpt><trkpt lat="43.6709564" lon="12.8999656"><ele>312.0</ele><time>2026-04-26T14:25:34.918Z</time></trkpt><trkpt lat="43.6709248" lon="12.8997168"><ele>315.0</ele><time>2026-04-26T14:25:35.918Z</time></trkpt><trkpt lat="43.6708855" lon="12.8994943"><ele>315.0</ele><time>2026-04-26T14:25:36.92Z</time></trkpt><trkpt lat="43.6708489" lon="12.8992952"><ele>315.0</ele><time>2026-04-26T14:25:37.92Z</time></trkpt><trkpt lat="43.6708246" lon="12.8991051"><ele>315.0</ele><time>2026-04-26T14:25:38.919Z</time></trkpt><trkpt lat="43.6708032" lon="12.8989066"><ele>315.0</ele><time>2026-04-26T14:25:39.918Z</time></trkpt><trkpt lat="43.6708255" lon="12.8986978"><ele>316.3333333333333</ele><time>2026-04-26T14:25:40.918Z</time></trkpt><trkpt lat="43.6708546" lon="12.8984781"><ele>317.66666666666663</ele><time>2026-04-26T14:25:41.92Z</time></trkpt><trkpt lat="43.6708693" lon="12.8982601"><ele>319.0</ele><time>2026-04-26T14:25:42.919Z</time></trkpt><trkpt lat="43.6708664" lon="12.898048"><ele>319.3333333333333</ele><time>2026-04-26T14:25:43.918Z</time></trkpt><trkpt lat="43.6708738" lon="12.897835"><ele>319.6666666666667</ele><time>2026-04-26T14:25:44.918Z</time></trkpt><trkpt lat="43.6709188" lon="12.8976222"><ele>320.0</ele><time>2026-04-26T14:25:45.918Z</time></trkpt><trkpt lat="43.670976" lon="12.8974145"><ele>320.6666666666667</ele><time>2026-04-26T14:25:46.918Z</time></trkpt><trkpt lat="43.6710339" lon="12.897204"><ele>321.3333333333333</ele><time>2026-04-26T14:25:47.919Z</time></trkpt><trkpt lat="43.6710877" lon="12.8970037"><ele>322.0</ele><time>2026-04-26T14:25:48.918Z</time></trkpt><trkpt lat="43.6711194" lon="12.8968"><ele>322.5</ele><time>2026-04-26T14:25:49.919Z</time></trkpt><trkpt lat="43.6711149" lon="12.8965931"><ele>323.0</ele><time>2026-04-26T14:25:50.918Z</time></trkpt><trkpt lat="43.6710828" lon="12.8963873"><ele>323.5</ele><time>2026-04-26T14:25:51.918Z</time></trkpt><trkpt lat="43.6710591" lon="12.8961917"><ele>324.0</ele><time>2026-04-26T14:25:52.916Z</time></trkpt><trkpt lat="43.6710636" lon="12.8960112"><ele>324.25</ele><time>2026-04-26T14:25:53.92Z</time></trkpt><trkpt lat="43.6711047" lon="12.8958439"><ele>324.5</ele><time>2026-04-26T14:25:54.919Z</time></trkpt><trkpt lat="43.6711705" lon="12.8956829"><ele>324.75</ele><time>2026-04-26T14:25:55.918Z</time></trkpt><trkpt lat="43.6712469" lon="12.8955223"><ele>325.0</ele><time>2026-04-26T14:25:56.918Z</time></trkpt><trkpt lat="43.6713189" lon="12.8953558"><ele>329.75</ele><time>2026-04-26T14:25:57.92Z</time></trkpt><trkpt lat="43.6713662" lon="12.8951856"><ele>334.5</ele><time>2026-04-26T14:25:58.92Z</time></trkpt><trkpt lat="43.6713718" lon="12.8950066"><ele>339.25</ele><time>2026-04-26T14:25:59.918Z</time></trkpt><trkpt lat="43.6713465" lon="12.8948272"><ele>344.0</ele><time>2026-04-26T14:26:00.92Z</time></trkpt><trkpt lat="43.6713007" lon="12.8946538"><ele>344.0</ele><time>2026-04-26T14:26:01.919Z</time></trkpt><trkpt lat="43.6712552" lon="12.8944884"><ele>344.0</ele><time>2026-04-26T14:26:02.921Z</time></trkpt><trkpt lat="43.6712276" lon="12.8943318"><ele>344.0</ele><time>2026-04-26T14:26:03.919Z</time></trkpt><trkpt lat="43.6712162" lon="12.8941707"><ele>344.0</ele><time>2026-04-26T14:26:04.918Z</time></trkpt><trkpt lat="43.6712052" lon="12.8939951"><ele>346.25</ele><time>2026-04-26T14:26:05.918Z</time></trkpt><trkpt lat="43.671189" lon="12.8938061"><ele>348.5</ele><time>2026-04-26T14:26:06.918Z</time></trkpt><trkpt lat="43.671165" lon="12.8936149"><ele>350.75</ele><time>2026-04-26T14:26:07.919Z</time></trkpt><trkpt lat="43.6711306" lon="12.8934266"><ele>353.0</ele><time>2026-04-26T14:26:08.92Z</time></trkpt><trkpt lat="43.6710786" lon="12.893235"><ele>347.0</ele><time>2026-04-26T14:26:09.919Z</time></trkpt><trkpt lat="43.6710196" lon="12.8930406"><ele>341.0</ele><time>2026-04-26T14:26:10.921Z</time></trkpt><trkpt lat="43.6709566" lon="12.892863"><ele>335.0</ele><time>2026-04-26T14:26:11.919Z</time></trkpt><trkpt lat="43.6708909" lon="12.8926962"><ele>329.0</ele><time>2026-04-26T14:26:12.919Z</time></trkpt><trkpt lat="43.6708211" lon="12.8925281"><ele>329.0</ele><time>2026-04-26T14:26:13.918Z</time></trkpt><trkpt lat="43.6707516" lon="12.8923608"><ele>329.0</ele><time>2026-04-26T14:26:14.918Z</time></trkpt><trkpt lat="43.6706612" lon="12.8922089"><ele>329.0</ele><time>2026-04-26T14:26:15.919Z</time></trkpt><trkpt lat="43.6705463" lon="12.8920735"><ele>329.0</ele><time>2026-04-26T14:26:16.92Z</time></trkpt><trkpt lat="43.6704156" lon="12.8919549"><ele>329.0</ele><time>2026-04-26T14:26:17.919Z</time></trkpt><trkpt lat="43.6702815" lon="12.8918387"><ele>329.0</ele><time>2026-04-26T14:26:18.92Z</time></trkpt><trkpt lat="43.6701433" lon="12.8917213"><ele>329.0</ele><time>2026-04-26T14:26:19.918Z</time></trkpt><trkpt lat="43.6700019" lon="12.8916005"><ele>326.6666666666667</ele><time>2026-04-26T14:26:20.918Z</time></trkpt><trkpt lat="43.6698597" lon="12.8914797"><ele>324.3333333333333</ele><time>2026-04-26T14:26:21.919Z</time></trkpt><trkpt lat="43.6697211" lon="12.8913564"><ele>322.0</ele><time>2026-04-26T14:26:22.919Z</time></trkpt><trkpt lat="43.6695954" lon="12.8912222"><ele>322.0</ele><time>2026-04-26T14:26:23.918Z</time></trkpt><trkpt lat="43.6694853" lon="12.8910796"><ele>322.0</ele><time>2026-04-26T14:26:24.919Z</time></trkpt><trkpt lat="43.6693838" lon="12.8909274"><ele>322.0</ele><time>2026-04-26T14:26:25.919Z</time></trkpt><trkpt lat="43.6693023" lon="12.8907512"><ele>320.3333333333333</ele><time>2026-04-26T14:26:26.918Z</time></trkpt><trkpt lat="43.6692429" lon="12.8905524"><ele>318.6666666666667</ele><time>2026-04-26T14:26:27.918Z</time></trkpt><trkpt lat="43.6692006" lon="12.8903495"><ele>317.0</ele><time>2026-04-26T14:26:28.919Z</time></trkpt><trkpt lat="43.6691516" lon="12.8901587"><ele>317.0</ele><time>2026-04-26T14:26:29.918Z</time></trkpt><trkpt lat="43.6690769" lon="12.8899802"><ele>317.0</ele><time>2026-04-26T14:26:30.921Z</time></trkpt><trkpt lat="43.6689828" lon="12.8898117"><ele>317.0</ele><time>2026-04-26T14:26:31.919Z</time></trkpt><trkpt lat="43.6688775" lon="12.8896406"><ele>317.0</ele><time>2026-04-26T14:26:32.918Z</time></trkpt><trkpt lat="43.6687756" lon="12.8894595"><ele>317.0</ele><time>2026-04-26T14:26:33.92Z</time></trkpt><trkpt lat="43.6686804" lon="12.8892638"><ele>317.0</ele><time>2026-04-26T14:26:34.919Z</time></trkpt><trkpt lat="43.6685922" lon="12.8890618"><ele>315.33333333333337</ele><time>2026-04-26T14:26:35.92Z</time></trkpt><trkpt lat="43.6685041" lon="12.8888613"><ele>313.6666666666667</ele><time>2026-04-26T14:26:36.919Z</time></trkpt><trkpt lat="43.6684147" lon="12.8886614"><ele>312.0</ele><time>2026-04-26T14:26:37.918Z</time></trkpt><trkpt lat="43.6683289" lon="12.8884615"><ele>311.3333333333333</ele><time>2026-04-26T14:26:38.918Z</time></trkpt><trkpt lat="43.668243" lon="12.8882618"><ele>310.66666666666663</ele><time>2026-04-26T14:26:39.92Z</time></trkpt><trkpt lat="43.6681694" lon="12.8880663"><ele>310.0</ele><time>2026-04-26T14:26:40.919Z</time></trkpt><trkpt lat="43.6681089" lon="12.8878733"><ele>310.0</ele><time>2026-04-26T14:26:41.918Z</time></trkpt><trkpt lat="43.6680739" lon="12.8876637"><ele>310.0</ele><time>2026-04-26T14:26:42.918Z</time></trkpt><trkpt lat="43.6680681" lon="12.8874463"><ele>310.0</ele><time>2026-04-26T14:26:43.918Z</time></trkpt><trkpt lat="43.6680881" lon="12.8872435"><ele>308.75</ele><time>2026-04-26T14:26:44.919Z</time></trkpt><trkpt lat="43.6681037" lon="12.8870535"><ele>307.5</ele><time>2026-04-26T14:26:45.918Z</time></trkpt><trkpt lat="43.6680993" lon="12.8868669"><ele>306.25</ele><time>2026-04-26T14:26:46.92Z</time></trkpt><trkpt lat="43.668066" lon="12.8866786"><ele>305.0</ele><time>2026-04-26T14:26:47.919Z</time></trkpt><trkpt lat="43.668003" lon="12.8864935"><ele>305.0</ele><time>2026-04-26T14:26:48.918Z</time></trkpt><trkpt lat="43.6679244" lon="12.8863191"><ele>305.0</ele><time>2026-04-26T14:26:49.919Z</time></trkpt><trkpt lat="43.667842" lon="12.8861604"><ele>305.0</ele><time>2026-04-26T14:26:50.919Z</time></trkpt><trkpt lat="43.6677611" lon="12.8860103"><ele>305.0</ele><time>2026-04-26T14:26:51.918Z</time></trkpt><trkpt lat="43.6676885" lon="12.8858683"><ele>304.2</ele><time>2026-04-26T14:26:52.919Z</time></trkpt><trkpt lat="43.6676179" lon="12.8857302"><ele>303.4</ele><time>2026-04-26T14:26:53.919Z</time></trkpt><trkpt lat="43.6675545" lon="12.8855946"><ele>302.6</ele><time>2026-04-26T14:26:54.919Z</time></trkpt><trkpt lat="43.6674957" lon="12.8854663"><ele>301.8</ele><time>2026-04-26T14:26:55.92Z</time></trkpt><trkpt lat="43.6674395" lon="12.8853534"><ele>301.0</ele><time>2026-04-26T14:26:56.918Z</time></trkpt><trkpt lat="43.6673851" lon="12.8852524"><ele>301.0</ele><time>2026-04-26T14:26:57.919Z</time></trkpt><trkpt lat="43.6673375" lon="12.8851622"><ele>301.0</ele><time>2026-04-26T14:26:58.923Z</time></trkpt><trkpt lat="43.6672979" lon="12.885083"><ele>301.0</ele><time>2026-04-26T14:26:59.919Z</time></trkpt><trkpt lat="43.667231" lon="12.8849555"><ele>301.0</ele><time>2026-04-26T14:27:01.919Z</time></trkpt><trkpt lat="43.6671918" lon="12.8848596"><ele>301.0</ele><time>2026-04-26T14:27:03.919Z</time></trkpt><trkpt lat="43.6671403" lon="12.8847719"><ele>301.0</ele><time>2026-04-26T14:27:40.919Z</time></trkpt><trkpt lat="43.6671041" lon="12.8846917"><ele>299.66666666666663</ele><time>2026-04-26T14:27:41.923Z</time></trkpt><trkpt lat="43.6670665" lon="12.8846123"><ele>298.3333333333333</ele><time>2026-04-26T14:27:42.919Z</time></trkpt><trkpt lat="43.6670269" lon="12.8845202"><ele>297.0</ele><time>2026-04-26T14:27:43.918Z</time></trkpt><trkpt lat="43.6669852" lon="12.8844257"><ele>295.6666666666667</ele><time>2026-04-26T14:27:44.919Z</time></trkpt><trkpt lat="43.6669488" lon="12.8843144"><ele>294.33333333333337</ele><time>2026-04-26T14:27:45.919Z</time></trkpt><trkpt lat="43.6669215" lon="12.8841876"><ele>293.0</ele><time>2026-04-26T14:27:46.918Z</time></trkpt><trkpt lat="43.6669143" lon="12.8840502"><ele>292.25</ele><time>2026-04-26T14:27:47.919Z</time></trkpt><trkpt lat="43.6669326" lon="12.8839065"><ele>291.5</ele><time>2026-04-26T14:27:48.919Z</time></trkpt><trkpt lat="43.6669715" lon="12.8837664"><ele>290.75</ele><time>2026-04-26T14:27:49.919Z</time></trkpt><trkpt lat="43.66703" lon="12.8836266"><ele>290.0</ele><time>2026-04-26T14:27:50.919Z</time></trkpt><trkpt lat="43.667089" lon="12.8834828"><ele>288.5</ele><time>2026-04-26T14:27:51.919Z</time></trkpt><trkpt lat="43.6671485" lon="12.8833347"><ele>287.0</ele><time>2026-04-26T14:27:52.919Z</time></trkpt><trkpt lat="43.6672087" lon="12.883178"><ele>285.5</ele><time>2026-04-26T14:27:53.919Z</time></trkpt><trkpt lat="43.6672784" lon="12.8830118"><ele>284.0</ele><time>2026-04-26T14:27:54.919Z</time></trkpt><trkpt lat="43.6673548" lon="12.8828398"><ele>284.0</ele><time>2026-04-26T14:27:55.922Z</time></trkpt><trkpt lat="43.6674361" lon="12.8826606"><ele>284.0</ele><time>2026-04-26T14:27:56.919Z</time></trkpt><trkpt lat="43.6675184" lon="12.8824756"><ele>284.0</ele><time>2026-04-26T14:27:57.919Z</time></trkpt><trkpt lat="43.6676017" lon="12.8822864"><ele>284.0</ele><time>2026-04-26T14:27:58.92Z</time></trkpt><trkpt lat="43.6676897" lon="12.8820898"><ele>284.0</ele><time>2026-04-26T14:27:59.919Z</time></trkpt><trkpt lat="43.6677791" lon="12.8818882"><ele>284.0</ele><time>2026-04-26T14:28:00.918Z</time></trkpt><trkpt lat="43.6678699" lon="12.8816899"><ele>280.6666666666667</ele><time>2026-04-26T14:28:01.918Z</time></trkpt><trkpt lat="43.6679588" lon="12.8814945"><ele>277.3333333333333</ele><time>2026-04-26T14:28:02.918Z</time></trkpt><trkpt lat="43.6680427" lon="12.8813017"><ele>274.0</ele><time>2026-04-26T14:28:03.919Z</time></trkpt><trkpt lat="43.6681226" lon="12.8811213"><ele>274.0</ele><time>2026-04-26T14:28:04.918Z</time></trkpt><trkpt lat="43.6681957" lon="12.8809367"><ele>274.0</ele><time>2026-04-26T14:28:05.919Z</time></trkpt><trkpt lat="43.6682523" lon="12.8807315"><ele>274.0</ele><time>2026-04-26T14:28:06.919Z</time></trkpt><trkpt lat="43.6682987" lon="12.8805175"><ele>276.0</ele><time>2026-04-26T14:28:07.92Z</time></trkpt><trkpt lat="43.6683443" lon="12.8803181"><ele>278.0</ele><time>2026-04-26T14:28:08.918Z</time></trkpt><trkpt lat="43.6683864" lon="12.8801349"><ele>280.0</ele><time>2026-04-26T14:28:09.92Z</time></trkpt><trkpt lat="43.6684241" lon="12.879963"><ele>282.0</ele><time>2026-04-26T14:28:10.918Z</time></trkpt><trkpt lat="43.668457" lon="12.8798015"><ele>283.0</ele><time>2026-04-26T14:28:11.919Z</time></trkpt><trkpt lat="43.6684715" lon="12.8796526"><ele>284.0</ele><time>2026-04-26T14:28:12.921Z</time></trkpt><trkpt lat="43.6684469" lon="12.8795149"><ele>285.0</ele><time>2026-04-26T14:28:13.919Z</time></trkpt><trkpt lat="43.6683866" lon="12.8793806"><ele>286.0</ele><time>2026-04-26T14:28:14.918Z</time></trkpt><trkpt lat="43.6682825" lon="12.8792674"><ele>286.0</ele><time>2026-04-26T14:28:15.92Z</time></trkpt><trkpt lat="43.6681605" lon="12.8791558"><ele>286.0</ele><time>2026-04-26T14:28:16.919Z</time></trkpt><trkpt lat="43.6680388" lon="12.8790328"><ele>286.0</ele><time>2026-04-26T14:28:17.919Z</time></trkpt><trkpt lat="43.6679121" lon="12.8789043"><ele>286.0</ele><time>2026-04-26T14:28:18.918Z</time></trkpt><trkpt lat="43.6677804" lon="12.8787698"><ele>286.0</ele><time>2026-04-26T14:28:19.919Z</time></trkpt><trkpt lat="43.6676476" lon="12.8786277"><ele>286.0</ele><time>2026-04-26T14:28:20.92Z</time></trkpt><trkpt lat="43.6675135" lon="12.8784791"><ele>285.66666666666663</ele><time>2026-04-26T14:28:21.918Z</time></trkpt><trkpt lat="43.6673866" lon="12.8783285"><ele>285.3333333333333</ele><time>2026-04-26T14:28:22.918Z</time></trkpt><trkpt lat="43.6672652" lon="12.8781774"><ele>285.0</ele><time>2026-04-26T14:28:23.921Z</time></trkpt><trkpt lat="43.6671409" lon="12.8780237"><ele>285.0</ele><time>2026-04-26T14:28:24.918Z</time></trkpt><trkpt lat="43.6670325" lon="12.8778634"><ele>285.0</ele><time>2026-04-26T14:28:25.919Z</time></trkpt><trkpt lat="43.6669464" lon="12.8777077"><ele>285.0</ele><time>2026-04-26T14:28:26.919Z</time></trkpt><trkpt lat="43.6668836" lon="12.8775553"><ele>285.0</ele><time>2026-04-26T14:28:27.919Z</time></trkpt><trkpt lat="43.6668438" lon="12.8773961"><ele>286.75</ele><time>2026-04-26T14:28:28.92Z</time></trkpt><trkpt lat="43.6668432" lon="12.8772164"><ele>288.5</ele><time>2026-04-26T14:28:29.919Z</time></trkpt><trkpt lat="43.6668853" lon="12.8770279"><ele>290.25</ele><time>2026-04-26T14:28:30.919Z</time></trkpt><trkpt lat="43.6669529" lon="12.8768406"><ele>292.0</ele><time>2026-04-26T14:28:31.919Z</time></trkpt><trkpt lat="43.667023" lon="12.8766472"><ele>287.0</ele><time>2026-04-26T14:28:32.92Z</time></trkpt><trkpt lat="43.6670924" lon="12.8764485"><ele>282.0</ele><time>2026-04-26T14:28:33.919Z</time></trkpt><trkpt lat="43.667169" lon="12.8762512"><ele>277.0</ele><time>2026-04-26T14:28:34.919Z</time></trkpt><trkpt lat="43.6672476" lon="12.8760553"><ele>279.0</ele><time>2026-04-26T14:28:35.919Z</time></trkpt><trkpt lat="43.6673223" lon="12.8758601"><ele>281.0</ele><time>2026-04-26T14:28:36.919Z</time></trkpt><trkpt lat="43.6674025" lon="12.8756742"><ele>283.0</ele><time>2026-04-26T14:28:37.92Z</time></trkpt><trkpt lat="43.6674947" lon="12.8755039"><ele>283.0</ele><time>2026-04-26T14:28:38.919Z</time></trkpt><trkpt lat="43.6675847" lon="12.8753307"><ele>283.0</ele><time>2026-04-26T14:28:39.919Z</time></trkpt><trkpt lat="43.6677034" lon="12.8752044"><ele>283.0</ele><time>2026-04-26T14:28:40.918Z</time></trkpt><trkpt lat="43.6678283" lon="12.8750941"><ele>281.75</ele><time>2026-04-26T14:28:41.918Z</time></trkpt><trkpt lat="43.6679562" lon="12.8750033"><ele>280.5</ele><time>2026-04-26T14:28:42.92Z</time></trkpt><trkpt lat="43.6680825" lon="12.8749408"><ele>279.25</ele><time>2026-04-26T14:28:43.922Z</time></trkpt><trkpt lat="43.668215" lon="12.874901"><ele>278.0</ele><time>2026-04-26T14:28:44.923Z</time></trkpt><trkpt lat="43.6683539" lon="12.8748539"><ele>278.0</ele><time>2026-04-26T14:28:45.919Z</time></trkpt><trkpt lat="43.6684921" lon="12.8747909"><ele>278.0</ele><time>2026-04-26T14:28:46.921Z</time></trkpt><trkpt lat="43.6686298" lon="12.8747275"><ele>278.0</ele><time>2026-04-26T14:28:47.92Z</time></trkpt><trkpt lat="43.6687664" lon="12.8746575"><ele>278.0</ele><time>2026-04-26T14:28:48.919Z</time></trkpt><trkpt lat="43.6689035" lon="12.874579"><ele>276.5</ele><time>2026-04-26T14:28:49.919Z</time></trkpt><trkpt lat="43.6690376" lon="12.874486"><ele>275.0</ele><time>2026-04-26T14:28:50.92Z</time></trkpt><trkpt lat="43.6691604" lon="12.8743832"><ele>273.5</ele><time>2026-04-26T14:28:51.921Z</time></trkpt><trkpt lat="43.6692808" lon="12.8742482"><ele>272.0</ele><time>2026-04-26T14:28:52.918Z</time></trkpt><trkpt lat="43.6693955" lon="12.8740967"><ele>270.0</ele><time>2026-04-26T14:28:53.922Z</time></trkpt><trkpt lat="43.6695072" lon="12.8739506"><ele>268.0</ele><time>2026-04-26T14:28:54.92Z</time></trkpt><trkpt lat="43.6696176" lon="12.8738128"><ele>266.0</ele><time>2026-04-26T14:28:55.919Z</time></trkpt><trkpt lat="43.6697257" lon="12.8736777"><ele>264.0</ele><time>2026-04-26T14:28:56.918Z</time></trkpt><trkpt lat="43.6698245" lon="12.8735463"><ele>265.75</ele><time>2026-04-26T14:28:57.919Z</time></trkpt><trkpt lat="43.6699161" lon="12.8734196"><ele>267.5</ele><time>2026-04-26T14:28:58.92Z</time></trkpt><trkpt lat="43.6700033" lon="12.8733057"><ele>269.25</ele><time>2026-04-26T14:28:59.92Z</time></trkpt><trkpt lat="43.6700893" lon="12.8732066"><ele>271.0</ele><time>2026-04-26T14:29:00.919Z</time></trkpt><trkpt lat="43.6701719" lon="12.8731239"><ele>271.0</ele><time>2026-04-26T14:29:01.919Z</time></trkpt><trkpt lat="43.6702445" lon="12.8730669"><ele>271.0</ele><time>2026-04-26T14:29:02.919Z</time></trkpt><trkpt lat="43.6703004" lon="12.8730169"><ele>271.0</ele><time>2026-04-26T14:29:03.92Z</time></trkpt><trkpt lat="43.670344" lon="12.8728629"><ele>271.0</ele><time>2026-04-26T14:29:05.918Z</time></trkpt><trkpt lat="43.6703426" lon="12.8727525"><ele>271.0</ele><time>2026-04-26T14:29:06.918Z</time></trkpt><trkpt lat="43.6703342" lon="12.8726295"><ele>271.0</ele><time>2026-04-26T14:29:07.919Z</time></trkpt><trkpt lat="43.6703126" lon="12.8725006"><ele>269.8333333333333</ele><time>2026-04-26T14:29:08.919Z</time></trkpt><trkpt lat="43.670278" lon="12.8723693"><ele>268.66666666666663</ele><time>2026-04-26T14:29:09.919Z</time></trkpt><trkpt lat="43.6702393" lon="12.872254"><ele>267.5</ele><time>2026-04-26T14:29:10.92Z</time></trkpt><trkpt lat="43.6702071" lon="12.8721622"><ele>266.3333333333333</ele><time>2026-04-26T14:29:11.919Z</time></trkpt><trkpt lat="43.6701794" lon="12.8720811"><ele>265.1666666666667</ele><time>2026-04-26T14:29:12.92Z</time></trkpt><trkpt lat="43.6701449" lon="12.8719876"><ele>264.0</ele><time>2026-04-26T14:29:13.918Z</time></trkpt><trkpt lat="43.6700983" lon="12.8718743"><ele>267.0</ele><time>2026-04-26T14:29:14.918Z</time></trkpt><trkpt lat="43.6700433" lon="12.8717336"><ele>270.0</ele><time>2026-04-26T14:29:15.919Z</time></trkpt><trkpt lat="43.669985" lon="12.8715893"><ele>273.0</ele><time>2026-04-26T14:29:16.919Z</time></trkpt><trkpt lat="43.6699283" lon="12.8714522"><ele>276.0</ele><time>2026-04-26T14:29:17.919Z</time></trkpt><trkpt lat="43.6698752" lon="12.8713097"><ele>276.0</ele><time>2026-04-26T14:29:18.919Z</time></trkpt><trkpt lat="43.6698216" lon="12.8711633"><ele>276.0</ele><time>2026-04-26T14:29:19.919Z</time></trkpt><trkpt lat="43.6697691" lon="12.871019"><ele>276.0</ele><time>2026-04-26T14:29:20.92Z</time></trkpt><trkpt lat="43.6697134" lon="12.8708765"><ele>276.0</ele><time>2026-04-26T14:29:21.918Z</time></trkpt><trkpt lat="43.6696607" lon="12.8707279"><ele>274.75</ele><time>2026-04-26T14:29:22.918Z</time></trkpt><trkpt lat="43.6696081" lon="12.8705804"><ele>273.5</ele><time>2026-04-26T14:29:23.918Z</time></trkpt><trkpt lat="43.6695595" lon="12.8704329"><ele>272.25</ele><time>2026-04-26T14:29:24.918Z</time></trkpt><trkpt lat="43.669506" lon="12.8702869"><ele>271.0</ele><time>2026-04-26T14:29:25.92Z</time></trkpt><trkpt lat="43.6694467" lon="12.8701455"><ele>273.40000000000003</ele><time>2026-04-26T14:29:26.919Z</time></trkpt><trkpt lat="43.6693867" lon="12.8700195"><ele>275.8</ele><time>2026-04-26T14:29:27.919Z</time></trkpt><trkpt lat="43.6693308" lon="12.8698964"><ele>278.20000000000005</ele><time>2026-04-26T14:29:28.918Z</time></trkpt><trkpt lat="43.6692838" lon="12.8697702"><ele>280.6</ele><time>2026-04-26T14:29:29.919Z</time></trkpt><trkpt lat="43.6692394" lon="12.8696375"><ele>283.0</ele><time>2026-04-26T14:29:30.919Z</time></trkpt><trkpt lat="43.6691933" lon="12.8694953"><ele>283.0</ele><time>2026-04-26T14:29:31.919Z</time></trkpt><trkpt lat="43.6691425" lon="12.8693537"><ele>283.0</ele><time>2026-04-26T14:29:32.918Z</time></trkpt><trkpt lat="43.6690909" lon="12.8692218"><ele>283.0</ele><time>2026-04-26T14:29:33.919Z</time></trkpt><trkpt lat="43.6690434" lon="12.8691019"><ele>283.0</ele><time>2026-04-26T14:29:34.922Z</time></trkpt><trkpt lat="43.669002" lon="12.8689766"><ele>283.0</ele><time>2026-04-26T14:29:35.919Z</time></trkpt><trkpt lat="43.6689564" lon="12.8688728"><ele>282.57142857142856</ele><time>2026-04-26T14:29:36.92Z</time></trkpt><trkpt lat="43.6689092" lon="12.8687804"><ele>282.14285714285717</ele><time>2026-04-26T14:29:37.92Z</time></trkpt><trkpt lat="43.6688579" lon="12.8687132"><ele>281.7142857142857</ele><time>2026-04-26T14:29:38.919Z</time></trkpt><trkpt lat="43.6688084" lon="12.8686514"><ele>281.2857142857143</ele><time>2026-04-26T14:29:39.919Z</time></trkpt><trkpt lat="43.6687619" lon="12.8685822"><ele>280.8571428571429</ele><time>2026-04-26T14:29:40.92Z</time></trkpt><trkpt lat="43.668712" lon="12.8685025"><ele>280.42857142857144</ele><time>2026-04-26T14:29:41.918Z</time></trkpt><trkpt lat="43.6686635" lon="12.8684099"><ele>280.0</ele><time>2026-04-26T14:29:42.919Z</time></trkpt><trkpt lat="43.6686085" lon="12.8683066"><ele>278.8</ele><time>2026-04-26T14:29:43.919Z</time></trkpt><trkpt lat="43.6685534" lon="12.8682067"><ele>277.6</ele><time>2026-04-26T14:29:44.918Z</time></trkpt><trkpt lat="43.6684927" lon="12.8680975"><ele>276.4</ele><time>2026-04-26T14:29:45.918Z</time></trkpt><trkpt lat="43.6684241" lon="12.8679909"><ele>275.2</ele><time>2026-04-26T14:29:46.919Z</time></trkpt><trkpt lat="43.6683522" lon="12.867883"><ele>274.0</ele><time>2026-04-26T14:29:47.92Z</time></trkpt><trkpt lat="43.6682918" lon="12.8677679"><ele>274.0</ele><time>2026-04-26T14:29:48.92Z</time></trkpt><trkpt lat="43.668234" lon="12.8676495"><ele>274.0</ele><time>2026-04-26T14:29:49.92Z</time></trkpt><trkpt lat="43.6681702" lon="12.8675353"><ele>274.0</ele><time>2026-04-26T14:29:50.922Z</time></trkpt><trkpt lat="43.6680978" lon="12.8674229"><ele>274.0</ele><time>2026-04-26T14:29:51.919Z</time></trkpt><trkpt lat="43.6680182" lon="12.8673206"><ele>274.0</ele><time>2026-04-26T14:29:52.919Z</time></trkpt><trkpt lat="43.6679371" lon="12.8672336"><ele>271.59999999999997</ele><time>2026-04-26T14:29:53.919Z</time></trkpt><trkpt lat="43.6678556" lon="12.86716"><ele>269.2</ele><time>2026-04-26T14:29:54.919Z</time></trkpt><trkpt lat="43.6677737" lon="12.8670863"><ele>266.79999999999995</ele><time>2026-04-26T14:29:55.918Z</time></trkpt><trkpt lat="43.6676991" lon="12.8670078"><ele>264.4</ele><time>2026-04-26T14:29:56.919Z</time></trkpt><trkpt lat="43.6676285" lon="12.8669085"><ele>262.0</ele><time>2026-04-26T14:29:57.919Z</time></trkpt><trkpt lat="43.6675775" lon="12.8667942"><ele>258.6</ele><time>2026-04-26T14:29:58.92Z</time></trkpt><trkpt lat="43.667553" lon="12.8666662"><ele>255.2</ele><time>2026-04-26T14:29:59.919Z</time></trkpt><trkpt lat="43.6675423" lon="12.8665264"><ele>251.8</ele><time>2026-04-26T14:30:00.918Z</time></trkpt><trkpt lat="43.6675281" lon="12.866386"><ele>248.4</ele><time>2026-04-26T14:30:01.918Z</time></trkpt><trkpt lat="43.6675077" lon="12.8662488"><ele>245.0</ele><time>2026-04-26T14:30:02.919Z</time></trkpt><trkpt lat="43.6674827" lon="12.8661151"><ele>245.0</ele><time>2026-04-26T14:30:03.919Z</time></trkpt><trkpt lat="43.6674516" lon="12.8659807"><ele>245.0</ele><time>2026-04-26T14:30:04.919Z</time></trkpt><trkpt lat="43.6674132" lon="12.8658405"><ele>245.0</ele><time>2026-04-26T14:30:05.918Z</time></trkpt><trkpt lat="43.6673694" lon="12.8656995"><ele>245.0</ele><time>2026-04-26T14:30:06.919Z</time></trkpt><trkpt lat="43.6673241" lon="12.8655562"><ele>245.0</ele><time>2026-04-26T14:30:07.919Z</time></trkpt><trkpt lat="43.6672697" lon="12.865404"><ele>241.75</ele><time>2026-04-26T14:30:08.922Z</time></trkpt><trkpt lat="43.6672168" lon="12.8652435"><ele>238.5</ele><time>2026-04-26T14:30:09.918Z</time></trkpt><trkpt lat="43.6671641" lon="12.8650839"><ele>235.25</ele><time>2026-04-26T14:30:10.92Z</time></trkpt><trkpt lat="43.6671231" lon="12.8649196"><ele>232.0</ele><time>2026-04-26T14:30:11.92Z</time></trkpt><trkpt lat="43.6670906" lon="12.8647547"><ele>229.5</ele><time>2026-04-26T14:30:12.919Z</time></trkpt><trkpt lat="43.6670717" lon="12.864594"><ele>227.0</ele><time>2026-04-26T14:30:13.919Z</time></trkpt><trkpt lat="43.6670456" lon="12.8644265"><ele>224.5</ele><time>2026-04-26T14:30:14.919Z</time></trkpt><trkpt lat="43.6670143" lon="12.8642619"><ele>222.0</ele><time>2026-04-26T14:30:15.919Z</time></trkpt><trkpt lat="43.6669748" lon="12.8641007"><ele>219.5</ele><time>2026-04-26T14:30:16.919Z</time></trkpt><trkpt lat="43.6669307" lon="12.8639304"><ele>217.0</ele><time>2026-04-26T14:30:17.919Z</time></trkpt><trkpt lat="43.6668816" lon="12.8637462"><ele>214.5</ele><time>2026-04-26T14:30:18.918Z</time></trkpt><trkpt lat="43.6668385" lon="12.8635684"><ele>212.0</ele><time>2026-04-26T14:30:19.919Z</time></trkpt><trkpt lat="43.6668013" lon="12.8633957"><ele>209.5</ele><time>2026-04-26T14:30:20.919Z</time></trkpt><trkpt lat="43.6667676" lon="12.8632269"><ele>207.0</ele><time>2026-04-26T14:30:21.92Z</time></trkpt><trkpt lat="43.6667322" lon="12.8630576"><ele>204.5</ele><time>2026-04-26T14:30:22.919Z</time></trkpt><trkpt lat="43.6666907" lon="12.8628864"><ele>202.0</ele><time>2026-04-26T14:30:23.921Z</time></trkpt><trkpt lat="43.6666482" lon="12.8627141"><ele>201.0</ele><time>2026-04-26T14:30:24.919Z</time></trkpt><trkpt lat="43.6666086" lon="12.8625473"><ele>200.0</ele><time>2026-04-26T14:30:25.921Z</time></trkpt><trkpt lat="43.6665729" lon="12.86239"><ele>199.0</ele><time>2026-04-26T14:30:26.919Z</time></trkpt><trkpt lat="43.6665373" lon="12.8622331"><ele>198.0</ele><time>2026-04-26T14:30:27.918Z</time></trkpt><trkpt lat="43.6665032" lon="12.8620801"><ele>198.0</ele><time>2026-04-26T14:30:28.918Z</time></trkpt><trkpt lat="43.666464" lon="12.8619249"><ele>198.0</ele><time>2026-04-26T14:30:29.919Z</time></trkpt><trkpt lat="43.6664198" lon="12.8617622"><ele>198.0</ele><time>2026-04-26T14:30:30.919Z</time></trkpt><trkpt lat="43.6663631" lon="12.8616016"><ele>198.0</ele><time>2026-04-26T14:30:31.919Z</time></trkpt><trkpt lat="43.6663029" lon="12.8614435"><ele>196.25</ele><time>2026-04-26T14:30:32.919Z</time></trkpt><trkpt lat="43.6662398" lon="12.8612887"><ele>194.5</ele><time>2026-04-26T14:30:33.918Z</time></trkpt><trkpt lat="43.6661806" lon="12.8611325"><ele>192.75</ele><time>2026-04-26T14:30:34.919Z</time></trkpt><trkpt lat="43.6661277" lon="12.860977"><ele>191.0</ele><time>2026-04-26T14:30:35.919Z</time></trkpt><trkpt lat="43.6660776" lon="12.8608284"><ele>188.4</ele><time>2026-04-26T14:30:36.919Z</time></trkpt><trkpt lat="43.6660261" lon="12.8606881"><ele>185.8</ele><time>2026-04-26T14:30:37.919Z</time></trkpt><trkpt lat="43.665975" lon="12.8605529"><ele>183.20000000000002</ele><time>2026-04-26T14:30:38.919Z</time></trkpt><trkpt lat="43.6659266" lon="12.8604223"><ele>180.60000000000002</ele><time>2026-04-26T14:30:39.919Z</time></trkpt><trkpt lat="43.6658768" lon="12.8602933"><ele>178.0</ele><time>2026-04-26T14:30:40.919Z</time></trkpt><trkpt lat="43.6658365" lon="12.8601601"><ele>176.8</ele><time>2026-04-26T14:30:41.92Z</time></trkpt><trkpt lat="43.6658143" lon="12.8600107"><ele>175.60000000000002</ele><time>2026-04-26T14:30:42.918Z</time></trkpt><trkpt lat="43.6658033" lon="12.8598486"><ele>174.39999999999998</ele><time>2026-04-26T14:30:43.918Z</time></trkpt><trkpt lat="43.6658062" lon="12.8596894"><ele>173.2</ele><time>2026-04-26T14:30:44.918Z</time></trkpt><trkpt lat="43.6658084" lon="12.859543"><ele>172.0</ele><time>2026-04-26T14:30:45.919Z</time></trkpt><trkpt lat="43.6657758" lon="12.8594128"><ele>172.0</ele><time>2026-04-26T14:30:46.919Z</time></trkpt><trkpt lat="43.6657068" lon="12.8592863"><ele>172.0</ele><time>2026-04-26T14:30:47.918Z</time></trkpt><trkpt lat="43.6656233" lon="12.8591591"><ele>172.0</ele><time>2026-04-26T14:30:48.918Z</time></trkpt><trkpt lat="43.665536" lon="12.8590501"><ele>172.0</ele><time>2026-04-26T14:30:49.918Z</time></trkpt><trkpt lat="43.6654563" lon="12.858957"><ele>170.25</ele><time>2026-04-26T14:30:50.918Z</time></trkpt><trkpt lat="43.6653927" lon="12.8588543"><ele>168.5</ele><time>2026-04-26T14:30:51.918Z</time></trkpt><trkpt lat="43.6653328" lon="12.858732"><ele>166.75</ele><time>2026-04-26T14:30:52.919Z</time></trkpt><trkpt lat="43.6652848" lon="12.8585827"><ele>165.0</ele><time>2026-04-26T14:30:53.918Z</time></trkpt><trkpt lat="43.665253" lon="12.8584102"><ele>163.75</ele><time>2026-04-26T14:30:54.919Z</time></trkpt><trkpt lat="43.6652251" lon="12.858227"><ele>162.5</ele><time>2026-04-26T14:30:55.919Z</time></trkpt><trkpt lat="43.6651797" lon="12.8580519"><ele>161.25</ele><time>2026-04-26T14:30:56.919Z</time></trkpt><trkpt lat="43.6651148" lon="12.8578837"><ele>160.0</ele><time>2026-04-26T14:30:57.919Z</time></trkpt><trkpt lat="43.6650503" lon="12.8577242"><ele>158.0</ele><time>2026-04-26T14:30:58.919Z</time></trkpt><trkpt lat="43.6649846" lon="12.8575816"><ele>156.0</ele><time>2026-04-26T14:30:59.919Z</time></trkpt><trkpt lat="43.6649114" lon="12.8574557"><ele>154.0</ele><time>2026-04-26T14:31:00.919Z</time></trkpt><trkpt lat="43.6648402" lon="12.8573331"><ele>152.0</ele><time>2026-04-26T14:31:01.918Z</time></trkpt><trkpt lat="43.6647891" lon="12.8571907"><ele>152.0</ele><time>2026-04-26T14:31:02.919Z</time></trkpt><trkpt lat="43.6647279" lon="12.8570515"><ele>152.0</ele><time>2026-04-26T14:31:03.918Z</time></trkpt><trkpt lat="43.6646704" lon="12.8569156"><ele>152.0</ele><time>2026-04-26T14:31:04.918Z</time></trkpt><trkpt lat="43.6646333" lon="12.8567994"><ele>152.0</ele><time>2026-04-26T14:31:05.92Z</time></trkpt><trkpt lat="43.6646181" lon="12.8567014"><ele>152.0</ele><time>2026-04-26T14:31:06.919Z</time></trkpt><trkpt lat="43.6646085" lon="12.8565909"><ele>150.0</ele><time>2026-04-26T14:31:07.919Z</time></trkpt><trkpt lat="43.6646008" lon="12.8564762"><ele>148.0</ele><time>2026-04-26T14:31:08.919Z</time></trkpt><trkpt lat="43.6646158" lon="12.8563428"><ele>146.0</ele><time>2026-04-26T14:31:09.919Z</time></trkpt><trkpt lat="43.6646315" lon="12.8562182"><ele>144.0</ele><time>2026-04-26T14:31:10.919Z</time></trkpt><trkpt lat="43.6646345" lon="12.8560955"><ele>142.0</ele><time>2026-04-26T14:31:11.919Z</time></trkpt><trkpt lat="43.6646169" lon="12.8559737"><ele>140.25</ele><time>2026-04-26T14:31:12.918Z</time></trkpt><trkpt lat="43.664589" lon="12.8558391"><ele>138.5</ele><time>2026-04-26T14:31:13.918Z</time></trkpt><trkpt lat="43.6645466" lon="12.8556869"><ele>136.75</ele><time>2026-04-26T14:31:14.92Z</time></trkpt><trkpt lat="43.6644996" lon="12.8555233"><ele>135.0</ele><time>2026-04-26T14:31:15.919Z</time></trkpt><trkpt lat="43.6644717" lon="12.8553671"><ele>135.6</ele><time>2026-04-26T14:31:16.919Z</time></trkpt><trkpt lat="43.664442" lon="12.8552232"><ele>136.2</ele><time>2026-04-26T14:31:17.918Z</time></trkpt><trkpt lat="43.6644135" lon="12.8550785"><ele>136.8</ele><time>2026-04-26T14:31:18.918Z</time></trkpt><trkpt lat="43.6643883" lon="12.8549654"><ele>137.4</ele><time>2026-04-26T14:31:19.919Z</time></trkpt><trkpt lat="43.6643443" lon="12.8548501"><ele>138.0</ele><time>2026-04-26T14:31:20.92Z</time></trkpt><trkpt lat="43.6642709" lon="12.8547535"><ele>138.0</ele><time>2026-04-26T14:31:21.919Z</time></trkpt><trkpt lat="43.6641491" lon="12.8546807"><ele>138.0</ele><time>2026-04-26T14:31:22.919Z</time></trkpt><trkpt lat="43.6640188" lon="12.8546028"><ele>138.0</ele><time>2026-04-26T14:31:23.919Z</time></trkpt><trkpt lat="43.6638592" lon="12.8545113"><ele>138.0</ele><time>2026-04-26T14:31:24.919Z</time></trkpt><trkpt lat="43.663718" lon="12.8544148"><ele>138.33333333333334</ele><time>2026-04-26T14:31:25.921Z</time></trkpt><trkpt lat="43.6635759" lon="12.8543289"><ele>138.66666666666669</ele><time>2026-04-26T14:31:26.919Z</time></trkpt><trkpt lat="43.6634369" lon="12.8542268"><ele>139.0</ele><time>2026-04-26T14:31:27.918Z</time></trkpt><trkpt lat="43.6633013" lon="12.8541298"><ele>137.0</ele><time>2026-04-26T14:31:28.919Z</time></trkpt><trkpt lat="43.6631685" lon="12.8540315"><ele>135.0</ele><time>2026-04-26T14:31:29.92Z</time></trkpt><trkpt lat="43.6630188" lon="12.8539162"><ele>133.0</ele><time>2026-04-26T14:31:30.918Z</time></trkpt><trkpt lat="43.6628856" lon="12.8538101"><ele>134.33333333333334</ele><time>2026-04-26T14:31:31.92Z</time></trkpt><trkpt lat="43.6627403" lon="12.8537051"><ele>135.66666666666666</ele><time>2026-04-26T14:31:32.922Z</time></trkpt><trkpt lat="43.6625964" lon="12.8535922"><ele>137.0</ele><time>2026-04-26T14:31:33.918Z</time></trkpt><trkpt lat="43.6624528" lon="12.8534809"><ele>136.0</ele><time>2026-04-26T14:31:34.919Z</time></trkpt><trkpt lat="43.6623131" lon="12.8533643"><ele>135.0</ele><time>2026-04-26T14:31:35.918Z</time></trkpt><trkpt lat="43.662177" lon="12.8532625"><ele>134.0</ele><time>2026-04-26T14:31:36.919Z</time></trkpt><trkpt lat="43.6620318" lon="12.8531572"><ele>136.33333333333331</ele><time>2026-04-26T14:31:37.919Z</time></trkpt><trkpt lat="43.6618808" lon="12.8530447"><ele>138.66666666666666</ele><time>2026-04-26T14:31:38.918Z</time></trkpt><trkpt lat="43.6617398" lon="12.8529344"><ele>141.0</ele><time>2026-04-26T14:31:39.919Z</time></trkpt><trkpt lat="43.6615994" lon="12.8528221"><ele>141.0</ele><time>2026-04-26T14:31:40.918Z</time></trkpt><trkpt lat="43.6614729" lon="12.8527215"><ele>141.0</ele><time>2026-04-26T14:31:41.919Z</time></trkpt><trkpt lat="43.6613554" lon="12.8526256"><ele>141.0</ele><time>2026-04-26T14:31:42.919Z</time></trkpt><trkpt lat="43.6612615" lon="12.8525421"><ele>141.0</ele><time>2026-04-26T14:31:43.919Z</time></trkpt><trkpt lat="43.6611974" lon="12.8524755"><ele>140.6</ele><time>2026-04-26T14:31:44.919Z</time></trkpt><trkpt lat="43.6611321" lon="12.8523769"><ele>140.2</ele><time>2026-04-26T14:31:45.918Z</time></trkpt><trkpt lat="43.6610922" lon="12.8522595"><ele>139.8</ele><time>2026-04-26T14:31:46.919Z</time></trkpt><trkpt lat="43.6610727" lon="12.8521252"><ele>139.4</ele><time>2026-04-26T14:31:47.918Z</time></trkpt><trkpt lat="43.6610341" lon="12.8520137"><ele>139.0</ele><time>2026-04-26T14:31:48.919Z</time></trkpt><trkpt lat="43.6609875" lon="12.8519152"><ele>140.6</ele><time>2026-04-26T14:31:49.919Z</time></trkpt><trkpt lat="43.6609205" lon="12.8518313"><ele>142.2</ele><time>2026-04-26T14:31:50.918Z</time></trkpt><trkpt lat="43.6608261" lon="12.8517474"><ele>143.79999999999998</ele><time>2026-04-26T14:31:51.92Z</time></trkpt><trkpt lat="43.6607141" lon="12.8516734"><ele>145.4</ele><time>2026-04-26T14:31:52.919Z</time></trkpt><trkpt lat="43.6606216" lon="12.8516053"><ele>147.0</ele><time>2026-04-26T14:31:53.918Z</time></trkpt><trkpt lat="43.6605423" lon="12.8515426"><ele>147.0</ele><time>2026-04-26T14:31:54.919Z</time></trkpt><trkpt lat="43.6604787" lon="12.8514962"><ele>147.0</ele><time>2026-04-26T14:31:55.918Z</time></trkpt><trkpt lat="43.6604114" lon="12.8514428"><ele>147.0</ele><time>2026-04-26T14:31:56.919Z</time></trkpt><trkpt lat="43.6603473" lon="12.8513856"><ele>147.0</ele><time>2026-04-26T14:31:57.919Z</time></trkpt><trkpt lat="43.6602861" lon="12.851284"><ele>147.0</ele><time>2026-04-26T14:31:58.919Z</time></trkpt><trkpt lat="43.6602202" lon="12.8511777"><ele>147.0</ele><time>2026-04-26T14:31:59.919Z</time></trkpt><trkpt lat="43.6601634" lon="12.8510687"><ele>146.4</ele><time>2026-04-26T14:32:00.918Z</time></trkpt><trkpt lat="43.660131" lon="12.8509546"><ele>145.79999999999998</ele><time>2026-04-26T14:32:01.919Z</time></trkpt><trkpt lat="43.6601412" lon="12.8508147"><ele>145.2</ele><time>2026-04-26T14:32:02.92Z</time></trkpt><trkpt lat="43.6601818" lon="12.8506758"><ele>144.6</ele><time>2026-04-26T14:32:03.919Z</time></trkpt><trkpt lat="43.6602151" lon="12.8505042"><ele>144.0</ele><time>2026-04-26T14:32:04.919Z</time></trkpt><trkpt lat="43.6602581" lon="12.8503401"><ele>143.75</ele><time>2026-04-26T14:32:05.919Z</time></trkpt><trkpt lat="43.6603163" lon="12.8501584"><ele>143.5</ele><time>2026-04-26T14:32:06.919Z</time></trkpt><trkpt lat="43.6603659" lon="12.85001"><ele>143.25</ele><time>2026-04-26T14:32:07.919Z</time></trkpt><trkpt lat="43.6604296" lon="12.8498613"><ele>143.0</ele><time>2026-04-26T14:32:08.92Z</time></trkpt><trkpt lat="43.66048" lon="12.8497106"><ele>142.75</ele><time>2026-04-26T14:32:09.92Z</time></trkpt><trkpt lat="43.6605219" lon="12.8495597"><ele>142.5</ele><time>2026-04-26T14:32:10.92Z</time></trkpt><trkpt lat="43.66054" lon="12.8494039"><ele>142.25</ele><time>2026-04-26T14:32:11.921Z</time></trkpt><trkpt lat="43.6605292" lon="12.849235"><ele>142.0</ele><time>2026-04-26T14:32:12.918Z</time></trkpt><trkpt lat="43.6605" lon="12.8490813"><ele>141.66666666666669</ele><time>2026-04-26T14:32:13.919Z</time></trkpt><trkpt lat="43.6604637" lon="12.8489502"><ele>141.33333333333334</ele><time>2026-04-26T14:32:14.919Z</time></trkpt><trkpt lat="43.6604137" lon="12.8488543"><ele>141.0</ele><time>2026-04-26T14:32:15.919Z</time></trkpt><trkpt lat="43.660341" lon="12.8488222"><ele>140.66666666666666</ele><time>2026-04-26T14:32:16.921Z</time></trkpt><trkpt lat="43.6602555" lon="12.8488199"><ele>140.33333333333331</ele><time>2026-04-26T14:32:17.92Z</time></trkpt><trkpt lat="43.6601678" lon="12.8488391"><ele>140.0</ele><time>2026-04-26T14:32:18.92Z</time></trkpt><trkpt lat="43.6600884" lon="12.8489106"><ele>141.2</ele><time>2026-04-26T14:32:19.919Z</time></trkpt><trkpt lat="43.6600322" lon="12.8489549"><ele>142.4</ele><time>2026-04-26T14:32:20.919Z</time></trkpt><trkpt lat="43.6599266" lon="12.8489943"><ele>143.6</ele><time>2026-04-26T14:32:22.918Z</time></trkpt><trkpt lat="43.6599281" lon="12.8489026"><ele>144.8</ele><time>2026-04-26T14:32:32.919Z</time></trkpt><trkpt lat="43.6600457" lon="12.8488259"><ele>146.0</ele><time>2026-04-26T14:32:34.919Z</time></trkpt><trkpt lat="43.6601209" lon="12.8487765"><ele>146.0</ele><time>2026-04-26T14:32:35.919Z</time></trkpt><trkpt lat="43.6601951" lon="12.8487237"><ele>146.0</ele><time>2026-04-26T14:32:36.919Z</time></trkpt><trkpt lat="43.6602773" lon="12.8486628"><ele>146.0</ele><time>2026-04-26T14:32:37.92Z</time></trkpt><trkpt lat="43.660362" lon="12.8485893"><ele>146.0</ele><time>2026-04-26T14:32:38.919Z</time></trkpt><trkpt lat="43.6604389" lon="12.848491"><ele>146.0</ele><time>2026-04-26T14:32:39.919Z</time></trkpt><trkpt lat="43.6605222" lon="12.8483743"><ele>145.16666666666666</ele><time>2026-04-26T14:32:40.919Z</time></trkpt><trkpt lat="43.660597" lon="12.8482703"><ele>144.33333333333331</ele><time>2026-04-26T14:32:41.921Z</time></trkpt><trkpt lat="43.6606618" lon="12.8481752"><ele>143.5</ele><time>2026-04-26T14:32:42.919Z</time></trkpt><trkpt lat="43.6607175" lon="12.8480848"><ele>142.66666666666666</ele><time>2026-04-26T14:32:43.919Z</time></trkpt><trkpt lat="43.6607698" lon="12.8480001"><ele>141.83333333333334</ele><time>2026-04-26T14:32:44.919Z</time></trkpt><trkpt lat="43.6608237" lon="12.847925"><ele>141.0</ele><time>2026-04-26T14:32:45.918Z</time></trkpt><trkpt lat="43.6608894" lon="12.8478591"><ele>141.0</ele><time>2026-04-26T14:32:46.919Z</time></trkpt><trkpt lat="43.6609624" lon="12.8478073"><ele>141.0</ele><time>2026-04-26T14:32:47.919Z</time></trkpt><trkpt lat="43.6610332" lon="12.8477142"><ele>141.0</ele><time>2026-04-26T14:32:49.92Z</time></trkpt><trkpt lat="43.6610227" lon="12.8475431"><ele>141.0</ele><time>2026-04-26T14:32:51.918Z</time></trkpt><trkpt lat="43.6609735" lon="12.847427"><ele>141.0</ele><time>2026-04-26T14:32:52.919Z</time></trkpt><trkpt lat="43.6609209" lon="12.8473049"><ele>141.75</ele><time>2026-04-26T14:32:53.918Z</time></trkpt><trkpt lat="43.6608589" lon="12.8471652"><ele>142.5</ele><time>2026-04-26T14:32:54.919Z</time></trkpt><trkpt lat="43.6607957" lon="12.8470115"><ele>143.25</ele><time>2026-04-26T14:32:55.918Z</time></trkpt><trkpt lat="43.6607129" lon="12.8468285"><ele>144.0</ele><time>2026-04-26T14:32:56.919Z</time></trkpt><trkpt lat="43.6606172" lon="12.8466535"><ele>145.0</ele><time>2026-04-26T14:32:57.92Z</time></trkpt><trkpt lat="43.6605123" lon="12.8464821"><ele>146.0</ele><time>2026-04-26T14:32:58.918Z</time></trkpt><trkpt lat="43.6603714" lon="12.8463695"><ele>147.0</ele><time>2026-04-26T14:32:59.918Z</time></trkpt><trkpt lat="43.6602438" lon="12.8462424"><ele>147.0</ele><time>2026-04-26T14:33:00.918Z</time></trkpt><trkpt lat="43.6601109" lon="12.8460993"><ele>147.0</ele><time>2026-04-26T14:33:01.918Z</time></trkpt><trkpt lat="43.6599675" lon="12.8459727"><ele>147.0</ele><time>2026-04-26T14:33:02.918Z</time></trkpt><trkpt lat="43.6598236" lon="12.8458352"><ele>146.66666666666666</ele><time>2026-04-26T14:33:03.923Z</time></trkpt><trkpt lat="43.6596752" lon="12.8456967"><ele>146.33333333333331</ele><time>2026-04-26T14:33:04.921Z</time></trkpt><trkpt lat="43.6595289" lon="12.8455593"><ele>146.0</ele><time>2026-04-26T14:33:05.919Z</time></trkpt><trkpt lat="43.6593907" lon="12.8454291"><ele>146.0</ele><time>2026-04-26T14:33:06.919Z</time></trkpt><trkpt lat="43.6592531" lon="12.8453004"><ele>146.0</ele><time>2026-04-26T14:33:07.918Z</time></trkpt><trkpt lat="43.6591213" lon="12.8451658"><ele>146.0</ele><time>2026-04-26T14:33:08.918Z</time></trkpt><trkpt lat="43.6589922" lon="12.8450373"><ele>147.0</ele><time>2026-04-26T14:33:09.919Z</time></trkpt><trkpt lat="43.6588467" lon="12.8449196"><ele>148.0</ele><time>2026-04-26T14:33:10.919Z</time></trkpt><trkpt lat="43.6587047" lon="12.844797"><ele>149.0</ele><time>2026-04-26T14:33:11.919Z</time></trkpt><trkpt lat="43.6585588" lon="12.8446772"><ele>149.0</ele><time>2026-04-26T14:33:12.918Z</time></trkpt><trkpt lat="43.6584063" lon="12.844557"><ele>149.0</ele><time>2026-04-26T14:33:13.919Z</time></trkpt><trkpt lat="43.6582601" lon="12.8444352"><ele>149.0</ele><time>2026-04-26T14:33:14.918Z</time></trkpt><trkpt lat="43.6581341" lon="12.8443289"><ele>151.5</ele><time>2026-04-26T14:33:15.92Z</time></trkpt><trkpt lat="43.6580249" lon="12.8442301"><ele>154.0</ele><time>2026-04-26T14:33:16.919Z</time></trkpt><trkpt lat="43.6579357" lon="12.8441179"><ele>156.5</ele><time>2026-04-26T14:33:17.919Z</time></trkpt><trkpt lat="43.6578751" lon="12.8439721"><ele>159.0</ele><time>2026-04-26T14:33:18.92Z</time></trkpt><trkpt lat="43.6578387" lon="12.8437906"><ele>159.0</ele><time>2026-04-26T14:33:19.919Z</time></trkpt><trkpt lat="43.6578163" lon="12.8435828"><ele>159.0</ele><time>2026-04-26T14:33:20.919Z</time></trkpt><trkpt lat="43.6577953" lon="12.8433845"><ele>159.0</ele><time>2026-04-26T14:33:21.92Z</time></trkpt><trkpt lat="43.657759" lon="12.8432139"><ele>159.0</ele><time>2026-04-26T14:33:22.917Z</time></trkpt><trkpt lat="43.6576944" lon="12.8430589"><ele>157.0</ele><time>2026-04-26T14:33:23.918Z</time></trkpt><trkpt lat="43.6575968" lon="12.8429231"><ele>155.0</ele><time>2026-04-26T14:33:24.919Z</time></trkpt><trkpt lat="43.6574701" lon="12.8428036"><ele>153.0</ele><time>2026-04-26T14:33:25.919Z</time></trkpt><trkpt lat="43.6573327" lon="12.8426792"><ele>153.33333333333334</ele><time>2026-04-26T14:33:26.918Z</time></trkpt><trkpt lat="43.6571976" lon="12.842552"><ele>153.66666666666669</ele><time>2026-04-26T14:33:27.919Z</time></trkpt><trkpt lat="43.6570597" lon="12.8424417"><ele>154.0</ele><time>2026-04-26T14:33:28.919Z</time></trkpt><trkpt lat="43.6569119" lon="12.8423611"><ele>154.0</ele><time>2026-04-26T14:33:29.918Z</time></trkpt><trkpt lat="43.6567528" lon="12.8423025"><ele>154.0</ele><time>2026-04-26T14:33:30.919Z</time></trkpt><trkpt lat="43.6565845" lon="12.8422464"><ele>154.0</ele><time>2026-04-26T14:33:31.92Z</time></trkpt><trkpt lat="43.656417" lon="12.8421888"><ele>154.0</ele><time>2026-04-26T14:33:32.919Z</time></trkpt><trkpt lat="43.6562554" lon="12.8421302"><ele>154.0</ele><time>2026-04-26T14:33:33.919Z</time></trkpt><trkpt lat="43.6560978" lon="12.8420738"><ele>154.0</ele><time>2026-04-26T14:33:34.919Z</time></trkpt><trkpt lat="43.6559511" lon="12.8420239"><ele>153.5</ele><time>2026-04-26T14:33:35.919Z</time></trkpt><trkpt lat="43.6558164" lon="12.8419801"><ele>153.0</ele><time>2026-04-26T14:33:36.919Z</time></trkpt><trkpt lat="43.6556929" lon="12.841934"><ele>152.5</ele><time>2026-04-26T14:33:37.919Z</time></trkpt><trkpt lat="43.6555873" lon="12.8418776"><ele>152.0</ele><time>2026-04-26T14:33:38.919Z</time></trkpt><trkpt lat="43.6555039" lon="12.8417855"><ele>153.5</ele><time>2026-04-26T14:33:39.92Z</time></trkpt><trkpt lat="43.6554337" lon="12.8416496"><ele>155.0</ele><time>2026-04-26T14:33:40.919Z</time></trkpt><trkpt lat="43.6553651" lon="12.8414993"><ele>156.5</ele><time>2026-04-26T14:33:41.919Z</time></trkpt><trkpt lat="43.6552929" lon="12.8413633"><ele>158.0</ele><time>2026-04-26T14:33:42.919Z</time></trkpt><trkpt lat="43.655227" lon="12.841245"><ele>158.0</ele><time>2026-04-26T14:33:43.919Z</time></trkpt><trkpt lat="43.6551746" lon="12.8411319"><ele>158.0</ele><time>2026-04-26T14:33:44.92Z</time></trkpt><trkpt lat="43.655147" lon="12.8410109"><ele>158.0</ele><time>2026-04-26T14:33:45.919Z</time></trkpt><trkpt lat="43.6551424" lon="12.8408695"><ele>158.0</ele><time>2026-04-26T14:33:46.92Z</time></trkpt><trkpt lat="43.6551501" lon="12.8407118"><ele>158.0</ele><time>2026-04-26T14:33:47.919Z</time></trkpt><trkpt lat="43.6551579" lon="12.8405519"><ele>159.2</ele><time>2026-04-26T14:33:48.92Z</time></trkpt><trkpt lat="43.6551574" lon="12.8404005"><ele>160.4</ele><time>2026-04-26T14:33:49.92Z</time></trkpt><trkpt lat="43.6551573" lon="12.8402477"><ele>161.6</ele><time>2026-04-26T14:33:50.919Z</time></trkpt><trkpt lat="43.6551512" lon="12.8400991"><ele>162.79999999999998</ele><time>2026-04-26T14:33:51.919Z</time></trkpt><trkpt lat="43.6551409" lon="12.8399589"><ele>164.0</ele><time>2026-04-26T14:33:52.918Z</time></trkpt><trkpt lat="43.6551286" lon="12.8398328"><ele>164.33333333333331</ele><time>2026-04-26T14:33:53.919Z</time></trkpt><trkpt lat="43.6551181" lon="12.8397194"><ele>164.66666666666666</ele><time>2026-04-26T14:33:54.92Z</time></trkpt><trkpt lat="43.6551299" lon="12.839613"><ele>165.0</ele><time>2026-04-26T14:33:55.918Z</time></trkpt><trkpt lat="43.655174" lon="12.8395224"><ele>165.33333333333334</ele><time>2026-04-26T14:33:56.919Z</time></trkpt><trkpt lat="43.6552532" lon="12.8394645"><ele>165.66666666666669</ele><time>2026-04-26T14:33:57.918Z</time></trkpt><trkpt lat="43.6553507" lon="12.839447"><ele>166.0</ele><time>2026-04-26T14:33:58.918Z</time></trkpt><trkpt lat="43.6554526" lon="12.8394453"><ele>169.60000000000002</ele><time>2026-04-26T14:33:59.918Z</time></trkpt><trkpt lat="43.6555508" lon="12.8394711"><ele>173.2</ele><time>2026-04-26T14:34:00.918Z</time></trkpt><trkpt lat="43.6556406" lon="12.839546"><ele>176.8</ele><time>2026-04-26T14:34:01.918Z</time></trkpt><trkpt lat="43.655712" lon="12.8396642"><ele>180.39999999999998</ele><time>2026-04-26T14:34:02.921Z</time></trkpt><trkpt lat="43.6557696" lon="12.8398012"><ele>184.0</ele><time>2026-04-26T14:34:03.918Z</time></trkpt><trkpt lat="43.6558373" lon="12.8399478"><ele>184.0</ele><time>2026-04-26T14:34:04.918Z</time></trkpt><trkpt lat="43.6559255" lon="12.8401028"><ele>184.0</ele><time>2026-04-26T14:34:05.918Z</time></trkpt><trkpt lat="43.6560221" lon="12.8402506"><ele>184.0</ele><time>2026-04-26T14:34:06.919Z</time></trkpt><trkpt lat="43.6561269" lon="12.8403787"><ele>184.0</ele><time>2026-04-26T14:34:07.918Z</time></trkpt><trkpt lat="43.6562352" lon="12.8404989"><ele>186.5</ele><time>2026-04-26T14:34:08.919Z</time></trkpt><trkpt lat="43.6563372" lon="12.8406104"><ele>189.0</ele><time>2026-04-26T14:34:09.918Z</time></trkpt><trkpt lat="43.6564303" lon="12.8407127"><ele>191.5</ele><time>2026-04-26T14:34:10.92Z</time></trkpt><trkpt lat="43.6565205" lon="12.8407972"><ele>194.0</ele><time>2026-04-26T14:34:11.919Z</time></trkpt><trkpt lat="43.6566082" lon="12.8408545"><ele>194.0</ele><time>2026-04-26T14:34:12.919Z</time></trkpt><trkpt lat="43.656705" lon="12.8408944"><ele>194.0</ele><time>2026-04-26T14:34:13.918Z</time></trkpt><trkpt lat="43.6567958" lon="12.8408984"><ele>194.0</ele><time>2026-04-26T14:34:14.918Z</time></trkpt><trkpt lat="43.6568799" lon="12.8408644"><ele>194.0</ele><time>2026-04-26T14:34:15.919Z</time></trkpt><trkpt lat="43.6569494" lon="12.8407866"><ele>194.0</ele><time>2026-04-26T14:34:16.918Z</time></trkpt><trkpt lat="43.6570077" lon="12.8406844"><ele>196.5</ele><time>2026-04-26T14:34:17.918Z</time></trkpt><trkpt lat="43.6570858" lon="12.8405642"><ele>199.0</ele><time>2026-04-26T14:34:18.919Z</time></trkpt><trkpt lat="43.6571864" lon="12.8404611"><ele>201.5</ele><time>2026-04-26T14:34:19.919Z</time></trkpt><trkpt lat="43.657315" lon="12.8403983"><ele>204.0</ele><time>2026-04-26T14:34:20.918Z</time></trkpt><trkpt lat="43.6574508" lon="12.8403572"><ele>204.0</ele><time>2026-04-26T14:34:21.917Z</time></trkpt><trkpt lat="43.6575767" lon="12.8403407"><ele>204.0</ele><time>2026-04-26T14:34:22.919Z</time></trkpt><trkpt lat="43.6577004" lon="12.8403562"><ele>204.0</ele><time>2026-04-26T14:34:23.919Z</time></trkpt><trkpt lat="43.6578217" lon="12.8404129"><ele>204.0</ele><time>2026-04-26T14:34:24.919Z</time></trkpt><trkpt lat="43.6579403" lon="12.8404859"><ele>207.5</ele><time>2026-04-26T14:34:25.92Z</time></trkpt><trkpt lat="43.6580641" lon="12.8405509"><ele>211.0</ele><time>2026-04-26T14:34:26.919Z</time></trkpt><trkpt lat="43.6581861" lon="12.8405983"><ele>214.5</ele><time>2026-04-26T14:34:27.919Z</time></trkpt><trkpt lat="43.6583019" lon="12.8406529"><ele>218.0</ele><time>2026-04-26T14:34:28.919Z</time></trkpt><trkpt lat="43.658416" lon="12.840685"><ele>218.0</ele><time>2026-04-26T14:34:29.92Z</time></trkpt><trkpt lat="43.6585276" lon="12.8406851"><ele>218.0</ele><time>2026-04-26T14:34:30.92Z</time></trkpt><trkpt lat="43.6586424" lon="12.8406448"><ele>218.0</ele><time>2026-04-26T14:34:31.919Z</time></trkpt><trkpt lat="43.6587533" lon="12.8405589"><ele>218.0</ele><time>2026-04-26T14:34:32.919Z</time></trkpt><trkpt lat="43.6588511" lon="12.8404362"><ele>220.0</ele><time>2026-04-26T14:34:33.918Z</time></trkpt><trkpt lat="43.6589415" lon="12.8402733"><ele>222.0</ele><time>2026-04-26T14:34:34.919Z</time></trkpt><trkpt lat="43.6590311" lon="12.8400924"><ele>224.0</ele><time>2026-04-26T14:34:35.919Z</time></trkpt><trkpt lat="43.6591169" lon="12.8399073"><ele>227.0</ele><time>2026-04-26T14:34:36.92Z</time></trkpt><trkpt lat="43.6592055" lon="12.8397277"><ele>230.0</ele><time>2026-04-26T14:34:37.92Z</time></trkpt><trkpt lat="43.6592876" lon="12.8395454"><ele>233.0</ele><time>2026-04-26T14:34:38.918Z</time></trkpt><trkpt lat="43.6593631" lon="12.839368"><ele>233.5</ele><time>2026-04-26T14:34:39.919Z</time></trkpt><trkpt lat="43.6594303" lon="12.8391946"><ele>234.0</ele><time>2026-04-26T14:34:40.92Z</time></trkpt><trkpt lat="43.6594892" lon="12.8390228"><ele>234.5</ele><time>2026-04-26T14:34:41.918Z</time></trkpt><trkpt lat="43.6595503" lon="12.8388605"><ele>235.0</ele><time>2026-04-26T14:34:42.919Z</time></trkpt><trkpt lat="43.6596213" lon="12.8387106"><ele>239.25</ele><time>2026-04-26T14:34:43.92Z</time></trkpt><trkpt lat="43.6596983" lon="12.8385773"><ele>243.5</ele><time>2026-04-26T14:34:44.919Z</time></trkpt><trkpt lat="43.6597743" lon="12.838457"><ele>247.75</ele><time>2026-04-26T14:34:45.919Z</time></trkpt><trkpt lat="43.6598534" lon="12.8383393"><ele>252.0</ele><time>2026-04-26T14:34:46.919Z</time></trkpt><trkpt lat="43.6599317" lon="12.8382216"><ele>252.0</ele><time>2026-04-26T14:34:47.918Z</time></trkpt><trkpt lat="43.6600093" lon="12.838097"><ele>252.0</ele><time>2026-04-26T14:34:48.923Z</time></trkpt><trkpt lat="43.6600887" lon="12.8379701"><ele>252.0</ele><time>2026-04-26T14:34:49.919Z</time></trkpt><trkpt lat="43.6601699" lon="12.8378349"><ele>252.0</ele><time>2026-04-26T14:34:50.919Z</time></trkpt><trkpt lat="43.6602493" lon="12.8376978"><ele>254.25</ele><time>2026-04-26T14:34:51.92Z</time></trkpt><trkpt lat="43.6603258" lon="12.8375542"><ele>256.5</ele><time>2026-04-26T14:34:52.919Z</time></trkpt><trkpt lat="43.6603961" lon="12.8374228"><ele>258.75</ele><time>2026-04-26T14:34:53.919Z</time></trkpt><trkpt lat="43.6604616" lon="12.8372964"><ele>261.0</ele><time>2026-04-26T14:34:54.923Z</time></trkpt><trkpt lat="43.6605292" lon="12.8371789"><ele>261.0</ele><time>2026-04-26T14:34:55.919Z</time></trkpt><trkpt lat="43.6606027" lon="12.8370806"><ele>261.0</ele><time>2026-04-26T14:34:56.918Z</time></trkpt><trkpt lat="43.6606894" lon="12.8369912"><ele>261.0</ele><time>2026-04-26T14:34:57.918Z</time></trkpt><trkpt lat="43.660793" lon="12.8368949"><ele>261.0</ele><time>2026-04-26T14:34:58.919Z</time></trkpt><trkpt lat="43.6609036" lon="12.8367892"><ele>261.25</ele><time>2026-04-26T14:34:59.919Z</time></trkpt><trkpt lat="43.6610186" lon="12.8366814"><ele>261.5</ele><time>2026-04-26T14:35:00.918Z</time></trkpt><trkpt lat="43.6611365" lon="12.8365701"><ele>261.75</ele><time>2026-04-26T14:35:01.918Z</time></trkpt><trkpt lat="43.6612537" lon="12.8364667"><ele>262.0</ele><time>2026-04-26T14:35:02.918Z</time></trkpt><trkpt lat="43.6613586" lon="12.8363669"><ele>262.0</ele><time>2026-04-26T14:35:03.92Z</time></trkpt><trkpt lat="43.6614475" lon="12.8362694"><ele>262.0</ele><time>2026-04-26T14:35:04.92Z</time></trkpt><trkpt lat="43.6615135" lon="12.8361678"><ele>262.0</ele><time>2026-04-26T14:35:05.922Z</time></trkpt><trkpt lat="43.6615564" lon="12.8360524"><ele>262.0</ele><time>2026-04-26T14:35:06.922Z</time></trkpt><trkpt lat="43.6615666" lon="12.8359104"><ele>262.0</ele><time>2026-04-26T14:35:07.923Z</time></trkpt><trkpt lat="43.6615479" lon="12.8357578"><ele>260.0</ele><time>2026-04-26T14:35:08.921Z</time></trkpt><trkpt lat="43.6615063" lon="12.8355939"><ele>258.0</ele><time>2026-04-26T14:35:09.919Z</time></trkpt><trkpt lat="43.6614471" lon="12.8354245"><ele>256.0</ele><time>2026-04-26T14:35:10.922Z</time></trkpt><trkpt lat="43.661382" lon="12.8352676"><ele>254.0</ele><time>2026-04-26T14:35:11.919Z</time></trkpt><trkpt lat="43.6613176" lon="12.8351055"><ele>255.0</ele><time>2026-04-26T14:35:12.919Z</time></trkpt><trkpt lat="43.6612584" lon="12.8349439"><ele>256.0</ele><time>2026-04-26T14:35:13.918Z</time></trkpt><trkpt lat="43.6612002" lon="12.8347818"><ele>257.0</ele><time>2026-04-26T14:35:14.919Z</time></trkpt><trkpt lat="43.6611484" lon="12.8346127"><ele>258.0</ele><time>2026-04-26T14:35:15.919Z</time></trkpt><trkpt lat="43.6611029" lon="12.8344431"><ele>260.0</ele><time>2026-04-26T14:35:16.919Z</time></trkpt><trkpt lat="43.6610624" lon="12.8342631"><ele>262.0</ele><time>2026-04-26T14:35:17.919Z</time></trkpt><trkpt lat="43.6610384" lon="12.8340904"><ele>264.0</ele><time>2026-04-26T14:35:18.92Z</time></trkpt><trkpt lat="43.6610081" lon="12.8339187"><ele>266.0</ele><time>2026-04-26T14:35:19.919Z</time></trkpt><trkpt lat="43.6609773" lon="12.833746"><ele>266.0</ele><time>2026-04-26T14:35:20.919Z</time></trkpt><trkpt lat="43.6609345" lon="12.8335734"><ele>266.0</ele><time>2026-04-26T14:35:21.919Z</time></trkpt><trkpt lat="43.6608731" lon="12.8334047"><ele>266.0</ele><time>2026-04-26T14:35:22.92Z</time></trkpt><trkpt lat="43.6608035" lon="12.8332371"><ele>266.0</ele><time>2026-04-26T14:35:23.918Z</time></trkpt><trkpt lat="43.6607309" lon="12.8330785"><ele>266.25</ele><time>2026-04-26T14:35:24.919Z</time></trkpt><trkpt lat="43.6606607" lon="12.8329152"><ele>266.5</ele><time>2026-04-26T14:35:25.921Z</time></trkpt><trkpt lat="43.6605895" lon="12.8327489"><ele>266.75</ele><time>2026-04-26T14:35:26.919Z</time></trkpt><trkpt lat="43.6605237" lon="12.8325607"><ele>267.0</ele><time>2026-04-26T14:35:27.919Z</time></trkpt><trkpt lat="43.6604661" lon="12.8323582"><ele>266.6666666666667</ele><time>2026-04-26T14:35:28.92Z</time></trkpt><trkpt lat="43.6604141" lon="12.8321475"><ele>266.33333333333337</ele><time>2026-04-26T14:35:29.918Z</time></trkpt><trkpt lat="43.6603588" lon="12.8319473"><ele>266.0</ele><time>2026-04-26T14:35:30.918Z</time></trkpt><trkpt lat="43.6602954" lon="12.8317509"><ele>268.75</ele><time>2026-04-26T14:35:31.918Z</time></trkpt><trkpt lat="43.6602318" lon="12.831562"><ele>271.5</ele><time>2026-04-26T14:35:32.92Z</time></trkpt><trkpt lat="43.6601715" lon="12.8313888"><ele>274.25</ele><time>2026-04-26T14:35:33.919Z</time></trkpt><trkpt lat="43.6601077" lon="12.8312274"><ele>277.0</ele><time>2026-04-26T14:35:34.919Z</time></trkpt><trkpt lat="43.6600429" lon="12.8310659"><ele>278.25</ele><time>2026-04-26T14:35:35.918Z</time></trkpt><trkpt lat="43.6599769" lon="12.8309082"><ele>279.5</ele><time>2026-04-26T14:35:36.92Z</time></trkpt><trkpt lat="43.6599082" lon="12.8307542"><ele>280.75</ele><time>2026-04-26T14:35:37.919Z</time></trkpt><trkpt lat="43.6598385" lon="12.8306019"><ele>282.0</ele><time>2026-04-26T14:35:38.918Z</time></trkpt><trkpt lat="43.6597697" lon="12.8304508"><ele>282.0</ele><time>2026-04-26T14:35:39.919Z</time></trkpt><trkpt lat="43.6596976" lon="12.8303056"><ele>282.0</ele><time>2026-04-26T14:35:40.919Z</time></trkpt><trkpt lat="43.6596271" lon="12.8301677"><ele>282.0</ele><time>2026-04-26T14:35:41.919Z</time></trkpt><trkpt lat="43.6595513" lon="12.8300585"><ele>282.0</ele><time>2026-04-26T14:35:42.918Z</time></trkpt><trkpt lat="43.6594882" lon="12.8299455"><ele>285.25</ele><time>2026-04-26T14:35:43.919Z</time></trkpt><trkpt lat="43.6594414" lon="12.8298191"><ele>288.5</ele><time>2026-04-26T14:35:44.918Z</time></trkpt><trkpt lat="43.6594162" lon="12.8296757"><ele>291.75</ele><time>2026-04-26T14:35:45.92Z</time></trkpt><trkpt lat="43.6593822" lon="12.8295226"><ele>295.0</ele><time>2026-04-26T14:35:46.919Z</time></trkpt><trkpt lat="43.6593168" lon="12.8293703"><ele>293.75</ele><time>2026-04-26T14:35:47.919Z</time></trkpt><trkpt lat="43.659226" lon="12.8292188"><ele>292.5</ele><time>2026-04-26T14:35:48.919Z</time></trkpt><trkpt lat="43.6591332" lon="12.8290647"><ele>291.25</ele><time>2026-04-26T14:35:49.919Z</time></trkpt><trkpt lat="43.6590322" lon="12.8289024"><ele>290.0</ele><time>2026-04-26T14:35:50.919Z</time></trkpt><trkpt lat="43.6589344" lon="12.8287441"><ele>290.0</ele><time>2026-04-26T14:35:51.919Z</time></trkpt><trkpt lat="43.6588356" lon="12.8285934"><ele>290.0</ele><time>2026-04-26T14:35:52.918Z</time></trkpt><trkpt lat="43.6587357" lon="12.8284399"><ele>290.0</ele><time>2026-04-26T14:35:53.919Z</time></trkpt><trkpt lat="43.6586311" lon="12.828281"><ele>290.0</ele><time>2026-04-26T14:35:54.92Z</time></trkpt><trkpt lat="43.6585213" lon="12.8281117"><ele>290.0</ele><time>2026-04-26T14:35:55.919Z</time></trkpt><trkpt lat="43.6584083" lon="12.8279304"><ele>290.0</ele><time>2026-04-26T14:35:56.919Z</time></trkpt><trkpt lat="43.6582984" lon="12.827744"><ele>288.6666666666667</ele><time>2026-04-26T14:35:57.919Z</time></trkpt><trkpt lat="43.6581976" lon="12.8275589"><ele>287.3333333333333</ele><time>2026-04-26T14:35:58.919Z</time></trkpt><trkpt lat="43.6580952" lon="12.8273915"><ele>286.0</ele><time>2026-04-26T14:35:59.919Z</time></trkpt><trkpt lat="43.6579703" lon="12.8272499"><ele>286.0</ele><time>2026-04-26T14:36:00.918Z</time></trkpt><trkpt lat="43.6578304" lon="12.8271357"><ele>286.0</ele><time>2026-04-26T14:36:01.918Z</time></trkpt><trkpt lat="43.6576764" lon="12.8270367"><ele>286.0</ele><time>2026-04-26T14:36:02.919Z</time></trkpt><trkpt lat="43.657517" lon="12.8269516"><ele>286.3333333333333</ele><time>2026-04-26T14:36:03.919Z</time></trkpt><trkpt lat="43.6573503" lon="12.826879"><ele>286.6666666666667</ele><time>2026-04-26T14:36:04.92Z</time></trkpt><trkpt lat="43.6571903" lon="12.8268124"><ele>287.0</ele><time>2026-04-26T14:36:05.919Z</time></trkpt><trkpt lat="43.6570545" lon="12.8267489"><ele>290.25</ele><time>2026-04-26T14:36:06.919Z</time></trkpt><trkpt lat="43.6569336" lon="12.826689"><ele>293.5</ele><time>2026-04-26T14:36:07.92Z</time></trkpt><trkpt lat="43.6568269" lon="12.8266097"><ele>296.75</ele><time>2026-04-26T14:36:08.92Z</time></trkpt><trkpt lat="43.6567325" lon="12.8265047"><ele>300.0</ele><time>2026-04-26T14:36:09.918Z</time></trkpt><trkpt lat="43.6566403" lon="12.8263952"><ele>300.0</ele><time>2026-04-26T14:36:10.92Z</time></trkpt><trkpt lat="43.656543" lon="12.8262771"><ele>300.0</ele><time>2026-04-26T14:36:11.919Z</time></trkpt><trkpt lat="43.6564661" lon="12.8261446"><ele>300.0</ele><time>2026-04-26T14:36:12.919Z</time></trkpt><trkpt lat="43.6564126" lon="12.8260005"><ele>300.0</ele><time>2026-04-26T14:36:13.919Z</time></trkpt><trkpt lat="43.656377" lon="12.8258513"><ele>302.0</ele><time>2026-04-26T14:36:14.919Z</time></trkpt><trkpt lat="43.6563574" lon="12.8256953"><ele>304.0</ele><time>2026-04-26T14:36:15.92Z</time></trkpt><trkpt lat="43.6563662" lon="12.8255317"><ele>306.0</ele><time>2026-04-26T14:36:16.92Z</time></trkpt><trkpt lat="43.6564053" lon="12.8253614"><ele>308.0</ele><time>2026-04-26T14:36:17.918Z</time></trkpt><trkpt lat="43.6564454" lon="12.8251839"><ele>309.25</ele><time>2026-04-26T14:36:18.919Z</time></trkpt><trkpt lat="43.6564854" lon="12.8250058"><ele>310.5</ele><time>2026-04-26T14:36:19.918Z</time></trkpt><trkpt lat="43.6565207" lon="12.8248331"><ele>311.75</ele><time>2026-04-26T14:36:20.92Z</time></trkpt><trkpt lat="43.6565556" lon="12.8246973"><ele>313.0</ele><time>2026-04-26T14:36:21.922Z</time></trkpt><trkpt lat="43.656588" lon="12.8245801"><ele>313.0</ele><time>2026-04-26T14:36:22.919Z</time></trkpt><trkpt lat="43.6566347" lon="12.8244451"><ele>313.0</ele><time>2026-04-26T14:36:23.919Z</time></trkpt><trkpt lat="43.6566983" lon="12.824308"><ele>313.0</ele><time>2026-04-26T14:36:24.919Z</time></trkpt><trkpt lat="43.65678" lon="12.8241703"><ele>313.0</ele><time>2026-04-26T14:36:25.918Z</time></trkpt><trkpt lat="43.6568754" lon="12.8240374"><ele>311.75</ele><time>2026-04-26T14:36:26.919Z</time></trkpt><trkpt lat="43.6569824" lon="12.8239078"><ele>310.5</ele><time>2026-04-26T14:36:27.919Z</time></trkpt><trkpt lat="43.6570871" lon="12.8237836"><ele>309.25</ele><time>2026-04-26T14:36:28.919Z</time></trkpt><trkpt lat="43.6571909" lon="12.8236672"><ele>308.0</ele><time>2026-04-26T14:36:29.919Z</time></trkpt><trkpt lat="43.6573009" lon="12.8235459"><ele>309.25</ele><time>2026-04-26T14:36:30.918Z</time></trkpt><trkpt lat="43.6573986" lon="12.8234405"><ele>310.5</ele><time>2026-04-26T14:36:31.919Z</time></trkpt><trkpt lat="43.6574884" lon="12.8233396"><ele>311.75</ele><time>2026-04-26T14:36:32.92Z</time></trkpt><trkpt lat="43.6575649" lon="12.8232462"><ele>313.0</ele><time>2026-04-26T14:36:33.918Z</time></trkpt><trkpt lat="43.6576498" lon="12.8231444"><ele>313.0</ele><time>2026-04-26T14:36:34.918Z</time></trkpt><trkpt lat="43.6577376" lon="12.8230351"><ele>313.0</ele><time>2026-04-26T14:36:35.919Z</time></trkpt><trkpt lat="43.657833" lon="12.8229281"><ele>313.0</ele><time>2026-04-26T14:36:36.92Z</time></trkpt><trkpt lat="43.6579269" lon="12.8228167"><ele>313.0</ele><time>2026-04-26T14:36:37.919Z</time></trkpt><trkpt lat="43.6580235" lon="12.8226962"><ele>313.75</ele><time>2026-04-26T14:36:38.92Z</time></trkpt><trkpt lat="43.6581233" lon="12.8225811"><ele>314.5</ele><time>2026-04-26T14:36:39.918Z</time></trkpt><trkpt lat="43.6582157" lon="12.8224683"><ele>315.25</ele><time>2026-04-26T14:36:40.92Z</time></trkpt><trkpt lat="43.6583098" lon="12.8223581"><ele>316.0</ele><time>2026-04-26T14:36:41.919Z</time></trkpt><trkpt lat="43.6583979" lon="12.8222424"><ele>316.0</ele><time>2026-04-26T14:36:42.918Z</time></trkpt><trkpt lat="43.658482" lon="12.8221425"><ele>316.0</ele><time>2026-04-26T14:36:43.919Z</time></trkpt><trkpt lat="43.6585678" lon="12.8220522"><ele>316.0</ele><time>2026-04-26T14:36:44.919Z</time></trkpt><trkpt lat="43.6586523" lon="12.8219728"><ele>316.0</ele><time>2026-04-26T14:36:45.919Z</time></trkpt><trkpt lat="43.6587359" lon="12.8219138"><ele>316.0</ele><time>2026-04-26T14:36:46.919Z</time></trkpt><trkpt lat="43.6588238" lon="12.8218791"><ele>314.6</ele><time>2026-04-26T14:36:47.92Z</time></trkpt><trkpt lat="43.6589182" lon="12.8218619"><ele>313.20000000000005</ele><time>2026-04-26T14:36:48.918Z</time></trkpt><trkpt lat="43.6590206" lon="12.8218621"><ele>311.79999999999995</ele><time>2026-04-26T14:36:49.918Z</time></trkpt><trkpt lat="43.6591277" lon="12.8218697"><ele>310.4</ele><time>2026-04-26T14:36:50.919Z</time></trkpt><trkpt lat="43.6592412" lon="12.8218848"><ele>309.0</ele><time>2026-04-26T14:36:51.92Z</time></trkpt><trkpt lat="43.6593576" lon="12.8219094"><ele>306.75</ele><time>2026-04-26T14:36:52.918Z</time></trkpt><trkpt lat="43.6594765" lon="12.8219371"><ele>304.5</ele><time>2026-04-26T14:36:53.919Z</time></trkpt><trkpt lat="43.6595981" lon="12.8219685"><ele>302.25</ele><time>2026-04-26T14:36:54.92Z</time></trkpt><trkpt lat="43.6597205" lon="12.8219937"><ele>300.0</ele><time>2026-04-26T14:36:55.919Z</time></trkpt><trkpt lat="43.6598421" lon="12.8220259"><ele>300.0</ele><time>2026-04-26T14:36:56.922Z</time></trkpt><trkpt lat="43.6599678" lon="12.8220518"><ele>300.0</ele><time>2026-04-26T14:36:57.919Z</time></trkpt><trkpt lat="43.6600933" lon="12.8220763"><ele>300.0</ele><time>2026-04-26T14:36:58.919Z</time></trkpt><trkpt lat="43.6602165" lon="12.822099"><ele>300.0</ele><time>2026-04-26T14:36:59.919Z</time></trkpt><trkpt lat="43.6603336" lon="12.8221196"><ele>299.0</ele><time>2026-04-26T14:37:00.92Z</time></trkpt><trkpt lat="43.6604459" lon="12.8221431"><ele>298.0</ele><time>2026-04-26T14:37:01.919Z</time></trkpt><trkpt lat="43.660559" lon="12.822161"><ele>297.0</ele><time>2026-04-26T14:37:02.919Z</time></trkpt><trkpt lat="43.6606808" lon="12.8221849"><ele>296.0</ele><time>2026-04-26T14:37:03.919Z</time></trkpt><trkpt lat="43.6607986" lon="12.8222218"><ele>296.0</ele><time>2026-04-26T14:37:04.919Z</time></trkpt><trkpt lat="43.6609213" lon="12.8222635"><ele>296.0</ele><time>2026-04-26T14:37:05.92Z</time></trkpt><trkpt lat="43.6610387" lon="12.8223076"><ele>296.0</ele><time>2026-04-26T14:37:06.919Z</time></trkpt><trkpt lat="43.6611509" lon="12.822354"><ele>296.0</ele><time>2026-04-26T14:37:07.918Z</time></trkpt><trkpt lat="43.661264" lon="12.8223968"><ele>292.5</ele><time>2026-04-26T14:37:08.919Z</time></trkpt><trkpt lat="43.6613871" lon="12.8224381"><ele>289.0</ele><time>2026-04-26T14:37:09.919Z</time></trkpt><trkpt lat="43.6615073" lon="12.8224792"><ele>285.5</ele><time>2026-04-26T14:37:10.918Z</time></trkpt><trkpt lat="43.661628" lon="12.8225316"><ele>282.0</ele><time>2026-04-26T14:37:11.919Z</time></trkpt><trkpt lat="43.6617465" lon="12.8225809"><ele>282.0</ele><time>2026-04-26T14:37:12.919Z</time></trkpt><trkpt lat="43.6618599" lon="12.8226148"><ele>282.0</ele><time>2026-04-26T14:37:13.918Z</time></trkpt><trkpt lat="43.6619761" lon="12.822654"><ele>282.0</ele><time>2026-04-26T14:37:14.918Z</time></trkpt><trkpt lat="43.662084" lon="12.8227074"><ele>282.0</ele><time>2026-04-26T14:37:15.918Z</time></trkpt><trkpt lat="43.6621925" lon="12.8227583"><ele>281.0</ele><time>2026-04-26T14:37:16.919Z</time></trkpt><trkpt lat="43.6623098" lon="12.8228048"><ele>280.0</ele><time>2026-04-26T14:37:17.92Z</time></trkpt><trkpt lat="43.6624358" lon="12.8228439"><ele>279.0</ele><time>2026-04-26T14:37:18.92Z</time></trkpt><trkpt lat="43.6625631" lon="12.8228761"><ele>278.0</ele><time>2026-04-26T14:37:19.918Z</time></trkpt><trkpt lat="43.6626836" lon="12.8229098"><ele>273.75</ele><time>2026-04-26T14:37:20.918Z</time></trkpt><trkpt lat="43.6628032" lon="12.8229394"><ele>269.5</ele><time>2026-04-26T14:37:21.919Z</time></trkpt><trkpt lat="43.6629299" lon="12.8229614"><ele>265.25</ele><time>2026-04-26T14:37:22.918Z</time></trkpt><trkpt lat="43.663059" lon="12.8229719"><ele>261.0</ele><time>2026-04-26T14:37:23.918Z</time></trkpt><trkpt lat="43.6631848" lon="12.8229754"><ele>261.0</ele><time>2026-04-26T14:37:24.92Z</time></trkpt><trkpt lat="43.6633145" lon="12.8229714"><ele>261.0</ele><time>2026-04-26T14:37:25.919Z</time></trkpt><trkpt lat="43.6634467" lon="12.8229587"><ele>261.0</ele><time>2026-04-26T14:37:26.919Z</time></trkpt><trkpt lat="43.6635727" lon="12.8229505"><ele>261.0</ele><time>2026-04-26T14:37:27.918Z</time></trkpt><trkpt lat="43.663705" lon="12.8229534"><ele>258.25</ele><time>2026-04-26T14:37:28.918Z</time></trkpt><trkpt lat="43.6638285" lon="12.8229621"><ele>255.5</ele><time>2026-04-26T14:37:29.919Z</time></trkpt><trkpt lat="43.6639402" lon="12.8229838"><ele>252.75</ele><time>2026-04-26T14:37:30.919Z</time></trkpt><trkpt lat="43.6640442" lon="12.8230334"><ele>250.0</ele><time>2026-04-26T14:37:31.919Z</time></trkpt><trkpt lat="43.6641352" lon="12.8231184"><ele>250.0</ele><time>2026-04-26T14:37:32.92Z</time></trkpt><trkpt lat="43.664221" lon="12.8232332"><ele>250.0</ele><time>2026-04-26T14:37:33.92Z</time></trkpt><trkpt lat="43.6642979" lon="12.8233557"><ele>250.0</ele><time>2026-04-26T14:37:34.918Z</time></trkpt><trkpt lat="43.664357" lon="12.8234724"><ele>250.0</ele><time>2026-04-26T14:37:35.919Z</time></trkpt><trkpt lat="43.6644001" lon="12.8235894"><ele>250.0</ele><time>2026-04-26T14:37:36.919Z</time></trkpt><trkpt lat="43.6644477" lon="12.8237052"><ele>246.85714285714283</ele><time>2026-04-26T14:37:37.92Z</time></trkpt><trkpt lat="43.6644945" lon="12.8237871"><ele>243.71428571428572</ele><time>2026-04-26T14:37:38.918Z</time></trkpt><trkpt lat="43.6645553" lon="12.823857"><ele>240.57142857142856</ele><time>2026-04-26T14:37:39.921Z</time></trkpt><trkpt lat="43.6646249" lon="12.8239105"><ele>237.42857142857142</ele><time>2026-04-26T14:37:40.922Z</time></trkpt><trkpt lat="43.664695" lon="12.8239195"><ele>234.28571428571428</ele><time>2026-04-26T14:37:41.919Z</time></trkpt><trkpt lat="43.6647598" lon="12.8238996"><ele>231.14285714285714</ele><time>2026-04-26T14:37:42.92Z</time></trkpt><trkpt lat="43.664818" lon="12.8238651"><ele>228.0</ele><time>2026-04-26T14:37:43.919Z</time></trkpt><trkpt lat="43.6648862" lon="12.8237254"><ele>228.0</ele><time>2026-04-26T14:37:45.921Z</time></trkpt><trkpt lat="43.6648988" lon="12.823629"><ele>228.0</ele><time>2026-04-26T14:37:46.92Z</time></trkpt><trkpt lat="43.664892" lon="12.8235089"><ele>228.0</ele><time>2026-04-26T14:37:47.92Z</time></trkpt><trkpt lat="43.6648655" lon="12.8233802"><ele>228.0</ele><time>2026-04-26T14:37:48.923Z</time></trkpt><trkpt lat="43.664825" lon="12.8232524"><ele>228.0</ele><time>2026-04-26T14:37:49.919Z</time></trkpt><trkpt lat="43.6647786" lon="12.8231236"><ele>226.8</ele><time>2026-04-26T14:37:50.919Z</time></trkpt><trkpt lat="43.6647316" lon="12.8229977"><ele>225.60000000000002</ele><time>2026-04-26T14:37:51.919Z</time></trkpt><trkpt lat="43.664684" lon="12.8228723"><ele>224.39999999999998</ele><time>2026-04-26T14:37:52.919Z</time></trkpt><trkpt lat="43.6646345" lon="12.8227432"><ele>223.2</ele><time>2026-04-26T14:37:53.92Z</time></trkpt><trkpt lat="43.6645784" lon="12.8226032"><ele>222.0</ele><time>2026-04-26T14:37:54.919Z</time></trkpt><trkpt lat="43.6645233" lon="12.8224573"><ele>219.0</ele><time>2026-04-26T14:37:55.919Z</time></trkpt><trkpt lat="43.6644694" lon="12.8223088"><ele>216.0</ele><time>2026-04-26T14:37:56.918Z</time></trkpt><trkpt lat="43.6644122" lon="12.8221631"><ele>213.0</ele><time>2026-04-26T14:37:57.918Z</time></trkpt><trkpt lat="43.664354" lon="12.8220206"><ele>210.0</ele><time>2026-04-26T14:37:58.919Z</time></trkpt><trkpt lat="43.6643029" lon="12.8218807"><ele>212.16666666666666</ele><time>2026-04-26T14:37:59.919Z</time></trkpt><trkpt lat="43.6642552" lon="12.8217406"><ele>214.33333333333331</ele><time>2026-04-26T14:38:00.919Z</time></trkpt><trkpt lat="43.6642147" lon="12.8216197"><ele>216.5</ele><time>2026-04-26T14:38:01.919Z</time></trkpt><trkpt lat="43.6641875" lon="12.8215188"><ele>218.66666666666666</ele><time>2026-04-26T14:38:02.918Z</time></trkpt><trkpt lat="43.6641734" lon="12.8214291"><ele>220.83333333333331</ele><time>2026-04-26T14:38:03.918Z</time></trkpt><trkpt lat="43.6641827" lon="12.8213417"><ele>223.0</ele><time>2026-04-26T14:38:04.919Z</time></trkpt><trkpt lat="43.6642727" lon="12.8212362"><ele>223.0</ele><time>2026-04-26T14:38:06.919Z</time></trkpt><trkpt lat="43.6644076" lon="12.8212326"><ele>223.0</ele><time>2026-04-26T14:38:08.918Z</time></trkpt><trkpt lat="43.6644983" lon="12.8212354"><ele>223.0</ele><time>2026-04-26T14:38:09.924Z</time></trkpt><trkpt lat="43.6645792" lon="12.821241"><ele>223.0</ele><time>2026-04-26T14:38:10.918Z</time></trkpt><trkpt lat="43.6646667" lon="12.8212286"><ele>223.0</ele><time>2026-04-26T14:38:11.918Z</time></trkpt><trkpt lat="43.6647426" lon="12.8212079"><ele>220.60000000000002</ele><time>2026-04-26T14:38:12.919Z</time></trkpt><trkpt lat="43.6648094" lon="12.8211873"><ele>218.20000000000002</ele><time>2026-04-26T14:38:13.918Z</time></trkpt><trkpt lat="43.6649192" lon="12.8212072"><ele>215.8</ele><time>2026-04-26T14:38:15.919Z</time></trkpt><trkpt lat="43.6649964" lon="12.821356"><ele>213.4</ele><time>2026-04-26T14:38:17.918Z</time></trkpt><trkpt lat="43.6650365" lon="12.8214403"><ele>211.0</ele><time>2026-04-26T14:38:18.918Z</time></trkpt><trkpt lat="43.6650817" lon="12.8215214"><ele>210.99999999999997</ele><time>2026-04-26T14:38:19.919Z</time></trkpt><trkpt lat="43.6651377" lon="12.8215891"><ele>211.0</ele><time>2026-04-26T14:38:20.919Z</time></trkpt><trkpt lat="43.6651997" lon="12.8216522"><ele>211.0</ele><time>2026-04-26T14:38:21.92Z</time></trkpt><trkpt lat="43.6652586" lon="12.8217207"><ele>211.0</ele><time>2026-04-26T14:38:22.918Z</time></trkpt><trkpt lat="43.6653246" lon="12.8217949"><ele>210.99999999999997</ele><time>2026-04-26T14:38:23.918Z</time></trkpt><trkpt lat="43.665408" lon="12.8218695"><ele>211.0</ele><time>2026-04-26T14:38:24.92Z</time></trkpt><trkpt lat="43.6655027" lon="12.8219472"><ele>210.75</ele><time>2026-04-26T14:38:25.922Z</time></trkpt><trkpt lat="43.6655859" lon="12.8220408"><ele>210.5</ele><time>2026-04-26T14:38:26.92Z</time></trkpt><trkpt lat="43.6656698" lon="12.8221426"><ele>210.25</ele><time>2026-04-26T14:38:27.92Z</time></trkpt><trkpt lat="43.665749" lon="12.8222748"><ele>210.0</ele><time>2026-04-26T14:38:28.919Z</time></trkpt><trkpt lat="43.6658287" lon="12.8224017"><ele>210.0</ele><time>2026-04-26T14:38:29.918Z</time></trkpt><trkpt lat="43.6658974" lon="12.822547"><ele>210.0</ele><time>2026-04-26T14:38:30.919Z</time></trkpt><trkpt lat="43.6659735" lon="12.8226684"><ele>210.0</ele><time>2026-04-26T14:38:31.923Z</time></trkpt><trkpt lat="43.6660622" lon="12.8227726"><ele>210.0</ele><time>2026-04-26T14:38:32.919Z</time></trkpt><trkpt lat="43.6661607" lon="12.8228879"><ele>210.5</ele><time>2026-04-26T14:38:33.918Z</time></trkpt><trkpt lat="43.6662539" lon="12.8229995"><ele>211.0</ele><time>2026-04-26T14:38:34.922Z</time></trkpt><trkpt lat="43.6663342" lon="12.8231323"><ele>211.5</ele><time>2026-04-26T14:38:35.918Z</time></trkpt><trkpt lat="43.6663532" lon="12.8232986"><ele>212.0</ele><time>2026-04-26T14:38:36.917Z</time></trkpt><trkpt lat="43.6663856" lon="12.8234545"><ele>211.0</ele><time>2026-04-26T14:38:37.92Z</time></trkpt><trkpt lat="43.6664231" lon="12.8235975"><ele>210.0</ele><time>2026-04-26T14:38:38.919Z</time></trkpt><trkpt lat="43.6664792" lon="12.8237308"><ele>209.0</ele><time>2026-04-26T14:38:39.92Z</time></trkpt><trkpt lat="43.6665308" lon="12.8238525"><ele>208.0</ele><time>2026-04-26T14:38:40.921Z</time></trkpt><trkpt lat="43.6665844" lon="12.8239773"><ele>207.0</ele><time>2026-04-26T14:38:41.923Z</time></trkpt><trkpt lat="43.6666466" lon="12.8240955"><ele>207.0</ele><time>2026-04-26T14:38:42.925Z</time></trkpt><trkpt lat="43.6667168" lon="12.8242062"><ele>207.0</ele><time>2026-04-26T14:38:43.919Z</time></trkpt><trkpt lat="43.666792" lon="12.8243037"><ele>207.0</ele><time>2026-04-26T14:38:44.92Z</time></trkpt><trkpt lat="43.6668669" lon="12.8243907"><ele>207.0</ele><time>2026-04-26T14:38:45.918Z</time></trkpt><trkpt lat="43.66696" lon="12.8244675"><ele>207.0</ele><time>2026-04-26T14:38:46.92Z</time></trkpt><trkpt lat="43.6670575" lon="12.8245454"><ele>206.25</ele><time>2026-04-26T14:38:47.921Z</time></trkpt><trkpt lat="43.6671573" lon="12.8246096"><ele>205.5</ele><time>2026-04-26T14:38:48.919Z</time></trkpt><trkpt lat="43.6672744" lon="12.8246725"><ele>204.75</ele><time>2026-04-26T14:38:49.919Z</time></trkpt><trkpt lat="43.6673883" lon="12.8247192"><ele>204.0</ele><time>2026-04-26T14:38:50.918Z</time></trkpt><trkpt lat="43.667496" lon="12.8247492"><ele>204.0</ele><time>2026-04-26T14:38:51.919Z</time></trkpt><trkpt lat="43.6676032" lon="12.8247717"><ele>204.0</ele><time>2026-04-26T14:38:52.919Z</time></trkpt><trkpt lat="43.6677222" lon="12.8247829"><ele>204.0</ele><time>2026-04-26T14:38:53.918Z</time></trkpt><trkpt lat="43.6678426" lon="12.8247732"><ele>204.0</ele><time>2026-04-26T14:38:54.92Z</time></trkpt><trkpt lat="43.6679563" lon="12.8247518"><ele>204.5</ele><time>2026-04-26T14:38:55.918Z</time></trkpt><trkpt lat="43.6680593" lon="12.8247329"><ele>205.0</ele><time>2026-04-26T14:38:56.918Z</time></trkpt><trkpt lat="43.6681636" lon="12.8247176"><ele>205.5</ele><time>2026-04-26T14:38:57.919Z</time></trkpt><trkpt lat="43.6682471" lon="12.8247009"><ele>206.0</ele><time>2026-04-26T14:38:58.918Z</time></trkpt><trkpt lat="43.6683172" lon="12.8247017"><ele>206.5</ele><time>2026-04-26T14:38:59.918Z</time></trkpt><trkpt lat="43.6683713" lon="12.8247465"><ele>207.0</ele><time>2026-04-26T14:39:00.92Z</time></trkpt><trkpt lat="43.6684281" lon="12.8248039"><ele>207.0</ele><time>2026-04-26T14:39:01.919Z</time></trkpt><trkpt lat="43.6684424" lon="12.8249529"><ele>207.0</ele><time>2026-04-26T14:39:02.919Z</time></trkpt><trkpt lat="43.6684611" lon="12.8250922"><ele>207.0</ele><time>2026-04-26T14:39:03.919Z</time></trkpt><trkpt lat="43.6684832" lon="12.8252259"><ele>207.0</ele><time>2026-04-26T14:39:04.921Z</time></trkpt><trkpt lat="43.6685086" lon="12.8253604"><ele>207.0</ele><time>2026-04-26T14:39:05.918Z</time></trkpt><trkpt lat="43.6685399" lon="12.8255013"><ele>206.8</ele><time>2026-04-26T14:39:06.918Z</time></trkpt><trkpt lat="43.6685697" lon="12.8256351"><ele>206.6</ele><time>2026-04-26T14:39:07.919Z</time></trkpt><trkpt lat="43.6686207" lon="12.825756"><ele>206.4</ele><time>2026-04-26T14:39:08.918Z</time></trkpt><trkpt lat="43.6686878" lon="12.825851"><ele>206.20000000000002</ele><time>2026-04-26T14:39:09.919Z</time></trkpt><trkpt lat="43.6687786" lon="12.8259245"><ele>206.0</ele><time>2026-04-26T14:39:10.919Z</time></trkpt><trkpt lat="43.6688833" lon="12.8259886"><ele>207.25</ele><time>2026-04-26T14:39:11.919Z</time></trkpt><trkpt lat="43.6690027" lon="12.8260545"><ele>208.5</ele><time>2026-04-26T14:39:12.919Z</time></trkpt><trkpt lat="43.6691217" lon="12.8261266"><ele>209.75</ele><time>2026-04-26T14:39:13.919Z</time></trkpt><trkpt lat="43.6692379" lon="12.8262024"><ele>211.0</ele><time>2026-04-26T14:39:14.919Z</time></trkpt><trkpt lat="43.6693514" lon="12.8262871"><ele>213.25</ele><time>2026-04-26T14:39:15.918Z</time></trkpt><trkpt lat="43.6694693" lon="12.8263821"><ele>215.5</ele><time>2026-04-26T14:39:16.918Z</time></trkpt><trkpt lat="43.6695833" lon="12.8264716"><ele>217.75</ele><time>2026-04-26T14:39:17.918Z</time></trkpt><trkpt lat="43.6696926" lon="12.8265572"><ele>220.0</ele><time>2026-04-26T14:39:18.92Z</time></trkpt><trkpt lat="43.6697993" lon="12.8266401"><ele>220.0</ele><time>2026-04-26T14:39:19.92Z</time></trkpt><trkpt lat="43.6699083" lon="12.8267173"><ele>220.0</ele><time>2026-04-26T14:39:20.923Z</time></trkpt><trkpt lat="43.6700186" lon="12.8267901"><ele>220.0</ele><time>2026-04-26T14:39:21.92Z</time></trkpt><trkpt lat="43.6701395" lon="12.826871"><ele>220.0</ele><time>2026-04-26T14:39:22.918Z</time></trkpt><trkpt lat="43.6702645" lon="12.8269596"><ele>218.5</ele><time>2026-04-26T14:39:23.92Z</time></trkpt><trkpt lat="43.6703873" lon="12.8270538"><ele>217.0</ele><time>2026-04-26T14:39:24.919Z</time></trkpt><trkpt lat="43.6705059" lon="12.8271409"><ele>215.5</ele><time>2026-04-26T14:39:25.92Z</time></trkpt><trkpt lat="43.6706076" lon="12.8272173"><ele>214.0</ele><time>2026-04-26T14:39:26.919Z</time></trkpt><trkpt lat="43.6707094" lon="12.8272916"><ele>214.0</ele><time>2026-04-26T14:39:27.919Z</time></trkpt><trkpt lat="43.6707992" lon="12.827392"><ele>214.0</ele><time>2026-04-26T14:39:28.919Z</time></trkpt><trkpt lat="43.6708675" lon="12.8275316"><ele>214.0</ele><time>2026-04-26T14:39:29.918Z</time></trkpt><trkpt lat="43.6709269" lon="12.8276733"><ele>214.0</ele><time>2026-04-26T14:39:30.919Z</time></trkpt><trkpt lat="43.6709903" lon="12.8278112"><ele>214.0</ele><time>2026-04-26T14:39:31.92Z</time></trkpt><trkpt lat="43.6710623" lon="12.8279434"><ele>214.0</ele><time>2026-04-26T14:39:32.919Z</time></trkpt><trkpt lat="43.6711503" lon="12.8280837"><ele>214.0</ele><time>2026-04-26T14:39:33.919Z</time></trkpt><trkpt lat="43.671242" lon="12.8282292"><ele>214.0</ele><time>2026-04-26T14:39:34.92Z</time></trkpt><trkpt lat="43.6713257" lon="12.8283739"><ele>213.5</ele><time>2026-04-26T14:39:35.919Z</time></trkpt><trkpt lat="43.6713976" lon="12.8285104"><ele>213.0</ele><time>2026-04-26T14:39:36.918Z</time></trkpt><trkpt lat="43.6714588" lon="12.8286443"><ele>212.5</ele><time>2026-04-26T14:39:37.92Z</time></trkpt><trkpt lat="43.6715" lon="12.8287826"><ele>212.0</ele><time>2026-04-26T14:39:38.919Z</time></trkpt><trkpt lat="43.6715117" lon="12.8289378"><ele>212.0</ele><time>2026-04-26T14:39:39.92Z</time></trkpt><trkpt lat="43.6715177" lon="12.8290832"><ele>212.0</ele><time>2026-04-26T14:39:40.918Z</time></trkpt><trkpt lat="43.6715416" lon="12.829217"><ele>212.0</ele><time>2026-04-26T14:39:41.92Z</time></trkpt><trkpt lat="43.6715891" lon="12.8293429"><ele>212.0</ele><time>2026-04-26T14:39:42.919Z</time></trkpt><trkpt lat="43.6716589" lon="12.8294582"><ele>212.0</ele><time>2026-04-26T14:39:43.919Z</time></trkpt><trkpt lat="43.6717468" lon="12.8295725"><ele>210.25</ele><time>2026-04-26T14:39:44.919Z</time></trkpt><trkpt lat="43.6718425" lon="12.8296891"><ele>208.5</ele><time>2026-04-26T14:39:45.918Z</time></trkpt><trkpt lat="43.6719475" lon="12.8298106"><ele>206.75</ele><time>2026-04-26T14:39:46.919Z</time></trkpt><trkpt lat="43.672052" lon="12.8299387"><ele>205.0</ele><time>2026-04-26T14:39:47.92Z</time></trkpt><trkpt lat="43.6721526" lon="12.8300728"><ele>206.25</ele><time>2026-04-26T14:39:48.919Z</time></trkpt><trkpt lat="43.6722536" lon="12.8301985"><ele>207.5</ele><time>2026-04-26T14:39:49.919Z</time></trkpt><trkpt lat="43.6723511" lon="12.8303121"><ele>208.75</ele><time>2026-04-26T14:39:50.92Z</time></trkpt><trkpt lat="43.6724412" lon="12.8303953"><ele>210.0</ele><time>2026-04-26T14:39:51.919Z</time></trkpt><trkpt lat="43.6725407" lon="12.830439"><ele>210.0</ele><time>2026-04-26T14:39:52.919Z</time></trkpt><trkpt lat="43.6726508" lon="12.8304312"><ele>210.0</ele><time>2026-04-26T14:39:53.919Z</time></trkpt><trkpt lat="43.6727686" lon="12.8303823"><ele>210.0</ele><time>2026-04-26T14:39:54.919Z</time></trkpt><trkpt lat="43.6728854" lon="12.8303346"><ele>210.0</ele><time>2026-04-26T14:39:55.919Z</time></trkpt><trkpt lat="43.6729985" lon="12.8303071"><ele>212.4</ele><time>2026-04-26T14:39:56.919Z</time></trkpt><trkpt lat="43.6731022" lon="12.8302897"><ele>214.8</ele><time>2026-04-26T14:39:57.919Z</time></trkpt><trkpt lat="43.6731881" lon="12.830284"><ele>217.2</ele><time>2026-04-26T14:39:58.918Z</time></trkpt><trkpt lat="43.6732732" lon="12.8302899"><ele>219.6</ele><time>2026-04-26T14:39:59.918Z</time></trkpt><trkpt lat="43.6733589" lon="12.8303271"><ele>222.0</ele><time>2026-04-26T14:40:00.92Z</time></trkpt><trkpt lat="43.6734407" lon="12.8304012"><ele>222.0</ele><time>2026-04-26T14:40:01.918Z</time></trkpt><trkpt lat="43.6735228" lon="12.8304941"><ele>222.0</ele><time>2026-04-26T14:40:02.918Z</time></trkpt><trkpt lat="43.6736057" lon="12.830587"><ele>222.0</ele><time>2026-04-26T14:40:03.918Z</time></trkpt><trkpt lat="43.6736754" lon="12.8307135"><ele>222.0</ele><time>2026-04-26T14:40:04.919Z</time></trkpt><trkpt lat="43.6737292" lon="12.8308685"><ele>223.0</ele><time>2026-04-26T14:40:05.92Z</time></trkpt><trkpt lat="43.6737735" lon="12.8310305"><ele>224.0</ele><time>2026-04-26T14:40:06.92Z</time></trkpt><trkpt lat="43.6738307" lon="12.8311806"><ele>225.0</ele><time>2026-04-26T14:40:07.919Z</time></trkpt><trkpt lat="43.6739165" lon="12.8313023"><ele>226.0</ele><time>2026-04-26T14:40:08.919Z</time></trkpt><trkpt lat="43.6740082" lon="12.8314206"><ele>226.0</ele><time>2026-04-26T14:40:09.92Z</time></trkpt><trkpt lat="43.6741118" lon="12.8315246"><ele>226.0</ele><time>2026-04-26T14:40:10.919Z</time></trkpt><trkpt lat="43.6742153" lon="12.8316248"><ele>226.0</ele><time>2026-04-26T14:40:11.919Z</time></trkpt><trkpt lat="43.674297" lon="12.8317327"><ele>226.0</ele><time>2026-04-26T14:40:12.919Z</time></trkpt><trkpt lat="43.6743637" lon="12.8318441"><ele>225.0</ele><time>2026-04-26T14:40:13.919Z</time></trkpt><trkpt lat="43.6744328" lon="12.8319591"><ele>224.00000000000003</ele><time>2026-04-26T14:40:14.919Z</time></trkpt><trkpt lat="43.6744997" lon="12.8320709"><ele>223.00000000000003</ele><time>2026-04-26T14:40:15.919Z</time></trkpt><trkpt lat="43.6745596" lon="12.8321743"><ele>222.0</ele><time>2026-04-26T14:40:16.918Z</time></trkpt><trkpt lat="43.6746183" lon="12.8322697"><ele>221.0</ele><time>2026-04-26T14:40:17.919Z</time></trkpt><trkpt lat="43.6746839" lon="12.832373"><ele>220.60000000000002</ele><time>2026-04-26T14:40:18.92Z</time></trkpt><trkpt lat="43.6747563" lon="12.8324847"><ele>220.20000000000002</ele><time>2026-04-26T14:40:19.918Z</time></trkpt><trkpt lat="43.6748225" lon="12.8325984"><ele>219.79999999999998</ele><time>2026-04-26T14:40:20.92Z</time></trkpt><trkpt lat="43.6748788" lon="12.8327164"><ele>219.39999999999998</ele><time>2026-04-26T14:40:21.921Z</time></trkpt><trkpt lat="43.6749121" lon="12.8328543"><ele>219.0</ele><time>2026-04-26T14:40:22.919Z</time></trkpt><trkpt lat="43.6749094" lon="12.8330175"><ele>220.25</ele><time>2026-04-26T14:40:23.919Z</time></trkpt><trkpt lat="43.6748859" lon="12.8331983"><ele>221.5</ele><time>2026-04-26T14:40:24.92Z</time></trkpt><trkpt lat="43.6748773" lon="12.8333947"><ele>222.75</ele><time>2026-04-26T14:40:25.92Z</time></trkpt><trkpt lat="43.6748917" lon="12.8335999"><ele>224.0</ele><time>2026-04-26T14:40:26.92Z</time></trkpt><trkpt lat="43.674915" lon="12.8338156"><ele>224.25</ele><time>2026-04-26T14:40:27.919Z</time></trkpt><trkpt lat="43.6749369" lon="12.8340258"><ele>224.5</ele><time>2026-04-26T14:40:28.919Z</time></trkpt><trkpt lat="43.67495" lon="12.8342156"><ele>224.75</ele><time>2026-04-26T14:40:29.918Z</time></trkpt><trkpt lat="43.6749466" lon="12.834392"><ele>225.0</ele><time>2026-04-26T14:40:30.919Z</time></trkpt><trkpt lat="43.6749318" lon="12.8345644"><ele>224.4</ele><time>2026-04-26T14:40:31.919Z</time></trkpt><trkpt lat="43.6749153" lon="12.8347251"><ele>223.8</ele><time>2026-04-26T14:40:32.919Z</time></trkpt><trkpt lat="43.6749046" lon="12.8348576"><ele>223.2</ele><time>2026-04-26T14:40:33.92Z</time></trkpt><trkpt lat="43.6749178" lon="12.8349706"><ele>222.6</ele><time>2026-04-26T14:40:34.92Z</time></trkpt><trkpt lat="43.6749485" lon="12.835081"><ele>222.0</ele><time>2026-04-26T14:40:35.918Z</time></trkpt><trkpt lat="43.6749881" lon="12.8351937"><ele>221.25</ele><time>2026-04-26T14:40:36.918Z</time></trkpt><trkpt lat="43.6750386" lon="12.8353221"><ele>220.5</ele><time>2026-04-26T14:40:37.921Z</time></trkpt><trkpt lat="43.675114" lon="12.8354546"><ele>219.75</ele><time>2026-04-26T14:40:38.919Z</time></trkpt><trkpt lat="43.6752119" lon="12.8355889"><ele>219.0</ele><time>2026-04-26T14:40:39.921Z</time></trkpt><trkpt lat="43.6753073" lon="12.8357278"><ele>219.0</ele><time>2026-04-26T14:40:40.92Z</time></trkpt><trkpt lat="43.6753954" lon="12.8358706"><ele>219.0</ele><time>2026-04-26T14:40:41.919Z</time></trkpt><trkpt lat="43.675478" lon="12.8360055"><ele>219.0</ele><time>2026-04-26T14:40:42.92Z</time></trkpt><trkpt lat="43.6755585" lon="12.83613"><ele>219.0</ele><time>2026-04-26T14:40:43.92Z</time></trkpt><trkpt lat="43.6756435" lon="12.8362406"><ele>218.66666666666666</ele><time>2026-04-26T14:40:44.92Z</time></trkpt><trkpt lat="43.6757319" lon="12.8363415"><ele>218.33333333333331</ele><time>2026-04-26T14:40:45.919Z</time></trkpt><trkpt lat="43.6758205" lon="12.8364005"><ele>218.0</ele><time>2026-04-26T14:40:46.92Z</time></trkpt><trkpt lat="43.6758992" lon="12.8364195"><ele>217.66666666666666</ele><time>2026-04-26T14:40:47.92Z</time></trkpt><trkpt lat="43.6759678" lon="12.8364145"><ele>217.33333333333331</ele><time>2026-04-26T14:40:48.919Z</time></trkpt><trkpt lat="43.6760454" lon="12.8363907"><ele>217.0</ele><time>2026-04-26T14:40:49.92Z</time></trkpt><trkpt lat="43.6761306" lon="12.8363419"><ele>214.5</ele><time>2026-04-26T14:40:50.92Z</time></trkpt><trkpt lat="43.6762445" lon="12.8362697"><ele>212.0</ele><time>2026-04-26T14:40:51.919Z</time></trkpt><trkpt lat="43.6763713" lon="12.8361995"><ele>209.5</ele><time>2026-04-26T14:40:52.92Z</time></trkpt><trkpt lat="43.6764954" lon="12.8361395"><ele>207.0</ele><time>2026-04-26T14:40:53.921Z</time></trkpt><trkpt lat="43.6766162" lon="12.836069"><ele>207.0</ele><time>2026-04-26T14:40:54.92Z</time></trkpt><trkpt lat="43.6767396" lon="12.8359889"><ele>207.0</ele><time>2026-04-26T14:40:55.92Z</time></trkpt><trkpt lat="43.676871" lon="12.8359054"><ele>207.0</ele><time>2026-04-26T14:40:56.92Z</time></trkpt><trkpt lat="43.6770016" lon="12.8358097"><ele>207.0</ele><time>2026-04-26T14:40:57.919Z</time></trkpt><trkpt lat="43.6771146" lon="12.8357097"><ele>207.0</ele><time>2026-04-26T14:40:58.92Z</time></trkpt><trkpt lat="43.6772242" lon="12.8355882"><ele>207.0</ele><time>2026-04-26T14:40:59.92Z</time></trkpt><trkpt lat="43.677331" lon="12.8354522"><ele>207.0</ele><time>2026-04-26T14:41:00.921Z</time></trkpt><trkpt lat="43.6774408" lon="12.8353257"><ele>207.0</ele><time>2026-04-26T14:41:01.92Z</time></trkpt><trkpt lat="43.6775426" lon="12.8352068"><ele>208.75</ele><time>2026-04-26T14:41:02.92Z</time></trkpt><trkpt lat="43.67765" lon="12.8350918"><ele>210.5</ele><time>2026-04-26T14:41:03.92Z</time></trkpt><trkpt lat="43.6777685" lon="12.8349949"><ele>212.25</ele><time>2026-04-26T14:41:04.919Z</time></trkpt><trkpt lat="43.6778977" lon="12.8349129"><ele>214.0</ele><time>2026-04-26T14:41:05.92Z</time></trkpt><trkpt lat="43.6780261" lon="12.8348319"><ele>214.0</ele><time>2026-04-26T14:41:06.92Z</time></trkpt><trkpt lat="43.6781518" lon="12.8347453"><ele>214.0</ele><time>2026-04-26T14:41:07.92Z</time></trkpt><trkpt lat="43.6782756" lon="12.8346606"><ele>214.0</ele><time>2026-04-26T14:41:08.92Z</time></trkpt><trkpt lat="43.6784029" lon="12.8345705"><ele>214.0</ele><time>2026-04-26T14:41:09.919Z</time></trkpt><trkpt lat="43.678536" lon="12.8344749"><ele>211.25</ele><time>2026-04-26T14:41:10.921Z</time></trkpt><trkpt lat="43.6786609" lon="12.8343823"><ele>208.5</ele><time>2026-04-26T14:41:11.919Z</time></trkpt><trkpt lat="43.6787684" lon="12.8342999"><ele>205.75</ele><time>2026-04-26T14:41:12.92Z</time></trkpt><trkpt lat="43.6788667" lon="12.8342235"><ele>203.0</ele><time>2026-04-26T14:41:13.92Z</time></trkpt><trkpt lat="43.678956" lon="12.8341572"><ele>203.0</ele><time>2026-04-26T14:41:14.92Z</time></trkpt><trkpt lat="43.6790423" lon="12.8341123"><ele>203.0</ele><time>2026-04-26T14:41:15.92Z</time></trkpt><trkpt lat="43.6791248" lon="12.8341155"><ele>203.0</ele><time>2026-04-26T14:41:16.92Z</time></trkpt><trkpt lat="43.6792017" lon="12.8341757"><ele>203.0</ele><time>2026-04-26T14:41:17.92Z</time></trkpt><trkpt lat="43.6792672" lon="12.8342816"><ele>203.0</ele><time>2026-04-26T14:41:18.922Z</time></trkpt><trkpt lat="43.679322" lon="12.8344192"><ele>203.0</ele><time>2026-04-26T14:41:19.92Z</time></trkpt><trkpt lat="43.67937" lon="12.8345643"><ele>203.0</ele><time>2026-04-26T14:41:20.92Z</time></trkpt><trkpt lat="43.6794167" lon="12.8346986"><ele>203.0</ele><time>2026-04-26T14:41:21.919Z</time></trkpt><trkpt lat="43.6794625" lon="12.8348125"><ele>203.0</ele><time>2026-04-26T14:41:22.919Z</time></trkpt><trkpt lat="43.6795244" lon="12.8349034"><ele>203.0</ele><time>2026-04-26T14:41:23.92Z</time></trkpt><trkpt lat="43.6796125" lon="12.8349645"><ele>202.2</ele><time>2026-04-26T14:41:24.92Z</time></trkpt><trkpt lat="43.6797164" lon="12.8349787"><ele>201.4</ele><time>2026-04-26T14:41:25.92Z</time></trkpt><trkpt lat="43.6798212" lon="12.8349566"><ele>200.6</ele><time>2026-04-26T14:41:26.921Z</time></trkpt><trkpt lat="43.6799187" lon="12.8349066"><ele>199.79999999999998</ele><time>2026-04-26T14:41:27.919Z</time></trkpt><trkpt lat="43.6800167" lon="12.8348276"><ele>199.0</ele><time>2026-04-26T14:41:28.92Z</time></trkpt><trkpt lat="43.6801189" lon="12.8347392"><ele>199.0</ele><time>2026-04-26T14:41:29.92Z</time></trkpt><trkpt lat="43.6802344" lon="12.8346612"><ele>199.0</ele><time>2026-04-26T14:41:30.92Z</time></trkpt><trkpt lat="43.6803482" lon="12.8345961"><ele>199.0</ele><time>2026-04-26T14:41:31.921Z</time></trkpt><trkpt lat="43.6804592" lon="12.8345419"><ele>199.0</ele><time>2026-04-26T14:41:32.92Z</time></trkpt><trkpt lat="43.6805666" lon="12.834491"><ele>199.0</ele><time>2026-04-26T14:41:33.92Z</time></trkpt><trkpt lat="43.6806658" lon="12.8344259"><ele>199.0</ele><time>2026-04-26T14:41:34.92Z</time></trkpt><trkpt lat="43.6807516" lon="12.8343338"><ele>199.0</ele><time>2026-04-26T14:41:35.92Z</time></trkpt><trkpt lat="43.6808307" lon="12.8342296"><ele>199.0</ele><time>2026-04-26T14:41:36.92Z</time></trkpt><trkpt lat="43.6809142" lon="12.834128"><ele>199.0</ele><time>2026-04-26T14:41:37.92Z</time></trkpt><trkpt lat="43.6810074" lon="12.8340314"><ele>195.25</ele><time>2026-04-26T14:41:38.92Z</time></trkpt><trkpt lat="43.6811141" lon="12.8339474"><ele>191.5</ele><time>2026-04-26T14:41:39.92Z</time></trkpt><trkpt lat="43.6812342" lon="12.8338866"><ele>187.75</ele><time>2026-04-26T14:41:40.921Z</time></trkpt><trkpt lat="43.6813687" lon="12.8338583"><ele>184.0</ele><time>2026-04-26T14:41:41.921Z</time></trkpt><trkpt lat="43.68151" lon="12.8338458"><ele>184.0</ele><time>2026-04-26T14:41:42.919Z</time></trkpt><trkpt lat="43.6816467" lon="12.8338237"><ele>184.0</ele><time>2026-04-26T14:41:43.92Z</time></trkpt><trkpt lat="43.6817816" lon="12.8337956"><ele>184.0</ele><time>2026-04-26T14:41:44.92Z</time></trkpt><trkpt lat="43.6819232" lon="12.8337675"><ele>184.0</ele><time>2026-04-26T14:41:45.92Z</time></trkpt><trkpt lat="43.6820608" lon="12.8337309"><ele>179.75</ele><time>2026-04-26T14:41:46.919Z</time></trkpt><trkpt lat="43.6821925" lon="12.8336984"><ele>175.5</ele><time>2026-04-26T14:41:47.92Z</time></trkpt><trkpt lat="43.6823158" lon="12.8336698"><ele>171.25</ele><time>2026-04-26T14:41:48.92Z</time></trkpt><trkpt lat="43.6824345" lon="12.8336401"><ele>167.0</ele><time>2026-04-26T14:41:49.919Z</time></trkpt><trkpt lat="43.6825543" lon="12.8336099"><ele>167.0</ele><time>2026-04-26T14:41:50.921Z</time></trkpt><trkpt lat="43.6826753" lon="12.8335587"><ele>167.0</ele><time>2026-04-26T14:41:51.92Z</time></trkpt><trkpt lat="43.6827835" lon="12.8334758"><ele>167.0</ele><time>2026-04-26T14:41:52.92Z</time></trkpt><trkpt lat="43.6828849" lon="12.8333857"><ele>167.0</ele><time>2026-04-26T14:41:53.92Z</time></trkpt><trkpt lat="43.6829859" lon="12.8332996"><ele>164.75</ele><time>2026-04-26T14:41:54.92Z</time></trkpt><trkpt lat="43.6830912" lon="12.8332245"><ele>162.5</ele><time>2026-04-26T14:41:55.919Z</time></trkpt><trkpt lat="43.6832066" lon="12.8331652"><ele>160.25</ele><time>2026-04-26T14:41:56.921Z</time></trkpt><trkpt lat="43.6833258" lon="12.8331144"><ele>158.0</ele><time>2026-04-26T14:41:57.92Z</time></trkpt><trkpt lat="43.6834407" lon="12.8330978"><ele>158.0</ele><time>2026-04-26T14:41:58.92Z</time></trkpt><trkpt lat="43.6835487" lon="12.8330762"><ele>158.0</ele><time>2026-04-26T14:41:59.92Z</time></trkpt><trkpt lat="43.683644" lon="12.8330086"><ele>158.0</ele><time>2026-04-26T14:42:00.92Z</time></trkpt><trkpt lat="43.6837328" lon="12.8329097"><ele>158.0</ele><time>2026-04-26T14:42:01.921Z</time></trkpt><trkpt lat="43.6838111" lon="12.8327818"><ele>155.0</ele><time>2026-04-26T14:42:02.919Z</time></trkpt><trkpt lat="43.6838761" lon="12.8326339"><ele>152.0</ele><time>2026-04-26T14:42:03.921Z</time></trkpt><trkpt lat="43.6839385" lon="12.8324831"><ele>149.0</ele><time>2026-04-26T14:42:04.92Z</time></trkpt><trkpt lat="43.683998" lon="12.8323343"><ele>146.0</ele><time>2026-04-26T14:42:05.919Z</time></trkpt><trkpt lat="43.6840532" lon="12.8321933"><ele>146.0</ele><time>2026-04-26T14:42:06.919Z</time></trkpt><trkpt lat="43.6841076" lon="12.8320494"><ele>146.0</ele><time>2026-04-26T14:42:07.919Z</time></trkpt><trkpt lat="43.6841787" lon="12.8319214"><ele>146.0</ele><time>2026-04-26T14:42:08.919Z</time></trkpt><trkpt lat="43.6842736" lon="12.8318016"><ele>146.0</ele><time>2026-04-26T14:42:09.921Z</time></trkpt><trkpt lat="43.6843788" lon="12.831683"><ele>141.5</ele><time>2026-04-26T14:42:10.92Z</time></trkpt><trkpt lat="43.6844895" lon="12.8315847"><ele>137.0</ele><time>2026-04-26T14:42:11.92Z</time></trkpt><trkpt lat="43.684597" lon="12.8315018"><ele>132.5</ele><time>2026-04-26T14:42:12.919Z</time></trkpt><trkpt lat="43.6847052" lon="12.831437"><ele>128.0</ele><time>2026-04-26T14:42:13.92Z</time></trkpt><trkpt lat="43.6848217" lon="12.8314073"><ele>128.0</ele><time>2026-04-26T14:42:14.92Z</time></trkpt><trkpt lat="43.6849441" lon="12.8314163"><ele>128.0</ele><time>2026-04-26T14:42:15.92Z</time></trkpt><trkpt lat="43.6850663" lon="12.8314227"><ele>128.0</ele><time>2026-04-26T14:42:16.92Z</time></trkpt><trkpt lat="43.6851879" lon="12.8314156"><ele>128.0</ele><time>2026-04-26T14:42:17.919Z</time></trkpt><trkpt lat="43.6853092" lon="12.8314072"><ele>126.5</ele><time>2026-04-26T14:42:18.921Z</time></trkpt><trkpt lat="43.6854325" lon="12.8313901"><ele>125.0</ele><time>2026-04-26T14:42:19.921Z</time></trkpt><trkpt lat="43.6855509" lon="12.8313536"><ele>123.5</ele><time>2026-04-26T14:42:20.921Z</time></trkpt><trkpt lat="43.6856687" lon="12.8312953"><ele>122.0</ele><time>2026-04-26T14:42:21.92Z</time></trkpt><trkpt lat="43.6857853" lon="12.8312234"><ele>122.0</ele><time>2026-04-26T14:42:22.92Z</time></trkpt><trkpt lat="43.6858977" lon="12.8311429"><ele>122.0</ele><time>2026-04-26T14:42:23.92Z</time></trkpt><trkpt lat="43.6860097" lon="12.8310703"><ele>122.0</ele><time>2026-04-26T14:42:24.92Z</time></trkpt><trkpt lat="43.6861282" lon="12.8310036"><ele>122.0</ele><time>2026-04-26T14:42:25.92Z</time></trkpt><trkpt lat="43.6862533" lon="12.8309494"><ele>120.75</ele><time>2026-04-26T14:42:26.919Z</time></trkpt><trkpt lat="43.6863794" lon="12.8309028"><ele>119.5</ele><time>2026-04-26T14:42:27.921Z</time></trkpt><trkpt lat="43.6865028" lon="12.8308525"><ele>118.25</ele><time>2026-04-26T14:42:28.921Z</time></trkpt><trkpt lat="43.6866259" lon="12.830812"><ele>117.0</ele><time>2026-04-26T14:42:29.92Z</time></trkpt><trkpt lat="43.6867535" lon="12.8307889"><ele>117.0</ele><time>2026-04-26T14:42:30.92Z</time></trkpt><trkpt lat="43.6868784" lon="12.8307809"><ele>117.0</ele><time>2026-04-26T14:42:31.919Z</time></trkpt><trkpt lat="43.687003" lon="12.8307826"><ele>117.0</ele><time>2026-04-26T14:42:32.921Z</time></trkpt><trkpt lat="43.6871237" lon="12.8307802"><ele>117.0</ele><time>2026-04-26T14:42:33.921Z</time></trkpt><trkpt lat="43.6872358" lon="12.830753"><ele>116.19999999999999</ele><time>2026-04-26T14:42:34.92Z</time></trkpt><trkpt lat="43.687339" lon="12.8306974"><ele>115.39999999999999</ele><time>2026-04-26T14:42:35.919Z</time></trkpt><trkpt lat="43.6874331" lon="12.8306219"><ele>114.60000000000001</ele><time>2026-04-26T14:42:36.92Z</time></trkpt><trkpt lat="43.6875162" lon="12.8305287"><ele>113.80000000000001</ele><time>2026-04-26T14:42:37.92Z</time></trkpt><trkpt lat="43.6875754" lon="12.8303981"><ele>113.0</ele><time>2026-04-26T14:42:38.92Z</time></trkpt><trkpt lat="43.6876212" lon="12.8302391"><ele>113.2</ele><time>2026-04-26T14:42:39.919Z</time></trkpt><trkpt lat="43.6876805" lon="12.8300993"><ele>113.4</ele><time>2026-04-26T14:42:40.92Z</time></trkpt><trkpt lat="43.6877582" lon="12.8299974"><ele>113.60000000000001</ele><time>2026-04-26T14:42:41.919Z</time></trkpt><trkpt lat="43.6878346" lon="12.8299265"><ele>113.80000000000001</ele><time>2026-04-26T14:42:42.919Z</time></trkpt><trkpt lat="43.6879265" lon="12.8298801"><ele>114.0</ele><time>2026-04-26T14:42:43.919Z</time></trkpt><trkpt lat="43.6880327" lon="12.829867"><ele>112.80000000000001</ele><time>2026-04-26T14:42:44.919Z</time></trkpt><trkpt lat="43.6881336" lon="12.8298577"><ele>111.60000000000001</ele><time>2026-04-26T14:42:45.921Z</time></trkpt><trkpt lat="43.6882293" lon="12.829838"><ele>110.4</ele><time>2026-04-26T14:42:46.92Z</time></trkpt><trkpt lat="43.6883154" lon="12.8298193"><ele>109.2</ele><time>2026-04-26T14:42:47.923Z</time></trkpt><trkpt lat="43.6883969" lon="12.8297921"><ele>108.0</ele><time>2026-04-26T14:42:48.92Z</time></trkpt><trkpt lat="43.6884803" lon="12.8297666"><ele>108.0</ele><time>2026-04-26T14:42:49.92Z</time></trkpt><trkpt lat="43.6885573" lon="12.8297465"><ele>108.0</ele><time>2026-04-26T14:42:50.921Z</time></trkpt><trkpt lat="43.6886235" lon="12.8297261"><ele>108.0</ele><time>2026-04-26T14:42:51.919Z</time></trkpt><trkpt lat="43.6886865" lon="12.8297065"><ele>108.0</ele><time>2026-04-26T14:42:52.921Z</time></trkpt><trkpt lat="43.6887573" lon="12.8296861"><ele>108.0</ele><time>2026-04-26T14:42:54.919Z</time></trkpt><trkpt lat="43.6888104" lon="12.8296171"><ele>108.0</ele><time>2026-04-26T14:43:13.92Z</time></trkpt><trkpt lat="43.6888258" lon="12.829522"><ele>108.0</ele><time>2026-04-26T14:43:14.923Z</time></trkpt><trkpt lat="43.6888334" lon="12.8293888"><ele>106.0</ele><time>2026-04-26T14:43:15.92Z</time></trkpt><trkpt lat="43.6888409" lon="12.8292551"><ele>104.0</ele><time>2026-04-26T14:43:16.922Z</time></trkpt><trkpt lat="43.6888524" lon="12.8291064"><ele>102.0</ele><time>2026-04-26T14:43:17.921Z</time></trkpt><trkpt lat="43.6888643" lon="12.8289388"><ele>100.0</ele><time>2026-04-26T14:43:18.92Z</time></trkpt><trkpt lat="43.6888745" lon="12.8287661"><ele>100.0</ele><time>2026-04-26T14:43:19.92Z</time></trkpt><trkpt lat="43.6888853" lon="12.8286146"><ele>100.0</ele><time>2026-04-26T14:43:20.92Z</time></trkpt><trkpt lat="43.688898" lon="12.8284722"><ele>100.0</ele><time>2026-04-26T14:43:21.92Z</time></trkpt><trkpt lat="43.6889161" lon="12.8283475"><ele>100.0</ele><time>2026-04-26T14:43:22.919Z</time></trkpt><trkpt lat="43.6889242" lon="12.8282416"><ele>100.0</ele><time>2026-04-26T14:43:23.919Z</time></trkpt><trkpt lat="43.6889356" lon="12.8281182"><ele>99.83333333333334</ele><time>2026-04-26T14:43:24.92Z</time></trkpt><trkpt lat="43.688951" lon="12.8280034"><ele>99.66666666666667</ele><time>2026-04-26T14:43:25.919Z</time></trkpt><trkpt lat="43.6889655" lon="12.8278903"><ele>99.5</ele><time>2026-04-26T14:43:26.92Z</time></trkpt><trkpt lat="43.6889881" lon="12.827783"><ele>99.33333333333334</ele><time>2026-04-26T14:43:27.92Z</time></trkpt><trkpt lat="43.6890185" lon="12.8276965"><ele>99.16666666666667</ele><time>2026-04-26T14:43:28.92Z</time></trkpt><trkpt lat="43.6890832" lon="12.8275552"><ele>99.0</ele><time>2026-04-26T14:43:30.921Z</time></trkpt><trkpt lat="43.6890892" lon="12.8274615"><ele>99.4</ele><time>2026-04-26T14:43:31.921Z</time></trkpt><trkpt lat="43.6890685" lon="12.8273575"><ele>99.80000000000001</ele><time>2026-04-26T14:43:32.92Z</time></trkpt><trkpt lat="43.6890429" lon="12.8272467"><ele>100.19999999999999</ele><time>2026-04-26T14:43:33.919Z</time></trkpt><trkpt lat="43.6890347" lon="12.8271204"><ele>100.6</ele><time>2026-04-26T14:43:34.919Z</time></trkpt><trkpt lat="43.6890482" lon="12.8269675"><ele>101.0</ele><time>2026-04-26T14:43:35.922Z</time></trkpt><trkpt lat="43.689066" lon="12.8268038"><ele>101.5</ele><time>2026-04-26T14:43:36.92Z</time></trkpt><trkpt lat="43.6890804" lon="12.8266242"><ele>102.0</ele><time>2026-04-26T14:43:37.919Z</time></trkpt><trkpt lat="43.6890912" lon="12.8264358"><ele>102.5</ele><time>2026-04-26T14:43:38.92Z</time></trkpt><trkpt lat="43.6890986" lon="12.8262509"><ele>103.0</ele><time>2026-04-26T14:43:39.92Z</time></trkpt><trkpt lat="43.6891037" lon="12.8260781"><ele>102.75</ele><time>2026-04-26T14:43:40.921Z</time></trkpt><trkpt lat="43.6890989" lon="12.8259008"><ele>102.5</ele><time>2026-04-26T14:43:41.92Z</time></trkpt><trkpt lat="43.6890862" lon="12.8257211"><ele>102.25</ele><time>2026-04-26T14:43:42.92Z</time></trkpt><trkpt lat="43.6890675" lon="12.8255402"><ele>102.0</ele><time>2026-04-26T14:43:43.922Z</time></trkpt><trkpt lat="43.6890449" lon="12.8253609"><ele>102.0</ele><time>2026-04-26T14:43:44.92Z</time></trkpt><trkpt lat="43.6890196" lon="12.8251794"><ele>102.0</ele><time>2026-04-26T14:43:45.92Z</time></trkpt><trkpt lat="43.6889955" lon="12.8249915"><ele>102.0</ele><time>2026-04-26T14:43:46.92Z</time></trkpt><trkpt lat="43.6889743" lon="12.8248006"><ele>102.0</ele><time>2026-04-26T14:43:47.92Z</time></trkpt><trkpt lat="43.688951" lon="12.8246156"><ele>101.5</ele><time>2026-04-26T14:43:48.92Z</time></trkpt><trkpt lat="43.6889245" lon="12.8244383"><ele>101.0</ele><time>2026-04-26T14:43:49.92Z</time></trkpt><trkpt lat="43.6888993" lon="12.8242604"><ele>100.5</ele><time>2026-04-26T14:43:50.92Z</time></trkpt><trkpt lat="43.6888754" lon="12.8240857"><ele>100.0</ele><time>2026-04-26T14:43:51.92Z</time></trkpt><trkpt lat="43.6888477" lon="12.823913"><ele>100.0</ele><time>2026-04-26T14:43:52.92Z</time></trkpt><trkpt lat="43.6888198" lon="12.8237337"><ele>100.0</ele><time>2026-04-26T14:43:53.921Z</time></trkpt><trkpt lat="43.6887956" lon="12.8235622"><ele>100.0</ele><time>2026-04-26T14:43:54.92Z</time></trkpt><trkpt lat="43.6887736" lon="12.82341"><ele>100.0</ele><time>2026-04-26T14:43:55.919Z</time></trkpt><trkpt lat="43.688753" lon="12.8232803"><ele>99.83333333333334</ele><time>2026-04-26T14:43:56.92Z</time></trkpt><trkpt lat="43.6887354" lon="12.8231772"><ele>99.66666666666667</ele><time>2026-04-26T14:43:57.92Z</time></trkpt><trkpt lat="43.6886782" lon="12.8230475"><ele>99.5</ele><time>2026-04-26T14:43:59.92Z</time></trkpt><trkpt lat="43.6886114" lon="12.8230328"><ele>99.33333333333334</ele><time>2026-04-26T14:44:00.92Z</time></trkpt><trkpt lat="43.6885302" lon="12.8230369"><ele>99.16666666666667</ele><time>2026-04-26T14:44:01.92Z</time></trkpt><trkpt lat="43.6884379" lon="12.8230448"><ele>99.0</ele><time>2026-04-26T14:44:02.919Z</time></trkpt><trkpt lat="43.6883396" lon="12.8230602"><ele>100.6</ele><time>2026-04-26T14:44:03.919Z</time></trkpt><trkpt lat="43.6882372" lon="12.8230824"><ele>102.2</ele><time>2026-04-26T14:44:04.92Z</time></trkpt><trkpt lat="43.6881461" lon="12.8231125"><ele>103.79999999999998</ele><time>2026-04-26T14:44:05.921Z</time></trkpt><trkpt lat="43.6880743" lon="12.8231458"><ele>105.39999999999999</ele><time>2026-04-26T14:44:06.92Z</time></trkpt><trkpt lat="43.6879614" lon="12.8232383"><ele>107.0</ele><time>2026-04-26T14:44:08.921Z</time></trkpt><trkpt lat="43.6878945" lon="12.8233123"><ele>107.0</ele><time>2026-04-26T14:44:09.921Z</time></trkpt><trkpt lat="43.6878306" lon="12.8234202"><ele>106.99999999999999</ele><time>2026-04-26T14:44:10.92Z</time></trkpt><trkpt lat="43.687779" lon="12.823569"><ele>106.99999999999999</ele><time>2026-04-26T14:44:11.921Z</time></trkpt><trkpt lat="43.68775" lon="12.8237275"><ele>107.0</ele><time>2026-04-26T14:44:12.919Z</time></trkpt><trkpt lat="43.6877328" lon="12.8238758"><ele>107.0</ele><time>2026-04-26T14:44:13.92Z</time></trkpt><trkpt lat="43.687695" lon="12.8240071"><ele>108.6</ele><time>2026-04-26T14:44:14.92Z</time></trkpt><trkpt lat="43.6876317" lon="12.824105"><ele>110.19999999999999</ele><time>2026-04-26T14:44:15.919Z</time></trkpt><trkpt lat="43.6875479" lon="12.824168"><ele>111.8</ele><time>2026-04-26T14:44:16.919Z</time></trkpt><trkpt lat="43.6874442" lon="12.8242116"><ele>113.4</ele><time>2026-04-26T14:44:17.92Z</time></trkpt><trkpt lat="43.6873266" lon="12.8242508"><ele>115.0</ele><time>2026-04-26T14:44:18.92Z</time></trkpt><trkpt lat="43.6872014" lon="12.8242936"><ele>114.5</ele><time>2026-04-26T14:44:19.92Z</time></trkpt><trkpt lat="43.6870815" lon="12.8243493"><ele>114.0</ele><time>2026-04-26T14:44:20.92Z</time></trkpt><trkpt lat="43.6869588" lon="12.824435"><ele>113.5</ele><time>2026-04-26T14:44:21.92Z</time></trkpt><trkpt lat="43.6868427" lon="12.8245626"><ele>113.0</ele><time>2026-04-26T14:44:22.919Z</time></trkpt><trkpt lat="43.6867254" lon="12.8247358"><ele>115.33333333333333</ele><time>2026-04-26T14:44:23.92Z</time></trkpt><trkpt lat="43.6866001" lon="12.8249307"><ele>117.66666666666666</ele><time>2026-04-26T14:44:24.92Z</time></trkpt><trkpt lat="43.6864712" lon="12.8251266"><ele>120.0</ele><time>2026-04-26T14:44:25.919Z</time></trkpt><trkpt lat="43.6863428" lon="12.8253207"><ele>120.0</ele><time>2026-04-26T14:44:26.921Z</time></trkpt><trkpt lat="43.6862247" lon="12.8254983"><ele>120.0</ele><time>2026-04-26T14:44:27.92Z</time></trkpt><trkpt lat="43.6861143" lon="12.8256546"><ele>120.0</ele><time>2026-04-26T14:44:28.92Z</time></trkpt><trkpt lat="43.6860043" lon="12.825784"><ele>121.5</ele><time>2026-04-26T14:44:29.919Z</time></trkpt><trkpt lat="43.6858869" lon="12.8258787"><ele>123.0</ele><time>2026-04-26T14:44:30.919Z</time></trkpt><trkpt lat="43.6857585" lon="12.8259469"><ele>124.5</ele><time>2026-04-26T14:44:31.92Z</time></trkpt><trkpt lat="43.6856298" lon="12.825987"><ele>126.0</ele><time>2026-04-26T14:44:32.92Z</time></trkpt><trkpt lat="43.6854782" lon="12.8259933"><ele>126.0</ele><time>2026-04-26T14:44:33.92Z</time></trkpt><trkpt lat="43.6853005" lon="12.8259803"><ele>126.0</ele><time>2026-04-26T14:44:34.92Z</time></trkpt><trkpt lat="43.6851113" lon="12.8259596"><ele>126.0</ele><time>2026-04-26T14:44:35.919Z</time></trkpt><trkpt lat="43.684919" lon="12.8259427"><ele>133.66666666666666</ele><time>2026-04-26T14:44:36.919Z</time></trkpt><trkpt lat="43.6847368" lon="12.8259325"><ele>141.33333333333331</ele><time>2026-04-26T14:44:37.92Z</time></trkpt><trkpt lat="43.6845626" lon="12.8259179"><ele>149.0</ele><time>2026-04-26T14:44:38.919Z</time></trkpt><trkpt lat="43.6843976" lon="12.8258975"><ele>149.0</ele><time>2026-04-26T14:44:39.92Z</time></trkpt><trkpt lat="43.6842379" lon="12.8258642"><ele>149.0</ele><time>2026-04-26T14:44:40.92Z</time></trkpt><trkpt lat="43.684086" lon="12.8258205"><ele>149.0</ele><time>2026-04-26T14:44:41.921Z</time></trkpt><trkpt lat="43.6839456" lon="12.8257686"><ele>149.0</ele><time>2026-04-26T14:44:42.92Z</time></trkpt><trkpt lat="43.6838286" lon="12.8257125"><ele>149.0</ele><time>2026-04-26T14:44:43.919Z</time></trkpt><trkpt lat="43.6837415" lon="12.8256529"><ele>149.0</ele><time>2026-04-26T14:44:44.92Z</time></trkpt><trkpt lat="43.6836772" lon="12.8255796"><ele>149.0</ele><time>2026-04-26T14:44:45.92Z</time></trkpt><trkpt lat="43.6836479" lon="12.8254936"><ele>149.0</ele><time>2026-04-26T14:44:46.919Z</time></trkpt><trkpt lat="43.6837208" lon="12.8253661"><ele>149.0</ele><time>2026-04-26T14:44:48.92Z</time></trkpt><trkpt lat="43.6838067" lon="12.8253593"><ele>149.0</ele><time>2026-04-26T14:44:49.919Z</time></trkpt><trkpt lat="43.6839029" lon="12.8253685"><ele>149.0</ele><time>2026-04-26T14:44:50.921Z</time></trkpt><trkpt lat="43.6840205" lon="12.8253961"><ele>149.0</ele><time>2026-04-26T14:44:51.921Z</time></trkpt><trkpt lat="43.6841409" lon="12.8254249"><ele>149.0</ele><time>2026-04-26T14:44:52.92Z</time></trkpt><trkpt lat="43.6842533" lon="12.8254494"><ele>149.0</ele><time>2026-04-26T14:44:53.921Z</time></trkpt><trkpt lat="43.6843668" lon="12.8254851"><ele>149.0</ele><time>2026-04-26T14:44:54.92Z</time></trkpt><trkpt lat="43.6844792" lon="12.8255018"><ele>149.0</ele><time>2026-04-26T14:44:55.921Z</time></trkpt><trkpt lat="43.6845936" lon="12.8254928"><ele>149.0</ele><time>2026-04-26T14:44:56.919Z</time></trkpt><trkpt lat="43.6847141" lon="12.8254764"><ele>149.5</ele><time>2026-04-26T14:44:57.919Z</time></trkpt><trkpt lat="43.6848482" lon="12.8254499"><ele>150.0</ele><time>2026-04-26T14:44:58.919Z</time></trkpt><trkpt lat="43.6849898" lon="12.8254194"><ele>150.5</ele><time>2026-04-26T14:44:59.921Z</time></trkpt><trkpt lat="43.6851243" lon="12.8253871"><ele>151.0</ele><time>2026-04-26T14:45:00.92Z</time></trkpt><trkpt lat="43.685245" lon="12.8253645"><ele>152.0</ele><time>2026-04-26T14:45:01.92Z</time></trkpt><trkpt lat="43.6853599" lon="12.8253283"><ele>153.0</ele><time>2026-04-26T14:45:02.919Z</time></trkpt><trkpt lat="43.6854697" lon="12.8252551"><ele>154.0</ele><time>2026-04-26T14:45:03.921Z</time></trkpt><trkpt lat="43.6855635" lon="12.8251664"><ele>155.0</ele><time>2026-04-26T14:45:04.92Z</time></trkpt><trkpt lat="43.68563" lon="12.8250385"><ele>155.0</ele><time>2026-04-26T14:45:05.92Z</time></trkpt><trkpt lat="43.6856871" lon="12.8249057"><ele>155.0</ele><time>2026-04-26T14:45:06.919Z</time></trkpt><trkpt lat="43.6857433" lon="12.8247831"><ele>155.0</ele><time>2026-04-26T14:45:07.92Z</time></trkpt><trkpt lat="43.6858031" lon="12.8246613"><ele>155.0</ele><time>2026-04-26T14:45:08.919Z</time></trkpt><trkpt lat="43.685869" lon="12.8245316"><ele>155.0</ele><time>2026-04-26T14:45:09.92Z</time></trkpt><trkpt lat="43.685941" lon="12.8244087"><ele>152.0</ele><time>2026-04-26T14:45:10.92Z</time></trkpt><trkpt lat="43.6860084" lon="12.8242925"><ele>149.0</ele><time>2026-04-26T14:45:11.921Z</time></trkpt><trkpt lat="43.6860679" lon="12.8241738"><ele>146.0</ele><time>2026-04-26T14:45:12.92Z</time></trkpt><trkpt lat="43.6861275" lon="12.824065"><ele>143.0</ele><time>2026-04-26T14:45:13.92Z</time></trkpt><trkpt lat="43.6861725" lon="12.8239311"><ele>140.0</ele><time>2026-04-26T14:45:15.921Z</time></trkpt><trkpt lat="43.6861851" lon="12.8238378"><ele>140.0</ele><time>2026-04-26T14:45:16.92Z</time></trkpt><trkpt lat="43.6861693" lon="12.8237523"><ele>140.0</ele><time>2026-04-26T14:45:17.919Z</time></trkpt><trkpt lat="43.6861219" lon="12.8236944"><ele>140.0</ele><time>2026-04-26T14:45:18.922Z</time></trkpt><trkpt lat="43.6860598" lon="12.8236791"><ele>140.0</ele><time>2026-04-26T14:45:19.92Z</time></trkpt><trkpt lat="43.6859937" lon="12.8237243"><ele>140.0</ele><time>2026-04-26T14:45:20.92Z</time></trkpt><trkpt lat="43.6859218" lon="12.8238312"><ele>140.0</ele><time>2026-04-26T14:45:21.92Z</time></trkpt><trkpt lat="43.6858416" lon="12.8239797"><ele>145.0</ele><time>2026-04-26T14:45:22.919Z</time></trkpt><trkpt lat="43.6857382" lon="12.8241476"><ele>150.0</ele><time>2026-04-26T14:45:23.919Z</time></trkpt><trkpt lat="43.6856252" lon="12.8243041"><ele>155.0</ele><time>2026-04-26T14:45:24.92Z</time></trkpt><trkpt lat="43.6855225" lon="12.824455"><ele>155.0</ele><time>2026-04-26T14:45:25.921Z</time></trkpt><trkpt lat="43.6854408" lon="12.8245947"><ele>155.0</ele><time>2026-04-26T14:45:26.92Z</time></trkpt><trkpt lat="43.6853704" lon="12.8247092"><ele>155.0</ele><time>2026-04-26T14:45:27.919Z</time></trkpt><trkpt lat="43.6852984" lon="12.8247904"><ele>155.0</ele><time>2026-04-26T14:45:28.92Z</time></trkpt><trkpt lat="43.6852236" lon="12.8248511"><ele>155.0</ele><time>2026-04-26T14:45:29.92Z</time></trkpt><trkpt lat="43.6851656" lon="12.8248885"><ele>158.6</ele><time>2026-04-26T14:45:30.92Z</time></trkpt><trkpt lat="43.6851085" lon="12.8248049"><ele>162.2</ele><time>2026-04-26T14:45:31.92Z</time></trkpt><trkpt lat="43.6850839" lon="12.8246815"><ele>165.8</ele><time>2026-04-26T14:45:32.92Z</time></trkpt><trkpt lat="43.6850828" lon="12.8245466"><ele>169.4</ele><time>2026-04-26T14:45:33.92Z</time></trkpt><trkpt lat="43.68514" lon="12.8244007"><ele>173.0</ele><time>2026-04-26T14:45:34.919Z</time></trkpt><trkpt lat="43.6853385" lon="12.8242105"><ele>173.0</ele><time>2026-04-26T14:45:35.92Z</time></trkpt><trkpt lat="43.6854694" lon="12.8240647"><ele>173.0</ele><time>2026-04-26T14:45:36.92Z</time></trkpt><trkpt lat="43.6855409" lon="12.8239398"><ele>173.0</ele><time>2026-04-26T14:45:37.92Z</time></trkpt><trkpt lat="43.6855616" lon="12.8238294"><ele>173.0</ele><time>2026-04-26T14:45:38.92Z</time></trkpt><trkpt lat="43.6855387" lon="12.8237302"><ele>173.0</ele><time>2026-04-26T14:45:39.92Z</time></trkpt><trkpt lat="43.6855148" lon="12.8236478"><ele>173.0</ele><time>2026-04-26T14:45:40.92Z</time></trkpt><trkpt lat="43.6854164" lon="12.8236746"><ele>173.0</ele><time>2026-04-26T14:45:42.921Z</time></trkpt><trkpt lat="43.6853089" lon="12.8237987"><ele>173.0</ele><time>2026-04-26T14:45:43.92Z</time></trkpt><trkpt lat="43.6852176" lon="12.8240332"><ele>173.0</ele><time>2026-04-26T14:45:44.92Z</time></trkpt><trkpt lat="43.6851216" lon="12.824199"><ele>174.0</ele><time>2026-04-26T14:45:45.92Z</time></trkpt><trkpt lat="43.6850335" lon="12.824334"><ele>175.0</ele><time>2026-04-26T14:45:46.921Z</time></trkpt><trkpt lat="43.6849518" lon="12.8244362"><ele>176.0</ele><time>2026-04-26T14:45:47.919Z</time></trkpt><trkpt lat="43.6848603" lon="12.8244914"><ele>177.0</ele><time>2026-04-26T14:45:48.92Z</time></trkpt><trkpt lat="43.684761" lon="12.8244888"><ele>178.0</ele><time>2026-04-26T14:45:49.92Z</time></trkpt><trkpt lat="43.6846633" lon="12.8244428"><ele>178.0</ele><time>2026-04-26T14:45:50.919Z</time></trkpt><trkpt lat="43.6845715" lon="12.8243767"><ele>178.0</ele><time>2026-04-26T14:45:51.921Z</time></trkpt><trkpt lat="43.6844685" lon="12.8242963"><ele>178.0</ele><time>2026-04-26T14:45:52.92Z</time></trkpt><trkpt lat="43.6843614" lon="12.8242177"><ele>178.0</ele><time>2026-04-26T14:45:53.92Z</time></trkpt><trkpt lat="43.684251" lon="12.8241466"><ele>185.25</ele><time>2026-04-26T14:45:54.92Z</time></trkpt><trkpt lat="43.6841326" lon="12.8240809"><ele>192.5</ele><time>2026-04-26T14:45:55.922Z</time></trkpt><trkpt lat="43.6840057" lon="12.8240177"><ele>199.75</ele><time>2026-04-26T14:45:56.921Z</time></trkpt><trkpt lat="43.6838796" lon="12.8239673"><ele>207.0</ele><time>2026-04-26T14:45:57.921Z</time></trkpt><trkpt lat="43.6837558" lon="12.8239362"><ele>207.0</ele><time>2026-04-26T14:45:58.92Z</time></trkpt><trkpt lat="43.6836281" lon="12.8239065"><ele>207.0</ele><time>2026-04-26T14:45:59.92Z</time></trkpt><trkpt lat="43.6834918" lon="12.8238761"><ele>207.0</ele><time>2026-04-26T14:46:00.92Z</time></trkpt><trkpt lat="43.6833587" lon="12.8238551"><ele>207.0</ele><time>2026-04-26T14:46:01.919Z</time></trkpt><trkpt lat="43.6832273" lon="12.8238471"><ele>206.25</ele><time>2026-04-26T14:46:02.92Z</time></trkpt><trkpt lat="43.6830944" lon="12.8238482"><ele>205.5</ele><time>2026-04-26T14:46:03.92Z</time></trkpt><trkpt lat="43.6829569" lon="12.8238622"><ele>204.75</ele><time>2026-04-26T14:46:04.92Z</time></trkpt><trkpt lat="43.682821" lon="12.823892"><ele>204.0</ele><time>2026-04-26T14:46:05.92Z</time></trkpt><trkpt lat="43.6826905" lon="12.8239358"><ele>206.0</ele><time>2026-04-26T14:46:06.921Z</time></trkpt><trkpt lat="43.6825627" lon="12.8239978"><ele>208.0</ele><time>2026-04-26T14:46:07.919Z</time></trkpt><trkpt lat="43.6824348" lon="12.8240632"><ele>210.0</ele><time>2026-04-26T14:46:08.922Z</time></trkpt><trkpt lat="43.6823162" lon="12.82412"><ele>212.0</ele><time>2026-04-26T14:46:09.92Z</time></trkpt><trkpt lat="43.6821928" lon="12.8241663"><ele>212.0</ele><time>2026-04-26T14:46:10.921Z</time></trkpt><trkpt lat="43.6820727" lon="12.8242142"><ele>212.0</ele><time>2026-04-26T14:46:11.92Z</time></trkpt><trkpt lat="43.681951" lon="12.8242652"><ele>212.0</ele><time>2026-04-26T14:46:12.922Z</time></trkpt><trkpt lat="43.6818264" lon="12.824308"><ele>212.0</ele><time>2026-04-26T14:46:13.921Z</time></trkpt><trkpt lat="43.6816995" lon="12.8243364"><ele>208.75</ele><time>2026-04-26T14:46:14.92Z</time></trkpt><trkpt lat="43.6815695" lon="12.8243469"><ele>205.5</ele><time>2026-04-26T14:46:15.921Z</time></trkpt><trkpt lat="43.6814412" lon="12.8243577"><ele>202.25</ele><time>2026-04-26T14:46:16.919Z</time></trkpt><trkpt lat="43.6813165" lon="12.8243658"><ele>199.0</ele><time>2026-04-26T14:46:17.92Z</time></trkpt><trkpt lat="43.6811938" lon="12.8243798"><ele>202.0</ele><time>2026-04-26T14:46:18.92Z</time></trkpt><trkpt lat="43.6810681" lon="12.8243967"><ele>205.0</ele><time>2026-04-26T14:46:19.921Z</time></trkpt><trkpt lat="43.6809451" lon="12.8244118"><ele>208.0</ele><time>2026-04-26T14:46:20.92Z</time></trkpt><trkpt lat="43.6808335" lon="12.8244286"><ele>211.0</ele><time>2026-04-26T14:46:21.921Z</time></trkpt><trkpt lat="43.6807414" lon="12.8244494"><ele>211.0</ele><time>2026-04-26T14:46:22.92Z</time></trkpt><trkpt lat="43.680671" lon="12.8244873"><ele>211.0</ele><time>2026-04-26T14:46:23.921Z</time></trkpt><trkpt lat="43.680607" lon="12.8245235"><ele>211.0</ele><time>2026-04-26T14:46:24.919Z</time></trkpt><trkpt lat="43.6805378" lon="12.8245492"><ele>211.0</ele><time>2026-04-26T14:46:25.921Z</time></trkpt><trkpt lat="43.6804609" lon="12.824533"><ele>211.0</ele><time>2026-04-26T14:46:26.92Z</time></trkpt><trkpt lat="43.6804067" lon="12.8244667"><ele>211.0</ele><time>2026-04-26T14:46:27.92Z</time></trkpt><trkpt lat="43.6803864" lon="12.8243722"><ele>211.0</ele><time>2026-04-26T14:46:28.92Z</time></trkpt><trkpt lat="43.6804089" lon="12.824283"><ele>216.60000000000002</ele><time>2026-04-26T14:46:29.921Z</time></trkpt><trkpt lat="43.6804577" lon="12.8242259"><ele>222.2</ele><time>2026-04-26T14:46:30.92Z</time></trkpt><trkpt lat="43.6805166" lon="12.8241812"><ele>227.79999999999998</ele><time>2026-04-26T14:46:31.92Z</time></trkpt><trkpt lat="43.6806014" lon="12.8241734"><ele>233.39999999999998</ele><time>2026-04-26T14:46:32.92Z</time></trkpt><trkpt lat="43.6807299" lon="12.8241687"><ele>239.0</ele><time>2026-04-26T14:46:33.92Z</time></trkpt><trkpt lat="43.6808709" lon="12.8241164"><ele>239.0</ele><time>2026-04-26T14:46:34.921Z</time></trkpt><trkpt lat="43.6810347" lon="12.8240364"><ele>239.0</ele><time>2026-04-26T14:46:35.921Z</time></trkpt><trkpt lat="43.6812283" lon="12.8239521"><ele>239.0</ele><time>2026-04-26T14:46:36.92Z</time></trkpt><trkpt lat="43.6814252" lon="12.8238517"><ele>236.33333333333334</ele><time>2026-04-26T14:46:37.92Z</time></trkpt><trkpt lat="43.6816155" lon="12.8237616"><ele>233.66666666666669</ele><time>2026-04-26T14:46:38.92Z</time></trkpt><trkpt lat="43.6818112" lon="12.8236619"><ele>231.0</ele><time>2026-04-26T14:46:39.92Z</time></trkpt><trkpt lat="43.682001" lon="12.8235764"><ele>236.33333333333331</ele><time>2026-04-26T14:46:40.92Z</time></trkpt><trkpt lat="43.6821813" lon="12.8234788"><ele>241.66666666666666</ele><time>2026-04-26T14:46:41.921Z</time></trkpt><trkpt lat="43.6823554" lon="12.823392"><ele>247.0</ele><time>2026-04-26T14:46:42.921Z</time></trkpt><trkpt lat="43.682522" lon="12.8233124"><ele>247.0</ele><time>2026-04-26T14:46:43.919Z</time></trkpt><trkpt lat="43.6826869" lon="12.8232377"><ele>247.0</ele><time>2026-04-26T14:46:44.92Z</time></trkpt><trkpt lat="43.6828591" lon="12.8231599"><ele>247.0</ele><time>2026-04-26T14:46:45.92Z</time></trkpt><trkpt lat="43.6830202" lon="12.823094"><ele>245.0</ele><time>2026-04-26T14:46:46.919Z</time></trkpt><trkpt lat="43.6831713" lon="12.8230297"><ele>243.0</ele><time>2026-04-26T14:46:47.919Z</time></trkpt><trkpt lat="43.683322" lon="12.822965"><ele>241.0</ele><time>2026-04-26T14:46:48.92Z</time></trkpt><trkpt lat="43.6834566" lon="12.822912"><ele>241.0</ele><time>2026-04-26T14:46:49.92Z</time></trkpt><trkpt lat="43.6835711" lon="12.8228642"><ele>241.00000000000003</ele><time>2026-04-26T14:46:50.921Z</time></trkpt><trkpt lat="43.683665" lon="12.822814"><ele>241.00000000000003</ele><time>2026-04-26T14:46:51.92Z</time></trkpt><trkpt lat="43.6837397" lon="12.8227281"><ele>241.0</ele><time>2026-04-26T14:46:52.921Z</time></trkpt><trkpt lat="43.6837726" lon="12.8226188"><ele>241.0</ele><time>2026-04-26T14:46:53.919Z</time></trkpt><trkpt lat="43.6837645" lon="12.8224953"><ele>240.25</ele><time>2026-04-26T14:46:54.92Z</time></trkpt><trkpt lat="43.6837046" lon="12.8223662"><ele>239.5</ele><time>2026-04-26T14:46:55.921Z</time></trkpt><trkpt lat="43.6836067" lon="12.8222348"><ele>238.75</ele><time>2026-04-26T14:46:56.919Z</time></trkpt><trkpt lat="43.6834875" lon="12.822085"><ele>238.0</ele><time>2026-04-26T14:46:57.92Z</time></trkpt><trkpt lat="43.683363" lon="12.8219131"><ele>244.0</ele><time>2026-04-26T14:46:58.921Z</time></trkpt><trkpt lat="43.6832327" lon="12.8217304"><ele>250.0</ele><time>2026-04-26T14:46:59.921Z</time></trkpt><trkpt lat="43.6831095" lon="12.8215386"><ele>256.0</ele><time>2026-04-26T14:47:00.921Z</time></trkpt><trkpt lat="43.6829859" lon="12.8213472"><ele>256.0</ele><time>2026-04-26T14:47:01.921Z</time></trkpt><trkpt lat="43.6828718" lon="12.8211595"><ele>256.0</ele><time>2026-04-26T14:47:02.92Z</time></trkpt><trkpt lat="43.6827718" lon="12.8209741"><ele>256.0</ele><time>2026-04-26T14:47:03.921Z</time></trkpt><trkpt lat="43.6826754" lon="12.8207867"><ele>261.66666666666663</ele><time>2026-04-26T14:47:04.92Z</time></trkpt><trkpt lat="43.6825744" lon="12.8206097"><ele>267.3333333333333</ele><time>2026-04-26T14:47:05.919Z</time></trkpt><trkpt lat="43.6824806" lon="12.8204397"><ele>273.0</ele><time>2026-04-26T14:47:06.92Z</time></trkpt><trkpt lat="43.6823753" lon="12.820284"><ele>268.5</ele><time>2026-04-26T14:47:07.919Z</time></trkpt><trkpt lat="43.6822647" lon="12.8201426"><ele>264.0</ele><time>2026-04-26T14:47:08.921Z</time></trkpt><trkpt lat="43.6821667" lon="12.8200138"><ele>259.5</ele><time>2026-04-26T14:47:09.921Z</time></trkpt><trkpt lat="43.6820686" lon="12.8199014"><ele>255.0</ele><time>2026-04-26T14:47:10.919Z</time></trkpt><trkpt lat="43.6819707" lon="12.8197972"><ele>264.75</ele><time>2026-04-26T14:47:11.922Z</time></trkpt><trkpt lat="43.6818828" lon="12.8196889"><ele>274.5</ele><time>2026-04-26T14:47:12.92Z</time></trkpt><trkpt lat="43.6817908" lon="12.8195959"><ele>284.25</ele><time>2026-04-26T14:47:13.92Z</time></trkpt><trkpt lat="43.6816972" lon="12.8195015"><ele>294.0</ele><time>2026-04-26T14:47:14.92Z</time></trkpt><trkpt lat="43.6816103" lon="12.8194081"><ele>287.5</ele><time>2026-04-26T14:47:15.921Z</time></trkpt><trkpt lat="43.6815225" lon="12.8193109"><ele>281.0</ele><time>2026-04-26T14:47:16.921Z</time></trkpt><trkpt lat="43.6814316" lon="12.8192107"><ele>274.5</ele><time>2026-04-26T14:47:17.921Z</time></trkpt><trkpt lat="43.6813319" lon="12.8191058"><ele>268.0</ele><time>2026-04-26T14:47:18.92Z</time></trkpt><trkpt lat="43.6812345" lon="12.8190029"><ele>268.0</ele><time>2026-04-26T14:47:19.921Z</time></trkpt><trkpt lat="43.6811364" lon="12.8188992"><ele>268.0</ele><time>2026-04-26T14:47:20.92Z</time></trkpt><trkpt lat="43.6810328" lon="12.8187987"><ele>268.0</ele><time>2026-04-26T14:47:21.921Z</time></trkpt><trkpt lat="43.6809276" lon="12.8186943"><ele>268.0</ele><time>2026-04-26T14:47:22.921Z</time></trkpt><trkpt lat="43.6808263" lon="12.8185644"><ele>271.25</ele><time>2026-04-26T14:47:23.919Z</time></trkpt><trkpt lat="43.6807186" lon="12.8184342"><ele>274.5</ele><time>2026-04-26T14:47:24.92Z</time></trkpt><trkpt lat="43.6806101" lon="12.8183157"><ele>277.75</ele><time>2026-04-26T14:47:25.92Z</time></trkpt><trkpt lat="43.6805" lon="12.8182022"><ele>281.0</ele><time>2026-04-26T14:47:26.92Z</time></trkpt><trkpt lat="43.6803991" lon="12.8180875"><ele>281.0</ele><time>2026-04-26T14:47:27.919Z</time></trkpt><trkpt lat="43.680299" lon="12.81797"><ele>281.0</ele><time>2026-04-26T14:47:28.924Z</time></trkpt><trkpt lat="43.680208" lon="12.817863"><ele>281.0</ele><time>2026-04-26T14:47:29.919Z</time></trkpt><trkpt lat="43.6801055" lon="12.8177621"><ele>281.0</ele><time>2026-04-26T14:47:30.92Z</time></trkpt><trkpt lat="43.680013" lon="12.8176535"><ele>283.5</ele><time>2026-04-26T14:47:31.921Z</time></trkpt><trkpt lat="43.6799151" lon="12.8175524"><ele>286.0</ele><time>2026-04-26T14:47:32.919Z</time></trkpt><trkpt lat="43.6798152" lon="12.817447"><ele>288.5</ele><time>2026-04-26T14:47:33.921Z</time></trkpt><trkpt lat="43.6797198" lon="12.8173294"><ele>291.0</ele><time>2026-04-26T14:47:34.92Z</time></trkpt><trkpt lat="43.679629" lon="12.8172199"><ele>291.0</ele><time>2026-04-26T14:47:35.92Z</time></trkpt><trkpt lat="43.6795306" lon="12.8171153"><ele>291.0</ele><time>2026-04-26T14:47:36.92Z</time></trkpt><trkpt lat="43.6794471" lon="12.8169985"><ele>291.0</ele><time>2026-04-26T14:47:37.92Z</time></trkpt><trkpt lat="43.6793532" lon="12.8168983"><ele>291.0</ele><time>2026-04-26T14:47:38.92Z</time></trkpt><trkpt lat="43.6792599" lon="12.81679"><ele>294.0</ele><time>2026-04-26T14:47:39.922Z</time></trkpt><trkpt lat="43.6791712" lon="12.8166836"><ele>297.0</ele><time>2026-04-26T14:47:40.922Z</time></trkpt><trkpt lat="43.6790876" lon="12.8165733"><ele>300.0</ele><time>2026-04-26T14:47:41.92Z</time></trkpt><trkpt lat="43.6790084" lon="12.8164525"><ele>303.0</ele><time>2026-04-26T14:47:42.921Z</time></trkpt><trkpt lat="43.6789371" lon="12.8163343"><ele>303.0</ele><time>2026-04-26T14:47:43.92Z</time></trkpt><trkpt lat="43.6788709" lon="12.8162145"><ele>303.0</ele><time>2026-04-26T14:47:44.919Z</time></trkpt><trkpt lat="43.6788066" lon="12.816092"><ele>303.0</ele><time>2026-04-26T14:47:45.921Z</time></trkpt><trkpt lat="43.678747" lon="12.8159618"><ele>303.0</ele><time>2026-04-26T14:47:46.921Z</time></trkpt><trkpt lat="43.6786939" lon="12.8158257"><ele>303.0</ele><time>2026-04-26T14:47:47.92Z</time></trkpt><trkpt lat="43.6786427" lon="12.8156849"><ele>304.5</ele><time>2026-04-26T14:47:48.92Z</time></trkpt><trkpt lat="43.6785937" lon="12.8155419"><ele>306.0</ele><time>2026-04-26T14:47:49.919Z</time></trkpt><trkpt lat="43.6785447" lon="12.815401"><ele>307.5</ele><time>2026-04-26T14:47:50.919Z</time></trkpt><trkpt lat="43.678496" lon="12.8152577"><ele>309.0</ele><time>2026-04-26T14:47:51.92Z</time></trkpt><trkpt lat="43.6784474" lon="12.815111"><ele>309.0</ele><time>2026-04-26T14:47:52.92Z</time></trkpt><trkpt lat="43.6783959" lon="12.8149622"><ele>309.0</ele><time>2026-04-26T14:47:53.919Z</time></trkpt><trkpt lat="43.6783415" lon="12.8148159"><ele>309.0</ele><time>2026-04-26T14:47:54.92Z</time></trkpt><trkpt lat="43.6782864" lon="12.8146666"><ele>309.0</ele><time>2026-04-26T14:47:55.92Z</time></trkpt><trkpt lat="43.6782322" lon="12.8145285"><ele>309.0</ele><time>2026-04-26T14:47:56.92Z</time></trkpt><trkpt lat="43.6781807" lon="12.8143851"><ele>309.0</ele><time>2026-04-26T14:47:57.92Z</time></trkpt><trkpt lat="43.6781337" lon="12.8142493"><ele>309.0</ele><time>2026-04-26T14:47:58.919Z</time></trkpt><trkpt lat="43.6780787" lon="12.8141159"><ele>309.0</ele><time>2026-04-26T14:47:59.92Z</time></trkpt><trkpt lat="43.6780182" lon="12.8139881"><ele>309.0</ele><time>2026-04-26T14:48:00.92Z</time></trkpt><trkpt lat="43.6779506" lon="12.8138672"><ele>307.75</ele><time>2026-04-26T14:48:01.919Z</time></trkpt><trkpt lat="43.6778814" lon="12.8137399"><ele>306.5</ele><time>2026-04-26T14:48:02.92Z</time></trkpt><trkpt lat="43.6778044" lon="12.8136232"><ele>305.25</ele><time>2026-04-26T14:48:03.919Z</time></trkpt><trkpt lat="43.677723" lon="12.8135022"><ele>304.0</ele><time>2026-04-26T14:48:04.919Z</time></trkpt><trkpt lat="43.6776492" lon="12.8133761"><ele>308.75</ele><time>2026-04-26T14:48:05.92Z</time></trkpt><trkpt lat="43.6775796" lon="12.8132461"><ele>313.5</ele><time>2026-04-26T14:48:06.92Z</time></trkpt><trkpt lat="43.6775146" lon="12.8131125"><ele>318.25</ele><time>2026-04-26T14:48:07.921Z</time></trkpt><trkpt lat="43.6774562" lon="12.8129761"><ele>323.0</ele><time>2026-04-26T14:48:08.919Z</time></trkpt><trkpt lat="43.6774033" lon="12.8128393"><ele>323.0</ele><time>2026-04-26T14:48:09.92Z</time></trkpt><trkpt lat="43.6773554" lon="12.8126999"><ele>323.0</ele><time>2026-04-26T14:48:10.92Z</time></trkpt><trkpt lat="43.6773112" lon="12.8125593"><ele>323.0</ele><time>2026-04-26T14:48:11.919Z</time></trkpt><trkpt lat="43.6772785" lon="12.8124171"><ele>323.0</ele><time>2026-04-26T14:48:12.922Z</time></trkpt><trkpt lat="43.6772515" lon="12.8122717"><ele>323.0</ele><time>2026-04-26T14:48:13.919Z</time></trkpt><trkpt lat="43.6772293" lon="12.8121296"><ele>322.2</ele><time>2026-04-26T14:48:14.921Z</time></trkpt><trkpt lat="43.6772161" lon="12.8119919"><ele>321.4</ele><time>2026-04-26T14:48:15.92Z</time></trkpt><trkpt lat="43.6772235" lon="12.8118411"><ele>320.59999999999997</ele><time>2026-04-26T14:48:16.921Z</time></trkpt><trkpt lat="43.6772285" lon="12.8116918"><ele>319.79999999999995</ele><time>2026-04-26T14:48:17.92Z</time></trkpt><trkpt lat="43.6772937" lon="12.8115572"><ele>319.0</ele><time>2026-04-26T14:48:18.919Z</time></trkpt><trkpt lat="43.6773485" lon="12.8114308"><ele>318.8</ele><time>2026-04-26T14:48:19.921Z</time></trkpt><trkpt lat="43.6774233" lon="12.8113152"><ele>318.59999999999997</ele><time>2026-04-26T14:48:20.92Z</time></trkpt><trkpt lat="43.6774982" lon="12.8112097"><ele>318.4</ele><time>2026-04-26T14:48:21.92Z</time></trkpt><trkpt lat="43.6775835" lon="12.8111214"><ele>318.2</ele><time>2026-04-26T14:48:22.92Z</time></trkpt><trkpt lat="43.6776765" lon="12.8110449"><ele>318.0</ele><time>2026-04-26T14:48:23.921Z</time></trkpt><trkpt lat="43.6777693" lon="12.8109754"><ele>318.0</ele><time>2026-04-26T14:48:24.92Z</time></trkpt><trkpt lat="43.6778624" lon="12.8109073"><ele>318.0</ele><time>2026-04-26T14:48:25.92Z</time></trkpt><trkpt lat="43.6779555" lon="12.8108442"><ele>318.0</ele><time>2026-04-26T14:48:26.92Z</time></trkpt><trkpt lat="43.6780467" lon="12.8107776"><ele>318.0</ele><time>2026-04-26T14:48:27.92Z</time></trkpt><trkpt lat="43.6781431" lon="12.8107084"><ele>318.0</ele><time>2026-04-26T14:48:28.919Z</time></trkpt><trkpt lat="43.6782381" lon="12.8106332"><ele>318.0</ele><time>2026-04-26T14:48:29.92Z</time></trkpt><trkpt lat="43.6783358" lon="12.810561"><ele>318.0</ele><time>2026-04-26T14:48:30.92Z</time></trkpt><trkpt lat="43.6784317" lon="12.810493"><ele>318.0</ele><time>2026-04-26T14:48:31.921Z</time></trkpt><trkpt lat="43.6785281" lon="12.8104264"><ele>318.0</ele><time>2026-04-26T14:48:32.919Z</time></trkpt><trkpt lat="43.6786167" lon="12.8103599"><ele>318.0</ele><time>2026-04-26T14:48:33.92Z</time></trkpt><trkpt lat="43.6787018" lon="12.8103048"><ele>318.8333333333333</ele><time>2026-04-26T14:48:34.92Z</time></trkpt><trkpt lat="43.6787795" lon="12.8102537"><ele>319.6666666666667</ele><time>2026-04-26T14:48:35.92Z</time></trkpt><trkpt lat="43.6788425" lon="12.8102125"><ele>320.5</ele><time>2026-04-26T14:48:36.921Z</time></trkpt><trkpt lat="43.6789215" lon="12.8101369"><ele>321.33333333333337</ele><time>2026-04-26T14:48:38.921Z</time></trkpt><trkpt lat="43.6789812" lon="12.8100773"><ele>322.1666666666667</ele><time>2026-04-26T14:48:40.92Z</time></trkpt><trkpt lat="43.6790548" lon="12.8099929"><ele>323.0</ele><time>2026-04-26T14:48:42.923Z</time></trkpt><trkpt lat="43.6791354" lon="12.8099037"><ele>324.0</ele><time>2026-04-26T14:48:44.92Z</time></trkpt><trkpt lat="43.6791822" lon="12.8097755"><ele>325.0</ele><time>2026-04-26T14:48:46.92Z</time></trkpt><trkpt lat="43.6791776" lon="12.8096306"><ele>326.0</ele><time>2026-04-26T14:48:48.921Z</time></trkpt><trkpt lat="43.6791478" lon="12.809494"><ele>327.0</ele><time>2026-04-26T14:48:50.92Z</time></trkpt><trkpt lat="43.6791108" lon="12.8093865"><ele>328.0</ele><time>2026-04-26T14:48:52.92Z</time></trkpt><trkpt lat="43.6790787" lon="12.8092883"><ele>328.66666666666663</ele><time>2026-04-26T14:48:54.92Z</time></trkpt><trkpt lat="43.6790351" lon="12.8091743"><ele>329.3333333333333</ele><time>2026-04-26T14:48:56.925Z</time></trkpt><trkpt lat="43.6789927" lon="12.8090453"><ele>330.0</ele><time>2026-04-26T14:48:58.92Z</time></trkpt><trkpt lat="43.6789529" lon="12.8089222"><ele>330.6666666666667</ele><time>2026-04-26T14:49:00.92Z</time></trkpt><trkpt lat="43.6789304" lon="12.8088027"><ele>331.33333333333337</ele><time>2026-04-26T14:49:02.92Z</time></trkpt><trkpt lat="43.6789283" lon="12.8087106"><ele>332.0</ele><time>2026-04-26T14:49:04.921Z</time></trkpt><trkpt lat="43.6789415" lon="12.8086001"><ele>332.0</ele><time>2026-04-26T14:49:10.92Z</time></trkpt><trkpt lat="43.678935" lon="12.8085022"><ele>332.0</ele><time>2026-04-26T14:49:13.921Z</time></trkpt><trkpt lat="43.6789792" lon="12.8084386"><ele>328.0</ele><time>2026-04-26T14:49:19.929Z</time></trkpt></trkseg></trk></gpx>